<?xml version="1.0" encoding="UTF-8" standalone="no" ?>
<gpx xmlns="http://www.topografix.com/GPX/1/1" xmlns:xsi="http://www.w3.org/2001/XMLSchema-instance" xsi:schemaLocation="http://www.topografix.com/GPX/1/1 http://www.topografix.com/GPX/1/1/gpx.xsd" version="1.1" creator="VisuGPX - https://www.visugpx.com">
  <metadata>
    <name>Sortie VTT 12 août aurignac</name>
    <desc><![CDATA[Ghislaine, Bruno, Philippe]]></desc>
  </metadata>
  <trk>
    <name><![CDATA[12/08/201r2 8:28]]></name>
    <desc><![CDATA[]]></desc>
    <trkseg>
      <trkpt lat="43.21907" lon="0.87941">
        <ele>453</ele>
        <time>2012-08-12T06:28:54.000Z</time>
      </trkpt>
      <trkpt lat="43.21907" lon="0.87934">
        <ele>456</ele>
        <time>2012-08-12T06:33:07.000Z</time>
      </trkpt>
      <trkpt lat="43.21911" lon="0.87929">
        <ele>457</ele>
        <time>2012-08-12T06:33:10.000Z</time>
      </trkpt>
      <trkpt lat="43.21918" lon="0.87923">
        <ele>454</ele>
        <time>2012-08-12T06:33:13.000Z</time>
      </trkpt>
      <trkpt lat="43.21923" lon="0.87919">
        <ele>455</ele>
        <time>2012-08-12T06:33:15.000Z</time>
      </trkpt>
      <trkpt lat="43.21928" lon="0.87914">
        <ele>455</ele>
        <time>2012-08-12T06:33:17.000Z</time>
      </trkpt>
      <trkpt lat="43.21932" lon="0.8791">
        <ele>453</ele>
        <time>2012-08-12T06:33:19.000Z</time>
      </trkpt>
      <trkpt lat="43.21936" lon="0.87905">
        <ele>451</ele>
        <time>2012-08-12T06:33:21.000Z</time>
      </trkpt>
      <trkpt lat="43.21941" lon="0.87899">
        <ele>452</ele>
        <time>2012-08-12T06:33:23.000Z</time>
      </trkpt>
      <trkpt lat="43.21945" lon="0.87894">
        <ele>453</ele>
        <time>2012-08-12T06:33:25.000Z</time>
      </trkpt>
      <trkpt lat="43.2195" lon="0.87889">
        <ele>452</ele>
        <time>2012-08-12T06:33:27.000Z</time>
      </trkpt>
      <trkpt lat="43.21953" lon="0.87885">
        <ele>453</ele>
        <time>2012-08-12T06:33:29.000Z</time>
      </trkpt>
      <trkpt lat="43.21958" lon="0.8788">
        <ele>453</ele>
        <time>2012-08-12T06:33:31.000Z</time>
      </trkpt>
      <trkpt lat="43.21962" lon="0.87873">
        <ele>453</ele>
        <time>2012-08-12T06:33:33.000Z</time>
      </trkpt>
      <trkpt lat="43.21969" lon="0.87867">
        <ele>454</ele>
        <time>2012-08-12T06:33:35.000Z</time>
      </trkpt>
      <trkpt lat="43.21975" lon="0.87862">
        <ele>453</ele>
        <time>2012-08-12T06:33:37.000Z</time>
      </trkpt>
      <trkpt lat="43.21981" lon="0.87855">
        <ele>453</ele>
        <time>2012-08-12T06:33:39.000Z</time>
      </trkpt>
      <trkpt lat="43.21987" lon="0.87847">
        <ele>452</ele>
        <time>2012-08-12T06:33:41.000Z</time>
      </trkpt>
      <trkpt lat="43.21991" lon="0.87843">
        <ele>451</ele>
        <time>2012-08-12T06:33:42.000Z</time>
      </trkpt>
      <trkpt lat="43.21998" lon="0.87836">
        <ele>451</ele>
        <time>2012-08-12T06:33:44.000Z</time>
      </trkpt>
      <trkpt lat="43.22004" lon="0.87829">
        <ele>451</ele>
        <time>2012-08-12T06:33:46.000Z</time>
      </trkpt>
      <trkpt lat="43.22011" lon="0.87821">
        <ele>452</ele>
        <time>2012-08-12T06:33:48.000Z</time>
      </trkpt>
      <trkpt lat="43.22014" lon="0.87816">
        <ele>452</ele>
        <time>2012-08-12T06:33:49.000Z</time>
      </trkpt>
      <trkpt lat="43.22018" lon="0.87812">
        <ele>452</ele>
        <time>2012-08-12T06:33:50.000Z</time>
      </trkpt>
      <trkpt lat="43.22023" lon="0.87807">
        <ele>452</ele>
        <time>2012-08-12T06:33:51.000Z</time>
      </trkpt>
      <trkpt lat="43.22028" lon="0.87802">
        <ele>452</ele>
        <time>2012-08-12T06:33:52.000Z</time>
      </trkpt>
      <trkpt lat="43.22032" lon="0.87796">
        <ele>453</ele>
        <time>2012-08-12T06:33:53.000Z</time>
      </trkpt>
      <trkpt lat="43.22038" lon="0.87792">
        <ele>452</ele>
        <time>2012-08-12T06:33:54.000Z</time>
      </trkpt>
      <trkpt lat="43.22043" lon="0.87789">
        <ele>451</ele>
        <time>2012-08-12T06:33:55.000Z</time>
      </trkpt>
      <trkpt lat="43.22048" lon="0.87784">
        <ele>450</ele>
        <time>2012-08-12T06:33:56.000Z</time>
      </trkpt>
      <trkpt lat="43.22053" lon="0.87779">
        <ele>450</ele>
        <time>2012-08-12T06:33:57.000Z</time>
      </trkpt>
      <trkpt lat="43.22058" lon="0.87774">
        <ele>449</ele>
        <time>2012-08-12T06:33:58.000Z</time>
      </trkpt>
      <trkpt lat="43.22064" lon="0.8777">
        <ele>446</ele>
        <time>2012-08-12T06:33:59.000Z</time>
      </trkpt>
      <trkpt lat="43.22069" lon="0.87764">
        <ele>446</ele>
        <time>2012-08-12T06:34:00.000Z</time>
      </trkpt>
      <trkpt lat="43.22074" lon="0.8776">
        <ele>445</ele>
        <time>2012-08-12T06:34:01.000Z</time>
      </trkpt>
      <trkpt lat="43.22082" lon="0.87754">
        <ele>444</ele>
        <time>2012-08-12T06:34:02.000Z</time>
      </trkpt>
      <trkpt lat="43.22087" lon="0.87748">
        <ele>443</ele>
        <time>2012-08-12T06:34:03.000Z</time>
      </trkpt>
      <trkpt lat="43.22093" lon="0.87744">
        <ele>443</ele>
        <time>2012-08-12T06:34:04.000Z</time>
      </trkpt>
      <trkpt lat="43.22099" lon="0.87738">
        <ele>443</ele>
        <time>2012-08-12T06:34:05.000Z</time>
      </trkpt>
      <trkpt lat="43.22104" lon="0.87734">
        <ele>443</ele>
        <time>2012-08-12T06:34:06.000Z</time>
      </trkpt>
      <trkpt lat="43.22109" lon="0.8773">
        <ele>443</ele>
        <time>2012-08-12T06:34:07.000Z</time>
      </trkpt>
      <trkpt lat="43.22115" lon="0.87724">
        <ele>443</ele>
        <time>2012-08-12T06:34:08.000Z</time>
      </trkpt>
      <trkpt lat="43.22118" lon="0.8772">
        <ele>442</ele>
        <time>2012-08-12T06:34:09.000Z</time>
      </trkpt>
      <trkpt lat="43.22123" lon="0.87716">
        <ele>443</ele>
        <time>2012-08-12T06:34:10.000Z</time>
      </trkpt>
      <trkpt lat="43.22127" lon="0.87711">
        <ele>442</ele>
        <time>2012-08-12T06:34:11.000Z</time>
      </trkpt>
      <trkpt lat="43.22134" lon="0.87705">
        <ele>442</ele>
        <time>2012-08-12T06:34:13.000Z</time>
      </trkpt>
      <trkpt lat="43.22138" lon="0.87703">
        <ele>442</ele>
        <time>2012-08-12T06:34:14.000Z</time>
      </trkpt>
      <trkpt lat="43.22143" lon="0.87695">
        <ele>439</ele>
        <time>2012-08-12T06:34:16.000Z</time>
      </trkpt>
      <trkpt lat="43.22146" lon="0.87688">
        <ele>437</ele>
        <time>2012-08-12T06:34:18.000Z</time>
      </trkpt>
      <trkpt lat="43.22149" lon="0.87678">
        <ele>435</ele>
        <time>2012-08-12T06:34:20.000Z</time>
      </trkpt>
      <trkpt lat="43.2215" lon="0.87667">
        <ele>433</ele>
        <time>2012-08-12T06:34:22.000Z</time>
      </trkpt>
      <trkpt lat="43.2215" lon="0.87658">
        <ele>432</ele>
        <time>2012-08-12T06:34:24.000Z</time>
      </trkpt>
      <trkpt lat="43.22149" lon="0.87648">
        <ele>431</ele>
        <time>2012-08-12T06:34:26.000Z</time>
      </trkpt>
      <trkpt lat="43.22148" lon="0.87638">
        <ele>431</ele>
        <time>2012-08-12T06:34:28.000Z</time>
      </trkpt>
      <trkpt lat="43.22148" lon="0.87628">
        <ele>431</ele>
        <time>2012-08-12T06:34:30.000Z</time>
      </trkpt>
      <trkpt lat="43.22149" lon="0.87621">
        <ele>430</ele>
        <time>2012-08-12T06:34:32.000Z</time>
      </trkpt>
      <trkpt lat="43.22154" lon="0.8762">
        <ele>429</ele>
        <time>2012-08-12T06:34:34.000Z</time>
      </trkpt>
      <trkpt lat="43.22159" lon="0.87622">
        <ele>428</ele>
        <time>2012-08-12T06:34:35.000Z</time>
      </trkpt>
      <trkpt lat="43.22166" lon="0.87628">
        <ele>428</ele>
        <time>2012-08-12T06:34:37.000Z</time>
      </trkpt>
      <trkpt lat="43.22174" lon="0.87633">
        <ele>427</ele>
        <time>2012-08-12T06:34:38.000Z</time>
      </trkpt>
      <trkpt lat="43.2218" lon="0.87636">
        <ele>427</ele>
        <time>2012-08-12T06:34:39.000Z</time>
      </trkpt>
      <trkpt lat="43.22187" lon="0.8764">
        <ele>428</ele>
        <time>2012-08-12T06:34:40.000Z</time>
      </trkpt>
      <trkpt lat="43.22194" lon="0.87644">
        <ele>428</ele>
        <time>2012-08-12T06:34:41.000Z</time>
      </trkpt>
      <trkpt lat="43.222" lon="0.87648">
        <ele>428</ele>
        <time>2012-08-12T06:34:42.000Z</time>
      </trkpt>
      <trkpt lat="43.22206" lon="0.87653">
        <ele>427</ele>
        <time>2012-08-12T06:34:43.000Z</time>
      </trkpt>
      <trkpt lat="43.22212" lon="0.87656">
        <ele>425</ele>
        <time>2012-08-12T06:34:44.000Z</time>
      </trkpt>
      <trkpt lat="43.22218" lon="0.87659">
        <ele>424</ele>
        <time>2012-08-12T06:34:45.000Z</time>
      </trkpt>
      <trkpt lat="43.22224" lon="0.87662">
        <ele>422</ele>
        <time>2012-08-12T06:34:46.000Z</time>
      </trkpt>
      <trkpt lat="43.22228" lon="0.87664">
        <ele>421</ele>
        <time>2012-08-12T06:34:47.000Z</time>
      </trkpt>
      <trkpt lat="43.22233" lon="0.87665">
        <ele>420</ele>
        <time>2012-08-12T06:34:48.000Z</time>
      </trkpt>
      <trkpt lat="43.22238" lon="0.87667">
        <ele>418</ele>
        <time>2012-08-12T06:34:49.000Z</time>
      </trkpt>
      <trkpt lat="43.22242" lon="0.87671">
        <ele>415</ele>
        <time>2012-08-12T06:34:51.000Z</time>
      </trkpt>
      <trkpt lat="43.22246" lon="0.87676">
        <ele>413</ele>
        <time>2012-08-12T06:34:53.000Z</time>
      </trkpt>
      <trkpt lat="43.22248" lon="0.87681">
        <ele>412</ele>
        <time>2012-08-12T06:34:55.000Z</time>
      </trkpt>
      <trkpt lat="43.22253" lon="0.87689">
        <ele>411</ele>
        <time>2012-08-12T06:34:57.000Z</time>
      </trkpt>
      <trkpt lat="43.22256" lon="0.87694">
        <ele>410</ele>
        <time>2012-08-12T06:34:58.000Z</time>
      </trkpt>
      <trkpt lat="43.22262" lon="0.87701">
        <ele>410</ele>
        <time>2012-08-12T06:34:59.000Z</time>
      </trkpt>
      <trkpt lat="43.22267" lon="0.87707">
        <ele>409</ele>
        <time>2012-08-12T06:35:00.000Z</time>
      </trkpt>
      <trkpt lat="43.22274" lon="0.87715">
        <ele>408</ele>
        <time>2012-08-12T06:35:01.000Z</time>
      </trkpt>
      <trkpt lat="43.22286" lon="0.87724">
        <ele>407</ele>
        <time>2012-08-12T06:35:02.000Z</time>
      </trkpt>
      <trkpt lat="43.22298" lon="0.87738">
        <ele>406</ele>
        <time>2012-08-12T06:35:03.000Z</time>
      </trkpt>
      <trkpt lat="43.22307" lon="0.8775">
        <ele>405</ele>
        <time>2012-08-12T06:35:04.000Z</time>
      </trkpt>
      <trkpt lat="43.22316" lon="0.87761">
        <ele>403</ele>
        <time>2012-08-12T06:35:05.000Z</time>
      </trkpt>
      <trkpt lat="43.22325" lon="0.87773">
        <ele>403</ele>
        <time>2012-08-12T06:35:06.000Z</time>
      </trkpt>
      <trkpt lat="43.22334" lon="0.87785">
        <ele>402</ele>
        <time>2012-08-12T06:35:07.000Z</time>
      </trkpt>
      <trkpt lat="43.2234" lon="0.87794">
        <ele>401</ele>
        <time>2012-08-12T06:35:08.000Z</time>
      </trkpt>
      <trkpt lat="43.22346" lon="0.87804">
        <ele>402</ele>
        <time>2012-08-12T06:35:09.000Z</time>
      </trkpt>
      <trkpt lat="43.22352" lon="0.87812">
        <ele>402</ele>
        <time>2012-08-12T06:35:10.000Z</time>
      </trkpt>
      <trkpt lat="43.22359" lon="0.87821">
        <ele>402</ele>
        <time>2012-08-12T06:35:11.000Z</time>
      </trkpt>
      <trkpt lat="43.22364" lon="0.87829">
        <ele>402</ele>
        <time>2012-08-12T06:35:12.000Z</time>
      </trkpt>
      <trkpt lat="43.2237" lon="0.87838">
        <ele>402</ele>
        <time>2012-08-12T06:35:13.000Z</time>
      </trkpt>
      <trkpt lat="43.22376" lon="0.87845">
        <ele>402</ele>
        <time>2012-08-12T06:35:14.000Z</time>
      </trkpt>
      <trkpt lat="43.22381" lon="0.87853">
        <ele>402</ele>
        <time>2012-08-12T06:35:15.000Z</time>
      </trkpt>
      <trkpt lat="43.22386" lon="0.8786">
        <ele>403</ele>
        <time>2012-08-12T06:35:16.000Z</time>
      </trkpt>
      <trkpt lat="43.2239" lon="0.87868">
        <ele>404</ele>
        <time>2012-08-12T06:35:17.000Z</time>
      </trkpt>
      <trkpt lat="43.22394" lon="0.87875">
        <ele>404</ele>
        <time>2012-08-12T06:35:18.000Z</time>
      </trkpt>
      <trkpt lat="43.22398" lon="0.87882">
        <ele>405</ele>
        <time>2012-08-12T06:35:19.000Z</time>
      </trkpt>
      <trkpt lat="43.22401" lon="0.87889">
        <ele>405</ele>
        <time>2012-08-12T06:35:20.000Z</time>
      </trkpt>
      <trkpt lat="43.22404" lon="0.87896">
        <ele>406</ele>
        <time>2012-08-12T06:35:21.000Z</time>
      </trkpt>
      <trkpt lat="43.22408" lon="0.87902">
        <ele>406</ele>
        <time>2012-08-12T06:35:22.000Z</time>
      </trkpt>
      <trkpt lat="43.22412" lon="0.87908">
        <ele>406</ele>
        <time>2012-08-12T06:35:23.000Z</time>
      </trkpt>
      <trkpt lat="43.22417" lon="0.87914">
        <ele>406</ele>
        <time>2012-08-12T06:35:24.000Z</time>
      </trkpt>
      <trkpt lat="43.22422" lon="0.87919">
        <ele>406</ele>
        <time>2012-08-12T06:35:25.000Z</time>
      </trkpt>
      <trkpt lat="43.22426" lon="0.87924">
        <ele>406</ele>
        <time>2012-08-12T06:35:26.000Z</time>
      </trkpt>
      <trkpt lat="43.2243" lon="0.8793">
        <ele>406</ele>
        <time>2012-08-12T06:35:27.000Z</time>
      </trkpt>
      <trkpt lat="43.22433" lon="0.87936">
        <ele>406</ele>
        <time>2012-08-12T06:35:28.000Z</time>
      </trkpt>
      <trkpt lat="43.22438" lon="0.87942">
        <ele>406</ele>
        <time>2012-08-12T06:35:29.000Z</time>
      </trkpt>
      <trkpt lat="43.22441" lon="0.87947">
        <ele>406</ele>
        <time>2012-08-12T06:35:30.000Z</time>
      </trkpt>
      <trkpt lat="43.22444" lon="0.87952">
        <ele>406</ele>
        <time>2012-08-12T06:35:31.000Z</time>
      </trkpt>
      <trkpt lat="43.22451" lon="0.87956">
        <ele>407</ele>
        <time>2012-08-12T06:35:33.000Z</time>
      </trkpt>
      <trkpt lat="43.22456" lon="0.87951">
        <ele>407</ele>
        <time>2012-08-12T06:35:35.000Z</time>
      </trkpt>
      <trkpt lat="43.2246" lon="0.87943">
        <ele>407</ele>
        <time>2012-08-12T06:35:37.000Z</time>
      </trkpt>
      <trkpt lat="43.22462" lon="0.87934">
        <ele>407</ele>
        <time>2012-08-12T06:35:39.000Z</time>
      </trkpt>
      <trkpt lat="43.22464" lon="0.87924">
        <ele>407</ele>
        <time>2012-08-12T06:35:41.000Z</time>
      </trkpt>
      <trkpt lat="43.22466" lon="0.87917">
        <ele>407</ele>
        <time>2012-08-12T06:35:42.000Z</time>
      </trkpt>
      <trkpt lat="43.22468" lon="0.87906">
        <ele>407</ele>
        <time>2012-08-12T06:35:44.000Z</time>
      </trkpt>
      <trkpt lat="43.22469" lon="0.87899">
        <ele>407</ele>
        <time>2012-08-12T06:35:45.000Z</time>
      </trkpt>
      <trkpt lat="43.2247" lon="0.87891">
        <ele>406</ele>
        <time>2012-08-12T06:35:46.000Z</time>
      </trkpt>
      <trkpt lat="43.22472" lon="0.87883">
        <ele>407</ele>
        <time>2012-08-12T06:35:47.000Z</time>
      </trkpt>
      <trkpt lat="43.22475" lon="0.87876">
        <ele>406</ele>
        <time>2012-08-12T06:35:48.000Z</time>
      </trkpt>
      <trkpt lat="43.22476" lon="0.87869">
        <ele>406</ele>
        <time>2012-08-12T06:35:49.000Z</time>
      </trkpt>
      <trkpt lat="43.22476" lon="0.87862">
        <ele>406</ele>
        <time>2012-08-12T06:35:50.000Z</time>
      </trkpt>
      <trkpt lat="43.22478" lon="0.87855">
        <ele>406</ele>
        <time>2012-08-12T06:35:51.000Z</time>
      </trkpt>
      <trkpt lat="43.22479" lon="0.87849">
        <ele>405</ele>
        <time>2012-08-12T06:35:52.000Z</time>
      </trkpt>
      <trkpt lat="43.22481" lon="0.87842">
        <ele>404</ele>
        <time>2012-08-12T06:35:53.000Z</time>
      </trkpt>
      <trkpt lat="43.22484" lon="0.87835">
        <ele>404</ele>
        <time>2012-08-12T06:35:54.000Z</time>
      </trkpt>
      <trkpt lat="43.22487" lon="0.87824">
        <ele>403</ele>
        <time>2012-08-12T06:35:56.000Z</time>
      </trkpt>
      <trkpt lat="43.22489" lon="0.87817">
        <ele>403</ele>
        <time>2012-08-12T06:35:57.000Z</time>
      </trkpt>
      <trkpt lat="43.2249" lon="0.87809">
        <ele>403</ele>
        <time>2012-08-12T06:35:58.000Z</time>
      </trkpt>
      <trkpt lat="43.22491" lon="0.87803">
        <ele>403</ele>
        <time>2012-08-12T06:35:59.000Z</time>
      </trkpt>
      <trkpt lat="43.22493" lon="0.87795">
        <ele>403</ele>
        <time>2012-08-12T06:36:00.000Z</time>
      </trkpt>
      <trkpt lat="43.22496" lon="0.87788">
        <ele>403</ele>
        <time>2012-08-12T06:36:01.000Z</time>
      </trkpt>
      <trkpt lat="43.22497" lon="0.87781">
        <ele>402</ele>
        <time>2012-08-12T06:36:02.000Z</time>
      </trkpt>
      <trkpt lat="43.22499" lon="0.87775">
        <ele>402</ele>
        <time>2012-08-12T06:36:03.000Z</time>
      </trkpt>
      <trkpt lat="43.22502" lon="0.87768">
        <ele>402</ele>
        <time>2012-08-12T06:36:04.000Z</time>
      </trkpt>
      <trkpt lat="43.22505" lon="0.87765">
        <ele>401</ele>
        <time>2012-08-12T06:36:37.000Z</time>
      </trkpt>
      <trkpt lat="43.22509" lon="0.87756">
        <ele>401</ele>
        <time>2012-08-12T06:37:26.000Z</time>
      </trkpt>
      <trkpt lat="43.22514" lon="0.87748">
        <ele>402</ele>
        <time>2012-08-12T06:37:28.000Z</time>
      </trkpt>
      <trkpt lat="43.2252" lon="0.87739">
        <ele>401</ele>
        <time>2012-08-12T06:37:30.000Z</time>
      </trkpt>
      <trkpt lat="43.22526" lon="0.87731">
        <ele>401</ele>
        <time>2012-08-12T06:37:32.000Z</time>
      </trkpt>
      <trkpt lat="43.22532" lon="0.87723">
        <ele>401</ele>
        <time>2012-08-12T06:37:34.000Z</time>
      </trkpt>
      <trkpt lat="43.22537" lon="0.87716">
        <ele>401</ele>
        <time>2012-08-12T06:37:36.000Z</time>
      </trkpt>
      <trkpt lat="43.22543" lon="0.87709">
        <ele>401</ele>
        <time>2012-08-12T06:37:38.000Z</time>
      </trkpt>
      <trkpt lat="43.22547" lon="0.87704">
        <ele>401</ele>
        <time>2012-08-12T06:37:39.000Z</time>
      </trkpt>
      <trkpt lat="43.22554" lon="0.87697">
        <ele>401</ele>
        <time>2012-08-12T06:37:41.000Z</time>
      </trkpt>
      <trkpt lat="43.22561" lon="0.8769">
        <ele>402</ele>
        <time>2012-08-12T06:37:43.000Z</time>
      </trkpt>
      <trkpt lat="43.22568" lon="0.87683">
        <ele>403</ele>
        <time>2012-08-12T06:37:45.000Z</time>
      </trkpt>
      <trkpt lat="43.22571" lon="0.87679">
        <ele>404</ele>
        <time>2012-08-12T06:37:46.000Z</time>
      </trkpt>
      <trkpt lat="43.22576" lon="0.87671">
        <ele>404</ele>
        <time>2012-08-12T06:37:48.000Z</time>
      </trkpt>
      <trkpt lat="43.22582" lon="0.87663">
        <ele>404</ele>
        <time>2012-08-12T06:37:50.000Z</time>
      </trkpt>
      <trkpt lat="43.22588" lon="0.87656">
        <ele>404</ele>
        <time>2012-08-12T06:37:52.000Z</time>
      </trkpt>
      <trkpt lat="43.22595" lon="0.8765">
        <ele>404</ele>
        <time>2012-08-12T06:37:54.000Z</time>
      </trkpt>
      <trkpt lat="43.22599" lon="0.87646">
        <ele>404</ele>
        <time>2012-08-12T06:37:55.000Z</time>
      </trkpt>
      <trkpt lat="43.22606" lon="0.8764">
        <ele>404</ele>
        <time>2012-08-12T06:37:57.000Z</time>
      </trkpt>
      <trkpt lat="43.22609" lon="0.87635">
        <ele>404</ele>
        <time>2012-08-12T06:37:58.000Z</time>
      </trkpt>
      <trkpt lat="43.22615" lon="0.87627">
        <ele>403</ele>
        <time>2012-08-12T06:38:00.000Z</time>
      </trkpt>
      <trkpt lat="43.22619" lon="0.87623">
        <ele>403</ele>
        <time>2012-08-12T06:38:01.000Z</time>
      </trkpt>
      <trkpt lat="43.22626" lon="0.87615">
        <ele>404</ele>
        <time>2012-08-12T06:38:03.000Z</time>
      </trkpt>
      <trkpt lat="43.2263" lon="0.8761">
        <ele>405</ele>
        <time>2012-08-12T06:38:04.000Z</time>
      </trkpt>
      <trkpt lat="43.22637" lon="0.87603">
        <ele>404</ele>
        <time>2012-08-12T06:38:06.000Z</time>
      </trkpt>
      <trkpt lat="43.22644" lon="0.87596">
        <ele>405</ele>
        <time>2012-08-12T06:38:08.000Z</time>
      </trkpt>
      <trkpt lat="43.22648" lon="0.87591">
        <ele>405</ele>
        <time>2012-08-12T06:38:09.000Z</time>
      </trkpt>
      <trkpt lat="43.22654" lon="0.87584">
        <ele>406</ele>
        <time>2012-08-12T06:38:11.000Z</time>
      </trkpt>
      <trkpt lat="43.2266" lon="0.87575">
        <ele>406</ele>
        <time>2012-08-12T06:38:13.000Z</time>
      </trkpt>
      <trkpt lat="43.22664" lon="0.87571">
        <ele>406</ele>
        <time>2012-08-12T06:38:14.000Z</time>
      </trkpt>
      <trkpt lat="43.22667" lon="0.87567">
        <ele>406</ele>
        <time>2012-08-12T06:38:15.000Z</time>
      </trkpt>
      <trkpt lat="43.22671" lon="0.87562">
        <ele>406</ele>
        <time>2012-08-12T06:38:16.000Z</time>
      </trkpt>
      <trkpt lat="43.22678" lon="0.87554">
        <ele>406</ele>
        <time>2012-08-12T06:38:18.000Z</time>
      </trkpt>
      <trkpt lat="43.22681" lon="0.87549">
        <ele>406</ele>
        <time>2012-08-12T06:38:19.000Z</time>
      </trkpt>
      <trkpt lat="43.22688" lon="0.87542">
        <ele>406</ele>
        <time>2012-08-12T06:38:21.000Z</time>
      </trkpt>
      <trkpt lat="43.22694" lon="0.87534">
        <ele>406</ele>
        <time>2012-08-12T06:38:23.000Z</time>
      </trkpt>
      <trkpt lat="43.22701" lon="0.87527">
        <ele>406</ele>
        <time>2012-08-12T06:38:25.000Z</time>
      </trkpt>
      <trkpt lat="43.22704" lon="0.87523">
        <ele>406</ele>
        <time>2012-08-12T06:38:26.000Z</time>
      </trkpt>
      <trkpt lat="43.22708" lon="0.87519">
        <ele>407</ele>
        <time>2012-08-12T06:38:27.000Z</time>
      </trkpt>
      <trkpt lat="43.22711" lon="0.87515">
        <ele>406</ele>
        <time>2012-08-12T06:38:28.000Z</time>
      </trkpt>
      <trkpt lat="43.22716" lon="0.87511">
        <ele>406</ele>
        <time>2012-08-12T06:38:29.000Z</time>
      </trkpt>
      <trkpt lat="43.22723" lon="0.87504">
        <ele>406</ele>
        <time>2012-08-12T06:38:31.000Z</time>
      </trkpt>
      <trkpt lat="43.22728" lon="0.87498">
        <ele>405</ele>
        <time>2012-08-12T06:38:33.000Z</time>
      </trkpt>
      <trkpt lat="43.22734" lon="0.87492">
        <ele>406</ele>
        <time>2012-08-12T06:38:35.000Z</time>
      </trkpt>
      <trkpt lat="43.2274" lon="0.87487">
        <ele>407</ele>
        <time>2012-08-12T06:38:37.000Z</time>
      </trkpt>
      <trkpt lat="43.22745" lon="0.87482">
        <ele>407</ele>
        <time>2012-08-12T06:38:39.000Z</time>
      </trkpt>
      <trkpt lat="43.22749" lon="0.87477">
        <ele>407</ele>
        <time>2012-08-12T06:38:41.000Z</time>
      </trkpt>
      <trkpt lat="43.22755" lon="0.8747">
        <ele>406</ele>
        <time>2012-08-12T06:38:43.000Z</time>
      </trkpt>
      <trkpt lat="43.22761" lon="0.87464">
        <ele>406</ele>
        <time>2012-08-12T06:38:45.000Z</time>
      </trkpt>
      <trkpt lat="43.22764" lon="0.87457">
        <ele>407</ele>
        <time>2012-08-12T06:38:47.000Z</time>
      </trkpt>
      <trkpt lat="43.22768" lon="0.87452">
        <ele>408</ele>
        <time>2012-08-12T06:38:49.000Z</time>
      </trkpt>
      <trkpt lat="43.22775" lon="0.87449">
        <ele>406</ele>
        <time>2012-08-12T06:38:51.000Z</time>
      </trkpt>
      <trkpt lat="43.22782" lon="0.87448">
        <ele>406</ele>
        <time>2012-08-12T06:38:53.000Z</time>
      </trkpt>
      <trkpt lat="43.22788" lon="0.87449">
        <ele>407</ele>
        <time>2012-08-12T06:38:55.000Z</time>
      </trkpt>
      <trkpt lat="43.22787" lon="0.87458">
        <ele>406</ele>
        <time>2012-08-12T06:38:57.000Z</time>
      </trkpt>
      <trkpt lat="43.2279" lon="0.87468">
        <ele>406</ele>
        <time>2012-08-12T06:38:59.000Z</time>
      </trkpt>
      <trkpt lat="43.22791" lon="0.87478">
        <ele>407</ele>
        <time>2012-08-12T06:39:01.000Z</time>
      </trkpt>
      <trkpt lat="43.22793" lon="0.87486">
        <ele>407</ele>
        <time>2012-08-12T06:39:03.000Z</time>
      </trkpt>
      <trkpt lat="43.22794" lon="0.87492">
        <ele>408</ele>
        <time>2012-08-12T06:39:05.000Z</time>
      </trkpt>
      <trkpt lat="43.22798" lon="0.87502">
        <ele>409</ele>
        <time>2012-08-12T06:39:08.000Z</time>
      </trkpt>
      <trkpt lat="43.22799" lon="0.87509">
        <ele>409</ele>
        <time>2012-08-12T06:39:10.000Z</time>
      </trkpt>
      <trkpt lat="43.228" lon="0.87518">
        <ele>410</ele>
        <time>2012-08-12T06:39:12.000Z</time>
      </trkpt>
      <trkpt lat="43.22802" lon="0.87526">
        <ele>409</ele>
        <time>2012-08-12T06:39:14.000Z</time>
      </trkpt>
      <trkpt lat="43.22804" lon="0.87534">
        <ele>408</ele>
        <time>2012-08-12T06:39:16.000Z</time>
      </trkpt>
      <trkpt lat="43.22806" lon="0.8754">
        <ele>408</ele>
        <time>2012-08-12T06:39:18.000Z</time>
      </trkpt>
      <trkpt lat="43.22808" lon="0.87547">
        <ele>408</ele>
        <time>2012-08-12T06:39:21.000Z</time>
      </trkpt>
      <trkpt lat="43.22809" lon="0.87554">
        <ele>409</ele>
        <time>2012-08-12T06:39:24.000Z</time>
      </trkpt>
      <trkpt lat="43.2281" lon="0.87561">
        <ele>411</ele>
        <time>2012-08-12T06:39:27.000Z</time>
      </trkpt>
      <trkpt lat="43.22808" lon="0.87567">
        <ele>413</ele>
        <time>2012-08-12T06:39:29.000Z</time>
      </trkpt>
      <trkpt lat="43.22807" lon="0.87574">
        <ele>415</ele>
        <time>2012-08-12T06:39:31.000Z</time>
      </trkpt>
      <trkpt lat="43.22806" lon="0.87581">
        <ele>416</ele>
        <time>2012-08-12T06:39:33.000Z</time>
      </trkpt>
      <trkpt lat="43.22807" lon="0.87589">
        <ele>417</ele>
        <time>2012-08-12T06:39:35.000Z</time>
      </trkpt>
      <trkpt lat="43.2281" lon="0.87595">
        <ele>418</ele>
        <time>2012-08-12T06:39:37.000Z</time>
      </trkpt>
      <trkpt lat="43.22813" lon="0.876">
        <ele>419</ele>
        <time>2012-08-12T06:39:39.000Z</time>
      </trkpt>
      <trkpt lat="43.22818" lon="0.87604">
        <ele>420</ele>
        <time>2012-08-12T06:39:41.000Z</time>
      </trkpt>
      <trkpt lat="43.22824" lon="0.87602">
        <ele>422</ele>
        <time>2012-08-12T06:39:43.000Z</time>
      </trkpt>
      <trkpt lat="43.2283" lon="0.876">
        <ele>423</ele>
        <time>2012-08-12T06:39:45.000Z</time>
      </trkpt>
      <trkpt lat="43.22837" lon="0.87597">
        <ele>423</ele>
        <time>2012-08-12T06:39:47.000Z</time>
      </trkpt>
      <trkpt lat="43.22845" lon="0.87594">
        <ele>423</ele>
        <time>2012-08-12T06:39:49.000Z</time>
      </trkpt>
      <trkpt lat="43.22853" lon="0.87591">
        <ele>423</ele>
        <time>2012-08-12T06:39:51.000Z</time>
      </trkpt>
      <trkpt lat="43.22861" lon="0.8759">
        <ele>425</ele>
        <time>2012-08-12T06:39:53.000Z</time>
      </trkpt>
      <trkpt lat="43.22873" lon="0.8759">
        <ele>427</ele>
        <time>2012-08-12T06:39:56.000Z</time>
      </trkpt>
      <trkpt lat="43.22878" lon="0.87589">
        <ele>427</ele>
        <time>2012-08-12T06:39:57.000Z</time>
      </trkpt>
      <trkpt lat="43.22886" lon="0.87588">
        <ele>428</ele>
        <time>2012-08-12T06:39:59.000Z</time>
      </trkpt>
      <trkpt lat="43.22894" lon="0.87587">
        <ele>429</ele>
        <time>2012-08-12T06:40:01.000Z</time>
      </trkpt>
      <trkpt lat="43.22902" lon="0.87588">
        <ele>429</ele>
        <time>2012-08-12T06:40:03.000Z</time>
      </trkpt>
      <trkpt lat="43.2291" lon="0.8759">
        <ele>430</ele>
        <time>2012-08-12T06:40:05.000Z</time>
      </trkpt>
      <trkpt lat="43.22918" lon="0.87592">
        <ele>430</ele>
        <time>2012-08-12T06:40:07.000Z</time>
      </trkpt>
      <trkpt lat="43.22926" lon="0.87596">
        <ele>430</ele>
        <time>2012-08-12T06:40:09.000Z</time>
      </trkpt>
      <trkpt lat="43.22931" lon="0.87598">
        <ele>430</ele>
        <time>2012-08-12T06:40:10.000Z</time>
      </trkpt>
      <trkpt lat="43.2294" lon="0.87594">
        <ele>430</ele>
        <time>2012-08-12T06:40:12.000Z</time>
      </trkpt>
      <trkpt lat="43.22948" lon="0.87591">
        <ele>430</ele>
        <time>2012-08-12T06:40:14.000Z</time>
      </trkpt>
      <trkpt lat="43.22954" lon="0.8759">
        <ele>430</ele>
        <time>2012-08-12T06:40:15.000Z</time>
      </trkpt>
      <trkpt lat="43.22959" lon="0.87589">
        <ele>430</ele>
        <time>2012-08-12T06:40:16.000Z</time>
      </trkpt>
      <trkpt lat="43.22964" lon="0.87587">
        <ele>429</ele>
        <time>2012-08-12T06:40:17.000Z</time>
      </trkpt>
      <trkpt lat="43.2297" lon="0.87583">
        <ele>429</ele>
        <time>2012-08-12T06:40:18.000Z</time>
      </trkpt>
      <trkpt lat="43.22975" lon="0.87579">
        <ele>429</ele>
        <time>2012-08-12T06:40:19.000Z</time>
      </trkpt>
      <trkpt lat="43.22981" lon="0.87576">
        <ele>428</ele>
        <time>2012-08-12T06:40:20.000Z</time>
      </trkpt>
      <trkpt lat="43.22986" lon="0.87575">
        <ele>428</ele>
        <time>2012-08-12T06:40:21.000Z</time>
      </trkpt>
      <trkpt lat="43.22991" lon="0.87572">
        <ele>428</ele>
        <time>2012-08-12T06:40:22.000Z</time>
      </trkpt>
      <trkpt lat="43.22997" lon="0.87569">
        <ele>428</ele>
        <time>2012-08-12T06:40:23.000Z</time>
      </trkpt>
      <trkpt lat="43.23002" lon="0.87565">
        <ele>427</ele>
        <time>2012-08-12T06:40:24.000Z</time>
      </trkpt>
      <trkpt lat="43.23007" lon="0.87562">
        <ele>427</ele>
        <time>2012-08-12T06:40:25.000Z</time>
      </trkpt>
      <trkpt lat="43.23014" lon="0.8756">
        <ele>427</ele>
        <time>2012-08-12T06:40:26.000Z</time>
      </trkpt>
      <trkpt lat="43.23019" lon="0.87557">
        <ele>428</ele>
        <time>2012-08-12T06:40:27.000Z</time>
      </trkpt>
      <trkpt lat="43.23028" lon="0.8755">
        <ele>426</ele>
        <time>2012-08-12T06:40:29.000Z</time>
      </trkpt>
      <trkpt lat="43.23035" lon="0.87547">
        <ele>426</ele>
        <time>2012-08-12T06:40:30.000Z</time>
      </trkpt>
      <trkpt lat="43.23042" lon="0.87543">
        <ele>426</ele>
        <time>2012-08-12T06:40:31.000Z</time>
      </trkpt>
      <trkpt lat="43.23049" lon="0.8754">
        <ele>425</ele>
        <time>2012-08-12T06:40:32.000Z</time>
      </trkpt>
      <trkpt lat="43.23055" lon="0.87537">
        <ele>425</ele>
        <time>2012-08-12T06:40:33.000Z</time>
      </trkpt>
      <trkpt lat="43.2306" lon="0.87534">
        <ele>425</ele>
        <time>2012-08-12T06:40:34.000Z</time>
      </trkpt>
      <trkpt lat="43.23066" lon="0.87528">
        <ele>425</ele>
        <time>2012-08-12T06:40:35.000Z</time>
      </trkpt>
      <trkpt lat="43.23071" lon="0.87523">
        <ele>425</ele>
        <time>2012-08-12T06:40:36.000Z</time>
      </trkpt>
      <trkpt lat="43.23074" lon="0.87518">
        <ele>425</ele>
        <time>2012-08-12T06:40:37.000Z</time>
      </trkpt>
      <trkpt lat="43.23082" lon="0.8751">
        <ele>424</ele>
        <time>2012-08-12T06:40:39.000Z</time>
      </trkpt>
      <trkpt lat="43.23086" lon="0.87506">
        <ele>424</ele>
        <time>2012-08-12T06:40:40.000Z</time>
      </trkpt>
      <trkpt lat="43.23091" lon="0.87503">
        <ele>424</ele>
        <time>2012-08-12T06:40:41.000Z</time>
      </trkpt>
      <trkpt lat="43.23097" lon="0.87496">
        <ele>423</ele>
        <time>2012-08-12T06:40:42.000Z</time>
      </trkpt>
      <trkpt lat="43.23102" lon="0.87492">
        <ele>424</ele>
        <time>2012-08-12T06:40:43.000Z</time>
      </trkpt>
      <trkpt lat="43.23108" lon="0.87486">
        <ele>423</ele>
        <time>2012-08-12T06:40:44.000Z</time>
      </trkpt>
      <trkpt lat="43.23113" lon="0.8748">
        <ele>423</ele>
        <time>2012-08-12T06:40:45.000Z</time>
      </trkpt>
      <trkpt lat="43.23121" lon="0.87473">
        <ele>423</ele>
        <time>2012-08-12T06:40:47.000Z</time>
      </trkpt>
      <trkpt lat="43.23124" lon="0.87468">
        <ele>424</ele>
        <time>2012-08-12T06:40:48.000Z</time>
      </trkpt>
      <trkpt lat="43.23127" lon="0.87464">
        <ele>423</ele>
        <time>2012-08-12T06:40:49.000Z</time>
      </trkpt>
      <trkpt lat="43.23131" lon="0.87457">
        <ele>423</ele>
        <time>2012-08-12T06:40:51.000Z</time>
      </trkpt>
      <trkpt lat="43.23132" lon="0.87448">
        <ele>422</ele>
        <time>2012-08-12T06:40:53.000Z</time>
      </trkpt>
      <trkpt lat="43.23135" lon="0.87438">
        <ele>420</ele>
        <time>2012-08-12T06:40:55.000Z</time>
      </trkpt>
      <trkpt lat="43.23134" lon="0.87431">
        <ele>419</ele>
        <time>2012-08-12T06:40:56.000Z</time>
      </trkpt>
      <trkpt lat="43.23132" lon="0.87425">
        <ele>419</ele>
        <time>2012-08-12T06:40:57.000Z</time>
      </trkpt>
      <trkpt lat="43.23129" lon="0.87416">
        <ele>418</ele>
        <time>2012-08-12T06:40:58.000Z</time>
      </trkpt>
      <trkpt lat="43.23128" lon="0.87408">
        <ele>418</ele>
        <time>2012-08-12T06:40:59.000Z</time>
      </trkpt>
      <trkpt lat="43.23123" lon="0.87397">
        <ele>418</ele>
        <time>2012-08-12T06:41:01.000Z</time>
      </trkpt>
      <trkpt lat="43.2312" lon="0.8739">
        <ele>418</ele>
        <time>2012-08-12T06:41:03.000Z</time>
      </trkpt>
      <trkpt lat="43.23116" lon="0.87385">
        <ele>418</ele>
        <time>2012-08-12T06:41:04.000Z</time>
      </trkpt>
      <trkpt lat="43.23113" lon="0.87379">
        <ele>417</ele>
        <time>2012-08-12T06:41:06.000Z</time>
      </trkpt>
      <trkpt lat="43.23111" lon="0.8737">
        <ele>417</ele>
        <time>2012-08-12T06:41:08.000Z</time>
      </trkpt>
      <trkpt lat="43.23104" lon="0.87365">
        <ele>413</ele>
        <time>2012-08-12T06:41:09.000Z</time>
      </trkpt>
      <trkpt lat="43.23105" lon="0.87357">
        <ele>412</ele>
        <time>2012-08-12T06:41:12.000Z</time>
      </trkpt>
      <trkpt lat="43.23108" lon="0.87349">
        <ele>411</ele>
        <time>2012-08-12T06:41:15.000Z</time>
      </trkpt>
      <trkpt lat="43.23111" lon="0.87343">
        <ele>411</ele>
        <time>2012-08-12T06:41:17.000Z</time>
      </trkpt>
      <trkpt lat="43.23115" lon="0.87339">
        <ele>410</ele>
        <time>2012-08-12T06:41:19.000Z</time>
      </trkpt>
      <trkpt lat="43.23118" lon="0.87333">
        <ele>411</ele>
        <time>2012-08-12T06:41:21.000Z</time>
      </trkpt>
      <trkpt lat="43.23123" lon="0.8733">
        <ele>410</ele>
        <time>2012-08-12T06:41:23.000Z</time>
      </trkpt>
      <trkpt lat="43.23129" lon="0.87325">
        <ele>410</ele>
        <time>2012-08-12T06:41:25.000Z</time>
      </trkpt>
      <trkpt lat="43.23134" lon="0.87316">
        <ele>408</ele>
        <time>2012-08-12T06:41:27.000Z</time>
      </trkpt>
      <trkpt lat="43.23136" lon="0.87308">
        <ele>409</ele>
        <time>2012-08-12T06:41:29.000Z</time>
      </trkpt>
      <trkpt lat="43.23138" lon="0.87301">
        <ele>410</ele>
        <time>2012-08-12T06:41:31.000Z</time>
      </trkpt>
      <trkpt lat="43.2314" lon="0.87296">
        <ele>411</ele>
        <time>2012-08-12T06:41:33.000Z</time>
      </trkpt>
      <trkpt lat="43.23143" lon="0.8729">
        <ele>410</ele>
        <time>2012-08-12T06:41:35.000Z</time>
      </trkpt>
      <trkpt lat="43.23148" lon="0.87286">
        <ele>409</ele>
        <time>2012-08-12T06:41:39.000Z</time>
      </trkpt>
      <trkpt lat="43.23152" lon="0.8728">
        <ele>408</ele>
        <time>2012-08-12T06:41:43.000Z</time>
      </trkpt>
      <trkpt lat="43.23156" lon="0.87274">
        <ele>408</ele>
        <time>2012-08-12T06:41:46.000Z</time>
      </trkpt>
      <trkpt lat="43.23158" lon="0.87268">
        <ele>409</ele>
        <time>2012-08-12T06:41:50.000Z</time>
      </trkpt>
      <trkpt lat="43.23162" lon="0.87264">
        <ele>409</ele>
        <time>2012-08-12T06:41:54.000Z</time>
      </trkpt>
      <trkpt lat="43.23166" lon="0.87259">
        <ele>408</ele>
        <time>2012-08-12T06:41:57.000Z</time>
      </trkpt>
      <trkpt lat="43.23169" lon="0.87253">
        <ele>409</ele>
        <time>2012-08-12T06:41:59.000Z</time>
      </trkpt>
      <trkpt lat="43.23173" lon="0.87246">
        <ele>410</ele>
        <time>2012-08-12T06:42:02.000Z</time>
      </trkpt>
      <trkpt lat="43.23175" lon="0.8724">
        <ele>410</ele>
        <time>2012-08-12T06:42:04.000Z</time>
      </trkpt>
      <trkpt lat="43.23178" lon="0.87233">
        <ele>410</ele>
        <time>2012-08-12T06:42:06.000Z</time>
      </trkpt>
      <trkpt lat="43.23178" lon="0.87226">
        <ele>410</ele>
        <time>2012-08-12T06:42:08.000Z</time>
      </trkpt>
      <trkpt lat="43.23181" lon="0.87221">
        <ele>410</ele>
        <time>2012-08-12T06:42:10.000Z</time>
      </trkpt>
      <trkpt lat="43.23184" lon="0.87212">
        <ele>410</ele>
        <time>2012-08-12T06:42:12.000Z</time>
      </trkpt>
      <trkpt lat="43.23182" lon="0.87202">
        <ele>409</ele>
        <time>2012-08-12T06:42:14.000Z</time>
      </trkpt>
      <trkpt lat="43.23179" lon="0.87193">
        <ele>410</ele>
        <time>2012-08-12T06:42:16.000Z</time>
      </trkpt>
      <trkpt lat="43.23175" lon="0.87186">
        <ele>411</ele>
        <time>2012-08-12T06:42:18.000Z</time>
      </trkpt>
      <trkpt lat="43.23171" lon="0.87181">
        <ele>412</ele>
        <time>2012-08-12T06:42:21.000Z</time>
      </trkpt>
      <trkpt lat="43.2317" lon="0.87174">
        <ele>412</ele>
        <time>2012-08-12T06:42:24.000Z</time>
      </trkpt>
      <trkpt lat="43.23169" lon="0.87167">
        <ele>412</ele>
        <time>2012-08-12T06:42:27.000Z</time>
      </trkpt>
      <trkpt lat="43.23168" lon="0.87159">
        <ele>412</ele>
        <time>2012-08-12T06:42:30.000Z</time>
      </trkpt>
      <trkpt lat="43.23165" lon="0.87154">
        <ele>412</ele>
        <time>2012-08-12T06:42:33.000Z</time>
      </trkpt>
      <trkpt lat="43.23165" lon="0.87154">
        <ele>412</ele>
        <time>2012-08-12T06:42:33.000Z</time>
      </trkpt>
      <trkpt lat="43.23165" lon="0.87154">
        <ele>412</ele>
        <time>2012-08-12T06:42:34.000Z</time>
      </trkpt>
      <trkpt lat="43.23165" lon="0.87146">
        <ele>413</ele>
        <time>2012-08-12T06:42:43.000Z</time>
      </trkpt>
      <trkpt lat="43.23165" lon="0.87139">
        <ele>415</ele>
        <time>2012-08-12T06:42:49.000Z</time>
      </trkpt>
      <trkpt lat="43.23164" lon="0.87132">
        <ele>416</ele>
        <time>2012-08-12T06:42:53.000Z</time>
      </trkpt>
      <trkpt lat="43.23161" lon="0.87127">
        <ele>417</ele>
        <time>2012-08-12T06:42:59.000Z</time>
      </trkpt>
      <trkpt lat="43.23159" lon="0.87121">
        <ele>418</ele>
        <time>2012-08-12T06:43:03.000Z</time>
      </trkpt>
      <trkpt lat="43.23159" lon="0.87114">
        <ele>419</ele>
        <time>2012-08-12T06:43:10.000Z</time>
      </trkpt>
      <trkpt lat="43.23159" lon="0.87108">
        <ele>418</ele>
        <time>2012-08-12T06:43:15.000Z</time>
      </trkpt>
      <trkpt lat="43.23158" lon="0.87102">
        <ele>418</ele>
        <time>2012-08-12T06:43:19.000Z</time>
      </trkpt>
      <trkpt lat="43.23156" lon="0.87095">
        <ele>419</ele>
        <time>2012-08-12T06:43:24.000Z</time>
      </trkpt>
      <trkpt lat="43.23154" lon="0.87088">
        <ele>422</ele>
        <time>2012-08-12T06:43:32.000Z</time>
      </trkpt>
      <trkpt lat="43.23154" lon="0.87082">
        <ele>425</ele>
        <time>2012-08-12T06:43:38.000Z</time>
      </trkpt>
      <trkpt lat="43.23153" lon="0.87075">
        <ele>428</ele>
        <time>2012-08-12T06:44:02.000Z</time>
      </trkpt>
      <trkpt lat="43.23158" lon="0.87072">
        <ele>429</ele>
        <time>2012-08-12T06:44:04.000Z</time>
      </trkpt>
      <trkpt lat="43.23162" lon="0.87068">
        <ele>430</ele>
        <time>2012-08-12T06:44:06.000Z</time>
      </trkpt>
      <trkpt lat="43.23166" lon="0.87064">
        <ele>431</ele>
        <time>2012-08-12T06:44:09.000Z</time>
      </trkpt>
      <trkpt lat="43.23168" lon="0.87058">
        <ele>431</ele>
        <time>2012-08-12T06:44:12.000Z</time>
      </trkpt>
      <trkpt lat="43.23172" lon="0.87054">
        <ele>432</ele>
        <time>2012-08-12T06:44:15.000Z</time>
      </trkpt>
      <trkpt lat="43.23175" lon="0.87049">
        <ele>432</ele>
        <time>2012-08-12T06:44:18.000Z</time>
      </trkpt>
      <trkpt lat="43.23178" lon="0.87045">
        <ele>432</ele>
        <time>2012-08-12T06:44:21.000Z</time>
      </trkpt>
      <trkpt lat="43.23182" lon="0.87039">
        <ele>432</ele>
        <time>2012-08-12T06:44:24.000Z</time>
      </trkpt>
      <trkpt lat="43.23187" lon="0.87036">
        <ele>433</ele>
        <time>2012-08-12T06:44:27.000Z</time>
      </trkpt>
      <trkpt lat="43.23192" lon="0.87031">
        <ele>434</ele>
        <time>2012-08-12T06:44:31.000Z</time>
      </trkpt>
      <trkpt lat="43.23196" lon="0.87027">
        <ele>435</ele>
        <time>2012-08-12T06:44:34.000Z</time>
      </trkpt>
      <trkpt lat="43.232" lon="0.87023">
        <ele>435</ele>
        <time>2012-08-12T06:44:36.000Z</time>
      </trkpt>
      <trkpt lat="43.23203" lon="0.87017">
        <ele>435</ele>
        <time>2012-08-12T06:44:39.000Z</time>
      </trkpt>
      <trkpt lat="43.23205" lon="0.87011">
        <ele>435</ele>
        <time>2012-08-12T06:44:42.000Z</time>
      </trkpt>
      <trkpt lat="43.2321" lon="0.87007">
        <ele>436</ele>
        <time>2012-08-12T06:44:46.000Z</time>
      </trkpt>
      <trkpt lat="43.23213" lon="0.87003">
        <ele>436</ele>
        <time>2012-08-12T06:44:49.000Z</time>
      </trkpt>
      <trkpt lat="43.23218" lon="0.86998">
        <ele>438</ele>
        <time>2012-08-12T06:44:55.000Z</time>
      </trkpt>
      <trkpt lat="43.23222" lon="0.86997">
        <ele>438</ele>
        <time>2012-08-12T06:44:57.000Z</time>
      </trkpt>
      <trkpt lat="43.23229" lon="0.86993">
        <ele>438</ele>
        <time>2012-08-12T06:44:59.000Z</time>
      </trkpt>
      <trkpt lat="43.23233" lon="0.86989">
        <ele>438</ele>
        <time>2012-08-12T06:45:00.000Z</time>
      </trkpt>
      <trkpt lat="43.23238" lon="0.86985">
        <ele>439</ele>
        <time>2012-08-12T06:45:01.000Z</time>
      </trkpt>
      <trkpt lat="43.23244" lon="0.8698">
        <ele>438</ele>
        <time>2012-08-12T06:45:02.000Z</time>
      </trkpt>
      <trkpt lat="43.23252" lon="0.86975">
        <ele>438</ele>
        <time>2012-08-12T06:45:03.000Z</time>
      </trkpt>
      <trkpt lat="43.23259" lon="0.86972">
        <ele>438</ele>
        <time>2012-08-12T06:45:04.000Z</time>
      </trkpt>
      <trkpt lat="43.23265" lon="0.8697">
        <ele>438</ele>
        <time>2012-08-12T06:45:05.000Z</time>
      </trkpt>
      <trkpt lat="43.23272" lon="0.86969">
        <ele>439</ele>
        <time>2012-08-12T06:45:07.000Z</time>
      </trkpt>
      <trkpt lat="43.23278" lon="0.86972">
        <ele>439</ele>
        <time>2012-08-12T06:45:08.000Z</time>
      </trkpt>
      <trkpt lat="43.23282" lon="0.86976">
        <ele>440</ele>
        <time>2012-08-12T06:45:09.000Z</time>
      </trkpt>
      <trkpt lat="43.23286" lon="0.86979">
        <ele>440</ele>
        <time>2012-08-12T06:45:10.000Z</time>
      </trkpt>
      <trkpt lat="43.23293" lon="0.86984">
        <ele>441</ele>
        <time>2012-08-12T06:45:12.000Z</time>
      </trkpt>
      <trkpt lat="43.233" lon="0.86986">
        <ele>442</ele>
        <time>2012-08-12T06:45:14.000Z</time>
      </trkpt>
      <trkpt lat="43.23305" lon="0.86986">
        <ele>442</ele>
        <time>2012-08-12T06:45:15.000Z</time>
      </trkpt>
      <trkpt lat="43.2331" lon="0.86986">
        <ele>441</ele>
        <time>2012-08-12T06:45:16.000Z</time>
      </trkpt>
      <trkpt lat="43.23317" lon="0.86987">
        <ele>441</ele>
        <time>2012-08-12T06:45:18.000Z</time>
      </trkpt>
      <trkpt lat="43.23323" lon="0.86987">
        <ele>441</ele>
        <time>2012-08-12T06:45:20.000Z</time>
      </trkpt>
      <trkpt lat="43.23329" lon="0.86984">
        <ele>441</ele>
        <time>2012-08-12T06:45:22.000Z</time>
      </trkpt>
      <trkpt lat="43.23335" lon="0.86982">
        <ele>441</ele>
        <time>2012-08-12T06:45:24.000Z</time>
      </trkpt>
      <trkpt lat="43.2334" lon="0.8698">
        <ele>441</ele>
        <time>2012-08-12T06:45:26.000Z</time>
      </trkpt>
      <trkpt lat="43.23346" lon="0.86976">
        <ele>440</ele>
        <time>2012-08-12T06:45:28.000Z</time>
      </trkpt>
      <trkpt lat="43.23353" lon="0.86974">
        <ele>440</ele>
        <time>2012-08-12T06:45:30.000Z</time>
      </trkpt>
      <trkpt lat="43.23362" lon="0.86967">
        <ele>439</ele>
        <time>2012-08-12T06:45:32.000Z</time>
      </trkpt>
      <trkpt lat="43.23368" lon="0.86962">
        <ele>438</ele>
        <time>2012-08-12T06:45:34.000Z</time>
      </trkpt>
      <trkpt lat="43.23376" lon="0.86957">
        <ele>439</ele>
        <time>2012-08-12T06:45:36.000Z</time>
      </trkpt>
      <trkpt lat="43.23382" lon="0.86955">
        <ele>440</ele>
        <time>2012-08-12T06:45:38.000Z</time>
      </trkpt>
      <trkpt lat="43.23389" lon="0.86952">
        <ele>440</ele>
        <time>2012-08-12T06:45:40.000Z</time>
      </trkpt>
      <trkpt lat="43.23396" lon="0.8695">
        <ele>440</ele>
        <time>2012-08-12T06:45:42.000Z</time>
      </trkpt>
      <trkpt lat="43.23401" lon="0.86946">
        <ele>440</ele>
        <time>2012-08-12T06:45:44.000Z</time>
      </trkpt>
      <trkpt lat="43.23406" lon="0.86943">
        <ele>441</ele>
        <time>2012-08-12T06:45:46.000Z</time>
      </trkpt>
      <trkpt lat="43.23413" lon="0.86939">
        <ele>439</ele>
        <time>2012-08-12T06:45:48.000Z</time>
      </trkpt>
      <trkpt lat="43.23419" lon="0.86934">
        <ele>439</ele>
        <time>2012-08-12T06:45:50.000Z</time>
      </trkpt>
      <trkpt lat="43.23429" lon="0.86927">
        <ele>439</ele>
        <time>2012-08-12T06:45:52.000Z</time>
      </trkpt>
      <trkpt lat="43.23433" lon="0.86923">
        <ele>439</ele>
        <time>2012-08-12T06:45:53.000Z</time>
      </trkpt>
      <trkpt lat="43.2344" lon="0.86917">
        <ele>439</ele>
        <time>2012-08-12T06:45:55.000Z</time>
      </trkpt>
      <trkpt lat="43.23445" lon="0.86912">
        <ele>439</ele>
        <time>2012-08-12T06:45:56.000Z</time>
      </trkpt>
      <trkpt lat="43.23455" lon="0.86903">
        <ele>439</ele>
        <time>2012-08-12T06:45:58.000Z</time>
      </trkpt>
      <trkpt lat="43.2346" lon="0.86898">
        <ele>439</ele>
        <time>2012-08-12T06:45:59.000Z</time>
      </trkpt>
      <trkpt lat="43.23463" lon="0.86893">
        <ele>439</ele>
        <time>2012-08-12T06:46:00.000Z</time>
      </trkpt>
      <trkpt lat="43.23467" lon="0.86886">
        <ele>440</ele>
        <time>2012-08-12T06:46:02.000Z</time>
      </trkpt>
      <trkpt lat="43.2347" lon="0.86881">
        <ele>440</ele>
        <time>2012-08-12T06:46:04.000Z</time>
      </trkpt>
      <trkpt lat="43.23472" lon="0.86875">
        <ele>441</ele>
        <time>2012-08-12T06:46:06.000Z</time>
      </trkpt>
      <trkpt lat="43.23474" lon="0.86866">
        <ele>441</ele>
        <time>2012-08-12T06:46:08.000Z</time>
      </trkpt>
      <trkpt lat="43.23475" lon="0.86856">
        <ele>441</ele>
        <time>2012-08-12T06:46:10.000Z</time>
      </trkpt>
      <trkpt lat="43.23475" lon="0.86848">
        <ele>440</ele>
        <time>2012-08-12T06:46:12.000Z</time>
      </trkpt>
      <trkpt lat="43.23477" lon="0.86842">
        <ele>440</ele>
        <time>2012-08-12T06:46:14.000Z</time>
      </trkpt>
      <trkpt lat="43.2348" lon="0.86835">
        <ele>440</ele>
        <time>2012-08-12T06:46:17.000Z</time>
      </trkpt>
      <trkpt lat="43.23484" lon="0.86828">
        <ele>441</ele>
        <time>2012-08-12T06:46:21.000Z</time>
      </trkpt>
      <trkpt lat="43.23486" lon="0.86821">
        <ele>443</ele>
        <time>2012-08-12T06:46:25.000Z</time>
      </trkpt>
      <trkpt lat="43.23488" lon="0.86813">
        <ele>444</ele>
        <time>2012-08-12T06:46:29.000Z</time>
      </trkpt>
      <trkpt lat="43.2349" lon="0.86807">
        <ele>446</ele>
        <time>2012-08-12T06:46:32.000Z</time>
      </trkpt>
      <trkpt lat="43.23492" lon="0.868">
        <ele>448</ele>
        <time>2012-08-12T06:46:36.000Z</time>
      </trkpt>
      <trkpt lat="43.23495" lon="0.86794">
        <ele>450</ele>
        <time>2012-08-12T06:46:41.000Z</time>
      </trkpt>
      <trkpt lat="43.23498" lon="0.86787">
        <ele>450</ele>
        <time>2012-08-12T06:46:45.000Z</time>
      </trkpt>
      <trkpt lat="43.23501" lon="0.86781">
        <ele>451</ele>
        <time>2012-08-12T06:46:49.000Z</time>
      </trkpt>
      <trkpt lat="43.23502" lon="0.86774">
        <ele>451</ele>
        <time>2012-08-12T06:46:52.000Z</time>
      </trkpt>
      <trkpt lat="43.23499" lon="0.86769">
        <ele>450</ele>
        <time>2012-08-12T06:46:54.000Z</time>
      </trkpt>
      <trkpt lat="43.23494" lon="0.86766">
        <ele>451</ele>
        <time>2012-08-12T06:46:58.000Z</time>
      </trkpt>
      <trkpt lat="43.23489" lon="0.86766">
        <ele>452</ele>
        <time>2012-08-12T06:47:02.000Z</time>
      </trkpt>
      <trkpt lat="43.23484" lon="0.86766">
        <ele>453</ele>
        <time>2012-08-12T06:47:06.000Z</time>
      </trkpt>
      <trkpt lat="43.23484" lon="0.86759">
        <ele>453</ele>
        <time>2012-08-12T06:47:09.000Z</time>
      </trkpt>
      <trkpt lat="43.23485" lon="0.86749">
        <ele>453</ele>
        <time>2012-08-12T06:47:12.000Z</time>
      </trkpt>
      <trkpt lat="43.23488" lon="0.86739">
        <ele>453</ele>
        <time>2012-08-12T06:47:14.000Z</time>
      </trkpt>
      <trkpt lat="43.23489" lon="0.86726">
        <ele>451</ele>
        <time>2012-08-12T06:47:16.000Z</time>
      </trkpt>
      <trkpt lat="43.2349" lon="0.86715">
        <ele>449</ele>
        <time>2012-08-12T06:47:18.000Z</time>
      </trkpt>
      <trkpt lat="43.23491" lon="0.86703">
        <ele>448</ele>
        <time>2012-08-12T06:47:20.000Z</time>
      </trkpt>
      <trkpt lat="43.23496" lon="0.86694">
        <ele>446</ele>
        <time>2012-08-12T06:47:22.000Z</time>
      </trkpt>
      <trkpt lat="43.235" lon="0.86685">
        <ele>444</ele>
        <time>2012-08-12T06:47:24.000Z</time>
      </trkpt>
      <trkpt lat="43.23503" lon="0.86674">
        <ele>442</ele>
        <time>2012-08-12T06:47:26.000Z</time>
      </trkpt>
      <trkpt lat="43.23503" lon="0.86664">
        <ele>441</ele>
        <time>2012-08-12T06:47:28.000Z</time>
      </trkpt>
      <trkpt lat="43.23504" lon="0.86658">
        <ele>440</ele>
        <time>2012-08-12T06:47:30.000Z</time>
      </trkpt>
      <trkpt lat="43.23508" lon="0.86654">
        <ele>440</ele>
        <time>2012-08-12T06:47:33.000Z</time>
      </trkpt>
      <trkpt lat="43.23516" lon="0.86652">
        <ele>440</ele>
        <time>2012-08-12T06:47:36.000Z</time>
      </trkpt>
      <trkpt lat="43.23521" lon="0.86645">
        <ele>439</ele>
        <time>2012-08-12T06:47:38.000Z</time>
      </trkpt>
      <trkpt lat="43.23524" lon="0.86641">
        <ele>439</ele>
        <time>2012-08-12T06:47:39.000Z</time>
      </trkpt>
      <trkpt lat="43.23528" lon="0.86636">
        <ele>437</ele>
        <time>2012-08-12T06:47:40.000Z</time>
      </trkpt>
      <trkpt lat="43.23535" lon="0.86627">
        <ele>437</ele>
        <time>2012-08-12T06:47:42.000Z</time>
      </trkpt>
      <trkpt lat="43.23542" lon="0.86622">
        <ele>436</ele>
        <time>2012-08-12T06:47:44.000Z</time>
      </trkpt>
      <trkpt lat="43.23546" lon="0.86612">
        <ele>436</ele>
        <time>2012-08-12T06:47:46.000Z</time>
      </trkpt>
      <trkpt lat="43.23551" lon="0.86603">
        <ele>436</ele>
        <time>2012-08-12T06:47:48.000Z</time>
      </trkpt>
      <trkpt lat="43.23555" lon="0.86594">
        <ele>434</ele>
        <time>2012-08-12T06:47:49.000Z</time>
      </trkpt>
      <trkpt lat="43.23557" lon="0.86589">
        <ele>433</ele>
        <time>2012-08-12T06:47:50.000Z</time>
      </trkpt>
      <trkpt lat="43.23559" lon="0.86582">
        <ele>433</ele>
        <time>2012-08-12T06:47:51.000Z</time>
      </trkpt>
      <trkpt lat="43.23562" lon="0.86576">
        <ele>433</ele>
        <time>2012-08-12T06:47:52.000Z</time>
      </trkpt>
      <trkpt lat="43.23562" lon="0.86569">
        <ele>432</ele>
        <time>2012-08-12T06:47:53.000Z</time>
      </trkpt>
      <trkpt lat="43.23563" lon="0.86563">
        <ele>431</ele>
        <time>2012-08-12T06:47:54.000Z</time>
      </trkpt>
      <trkpt lat="43.23562" lon="0.86552">
        <ele>429</ele>
        <time>2012-08-12T06:47:57.000Z</time>
      </trkpt>
      <trkpt lat="43.23557" lon="0.86549">
        <ele>428</ele>
        <time>2012-08-12T06:48:02.000Z</time>
      </trkpt>
      <trkpt lat="43.23554" lon="0.86543">
        <ele>432</ele>
        <time>2012-08-12T06:48:27.000Z</time>
      </trkpt>
      <trkpt lat="43.2355" lon="0.86537">
        <ele>432</ele>
        <time>2012-08-12T06:48:29.000Z</time>
      </trkpt>
      <trkpt lat="43.23547" lon="0.86528">
        <ele>432</ele>
        <time>2012-08-12T06:48:31.000Z</time>
      </trkpt>
      <trkpt lat="43.23543" lon="0.8652">
        <ele>432</ele>
        <time>2012-08-12T06:48:33.000Z</time>
      </trkpt>
      <trkpt lat="43.23538" lon="0.86512">
        <ele>433</ele>
        <time>2012-08-12T06:48:35.000Z</time>
      </trkpt>
      <trkpt lat="43.23533" lon="0.86508">
        <ele>433</ele>
        <time>2012-08-12T06:48:37.000Z</time>
      </trkpt>
      <trkpt lat="43.23527" lon="0.86506">
        <ele>432</ele>
        <time>2012-08-12T06:48:39.000Z</time>
      </trkpt>
      <trkpt lat="43.23522" lon="0.86506">
        <ele>431</ele>
        <time>2012-08-12T06:48:41.000Z</time>
      </trkpt>
      <trkpt lat="43.23518" lon="0.86508">
        <ele>431</ele>
        <time>2012-08-12T06:48:43.000Z</time>
      </trkpt>
      <trkpt lat="43.23513" lon="0.86512">
        <ele>431</ele>
        <time>2012-08-12T06:48:46.000Z</time>
      </trkpt>
      <trkpt lat="43.23507" lon="0.86516">
        <ele>431</ele>
        <time>2012-08-12T06:48:50.000Z</time>
      </trkpt>
      <trkpt lat="43.23497" lon="0.86516">
        <ele>432</ele>
        <time>2012-08-12T06:48:54.000Z</time>
      </trkpt>
      <trkpt lat="43.23489" lon="0.86517">
        <ele>433</ele>
        <time>2012-08-12T06:48:56.000Z</time>
      </trkpt>
      <trkpt lat="43.23483" lon="0.8652">
        <ele>433</ele>
        <time>2012-08-12T06:48:58.000Z</time>
      </trkpt>
      <trkpt lat="43.23478" lon="0.86522">
        <ele>433</ele>
        <time>2012-08-12T06:49:00.000Z</time>
      </trkpt>
      <trkpt lat="43.23473" lon="0.86524">
        <ele>432</ele>
        <time>2012-08-12T06:49:02.000Z</time>
      </trkpt>
      <trkpt lat="43.23468" lon="0.86524">
        <ele>430</ele>
        <time>2012-08-12T06:49:04.000Z</time>
      </trkpt>
      <trkpt lat="43.23463" lon="0.86523">
        <ele>431</ele>
        <time>2012-08-12T06:49:06.000Z</time>
      </trkpt>
      <trkpt lat="43.23456" lon="0.86522">
        <ele>431</ele>
        <time>2012-08-12T06:49:09.000Z</time>
      </trkpt>
      <trkpt lat="43.2345" lon="0.86522">
        <ele>432</ele>
        <time>2012-08-12T06:49:11.000Z</time>
      </trkpt>
      <trkpt lat="43.23443" lon="0.86523">
        <ele>432</ele>
        <time>2012-08-12T06:49:14.000Z</time>
      </trkpt>
      <trkpt lat="43.23438" lon="0.86523">
        <ele>432</ele>
        <time>2012-08-12T06:49:16.000Z</time>
      </trkpt>
      <trkpt lat="43.23432" lon="0.86523">
        <ele>432</ele>
        <time>2012-08-12T06:49:18.000Z</time>
      </trkpt>
      <trkpt lat="43.23426" lon="0.86522">
        <ele>431</ele>
        <time>2012-08-12T06:49:20.000Z</time>
      </trkpt>
      <trkpt lat="43.2342" lon="0.86522">
        <ele>431</ele>
        <time>2012-08-12T06:49:22.000Z</time>
      </trkpt>
      <trkpt lat="43.23414" lon="0.86522">
        <ele>431</ele>
        <time>2012-08-12T06:49:24.000Z</time>
      </trkpt>
      <trkpt lat="43.23407" lon="0.86525">
        <ele>431</ele>
        <time>2012-08-12T06:49:26.000Z</time>
      </trkpt>
      <trkpt lat="43.23402" lon="0.86528">
        <ele>431</ele>
        <time>2012-08-12T06:49:28.000Z</time>
      </trkpt>
      <trkpt lat="43.23397" lon="0.8653">
        <ele>431</ele>
        <time>2012-08-12T06:49:30.000Z</time>
      </trkpt>
      <trkpt lat="43.23392" lon="0.86529">
        <ele>431</ele>
        <time>2012-08-12T06:49:32.000Z</time>
      </trkpt>
      <trkpt lat="43.23386" lon="0.86529">
        <ele>431</ele>
        <time>2012-08-12T06:49:34.000Z</time>
      </trkpt>
      <trkpt lat="43.23381" lon="0.8653">
        <ele>431</ele>
        <time>2012-08-12T06:49:36.000Z</time>
      </trkpt>
      <trkpt lat="43.23375" lon="0.8653">
        <ele>432</ele>
        <time>2012-08-12T06:49:39.000Z</time>
      </trkpt>
      <trkpt lat="43.2337" lon="0.86528">
        <ele>431</ele>
        <time>2012-08-12T06:49:41.000Z</time>
      </trkpt>
      <trkpt lat="43.23364" lon="0.86523">
        <ele>430</ele>
        <time>2012-08-12T06:49:43.000Z</time>
      </trkpt>
      <trkpt lat="43.23357" lon="0.86517">
        <ele>429</ele>
        <time>2012-08-12T06:49:45.000Z</time>
      </trkpt>
      <trkpt lat="43.23349" lon="0.86512">
        <ele>427</ele>
        <time>2012-08-12T06:49:47.000Z</time>
      </trkpt>
      <trkpt lat="43.23344" lon="0.86509">
        <ele>427</ele>
        <time>2012-08-12T06:49:48.000Z</time>
      </trkpt>
      <trkpt lat="43.23339" lon="0.86506">
        <ele>426</ele>
        <time>2012-08-12T06:49:49.000Z</time>
      </trkpt>
      <trkpt lat="43.23335" lon="0.86503">
        <ele>426</ele>
        <time>2012-08-12T06:49:50.000Z</time>
      </trkpt>
      <trkpt lat="43.23329" lon="0.865">
        <ele>426</ele>
        <time>2012-08-12T06:49:51.000Z</time>
      </trkpt>
      <trkpt lat="43.23324" lon="0.86499">
        <ele>426</ele>
        <time>2012-08-12T06:49:52.000Z</time>
      </trkpt>
      <trkpt lat="43.23319" lon="0.86498">
        <ele>426</ele>
        <time>2012-08-12T06:49:53.000Z</time>
      </trkpt>
      <trkpt lat="43.23313" lon="0.865">
        <ele>426</ele>
        <time>2012-08-12T06:49:54.000Z</time>
      </trkpt>
      <trkpt lat="43.23308" lon="0.86501">
        <ele>426</ele>
        <time>2012-08-12T06:49:55.000Z</time>
      </trkpt>
      <trkpt lat="43.23301" lon="0.86501">
        <ele>426</ele>
        <time>2012-08-12T06:49:57.000Z</time>
      </trkpt>
      <trkpt lat="43.23292" lon="0.865">
        <ele>426</ele>
        <time>2012-08-12T06:49:59.000Z</time>
      </trkpt>
      <trkpt lat="43.23285" lon="0.86498">
        <ele>426</ele>
        <time>2012-08-12T06:50:01.000Z</time>
      </trkpt>
      <trkpt lat="43.23279" lon="0.86495">
        <ele>425</ele>
        <time>2012-08-12T06:50:03.000Z</time>
      </trkpt>
      <trkpt lat="43.23272" lon="0.86493">
        <ele>424</ele>
        <time>2012-08-12T06:50:05.000Z</time>
      </trkpt>
      <trkpt lat="43.23264" lon="0.8649">
        <ele>425</ele>
        <time>2012-08-12T06:50:07.000Z</time>
      </trkpt>
      <trkpt lat="43.23256" lon="0.86486">
        <ele>425</ele>
        <time>2012-08-12T06:50:09.000Z</time>
      </trkpt>
      <trkpt lat="43.2325" lon="0.86482">
        <ele>425</ele>
        <time>2012-08-12T06:50:11.000Z</time>
      </trkpt>
      <trkpt lat="43.23244" lon="0.86483">
        <ele>425</ele>
        <time>2012-08-12T06:50:14.000Z</time>
      </trkpt>
      <trkpt lat="43.23239" lon="0.86485">
        <ele>424</ele>
        <time>2012-08-12T06:50:17.000Z</time>
      </trkpt>
      <trkpt lat="43.23233" lon="0.86487">
        <ele>425</ele>
        <time>2012-08-12T06:50:19.000Z</time>
      </trkpt>
      <trkpt lat="43.23228" lon="0.86488">
        <ele>425</ele>
        <time>2012-08-12T06:50:21.000Z</time>
      </trkpt>
      <trkpt lat="43.23224" lon="0.8649">
        <ele>425</ele>
        <time>2012-08-12T06:50:23.000Z</time>
      </trkpt>
      <trkpt lat="43.23217" lon="0.86492">
        <ele>425</ele>
        <time>2012-08-12T06:50:26.000Z</time>
      </trkpt>
      <trkpt lat="43.2321" lon="0.86493">
        <ele>426</ele>
        <time>2012-08-12T06:50:29.000Z</time>
      </trkpt>
      <trkpt lat="43.23204" lon="0.86494">
        <ele>427</ele>
        <time>2012-08-12T06:50:32.000Z</time>
      </trkpt>
      <trkpt lat="43.232" lon="0.86495">
        <ele>427</ele>
        <time>2012-08-12T06:50:34.000Z</time>
      </trkpt>
      <trkpt lat="43.23194" lon="0.86495">
        <ele>429</ele>
        <time>2012-08-12T06:50:37.000Z</time>
      </trkpt>
      <trkpt lat="43.23187" lon="0.86497">
        <ele>430</ele>
        <time>2012-08-12T06:50:40.000Z</time>
      </trkpt>
      <trkpt lat="43.23182" lon="0.86498">
        <ele>429</ele>
        <time>2012-08-12T06:50:42.000Z</time>
      </trkpt>
      <trkpt lat="43.23176" lon="0.865">
        <ele>429</ele>
        <time>2012-08-12T06:50:44.000Z</time>
      </trkpt>
      <trkpt lat="43.23172" lon="0.86502">
        <ele>429</ele>
        <time>2012-08-12T06:50:46.000Z</time>
      </trkpt>
      <trkpt lat="43.23164" lon="0.86502">
        <ele>429</ele>
        <time>2012-08-12T06:50:48.000Z</time>
      </trkpt>
      <trkpt lat="43.23158" lon="0.86503">
        <ele>429</ele>
        <time>2012-08-12T06:50:50.000Z</time>
      </trkpt>
      <trkpt lat="43.23152" lon="0.86504">
        <ele>429</ele>
        <time>2012-08-12T06:50:52.000Z</time>
      </trkpt>
      <trkpt lat="43.23145" lon="0.86506">
        <ele>430</ele>
        <time>2012-08-12T06:50:54.000Z</time>
      </trkpt>
      <trkpt lat="43.23138" lon="0.86507">
        <ele>430</ele>
        <time>2012-08-12T06:50:56.000Z</time>
      </trkpt>
      <trkpt lat="43.23132" lon="0.86509">
        <ele>431</ele>
        <time>2012-08-12T06:50:58.000Z</time>
      </trkpt>
      <trkpt lat="43.23127" lon="0.86511">
        <ele>432</ele>
        <time>2012-08-12T06:50:59.000Z</time>
      </trkpt>
      <trkpt lat="43.2312" lon="0.86514">
        <ele>432</ele>
        <time>2012-08-12T06:51:01.000Z</time>
      </trkpt>
      <trkpt lat="43.23115" lon="0.86514">
        <ele>432</ele>
        <time>2012-08-12T06:51:02.000Z</time>
      </trkpt>
      <trkpt lat="43.2311" lon="0.86516">
        <ele>432</ele>
        <time>2012-08-12T06:51:03.000Z</time>
      </trkpt>
      <trkpt lat="43.23105" lon="0.86516">
        <ele>432</ele>
        <time>2012-08-12T06:51:04.000Z</time>
      </trkpt>
      <trkpt lat="43.23097" lon="0.86516">
        <ele>432</ele>
        <time>2012-08-12T06:51:05.000Z</time>
      </trkpt>
      <trkpt lat="43.23091" lon="0.86517">
        <ele>432</ele>
        <time>2012-08-12T06:51:06.000Z</time>
      </trkpt>
      <trkpt lat="43.23085" lon="0.86519">
        <ele>432</ele>
        <time>2012-08-12T06:51:07.000Z</time>
      </trkpt>
      <trkpt lat="43.2308" lon="0.8652">
        <ele>431</ele>
        <time>2012-08-12T06:51:08.000Z</time>
      </trkpt>
      <trkpt lat="43.23075" lon="0.86522">
        <ele>431</ele>
        <time>2012-08-12T06:51:09.000Z</time>
      </trkpt>
      <trkpt lat="43.2307" lon="0.86525">
        <ele>431</ele>
        <time>2012-08-12T06:51:10.000Z</time>
      </trkpt>
      <trkpt lat="43.23064" lon="0.86528">
        <ele>431</ele>
        <time>2012-08-12T06:51:11.000Z</time>
      </trkpt>
      <trkpt lat="43.2306" lon="0.8653">
        <ele>431</ele>
        <time>2012-08-12T06:51:12.000Z</time>
      </trkpt>
      <trkpt lat="43.23054" lon="0.86531">
        <ele>430</ele>
        <time>2012-08-12T06:51:13.000Z</time>
      </trkpt>
      <trkpt lat="43.23049" lon="0.86533">
        <ele>430</ele>
        <time>2012-08-12T06:51:14.000Z</time>
      </trkpt>
      <trkpt lat="43.23044" lon="0.86537">
        <ele>429</ele>
        <time>2012-08-12T06:51:16.000Z</time>
      </trkpt>
      <trkpt lat="43.23038" lon="0.8654">
        <ele>428</ele>
        <time>2012-08-12T06:51:18.000Z</time>
      </trkpt>
      <trkpt lat="43.23034" lon="0.86543">
        <ele>427</ele>
        <time>2012-08-12T06:51:19.000Z</time>
      </trkpt>
      <trkpt lat="43.23029" lon="0.86546">
        <ele>427</ele>
        <time>2012-08-12T06:51:20.000Z</time>
      </trkpt>
      <trkpt lat="43.23025" lon="0.86549">
        <ele>426</ele>
        <time>2012-08-12T06:51:21.000Z</time>
      </trkpt>
      <trkpt lat="43.23021" lon="0.86552">
        <ele>426</ele>
        <time>2012-08-12T06:51:22.000Z</time>
      </trkpt>
      <trkpt lat="43.23016" lon="0.86555">
        <ele>425</ele>
        <time>2012-08-12T06:51:23.000Z</time>
      </trkpt>
      <trkpt lat="43.23012" lon="0.86559">
        <ele>425</ele>
        <time>2012-08-12T06:51:24.000Z</time>
      </trkpt>
      <trkpt lat="43.23007" lon="0.86562">
        <ele>425</ele>
        <time>2012-08-12T06:51:25.000Z</time>
      </trkpt>
      <trkpt lat="43.23002" lon="0.86566">
        <ele>424</ele>
        <time>2012-08-12T06:51:26.000Z</time>
      </trkpt>
      <trkpt lat="43.22997" lon="0.8657">
        <ele>424</ele>
        <time>2012-08-12T06:51:27.000Z</time>
      </trkpt>
      <trkpt lat="43.22992" lon="0.86574">
        <ele>423</ele>
        <time>2012-08-12T06:51:28.000Z</time>
      </trkpt>
      <trkpt lat="43.22986" lon="0.86579">
        <ele>423</ele>
        <time>2012-08-12T06:51:29.000Z</time>
      </trkpt>
      <trkpt lat="43.22981" lon="0.86583">
        <ele>423</ele>
        <time>2012-08-12T06:51:30.000Z</time>
      </trkpt>
      <trkpt lat="43.22975" lon="0.86588">
        <ele>422</ele>
        <time>2012-08-12T06:51:31.000Z</time>
      </trkpt>
      <trkpt lat="43.2297" lon="0.86592">
        <ele>422</ele>
        <time>2012-08-12T06:51:32.000Z</time>
      </trkpt>
      <trkpt lat="43.22965" lon="0.86597">
        <ele>422</ele>
        <time>2012-08-12T06:51:33.000Z</time>
      </trkpt>
      <trkpt lat="43.2296" lon="0.86601">
        <ele>422</ele>
        <time>2012-08-12T06:51:34.000Z</time>
      </trkpt>
      <trkpt lat="43.22956" lon="0.86605">
        <ele>422</ele>
        <time>2012-08-12T06:51:35.000Z</time>
      </trkpt>
      <trkpt lat="43.22952" lon="0.8661">
        <ele>422</ele>
        <time>2012-08-12T06:51:36.000Z</time>
      </trkpt>
      <trkpt lat="43.22947" lon="0.86614">
        <ele>422</ele>
        <time>2012-08-12T06:51:37.000Z</time>
      </trkpt>
      <trkpt lat="43.22942" lon="0.86618">
        <ele>422</ele>
        <time>2012-08-12T06:51:38.000Z</time>
      </trkpt>
      <trkpt lat="43.22938" lon="0.86622">
        <ele>422</ele>
        <time>2012-08-12T06:51:39.000Z</time>
      </trkpt>
      <trkpt lat="43.22931" lon="0.86628">
        <ele>423</ele>
        <time>2012-08-12T06:51:41.000Z</time>
      </trkpt>
      <trkpt lat="43.22925" lon="0.86635">
        <ele>423</ele>
        <time>2012-08-12T06:51:43.000Z</time>
      </trkpt>
      <trkpt lat="43.2292" lon="0.86638">
        <ele>423</ele>
        <time>2012-08-12T06:51:44.000Z</time>
      </trkpt>
      <trkpt lat="43.22914" lon="0.86643">
        <ele>423</ele>
        <time>2012-08-12T06:51:46.000Z</time>
      </trkpt>
      <trkpt lat="43.22907" lon="0.86649">
        <ele>424</ele>
        <time>2012-08-12T06:51:48.000Z</time>
      </trkpt>
      <trkpt lat="43.22899" lon="0.86656">
        <ele>424</ele>
        <time>2012-08-12T06:51:50.000Z</time>
      </trkpt>
      <trkpt lat="43.22892" lon="0.86662">
        <ele>424</ele>
        <time>2012-08-12T06:51:52.000Z</time>
      </trkpt>
      <trkpt lat="43.22887" lon="0.86667">
        <ele>424</ele>
        <time>2012-08-12T06:51:54.000Z</time>
      </trkpt>
      <trkpt lat="43.22882" lon="0.86672">
        <ele>425</ele>
        <time>2012-08-12T06:51:55.000Z</time>
      </trkpt>
      <trkpt lat="43.22878" lon="0.86678">
        <ele>426</ele>
        <time>2012-08-12T06:51:57.000Z</time>
      </trkpt>
      <trkpt lat="43.22872" lon="0.86684">
        <ele>426</ele>
        <time>2012-08-12T06:51:59.000Z</time>
      </trkpt>
      <trkpt lat="43.22867" lon="0.86689">
        <ele>426</ele>
        <time>2012-08-12T06:52:02.000Z</time>
      </trkpt>
      <trkpt lat="43.22871" lon="0.86682">
        <ele>425</ele>
        <time>2012-08-12T06:52:37.000Z</time>
      </trkpt>
      <trkpt lat="43.22877" lon="0.86675">
        <ele>426</ele>
        <time>2012-08-12T06:52:39.000Z</time>
      </trkpt>
      <trkpt lat="43.22884" lon="0.86668">
        <ele>426</ele>
        <time>2012-08-12T06:52:41.000Z</time>
      </trkpt>
      <trkpt lat="43.22888" lon="0.86664">
        <ele>426</ele>
        <time>2012-08-12T06:52:42.000Z</time>
      </trkpt>
      <trkpt lat="43.22892" lon="0.8666">
        <ele>426</ele>
        <time>2012-08-12T06:52:43.000Z</time>
      </trkpt>
      <trkpt lat="43.22896" lon="0.86657">
        <ele>427</ele>
        <time>2012-08-12T06:52:44.000Z</time>
      </trkpt>
      <trkpt lat="43.22901" lon="0.86652">
        <ele>426</ele>
        <time>2012-08-12T06:52:45.000Z</time>
      </trkpt>
      <trkpt lat="43.22905" lon="0.86647">
        <ele>427</ele>
        <time>2012-08-12T06:52:46.000Z</time>
      </trkpt>
      <trkpt lat="43.2291" lon="0.86642">
        <ele>427</ele>
        <time>2012-08-12T06:52:47.000Z</time>
      </trkpt>
      <trkpt lat="43.22915" lon="0.86637">
        <ele>427</ele>
        <time>2012-08-12T06:52:48.000Z</time>
      </trkpt>
      <trkpt lat="43.22921" lon="0.86632">
        <ele>426</ele>
        <time>2012-08-12T06:52:49.000Z</time>
      </trkpt>
      <trkpt lat="43.22927" lon="0.86628">
        <ele>427</ele>
        <time>2012-08-12T06:52:50.000Z</time>
      </trkpt>
      <trkpt lat="43.22932" lon="0.86624">
        <ele>428</ele>
        <time>2012-08-12T06:52:51.000Z</time>
      </trkpt>
      <trkpt lat="43.22937" lon="0.86619">
        <ele>428</ele>
        <time>2012-08-12T06:52:52.000Z</time>
      </trkpt>
      <trkpt lat="43.22942" lon="0.86614">
        <ele>428</ele>
        <time>2012-08-12T06:52:53.000Z</time>
      </trkpt>
      <trkpt lat="43.22947" lon="0.8661">
        <ele>427</ele>
        <time>2012-08-12T06:52:54.000Z</time>
      </trkpt>
      <trkpt lat="43.22952" lon="0.86605">
        <ele>427</ele>
        <time>2012-08-12T06:52:55.000Z</time>
      </trkpt>
      <trkpt lat="43.22959" lon="0.866">
        <ele>427</ele>
        <time>2012-08-12T06:52:56.000Z</time>
      </trkpt>
      <trkpt lat="43.22964" lon="0.86596">
        <ele>427</ele>
        <time>2012-08-12T06:52:57.000Z</time>
      </trkpt>
      <trkpt lat="43.2297" lon="0.86591">
        <ele>427</ele>
        <time>2012-08-12T06:52:58.000Z</time>
      </trkpt>
      <trkpt lat="43.22974" lon="0.86586">
        <ele>427</ele>
        <time>2012-08-12T06:52:59.000Z</time>
      </trkpt>
      <trkpt lat="43.2298" lon="0.86581">
        <ele>427</ele>
        <time>2012-08-12T06:53:00.000Z</time>
      </trkpt>
      <trkpt lat="43.22984" lon="0.86577">
        <ele>427</ele>
        <time>2012-08-12T06:53:01.000Z</time>
      </trkpt>
      <trkpt lat="43.22988" lon="0.86573">
        <ele>427</ele>
        <time>2012-08-12T06:53:02.000Z</time>
      </trkpt>
      <trkpt lat="43.22994" lon="0.86569">
        <ele>427</ele>
        <time>2012-08-12T06:53:03.000Z</time>
      </trkpt>
      <trkpt lat="43.22998" lon="0.86566">
        <ele>426</ele>
        <time>2012-08-12T06:53:04.000Z</time>
      </trkpt>
      <trkpt lat="43.23003" lon="0.86562">
        <ele>426</ele>
        <time>2012-08-12T06:53:05.000Z</time>
      </trkpt>
      <trkpt lat="43.23007" lon="0.86559">
        <ele>427</ele>
        <time>2012-08-12T06:53:06.000Z</time>
      </trkpt>
      <trkpt lat="43.23014" lon="0.86552">
        <ele>428</ele>
        <time>2012-08-12T06:53:08.000Z</time>
      </trkpt>
      <trkpt lat="43.23021" lon="0.86547">
        <ele>428</ele>
        <time>2012-08-12T06:53:10.000Z</time>
      </trkpt>
      <trkpt lat="43.23029" lon="0.86542">
        <ele>428</ele>
        <time>2012-08-12T06:53:12.000Z</time>
      </trkpt>
      <trkpt lat="43.23036" lon="0.86537">
        <ele>427</ele>
        <time>2012-08-12T06:53:14.000Z</time>
      </trkpt>
      <trkpt lat="43.23043" lon="0.86531">
        <ele>427</ele>
        <time>2012-08-12T06:53:16.000Z</time>
      </trkpt>
      <trkpt lat="43.23051" lon="0.86528">
        <ele>426</ele>
        <time>2012-08-12T06:53:18.000Z</time>
      </trkpt>
      <trkpt lat="43.23059" lon="0.86525">
        <ele>426</ele>
        <time>2012-08-12T06:53:20.000Z</time>
      </trkpt>
      <trkpt lat="43.23067" lon="0.86523">
        <ele>426</ele>
        <time>2012-08-12T06:53:22.000Z</time>
      </trkpt>
      <trkpt lat="43.23072" lon="0.86521">
        <ele>426</ele>
        <time>2012-08-12T06:53:23.000Z</time>
      </trkpt>
      <trkpt lat="43.2308" lon="0.86518">
        <ele>426</ele>
        <time>2012-08-12T06:53:25.000Z</time>
      </trkpt>
      <trkpt lat="43.23088" lon="0.86516">
        <ele>426</ele>
        <time>2012-08-12T06:53:27.000Z</time>
      </trkpt>
      <trkpt lat="43.23097" lon="0.86514">
        <ele>426</ele>
        <time>2012-08-12T06:53:29.000Z</time>
      </trkpt>
      <trkpt lat="43.23102" lon="0.86512">
        <ele>426</ele>
        <time>2012-08-12T06:53:30.000Z</time>
      </trkpt>
      <trkpt lat="43.23109" lon="0.86511">
        <ele>426</ele>
        <time>2012-08-12T06:53:31.000Z</time>
      </trkpt>
      <trkpt lat="43.23115" lon="0.8651">
        <ele>427</ele>
        <time>2012-08-12T06:53:32.000Z</time>
      </trkpt>
      <trkpt lat="43.2312" lon="0.8651">
        <ele>427</ele>
        <time>2012-08-12T06:53:33.000Z</time>
      </trkpt>
      <trkpt lat="43.23129" lon="0.86509">
        <ele>427</ele>
        <time>2012-08-12T06:53:35.000Z</time>
      </trkpt>
      <trkpt lat="43.23134" lon="0.86508">
        <ele>428</ele>
        <time>2012-08-12T06:53:36.000Z</time>
      </trkpt>
      <trkpt lat="43.23139" lon="0.86507">
        <ele>427</ele>
        <time>2012-08-12T06:53:37.000Z</time>
      </trkpt>
      <trkpt lat="43.23146" lon="0.86507">
        <ele>427</ele>
        <time>2012-08-12T06:53:38.000Z</time>
      </trkpt>
      <trkpt lat="43.23152" lon="0.86507">
        <ele>428</ele>
        <time>2012-08-12T06:53:39.000Z</time>
      </trkpt>
      <trkpt lat="43.23158" lon="0.86506">
        <ele>428</ele>
        <time>2012-08-12T06:53:40.000Z</time>
      </trkpt>
      <trkpt lat="43.23162" lon="0.86506">
        <ele>428</ele>
        <time>2012-08-12T06:53:41.000Z</time>
      </trkpt>
      <trkpt lat="43.23167" lon="0.86504">
        <ele>428</ele>
        <time>2012-08-12T06:53:42.000Z</time>
      </trkpt>
      <trkpt lat="43.23174" lon="0.86501">
        <ele>429</ele>
        <time>2012-08-12T06:53:44.000Z</time>
      </trkpt>
      <trkpt lat="43.23178" lon="0.86499">
        <ele>429</ele>
        <time>2012-08-12T06:53:45.000Z</time>
      </trkpt>
      <trkpt lat="43.23184" lon="0.86497">
        <ele>430</ele>
        <time>2012-08-12T06:53:46.000Z</time>
      </trkpt>
      <trkpt lat="43.23191" lon="0.86496">
        <ele>429</ele>
        <time>2012-08-12T06:53:47.000Z</time>
      </trkpt>
      <trkpt lat="43.23197" lon="0.86495">
        <ele>429</ele>
        <time>2012-08-12T06:53:48.000Z</time>
      </trkpt>
      <trkpt lat="43.23203" lon="0.86494">
        <ele>429</ele>
        <time>2012-08-12T06:53:49.000Z</time>
      </trkpt>
      <trkpt lat="43.23209" lon="0.86492">
        <ele>428</ele>
        <time>2012-08-12T06:53:50.000Z</time>
      </trkpt>
      <trkpt lat="43.23214" lon="0.86489">
        <ele>428</ele>
        <time>2012-08-12T06:53:51.000Z</time>
      </trkpt>
      <trkpt lat="43.2322" lon="0.86487">
        <ele>428</ele>
        <time>2012-08-12T06:53:52.000Z</time>
      </trkpt>
      <trkpt lat="43.23225" lon="0.86485">
        <ele>427</ele>
        <time>2012-08-12T06:53:53.000Z</time>
      </trkpt>
      <trkpt lat="43.2323" lon="0.86484">
        <ele>427</ele>
        <time>2012-08-12T06:53:54.000Z</time>
      </trkpt>
      <trkpt lat="43.23234" lon="0.86481">
        <ele>426</ele>
        <time>2012-08-12T06:53:55.000Z</time>
      </trkpt>
      <trkpt lat="43.23239" lon="0.86478">
        <ele>425</ele>
        <time>2012-08-12T06:53:56.000Z</time>
      </trkpt>
      <trkpt lat="43.23245" lon="0.86468">
        <ele>425</ele>
        <time>2012-08-12T06:53:58.000Z</time>
      </trkpt>
      <trkpt lat="43.23246" lon="0.86456">
        <ele>422</ele>
        <time>2012-08-12T06:54:00.000Z</time>
      </trkpt>
      <trkpt lat="43.23247" lon="0.86449">
        <ele>422</ele>
        <time>2012-08-12T06:54:01.000Z</time>
      </trkpt>
      <trkpt lat="43.23249" lon="0.8644">
        <ele>421</ele>
        <time>2012-08-12T06:54:02.000Z</time>
      </trkpt>
      <trkpt lat="43.23252" lon="0.86432">
        <ele>419</ele>
        <time>2012-08-12T06:54:03.000Z</time>
      </trkpt>
      <trkpt lat="43.23253" lon="0.86424">
        <ele>419</ele>
        <time>2012-08-12T06:54:04.000Z</time>
      </trkpt>
      <trkpt lat="43.23255" lon="0.86416">
        <ele>419</ele>
        <time>2012-08-12T06:54:05.000Z</time>
      </trkpt>
      <trkpt lat="43.23254" lon="0.8641">
        <ele>418</ele>
        <time>2012-08-12T06:54:06.000Z</time>
      </trkpt>
      <trkpt lat="43.23253" lon="0.86402">
        <ele>417</ele>
        <time>2012-08-12T06:54:07.000Z</time>
      </trkpt>
      <trkpt lat="43.23249" lon="0.8639">
        <ele>416</ele>
        <time>2012-08-12T06:54:09.000Z</time>
      </trkpt>
      <trkpt lat="43.23245" lon="0.86382">
        <ele>414</ele>
        <time>2012-08-12T06:54:10.000Z</time>
      </trkpt>
      <trkpt lat="43.23242" lon="0.86374">
        <ele>413</ele>
        <time>2012-08-12T06:54:11.000Z</time>
      </trkpt>
      <trkpt lat="43.23239" lon="0.86366">
        <ele>412</ele>
        <time>2012-08-12T06:54:12.000Z</time>
      </trkpt>
      <trkpt lat="43.23236" lon="0.86358">
        <ele>410</ele>
        <time>2012-08-12T06:54:13.000Z</time>
      </trkpt>
      <trkpt lat="43.23234" lon="0.86349">
        <ele>409</ele>
        <time>2012-08-12T06:54:14.000Z</time>
      </trkpt>
      <trkpt lat="43.23232" lon="0.8634">
        <ele>409</ele>
        <time>2012-08-12T06:54:15.000Z</time>
      </trkpt>
      <trkpt lat="43.23231" lon="0.86332">
        <ele>409</ele>
        <time>2012-08-12T06:54:16.000Z</time>
      </trkpt>
      <trkpt lat="43.23229" lon="0.86325">
        <ele>408</ele>
        <time>2012-08-12T06:54:17.000Z</time>
      </trkpt>
      <trkpt lat="43.23228" lon="0.86318">
        <ele>407</ele>
        <time>2012-08-12T06:54:18.000Z</time>
      </trkpt>
      <trkpt lat="43.23227" lon="0.8631">
        <ele>406</ele>
        <time>2012-08-12T06:54:19.000Z</time>
      </trkpt>
      <trkpt lat="43.23225" lon="0.86304">
        <ele>405</ele>
        <time>2012-08-12T06:54:20.000Z</time>
      </trkpt>
      <trkpt lat="43.23226" lon="0.86297">
        <ele>404</ele>
        <time>2012-08-12T06:54:21.000Z</time>
      </trkpt>
      <trkpt lat="43.23227" lon="0.8629">
        <ele>404</ele>
        <time>2012-08-12T06:54:22.000Z</time>
      </trkpt>
      <trkpt lat="43.23227" lon="0.86283">
        <ele>403</ele>
        <time>2012-08-12T06:54:23.000Z</time>
      </trkpt>
      <trkpt lat="43.23228" lon="0.86275">
        <ele>402</ele>
        <time>2012-08-12T06:54:24.000Z</time>
      </trkpt>
      <trkpt lat="43.2323" lon="0.86268">
        <ele>401</ele>
        <time>2012-08-12T06:54:25.000Z</time>
      </trkpt>
      <trkpt lat="43.23232" lon="0.8626">
        <ele>399</ele>
        <time>2012-08-12T06:54:26.000Z</time>
      </trkpt>
      <trkpt lat="43.23232" lon="0.86253">
        <ele>396</ele>
        <time>2012-08-12T06:54:27.000Z</time>
      </trkpt>
      <trkpt lat="43.23232" lon="0.86245">
        <ele>394</ele>
        <time>2012-08-12T06:54:28.000Z</time>
      </trkpt>
      <trkpt lat="43.23233" lon="0.86237">
        <ele>392</ele>
        <time>2012-08-12T06:54:29.000Z</time>
      </trkpt>
      <trkpt lat="43.23233" lon="0.8623">
        <ele>390</ele>
        <time>2012-08-12T06:54:30.000Z</time>
      </trkpt>
      <trkpt lat="43.23233" lon="0.86223">
        <ele>388</ele>
        <time>2012-08-12T06:54:31.000Z</time>
      </trkpt>
      <trkpt lat="43.23234" lon="0.86216">
        <ele>386</ele>
        <time>2012-08-12T06:54:32.000Z</time>
      </trkpt>
      <trkpt lat="43.23234" lon="0.8621">
        <ele>385</ele>
        <time>2012-08-12T06:54:33.000Z</time>
      </trkpt>
      <trkpt lat="43.23236" lon="0.86204">
        <ele>383</ele>
        <time>2012-08-12T06:54:34.000Z</time>
      </trkpt>
      <trkpt lat="43.23239" lon="0.86196">
        <ele>382</ele>
        <time>2012-08-12T06:54:35.000Z</time>
      </trkpt>
      <trkpt lat="43.23241" lon="0.86191">
        <ele>381</ele>
        <time>2012-08-12T06:54:36.000Z</time>
      </trkpt>
      <trkpt lat="43.23245" lon="0.86185">
        <ele>381</ele>
        <time>2012-08-12T06:54:37.000Z</time>
      </trkpt>
      <trkpt lat="43.23249" lon="0.86179">
        <ele>380</ele>
        <time>2012-08-12T06:54:38.000Z</time>
      </trkpt>
      <trkpt lat="43.23253" lon="0.86174">
        <ele>379</ele>
        <time>2012-08-12T06:54:39.000Z</time>
      </trkpt>
      <trkpt lat="43.23257" lon="0.8617">
        <ele>379</ele>
        <time>2012-08-12T06:54:40.000Z</time>
      </trkpt>
      <trkpt lat="43.23263" lon="0.86165">
        <ele>379</ele>
        <time>2012-08-12T06:54:42.000Z</time>
      </trkpt>
      <trkpt lat="43.23268" lon="0.86162">
        <ele>378</ele>
        <time>2012-08-12T06:54:44.000Z</time>
      </trkpt>
      <trkpt lat="43.23274" lon="0.8616">
        <ele>378</ele>
        <time>2012-08-12T06:54:46.000Z</time>
      </trkpt>
      <trkpt lat="43.23282" lon="0.86157">
        <ele>378</ele>
        <time>2012-08-12T06:54:48.000Z</time>
      </trkpt>
      <trkpt lat="43.23291" lon="0.86155">
        <ele>378</ele>
        <time>2012-08-12T06:54:50.000Z</time>
      </trkpt>
      <trkpt lat="43.23295" lon="0.86153">
        <ele>377</ele>
        <time>2012-08-12T06:54:51.000Z</time>
      </trkpt>
      <trkpt lat="43.23299" lon="0.86151">
        <ele>377</ele>
        <time>2012-08-12T06:54:52.000Z</time>
      </trkpt>
      <trkpt lat="43.23304" lon="0.86149">
        <ele>377</ele>
        <time>2012-08-12T06:54:53.000Z</time>
      </trkpt>
      <trkpt lat="43.2331" lon="0.86148">
        <ele>377</ele>
        <time>2012-08-12T06:54:54.000Z</time>
      </trkpt>
      <trkpt lat="43.23315" lon="0.86146">
        <ele>377</ele>
        <time>2012-08-12T06:54:55.000Z</time>
      </trkpt>
      <trkpt lat="43.23321" lon="0.86144">
        <ele>376</ele>
        <time>2012-08-12T06:54:56.000Z</time>
      </trkpt>
      <trkpt lat="43.23326" lon="0.86142">
        <ele>376</ele>
        <time>2012-08-12T06:54:57.000Z</time>
      </trkpt>
      <trkpt lat="43.23331" lon="0.8614">
        <ele>376</ele>
        <time>2012-08-12T06:54:58.000Z</time>
      </trkpt>
      <trkpt lat="43.23336" lon="0.86139">
        <ele>376</ele>
        <time>2012-08-12T06:54:59.000Z</time>
      </trkpt>
      <trkpt lat="43.23341" lon="0.86137">
        <ele>376</ele>
        <time>2012-08-12T06:55:00.000Z</time>
      </trkpt>
      <trkpt lat="43.23347" lon="0.86135">
        <ele>376</ele>
        <time>2012-08-12T06:55:01.000Z</time>
      </trkpt>
      <trkpt lat="43.23352" lon="0.86134">
        <ele>375</ele>
        <time>2012-08-12T06:55:02.000Z</time>
      </trkpt>
      <trkpt lat="43.23358" lon="0.86133">
        <ele>375</ele>
        <time>2012-08-12T06:55:03.000Z</time>
      </trkpt>
      <trkpt lat="43.23365" lon="0.86132">
        <ele>374</ele>
        <time>2012-08-12T06:55:04.000Z</time>
      </trkpt>
      <trkpt lat="43.23371" lon="0.86131">
        <ele>373</ele>
        <time>2012-08-12T06:55:05.000Z</time>
      </trkpt>
      <trkpt lat="43.23378" lon="0.86129">
        <ele>372</ele>
        <time>2012-08-12T06:55:06.000Z</time>
      </trkpt>
      <trkpt lat="43.23384" lon="0.86127">
        <ele>371</ele>
        <time>2012-08-12T06:55:07.000Z</time>
      </trkpt>
      <trkpt lat="43.23391" lon="0.86125">
        <ele>369</ele>
        <time>2012-08-12T06:55:08.000Z</time>
      </trkpt>
      <trkpt lat="43.23398" lon="0.86122">
        <ele>368</ele>
        <time>2012-08-12T06:55:09.000Z</time>
      </trkpt>
      <trkpt lat="43.23405" lon="0.86119">
        <ele>367</ele>
        <time>2012-08-12T06:55:10.000Z</time>
      </trkpt>
      <trkpt lat="43.23413" lon="0.86118">
        <ele>367</ele>
        <time>2012-08-12T06:55:11.000Z</time>
      </trkpt>
      <trkpt lat="43.23421" lon="0.86116">
        <ele>365</ele>
        <time>2012-08-12T06:55:12.000Z</time>
      </trkpt>
      <trkpt lat="43.23429" lon="0.86114">
        <ele>364</ele>
        <time>2012-08-12T06:55:13.000Z</time>
      </trkpt>
      <trkpt lat="43.23437" lon="0.86112">
        <ele>363</ele>
        <time>2012-08-12T06:55:14.000Z</time>
      </trkpt>
      <trkpt lat="43.23444" lon="0.86111">
        <ele>362</ele>
        <time>2012-08-12T06:55:15.000Z</time>
      </trkpt>
      <trkpt lat="43.2345" lon="0.86108">
        <ele>361</ele>
        <time>2012-08-12T06:55:16.000Z</time>
      </trkpt>
      <trkpt lat="43.23457" lon="0.86106">
        <ele>361</ele>
        <time>2012-08-12T06:55:17.000Z</time>
      </trkpt>
      <trkpt lat="43.23463" lon="0.86104">
        <ele>361</ele>
        <time>2012-08-12T06:55:18.000Z</time>
      </trkpt>
      <trkpt lat="43.23468" lon="0.86101">
        <ele>361</ele>
        <time>2012-08-12T06:55:19.000Z</time>
      </trkpt>
      <trkpt lat="43.23474" lon="0.86096">
        <ele>361</ele>
        <time>2012-08-12T06:55:20.000Z</time>
      </trkpt>
      <trkpt lat="43.23478" lon="0.86089">
        <ele>361</ele>
        <time>2012-08-12T06:55:21.000Z</time>
      </trkpt>
      <trkpt lat="43.23479" lon="0.86081">
        <ele>360</ele>
        <time>2012-08-12T06:55:22.000Z</time>
      </trkpt>
      <trkpt lat="43.23481" lon="0.86073">
        <ele>360</ele>
        <time>2012-08-12T06:55:23.000Z</time>
      </trkpt>
      <trkpt lat="43.23484" lon="0.86064">
        <ele>360</ele>
        <time>2012-08-12T06:55:24.000Z</time>
      </trkpt>
      <trkpt lat="43.23486" lon="0.86055">
        <ele>360</ele>
        <time>2012-08-12T06:55:25.000Z</time>
      </trkpt>
      <trkpt lat="43.23489" lon="0.86047">
        <ele>359</ele>
        <time>2012-08-12T06:55:26.000Z</time>
      </trkpt>
      <trkpt lat="43.23494" lon="0.8604">
        <ele>359</ele>
        <time>2012-08-12T06:55:27.000Z</time>
      </trkpt>
      <trkpt lat="43.23497" lon="0.86035">
        <ele>358</ele>
        <time>2012-08-12T06:55:28.000Z</time>
      </trkpt>
      <trkpt lat="43.23502" lon="0.8603">
        <ele>357</ele>
        <time>2012-08-12T06:55:29.000Z</time>
      </trkpt>
      <trkpt lat="43.23505" lon="0.86024">
        <ele>356</ele>
        <time>2012-08-12T06:55:30.000Z</time>
      </trkpt>
      <trkpt lat="43.23508" lon="0.86019">
        <ele>356</ele>
        <time>2012-08-12T06:55:31.000Z</time>
      </trkpt>
      <trkpt lat="43.23511" lon="0.86014">
        <ele>356</ele>
        <time>2012-08-12T06:55:32.000Z</time>
      </trkpt>
      <trkpt lat="43.23512" lon="0.86001">
        <ele>355</ele>
        <time>2012-08-12T06:55:34.000Z</time>
      </trkpt>
      <trkpt lat="43.23513" lon="0.85994">
        <ele>354</ele>
        <time>2012-08-12T06:55:35.000Z</time>
      </trkpt>
      <trkpt lat="43.23516" lon="0.85981">
        <ele>354</ele>
        <time>2012-08-12T06:55:37.000Z</time>
      </trkpt>
      <trkpt lat="43.23519" lon="0.8597">
        <ele>354</ele>
        <time>2012-08-12T06:55:39.000Z</time>
      </trkpt>
      <trkpt lat="43.23521" lon="0.85959">
        <ele>354</ele>
        <time>2012-08-12T06:55:41.000Z</time>
      </trkpt>
      <trkpt lat="43.23519" lon="0.85952">
        <ele>354</ele>
        <time>2012-08-12T06:55:51.000Z</time>
      </trkpt>
      <trkpt lat="43.23517" lon="0.85946">
        <ele>354</ele>
        <time>2012-08-12T06:55:54.000Z</time>
      </trkpt>
      <trkpt lat="43.23513" lon="0.85938">
        <ele>353</ele>
        <time>2012-08-12T06:55:57.000Z</time>
      </trkpt>
      <trkpt lat="43.2351" lon="0.85932">
        <ele>353</ele>
        <time>2012-08-12T06:55:59.000Z</time>
      </trkpt>
      <trkpt lat="43.23508" lon="0.85926">
        <ele>353</ele>
        <time>2012-08-12T06:56:01.000Z</time>
      </trkpt>
      <trkpt lat="43.23507" lon="0.85915">
        <ele>353</ele>
        <time>2012-08-12T06:56:03.000Z</time>
      </trkpt>
      <trkpt lat="43.23506" lon="0.85907">
        <ele>352</ele>
        <time>2012-08-12T06:56:05.000Z</time>
      </trkpt>
      <trkpt lat="43.23505" lon="0.85901">
        <ele>352</ele>
        <time>2012-08-12T06:56:07.000Z</time>
      </trkpt>
      <trkpt lat="43.235" lon="0.85895">
        <ele>353</ele>
        <time>2012-08-12T06:56:11.000Z</time>
      </trkpt>
      <trkpt lat="43.23491" lon="0.85897">
        <ele>354</ele>
        <time>2012-08-12T06:56:15.000Z</time>
      </trkpt>
      <trkpt lat="43.23485" lon="0.85894">
        <ele>355</ele>
        <time>2012-08-12T06:56:18.000Z</time>
      </trkpt>
      <trkpt lat="43.2348" lon="0.85892">
        <ele>354</ele>
        <time>2012-08-12T06:56:20.000Z</time>
      </trkpt>
      <trkpt lat="43.23476" lon="0.85885">
        <ele>355</ele>
        <time>2012-08-12T06:56:23.000Z</time>
      </trkpt>
      <trkpt lat="43.23474" lon="0.85879">
        <ele>355</ele>
        <time>2012-08-12T06:56:25.000Z</time>
      </trkpt>
      <trkpt lat="43.23474" lon="0.8587">
        <ele>356</ele>
        <time>2012-08-12T06:56:28.000Z</time>
      </trkpt>
      <trkpt lat="43.23475" lon="0.85862">
        <ele>357</ele>
        <time>2012-08-12T06:56:31.000Z</time>
      </trkpt>
      <trkpt lat="43.23475" lon="0.85855">
        <ele>358</ele>
        <time>2012-08-12T06:56:34.000Z</time>
      </trkpt>
      <trkpt lat="43.23475" lon="0.85846">
        <ele>362</ele>
        <time>2012-08-12T06:56:38.000Z</time>
      </trkpt>
      <trkpt lat="43.23475" lon="0.85839">
        <ele>362</ele>
        <time>2012-08-12T06:56:41.000Z</time>
      </trkpt>
      <trkpt lat="43.23473" lon="0.85832">
        <ele>363</ele>
        <time>2012-08-12T06:56:44.000Z</time>
      </trkpt>
      <trkpt lat="43.23473" lon="0.85825">
        <ele>363</ele>
        <time>2012-08-12T06:56:47.000Z</time>
      </trkpt>
      <trkpt lat="43.23472" lon="0.85819">
        <ele>364</ele>
        <time>2012-08-12T06:56:51.000Z</time>
      </trkpt>
      <trkpt lat="43.23474" lon="0.8581">
        <ele>364</ele>
        <time>2012-08-12T06:59:55.000Z</time>
      </trkpt>
      <trkpt lat="43.23474" lon="0.85804">
        <ele>363</ele>
        <time>2012-08-12T06:59:57.000Z</time>
      </trkpt>
      <trkpt lat="43.23475" lon="0.85797">
        <ele>365</ele>
        <time>2012-08-12T06:59:59.000Z</time>
      </trkpt>
      <trkpt lat="43.23475" lon="0.85788">
        <ele>366</ele>
        <time>2012-08-12T07:00:02.000Z</time>
      </trkpt>
      <trkpt lat="43.23471" lon="0.85784">
        <ele>367</ele>
        <time>2012-08-12T07:00:03.000Z</time>
      </trkpt>
      <trkpt lat="43.2347" lon="0.85778">
        <ele>367</ele>
        <time>2012-08-12T07:00:05.000Z</time>
      </trkpt>
      <trkpt lat="43.23471" lon="0.8577">
        <ele>367</ele>
        <time>2012-08-12T07:00:07.000Z</time>
      </trkpt>
      <trkpt lat="43.23472" lon="0.8576">
        <ele>366</ele>
        <time>2012-08-12T07:00:09.000Z</time>
      </trkpt>
      <trkpt lat="43.23475" lon="0.8575">
        <ele>365</ele>
        <time>2012-08-12T07:00:11.000Z</time>
      </trkpt>
      <trkpt lat="43.2348" lon="0.85737">
        <ele>364</ele>
        <time>2012-08-12T07:00:13.000Z</time>
      </trkpt>
      <trkpt lat="43.23482" lon="0.85729">
        <ele>364</ele>
        <time>2012-08-12T07:00:14.000Z</time>
      </trkpt>
      <trkpt lat="43.23484" lon="0.85723">
        <ele>363</ele>
        <time>2012-08-12T07:00:15.000Z</time>
      </trkpt>
      <trkpt lat="43.23486" lon="0.85717">
        <ele>363</ele>
        <time>2012-08-12T07:00:16.000Z</time>
      </trkpt>
      <trkpt lat="43.23488" lon="0.85711">
        <ele>363</ele>
        <time>2012-08-12T07:00:17.000Z</time>
      </trkpt>
      <trkpt lat="43.2349" lon="0.85704">
        <ele>364</ele>
        <time>2012-08-12T07:00:18.000Z</time>
      </trkpt>
      <trkpt lat="43.23491" lon="0.85696">
        <ele>364</ele>
        <time>2012-08-12T07:00:19.000Z</time>
      </trkpt>
      <trkpt lat="43.23494" lon="0.85688">
        <ele>363</ele>
        <time>2012-08-12T07:00:20.000Z</time>
      </trkpt>
      <trkpt lat="43.23498" lon="0.8568">
        <ele>363</ele>
        <time>2012-08-12T07:00:21.000Z</time>
      </trkpt>
      <trkpt lat="43.23501" lon="0.85673">
        <ele>363</ele>
        <time>2012-08-12T07:00:22.000Z</time>
      </trkpt>
      <trkpt lat="43.23504" lon="0.85665">
        <ele>362</ele>
        <time>2012-08-12T07:00:23.000Z</time>
      </trkpt>
      <trkpt lat="43.23508" lon="0.85658">
        <ele>361</ele>
        <time>2012-08-12T07:00:24.000Z</time>
      </trkpt>
      <trkpt lat="43.23511" lon="0.8565">
        <ele>361</ele>
        <time>2012-08-12T07:00:25.000Z</time>
      </trkpt>
      <trkpt lat="43.23515" lon="0.85643">
        <ele>360</ele>
        <time>2012-08-12T07:00:26.000Z</time>
      </trkpt>
      <trkpt lat="43.23519" lon="0.85636">
        <ele>358</ele>
        <time>2012-08-12T07:00:27.000Z</time>
      </trkpt>
      <trkpt lat="43.23521" lon="0.85628">
        <ele>358</ele>
        <time>2012-08-12T07:00:28.000Z</time>
      </trkpt>
      <trkpt lat="43.23524" lon="0.8562">
        <ele>357</ele>
        <time>2012-08-12T07:00:29.000Z</time>
      </trkpt>
      <trkpt lat="43.23526" lon="0.85613">
        <ele>357</ele>
        <time>2012-08-12T07:00:30.000Z</time>
      </trkpt>
      <trkpt lat="43.23528" lon="0.85605">
        <ele>356</ele>
        <time>2012-08-12T07:00:31.000Z</time>
      </trkpt>
      <trkpt lat="43.23529" lon="0.85597">
        <ele>355</ele>
        <time>2012-08-12T07:00:32.000Z</time>
      </trkpt>
      <trkpt lat="43.23533" lon="0.85586">
        <ele>354</ele>
        <time>2012-08-12T07:00:34.000Z</time>
      </trkpt>
      <trkpt lat="43.23537" lon="0.8558">
        <ele>354</ele>
        <time>2012-08-12T07:00:36.000Z</time>
      </trkpt>
      <trkpt lat="43.23543" lon="0.85574">
        <ele>355</ele>
        <time>2012-08-12T07:00:38.000Z</time>
      </trkpt>
      <trkpt lat="43.23548" lon="0.85567">
        <ele>354</ele>
        <time>2012-08-12T07:00:40.000Z</time>
      </trkpt>
      <trkpt lat="43.23554" lon="0.8556">
        <ele>353</ele>
        <time>2012-08-12T07:00:42.000Z</time>
      </trkpt>
      <trkpt lat="43.23559" lon="0.85552">
        <ele>353</ele>
        <time>2012-08-12T07:00:44.000Z</time>
      </trkpt>
      <trkpt lat="43.23566" lon="0.85546">
        <ele>352</ele>
        <time>2012-08-12T07:00:46.000Z</time>
      </trkpt>
      <trkpt lat="43.23571" lon="0.85544">
        <ele>351</ele>
        <time>2012-08-12T07:00:47.000Z</time>
      </trkpt>
      <trkpt lat="43.23579" lon="0.85541">
        <ele>352</ele>
        <time>2012-08-12T07:00:49.000Z</time>
      </trkpt>
      <trkpt lat="43.23584" lon="0.85542">
        <ele>351</ele>
        <time>2012-08-12T07:00:50.000Z</time>
      </trkpt>
      <trkpt lat="43.23592" lon="0.85546">
        <ele>352</ele>
        <time>2012-08-12T07:00:52.000Z</time>
      </trkpt>
      <trkpt lat="43.23599" lon="0.8555">
        <ele>352</ele>
        <time>2012-08-12T07:00:54.000Z</time>
      </trkpt>
      <trkpt lat="43.23611" lon="0.85556">
        <ele>352</ele>
        <time>2012-08-12T07:00:57.000Z</time>
      </trkpt>
      <trkpt lat="43.23619" lon="0.85559">
        <ele>352</ele>
        <time>2012-08-12T07:00:59.000Z</time>
      </trkpt>
      <trkpt lat="43.23626" lon="0.85562">
        <ele>353</ele>
        <time>2012-08-12T07:01:01.000Z</time>
      </trkpt>
      <trkpt lat="43.23634" lon="0.85566">
        <ele>353</ele>
        <time>2012-08-12T07:01:03.000Z</time>
      </trkpt>
      <trkpt lat="43.23642" lon="0.85568">
        <ele>353</ele>
        <time>2012-08-12T07:01:05.000Z</time>
      </trkpt>
      <trkpt lat="43.23649" lon="0.8557">
        <ele>353</ele>
        <time>2012-08-12T07:01:07.000Z</time>
      </trkpt>
      <trkpt lat="43.23656" lon="0.85573">
        <ele>352</ele>
        <time>2012-08-12T07:01:09.000Z</time>
      </trkpt>
      <trkpt lat="43.23664" lon="0.85575">
        <ele>352</ele>
        <time>2012-08-12T07:01:11.000Z</time>
      </trkpt>
      <trkpt lat="43.23671" lon="0.85577">
        <ele>352</ele>
        <time>2012-08-12T07:01:13.000Z</time>
      </trkpt>
      <trkpt lat="43.23677" lon="0.85577">
        <ele>352</ele>
        <time>2012-08-12T07:01:15.000Z</time>
      </trkpt>
      <trkpt lat="43.23682" lon="0.85575">
        <ele>353</ele>
        <time>2012-08-12T07:01:16.000Z</time>
      </trkpt>
      <trkpt lat="43.23685" lon="0.85569">
        <ele>354</ele>
        <time>2012-08-12T07:01:18.000Z</time>
      </trkpt>
      <trkpt lat="43.23686" lon="0.85562">
        <ele>354</ele>
        <time>2012-08-12T07:01:20.000Z</time>
      </trkpt>
      <trkpt lat="43.23686" lon="0.85555">
        <ele>356</ele>
        <time>2012-08-12T07:01:22.000Z</time>
      </trkpt>
      <trkpt lat="43.23687" lon="0.85548">
        <ele>356</ele>
        <time>2012-08-12T07:01:24.000Z</time>
      </trkpt>
      <trkpt lat="43.23687" lon="0.85539">
        <ele>357</ele>
        <time>2012-08-12T07:01:26.000Z</time>
      </trkpt>
      <trkpt lat="43.23688" lon="0.85531">
        <ele>358</ele>
        <time>2012-08-12T07:01:28.000Z</time>
      </trkpt>
      <trkpt lat="43.23689" lon="0.85522">
        <ele>358</ele>
        <time>2012-08-12T07:01:30.000Z</time>
      </trkpt>
      <trkpt lat="43.2369" lon="0.85514">
        <ele>357</ele>
        <time>2012-08-12T07:01:32.000Z</time>
      </trkpt>
      <trkpt lat="43.23691" lon="0.85506">
        <ele>358</ele>
        <time>2012-08-12T07:01:34.000Z</time>
      </trkpt>
      <trkpt lat="43.23692" lon="0.85498">
        <ele>358</ele>
        <time>2012-08-12T07:01:36.000Z</time>
      </trkpt>
      <trkpt lat="43.23694" lon="0.8549">
        <ele>358</ele>
        <time>2012-08-12T07:01:38.000Z</time>
      </trkpt>
      <trkpt lat="43.23695" lon="0.85481">
        <ele>359</ele>
        <time>2012-08-12T07:01:40.000Z</time>
      </trkpt>
      <trkpt lat="43.23696" lon="0.85473">
        <ele>359</ele>
        <time>2012-08-12T07:01:42.000Z</time>
      </trkpt>
      <trkpt lat="43.23698" lon="0.85466">
        <ele>360</ele>
        <time>2012-08-12T07:01:44.000Z</time>
      </trkpt>
      <trkpt lat="43.23701" lon="0.85457">
        <ele>361</ele>
        <time>2012-08-12T07:01:47.000Z</time>
      </trkpt>
      <trkpt lat="43.23702" lon="0.85451">
        <ele>362</ele>
        <time>2012-08-12T07:01:49.000Z</time>
      </trkpt>
      <trkpt lat="43.23704" lon="0.85445">
        <ele>362</ele>
        <time>2012-08-12T07:01:51.000Z</time>
      </trkpt>
      <trkpt lat="43.23705" lon="0.85437">
        <ele>363</ele>
        <time>2012-08-12T07:01:54.000Z</time>
      </trkpt>
      <trkpt lat="43.23708" lon="0.85429">
        <ele>365</ele>
        <time>2012-08-12T07:01:57.000Z</time>
      </trkpt>
      <trkpt lat="43.23709" lon="0.85422">
        <ele>366</ele>
        <time>2012-08-12T07:02:00.000Z</time>
      </trkpt>
      <trkpt lat="43.2371" lon="0.85414">
        <ele>367</ele>
        <time>2012-08-12T07:02:03.000Z</time>
      </trkpt>
      <trkpt lat="43.2371" lon="0.85406">
        <ele>367</ele>
        <time>2012-08-12T07:02:06.000Z</time>
      </trkpt>
      <trkpt lat="43.2371" lon="0.85397">
        <ele>368</ele>
        <time>2012-08-12T07:02:09.000Z</time>
      </trkpt>
      <trkpt lat="43.23708" lon="0.85391">
        <ele>368</ele>
        <time>2012-08-12T07:02:11.000Z</time>
      </trkpt>
      <trkpt lat="43.23708" lon="0.85382">
        <ele>369</ele>
        <time>2012-08-12T07:02:14.000Z</time>
      </trkpt>
      <trkpt lat="43.23708" lon="0.85374">
        <ele>369</ele>
        <time>2012-08-12T07:02:17.000Z</time>
      </trkpt>
      <trkpt lat="43.23706" lon="0.85364">
        <ele>370</ele>
        <time>2012-08-12T07:02:20.000Z</time>
      </trkpt>
      <trkpt lat="43.23705" lon="0.85357">
        <ele>370</ele>
        <time>2012-08-12T07:02:22.000Z</time>
      </trkpt>
      <trkpt lat="43.23704" lon="0.8535">
        <ele>370</ele>
        <time>2012-08-12T07:02:24.000Z</time>
      </trkpt>
      <trkpt lat="43.23702" lon="0.8534">
        <ele>372</ele>
        <time>2012-08-12T07:02:26.000Z</time>
      </trkpt>
      <trkpt lat="43.23702" lon="0.85332">
        <ele>372</ele>
        <time>2012-08-12T07:02:28.000Z</time>
      </trkpt>
      <trkpt lat="43.237" lon="0.85325">
        <ele>373</ele>
        <time>2012-08-12T07:02:30.000Z</time>
      </trkpt>
      <trkpt lat="43.23699" lon="0.85317">
        <ele>373</ele>
        <time>2012-08-12T07:02:32.000Z</time>
      </trkpt>
      <trkpt lat="43.23698" lon="0.8531">
        <ele>373</ele>
        <time>2012-08-12T07:02:34.000Z</time>
      </trkpt>
      <trkpt lat="43.23697" lon="0.853">
        <ele>373</ele>
        <time>2012-08-12T07:02:36.000Z</time>
      </trkpt>
      <trkpt lat="43.23697" lon="0.8529">
        <ele>373</ele>
        <time>2012-08-12T07:02:38.000Z</time>
      </trkpt>
      <trkpt lat="43.23696" lon="0.85281">
        <ele>373</ele>
        <time>2012-08-12T07:02:40.000Z</time>
      </trkpt>
      <trkpt lat="43.23696" lon="0.85272">
        <ele>373</ele>
        <time>2012-08-12T07:02:42.000Z</time>
      </trkpt>
      <trkpt lat="43.23694" lon="0.85262">
        <ele>374</ele>
        <time>2012-08-12T07:02:44.000Z</time>
      </trkpt>
      <trkpt lat="43.23692" lon="0.85252">
        <ele>373</ele>
        <time>2012-08-12T07:02:46.000Z</time>
      </trkpt>
      <trkpt lat="43.23691" lon="0.85244">
        <ele>373</ele>
        <time>2012-08-12T07:02:48.000Z</time>
      </trkpt>
      <trkpt lat="43.23689" lon="0.85234">
        <ele>373</ele>
        <time>2012-08-12T07:02:50.000Z</time>
      </trkpt>
      <trkpt lat="43.23686" lon="0.85225">
        <ele>374</ele>
        <time>2012-08-12T07:02:52.000Z</time>
      </trkpt>
      <trkpt lat="43.23684" lon="0.85216">
        <ele>375</ele>
        <time>2012-08-12T07:02:54.000Z</time>
      </trkpt>
      <trkpt lat="43.23682" lon="0.85208">
        <ele>375</ele>
        <time>2012-08-12T07:02:56.000Z</time>
      </trkpt>
      <trkpt lat="43.2368" lon="0.85199">
        <ele>375</ele>
        <time>2012-08-12T07:02:58.000Z</time>
      </trkpt>
      <trkpt lat="43.23677" lon="0.85189">
        <ele>375</ele>
        <time>2012-08-12T07:03:00.000Z</time>
      </trkpt>
      <trkpt lat="43.23675" lon="0.85179">
        <ele>375</ele>
        <time>2012-08-12T07:03:02.000Z</time>
      </trkpt>
      <trkpt lat="43.23673" lon="0.85168">
        <ele>375</ele>
        <time>2012-08-12T07:03:04.000Z</time>
      </trkpt>
      <trkpt lat="43.23671" lon="0.85159">
        <ele>375</ele>
        <time>2012-08-12T07:03:06.000Z</time>
      </trkpt>
      <trkpt lat="43.2367" lon="0.8515">
        <ele>375</ele>
        <time>2012-08-12T07:03:08.000Z</time>
      </trkpt>
      <trkpt lat="43.23669" lon="0.85142">
        <ele>376</ele>
        <time>2012-08-12T07:03:10.000Z</time>
      </trkpt>
      <trkpt lat="43.2367" lon="0.85134">
        <ele>375</ele>
        <time>2012-08-12T07:03:12.000Z</time>
      </trkpt>
      <trkpt lat="43.23671" lon="0.85125">
        <ele>376</ele>
        <time>2012-08-12T07:03:14.000Z</time>
      </trkpt>
      <trkpt lat="43.23672" lon="0.85116">
        <ele>376</ele>
        <time>2012-08-12T07:03:16.000Z</time>
      </trkpt>
      <trkpt lat="43.23671" lon="0.85104">
        <ele>376</ele>
        <time>2012-08-12T07:03:18.000Z</time>
      </trkpt>
      <trkpt lat="43.23672" lon="0.85093">
        <ele>376</ele>
        <time>2012-08-12T07:03:20.000Z</time>
      </trkpt>
      <trkpt lat="43.23672" lon="0.85082">
        <ele>376</ele>
        <time>2012-08-12T07:03:22.000Z</time>
      </trkpt>
      <trkpt lat="43.23673" lon="0.8507">
        <ele>377</ele>
        <time>2012-08-12T07:03:24.000Z</time>
      </trkpt>
      <trkpt lat="43.23674" lon="0.8506">
        <ele>378</ele>
        <time>2012-08-12T07:03:26.000Z</time>
      </trkpt>
      <trkpt lat="43.23675" lon="0.85051">
        <ele>379</ele>
        <time>2012-08-12T07:03:28.000Z</time>
      </trkpt>
      <trkpt lat="43.23675" lon="0.85043">
        <ele>379</ele>
        <time>2012-08-12T07:03:30.000Z</time>
      </trkpt>
      <trkpt lat="43.23676" lon="0.85034">
        <ele>380</ele>
        <time>2012-08-12T07:03:32.000Z</time>
      </trkpt>
      <trkpt lat="43.23678" lon="0.85026">
        <ele>381</ele>
        <time>2012-08-12T07:03:34.000Z</time>
      </trkpt>
      <trkpt lat="43.2368" lon="0.85018">
        <ele>381</ele>
        <time>2012-08-12T07:03:36.000Z</time>
      </trkpt>
      <trkpt lat="43.23682" lon="0.85011">
        <ele>380</ele>
        <time>2012-08-12T07:03:38.000Z</time>
      </trkpt>
      <trkpt lat="43.23684" lon="0.85002">
        <ele>380</ele>
        <time>2012-08-12T07:03:40.000Z</time>
      </trkpt>
      <trkpt lat="43.23686" lon="0.84993">
        <ele>380</ele>
        <time>2012-08-12T07:03:42.000Z</time>
      </trkpt>
      <trkpt lat="43.23686" lon="0.84984">
        <ele>380</ele>
        <time>2012-08-12T07:03:44.000Z</time>
      </trkpt>
      <trkpt lat="43.23688" lon="0.84974">
        <ele>381</ele>
        <time>2012-08-12T07:03:46.000Z</time>
      </trkpt>
      <trkpt lat="43.23688" lon="0.84965">
        <ele>382</ele>
        <time>2012-08-12T07:03:48.000Z</time>
      </trkpt>
      <trkpt lat="43.23688" lon="0.84956">
        <ele>382</ele>
        <time>2012-08-12T07:03:50.000Z</time>
      </trkpt>
      <trkpt lat="43.23689" lon="0.84946">
        <ele>382</ele>
        <time>2012-08-12T07:03:52.000Z</time>
      </trkpt>
      <trkpt lat="43.23689" lon="0.84936">
        <ele>383</ele>
        <time>2012-08-12T07:03:54.000Z</time>
      </trkpt>
      <trkpt lat="43.23689" lon="0.84927">
        <ele>383</ele>
        <time>2012-08-12T07:03:56.000Z</time>
      </trkpt>
      <trkpt lat="43.23689" lon="0.84918">
        <ele>384</ele>
        <time>2012-08-12T07:03:58.000Z</time>
      </trkpt>
      <trkpt lat="43.2369" lon="0.84908">
        <ele>384</ele>
        <time>2012-08-12T07:04:00.000Z</time>
      </trkpt>
      <trkpt lat="43.23691" lon="0.84898">
        <ele>385</ele>
        <time>2012-08-12T07:04:02.000Z</time>
      </trkpt>
      <trkpt lat="43.23691" lon="0.84888">
        <ele>386</ele>
        <time>2012-08-12T07:04:04.000Z</time>
      </trkpt>
      <trkpt lat="43.23691" lon="0.84877">
        <ele>387</ele>
        <time>2012-08-12T07:04:06.000Z</time>
      </trkpt>
      <trkpt lat="43.23692" lon="0.84867">
        <ele>387</ele>
        <time>2012-08-12T07:04:08.000Z</time>
      </trkpt>
      <trkpt lat="43.23693" lon="0.84855">
        <ele>387</ele>
        <time>2012-08-12T07:04:10.000Z</time>
      </trkpt>
      <trkpt lat="43.23695" lon="0.84845">
        <ele>387</ele>
        <time>2012-08-12T07:04:12.000Z</time>
      </trkpt>
      <trkpt lat="43.23696" lon="0.84834">
        <ele>388</ele>
        <time>2012-08-12T07:04:14.000Z</time>
      </trkpt>
      <trkpt lat="43.23698" lon="0.84824">
        <ele>387</ele>
        <time>2012-08-12T07:04:16.000Z</time>
      </trkpt>
      <trkpt lat="43.23699" lon="0.84818">
        <ele>387</ele>
        <time>2012-08-12T07:04:17.000Z</time>
      </trkpt>
      <trkpt lat="43.23703" lon="0.84808">
        <ele>388</ele>
        <time>2012-08-12T07:04:19.000Z</time>
      </trkpt>
      <trkpt lat="43.23704" lon="0.84802">
        <ele>388</ele>
        <time>2012-08-12T07:04:20.000Z</time>
      </trkpt>
      <trkpt lat="43.23707" lon="0.84789">
        <ele>388</ele>
        <time>2012-08-12T07:04:22.000Z</time>
      </trkpt>
      <trkpt lat="43.23708" lon="0.84783">
        <ele>388</ele>
        <time>2012-08-12T07:04:23.000Z</time>
      </trkpt>
      <trkpt lat="43.2371" lon="0.84776">
        <ele>388</ele>
        <time>2012-08-12T07:04:24.000Z</time>
      </trkpt>
      <trkpt lat="43.23712" lon="0.8477">
        <ele>388</ele>
        <time>2012-08-12T07:04:25.000Z</time>
      </trkpt>
      <trkpt lat="43.23714" lon="0.84763">
        <ele>388</ele>
        <time>2012-08-12T07:04:26.000Z</time>
      </trkpt>
      <trkpt lat="43.23716" lon="0.84756">
        <ele>388</ele>
        <time>2012-08-12T07:04:27.000Z</time>
      </trkpt>
      <trkpt lat="43.23718" lon="0.84748">
        <ele>389</ele>
        <time>2012-08-12T07:04:28.000Z</time>
      </trkpt>
      <trkpt lat="43.23719" lon="0.84741">
        <ele>389</ele>
        <time>2012-08-12T07:04:29.000Z</time>
      </trkpt>
      <trkpt lat="43.23721" lon="0.84733">
        <ele>389</ele>
        <time>2012-08-12T07:04:30.000Z</time>
      </trkpt>
      <trkpt lat="43.23724" lon="0.84726">
        <ele>389</ele>
        <time>2012-08-12T07:04:31.000Z</time>
      </trkpt>
      <trkpt lat="43.23726" lon="0.84719">
        <ele>390</ele>
        <time>2012-08-12T07:04:32.000Z</time>
      </trkpt>
      <trkpt lat="43.23728" lon="0.84713">
        <ele>391</ele>
        <time>2012-08-12T07:04:33.000Z</time>
      </trkpt>
      <trkpt lat="43.23731" lon="0.84702">
        <ele>391</ele>
        <time>2012-08-12T07:04:35.000Z</time>
      </trkpt>
      <trkpt lat="43.23734" lon="0.84692">
        <ele>392</ele>
        <time>2012-08-12T07:04:37.000Z</time>
      </trkpt>
      <trkpt lat="43.23737" lon="0.8468">
        <ele>392</ele>
        <time>2012-08-12T07:04:39.000Z</time>
      </trkpt>
      <trkpt lat="43.23739" lon="0.84674">
        <ele>392</ele>
        <time>2012-08-12T07:04:40.000Z</time>
      </trkpt>
      <trkpt lat="43.23741" lon="0.84668">
        <ele>391</ele>
        <time>2012-08-12T07:04:41.000Z</time>
      </trkpt>
      <trkpt lat="43.23743" lon="0.84662">
        <ele>391</ele>
        <time>2012-08-12T07:04:42.000Z</time>
      </trkpt>
      <trkpt lat="43.23745" lon="0.84655">
        <ele>391</ele>
        <time>2012-08-12T07:04:43.000Z</time>
      </trkpt>
      <trkpt lat="43.23747" lon="0.84649">
        <ele>391</ele>
        <time>2012-08-12T07:04:44.000Z</time>
      </trkpt>
      <trkpt lat="43.23748" lon="0.84642">
        <ele>391</ele>
        <time>2012-08-12T07:04:45.000Z</time>
      </trkpt>
      <trkpt lat="43.2375" lon="0.84636">
        <ele>391</ele>
        <time>2012-08-12T07:04:46.000Z</time>
      </trkpt>
      <trkpt lat="43.23752" lon="0.8463">
        <ele>391</ele>
        <time>2012-08-12T07:04:47.000Z</time>
      </trkpt>
      <trkpt lat="43.23756" lon="0.84618">
        <ele>391</ele>
        <time>2012-08-12T07:04:49.000Z</time>
      </trkpt>
      <trkpt lat="43.23758" lon="0.84612">
        <ele>390</ele>
        <time>2012-08-12T07:04:50.000Z</time>
      </trkpt>
      <trkpt lat="43.2376" lon="0.84606">
        <ele>390</ele>
        <time>2012-08-12T07:04:51.000Z</time>
      </trkpt>
      <trkpt lat="43.23762" lon="0.846">
        <ele>391</ele>
        <time>2012-08-12T07:04:52.000Z</time>
      </trkpt>
      <trkpt lat="43.23765" lon="0.84589">
        <ele>391</ele>
        <time>2012-08-12T07:04:54.000Z</time>
      </trkpt>
      <trkpt lat="43.23769" lon="0.8458">
        <ele>392</ele>
        <time>2012-08-12T07:04:56.000Z</time>
      </trkpt>
      <trkpt lat="43.23772" lon="0.8457">
        <ele>392</ele>
        <time>2012-08-12T07:04:58.000Z</time>
      </trkpt>
      <trkpt lat="43.23776" lon="0.8456">
        <ele>392</ele>
        <time>2012-08-12T07:05:00.000Z</time>
      </trkpt>
      <trkpt lat="43.23777" lon="0.84551">
        <ele>392</ele>
        <time>2012-08-12T07:05:02.000Z</time>
      </trkpt>
      <trkpt lat="43.23777" lon="0.84541">
        <ele>392</ele>
        <time>2012-08-12T07:05:04.000Z</time>
      </trkpt>
      <trkpt lat="43.23777" lon="0.84531">
        <ele>392</ele>
        <time>2012-08-12T07:05:06.000Z</time>
      </trkpt>
      <trkpt lat="43.2378" lon="0.84522">
        <ele>393</ele>
        <time>2012-08-12T07:05:08.000Z</time>
      </trkpt>
      <trkpt lat="43.23784" lon="0.84514">
        <ele>394</ele>
        <time>2012-08-12T07:05:10.000Z</time>
      </trkpt>
      <trkpt lat="43.23786" lon="0.84507">
        <ele>394</ele>
        <time>2012-08-12T07:05:12.000Z</time>
      </trkpt>
      <trkpt lat="43.23787" lon="0.84498">
        <ele>395</ele>
        <time>2012-08-12T07:05:14.000Z</time>
      </trkpt>
      <trkpt lat="43.23789" lon="0.84492">
        <ele>395</ele>
        <time>2012-08-12T07:05:15.000Z</time>
      </trkpt>
      <trkpt lat="43.23791" lon="0.84484">
        <ele>395</ele>
        <time>2012-08-12T07:05:17.000Z</time>
      </trkpt>
      <trkpt lat="43.23792" lon="0.84477">
        <ele>395</ele>
        <time>2012-08-12T07:05:19.000Z</time>
      </trkpt>
      <trkpt lat="43.23793" lon="0.84469">
        <ele>396</ele>
        <time>2012-08-12T07:05:21.000Z</time>
      </trkpt>
      <trkpt lat="43.23795" lon="0.84462">
        <ele>396</ele>
        <time>2012-08-12T07:05:23.000Z</time>
      </trkpt>
      <trkpt lat="43.23797" lon="0.84454">
        <ele>397</ele>
        <time>2012-08-12T07:05:25.000Z</time>
      </trkpt>
      <trkpt lat="43.23799" lon="0.84447">
        <ele>397</ele>
        <time>2012-08-12T07:05:27.000Z</time>
      </trkpt>
      <trkpt lat="43.23801" lon="0.8444">
        <ele>398</ele>
        <time>2012-08-12T07:05:29.000Z</time>
      </trkpt>
      <trkpt lat="43.23803" lon="0.84432">
        <ele>399</ele>
        <time>2012-08-12T07:05:31.000Z</time>
      </trkpt>
      <trkpt lat="43.23805" lon="0.84425">
        <ele>399</ele>
        <time>2012-08-12T07:05:33.000Z</time>
      </trkpt>
      <trkpt lat="43.23806" lon="0.84416">
        <ele>399</ele>
        <time>2012-08-12T07:05:35.000Z</time>
      </trkpt>
      <trkpt lat="43.23808" lon="0.84407">
        <ele>399</ele>
        <time>2012-08-12T07:05:37.000Z</time>
      </trkpt>
      <trkpt lat="43.2381" lon="0.844">
        <ele>399</ele>
        <time>2012-08-12T07:05:39.000Z</time>
      </trkpt>
      <trkpt lat="43.23812" lon="0.84392">
        <ele>399</ele>
        <time>2012-08-12T07:05:41.000Z</time>
      </trkpt>
      <trkpt lat="43.23814" lon="0.84386">
        <ele>399</ele>
        <time>2012-08-12T07:05:43.000Z</time>
      </trkpt>
      <trkpt lat="43.23816" lon="0.84379">
        <ele>399</ele>
        <time>2012-08-12T07:05:45.000Z</time>
      </trkpt>
      <trkpt lat="43.23817" lon="0.84371">
        <ele>399</ele>
        <time>2012-08-12T07:05:47.000Z</time>
      </trkpt>
      <trkpt lat="43.23819" lon="0.84363">
        <ele>401</ele>
        <time>2012-08-12T07:05:49.000Z</time>
      </trkpt>
      <trkpt lat="43.23821" lon="0.84356">
        <ele>402</ele>
        <time>2012-08-12T07:05:51.000Z</time>
      </trkpt>
      <trkpt lat="43.23822" lon="0.84348">
        <ele>403</ele>
        <time>2012-08-12T07:05:53.000Z</time>
      </trkpt>
      <trkpt lat="43.23824" lon="0.84339">
        <ele>401</ele>
        <time>2012-08-12T07:05:55.000Z</time>
      </trkpt>
      <trkpt lat="43.23826" lon="0.84331">
        <ele>401</ele>
        <time>2012-08-12T07:05:57.000Z</time>
      </trkpt>
      <trkpt lat="43.23827" lon="0.84325">
        <ele>401</ele>
        <time>2012-08-12T07:05:59.000Z</time>
      </trkpt>
      <trkpt lat="43.23828" lon="0.84317">
        <ele>402</ele>
        <time>2012-08-12T07:06:01.000Z</time>
      </trkpt>
      <trkpt lat="43.23829" lon="0.8431">
        <ele>403</ele>
        <time>2012-08-12T07:06:03.000Z</time>
      </trkpt>
      <trkpt lat="43.23831" lon="0.84303">
        <ele>404</ele>
        <time>2012-08-12T07:06:05.000Z</time>
      </trkpt>
      <trkpt lat="43.23831" lon="0.84296">
        <ele>403</ele>
        <time>2012-08-12T07:06:07.000Z</time>
      </trkpt>
      <trkpt lat="43.23833" lon="0.84287">
        <ele>402</ele>
        <time>2012-08-12T07:06:09.000Z</time>
      </trkpt>
      <trkpt lat="43.23835" lon="0.8428">
        <ele>402</ele>
        <time>2012-08-12T07:06:11.000Z</time>
      </trkpt>
      <trkpt lat="43.23836" lon="0.84272">
        <ele>402</ele>
        <time>2012-08-12T07:06:13.000Z</time>
      </trkpt>
      <trkpt lat="43.23839" lon="0.84265">
        <ele>403</ele>
        <time>2012-08-12T07:06:15.000Z</time>
      </trkpt>
      <trkpt lat="43.23842" lon="0.84258">
        <ele>403</ele>
        <time>2012-08-12T07:06:17.000Z</time>
      </trkpt>
      <trkpt lat="43.23846" lon="0.84253">
        <ele>404</ele>
        <time>2012-08-12T07:06:19.000Z</time>
      </trkpt>
      <trkpt lat="43.23848" lon="0.84246">
        <ele>404</ele>
        <time>2012-08-12T07:06:21.000Z</time>
      </trkpt>
      <trkpt lat="43.23851" lon="0.8424">
        <ele>405</ele>
        <time>2012-08-12T07:06:23.000Z</time>
      </trkpt>
      <trkpt lat="43.23856" lon="0.84232">
        <ele>406</ele>
        <time>2012-08-12T07:06:25.000Z</time>
      </trkpt>
      <trkpt lat="43.23858" lon="0.84224">
        <ele>406</ele>
        <time>2012-08-12T07:06:27.000Z</time>
      </trkpt>
      <trkpt lat="43.2386" lon="0.84215">
        <ele>406</ele>
        <time>2012-08-12T07:06:29.000Z</time>
      </trkpt>
      <trkpt lat="43.23862" lon="0.84206">
        <ele>405</ele>
        <time>2012-08-12T07:06:31.000Z</time>
      </trkpt>
      <trkpt lat="43.23865" lon="0.84196">
        <ele>405</ele>
        <time>2012-08-12T07:06:33.000Z</time>
      </trkpt>
      <trkpt lat="43.23866" lon="0.84188">
        <ele>406</ele>
        <time>2012-08-12T07:06:35.000Z</time>
      </trkpt>
      <trkpt lat="43.23866" lon="0.8418">
        <ele>407</ele>
        <time>2012-08-12T07:06:37.000Z</time>
      </trkpt>
      <trkpt lat="43.23868" lon="0.84174">
        <ele>408</ele>
        <time>2012-08-12T07:06:39.000Z</time>
      </trkpt>
      <trkpt lat="43.23869" lon="0.84167">
        <ele>409</ele>
        <time>2012-08-12T07:06:41.000Z</time>
      </trkpt>
      <trkpt lat="43.23872" lon="0.84161">
        <ele>410</ele>
        <time>2012-08-12T07:06:43.000Z</time>
      </trkpt>
      <trkpt lat="43.23876" lon="0.84154">
        <ele>412</ele>
        <time>2012-08-12T07:06:46.000Z</time>
      </trkpt>
      <trkpt lat="43.23878" lon="0.84148">
        <ele>412</ele>
        <time>2012-08-12T07:06:48.000Z</time>
      </trkpt>
      <trkpt lat="43.2388" lon="0.84141">
        <ele>413</ele>
        <time>2012-08-12T07:06:50.000Z</time>
      </trkpt>
      <trkpt lat="43.23882" lon="0.84135">
        <ele>414</ele>
        <time>2012-08-12T07:06:52.000Z</time>
      </trkpt>
      <trkpt lat="43.23885" lon="0.84127">
        <ele>413</ele>
        <time>2012-08-12T07:06:54.000Z</time>
      </trkpt>
      <trkpt lat="43.23888" lon="0.84117">
        <ele>414</ele>
        <time>2012-08-12T07:06:57.000Z</time>
      </trkpt>
      <trkpt lat="43.23892" lon="0.8411">
        <ele>416</ele>
        <time>2012-08-12T07:07:00.000Z</time>
      </trkpt>
      <trkpt lat="43.23896" lon="0.84103">
        <ele>418</ele>
        <time>2012-08-12T07:07:03.000Z</time>
      </trkpt>
      <trkpt lat="43.23899" lon="0.84097">
        <ele>420</ele>
        <time>2012-08-12T07:07:06.000Z</time>
      </trkpt>
      <trkpt lat="43.23902" lon="0.84088">
        <ele>420</ele>
        <time>2012-08-12T07:07:09.000Z</time>
      </trkpt>
      <trkpt lat="43.23906" lon="0.84079">
        <ele>421</ele>
        <time>2012-08-12T07:07:11.000Z</time>
      </trkpt>
      <trkpt lat="43.23909" lon="0.84072">
        <ele>421</ele>
        <time>2012-08-12T07:07:13.000Z</time>
      </trkpt>
      <trkpt lat="43.23913" lon="0.84066">
        <ele>421</ele>
        <time>2012-08-12T07:07:15.000Z</time>
      </trkpt>
      <trkpt lat="43.23916" lon="0.84061">
        <ele>421</ele>
        <time>2012-08-12T07:07:17.000Z</time>
      </trkpt>
      <trkpt lat="43.2392" lon="0.84054">
        <ele>422</ele>
        <time>2012-08-12T07:07:19.000Z</time>
      </trkpt>
      <trkpt lat="43.23924" lon="0.84048">
        <ele>423</ele>
        <time>2012-08-12T07:07:21.000Z</time>
      </trkpt>
      <trkpt lat="43.23928" lon="0.84041">
        <ele>423</ele>
        <time>2012-08-12T07:07:23.000Z</time>
      </trkpt>
      <trkpt lat="43.23931" lon="0.84037">
        <ele>424</ele>
        <time>2012-08-12T07:07:24.000Z</time>
      </trkpt>
      <trkpt lat="43.23936" lon="0.84033">
        <ele>424</ele>
        <time>2012-08-12T07:07:25.000Z</time>
      </trkpt>
      <trkpt lat="43.23941" lon="0.84023">
        <ele>425</ele>
        <time>2012-08-12T07:07:27.000Z</time>
      </trkpt>
      <trkpt lat="43.23946" lon="0.84015">
        <ele>425</ele>
        <time>2012-08-12T07:07:29.000Z</time>
      </trkpt>
      <trkpt lat="43.23953" lon="0.84007">
        <ele>426</ele>
        <time>2012-08-12T07:07:31.000Z</time>
      </trkpt>
      <trkpt lat="43.23956" lon="0.84003">
        <ele>427</ele>
        <time>2012-08-12T07:07:32.000Z</time>
      </trkpt>
      <trkpt lat="43.23962" lon="0.83996">
        <ele>428</ele>
        <time>2012-08-12T07:07:34.000Z</time>
      </trkpt>
      <trkpt lat="43.23968" lon="0.83988">
        <ele>428</ele>
        <time>2012-08-12T07:07:36.000Z</time>
      </trkpt>
      <trkpt lat="43.23974" lon="0.8398">
        <ele>428</ele>
        <time>2012-08-12T07:07:38.000Z</time>
      </trkpt>
      <trkpt lat="43.23978" lon="0.83973">
        <ele>428</ele>
        <time>2012-08-12T07:07:40.000Z</time>
      </trkpt>
      <trkpt lat="43.23983" lon="0.83967">
        <ele>428</ele>
        <time>2012-08-12T07:07:42.000Z</time>
      </trkpt>
      <trkpt lat="43.2399" lon="0.83963">
        <ele>428</ele>
        <time>2012-08-12T07:07:44.000Z</time>
      </trkpt>
      <trkpt lat="43.23995" lon="0.83957">
        <ele>429</ele>
        <time>2012-08-12T07:07:46.000Z</time>
      </trkpt>
      <trkpt lat="43.24001" lon="0.8395">
        <ele>429</ele>
        <time>2012-08-12T07:07:48.000Z</time>
      </trkpt>
      <trkpt lat="43.24006" lon="0.83947">
        <ele>430</ele>
        <time>2012-08-12T07:07:49.000Z</time>
      </trkpt>
      <trkpt lat="43.24014" lon="0.8394">
        <ele>431</ele>
        <time>2012-08-12T07:07:51.000Z</time>
      </trkpt>
      <trkpt lat="43.24021" lon="0.83935">
        <ele>431</ele>
        <time>2012-08-12T07:07:53.000Z</time>
      </trkpt>
      <trkpt lat="43.24027" lon="0.83931">
        <ele>432</ele>
        <time>2012-08-12T07:07:55.000Z</time>
      </trkpt>
      <trkpt lat="43.24033" lon="0.83924">
        <ele>432</ele>
        <time>2012-08-12T07:07:57.000Z</time>
      </trkpt>
      <trkpt lat="43.24038" lon="0.8392">
        <ele>432</ele>
        <time>2012-08-12T07:07:58.000Z</time>
      </trkpt>
      <trkpt lat="43.24043" lon="0.83914">
        <ele>432</ele>
        <time>2012-08-12T07:08:00.000Z</time>
      </trkpt>
      <trkpt lat="43.24048" lon="0.83911">
        <ele>433</ele>
        <time>2012-08-12T07:08:01.000Z</time>
      </trkpt>
      <trkpt lat="43.24056" lon="0.83904">
        <ele>433</ele>
        <time>2012-08-12T07:08:03.000Z</time>
      </trkpt>
      <trkpt lat="43.2406" lon="0.83898">
        <ele>433</ele>
        <time>2012-08-12T07:08:05.000Z</time>
      </trkpt>
      <trkpt lat="43.24066" lon="0.8389">
        <ele>432</ele>
        <time>2012-08-12T07:08:07.000Z</time>
      </trkpt>
      <trkpt lat="43.24075" lon="0.83881">
        <ele>430</ele>
        <time>2012-08-12T07:08:09.000Z</time>
      </trkpt>
      <trkpt lat="43.2408" lon="0.83878">
        <ele>431</ele>
        <time>2012-08-12T07:08:10.000Z</time>
      </trkpt>
      <trkpt lat="43.24087" lon="0.83873">
        <ele>430</ele>
        <time>2012-08-12T07:08:12.000Z</time>
      </trkpt>
      <trkpt lat="43.24092" lon="0.8387">
        <ele>430</ele>
        <time>2012-08-12T07:08:13.000Z</time>
      </trkpt>
      <trkpt lat="43.24099" lon="0.83865">
        <ele>431</ele>
        <time>2012-08-12T07:08:15.000Z</time>
      </trkpt>
      <trkpt lat="43.24106" lon="0.83857">
        <ele>432</ele>
        <time>2012-08-12T07:08:17.000Z</time>
      </trkpt>
      <trkpt lat="43.24114" lon="0.8385">
        <ele>433</ele>
        <time>2012-08-12T07:08:19.000Z</time>
      </trkpt>
      <trkpt lat="43.24117" lon="0.83844">
        <ele>433</ele>
        <time>2012-08-12T07:08:20.000Z</time>
      </trkpt>
      <trkpt lat="43.24122" lon="0.83839">
        <ele>433</ele>
        <time>2012-08-12T07:08:21.000Z</time>
      </trkpt>
      <trkpt lat="43.24129" lon="0.83831">
        <ele>433</ele>
        <time>2012-08-12T07:08:23.000Z</time>
      </trkpt>
      <trkpt lat="43.24133" lon="0.83829">
        <ele>433</ele>
        <time>2012-08-12T07:08:24.000Z</time>
      </trkpt>
      <trkpt lat="43.24138" lon="0.83824">
        <ele>432</ele>
        <time>2012-08-12T07:08:25.000Z</time>
      </trkpt>
      <trkpt lat="43.24144" lon="0.83817">
        <ele>433</ele>
        <time>2012-08-12T07:08:27.000Z</time>
      </trkpt>
      <trkpt lat="43.24152" lon="0.83812">
        <ele>434</ele>
        <time>2012-08-12T07:08:29.000Z</time>
      </trkpt>
      <trkpt lat="43.2416" lon="0.83804">
        <ele>434</ele>
        <time>2012-08-12T07:08:31.000Z</time>
      </trkpt>
      <trkpt lat="43.24164" lon="0.838">
        <ele>435</ele>
        <time>2012-08-12T07:08:32.000Z</time>
      </trkpt>
      <trkpt lat="43.24169" lon="0.83796">
        <ele>437</ele>
        <time>2012-08-12T07:08:33.000Z</time>
      </trkpt>
      <trkpt lat="43.24176" lon="0.83791">
        <ele>438</ele>
        <time>2012-08-12T07:08:35.000Z</time>
      </trkpt>
      <trkpt lat="43.24183" lon="0.83782">
        <ele>437</ele>
        <time>2012-08-12T07:08:37.000Z</time>
      </trkpt>
      <trkpt lat="43.24189" lon="0.83774">
        <ele>437</ele>
        <time>2012-08-12T07:08:39.000Z</time>
      </trkpt>
      <trkpt lat="43.24192" lon="0.83769">
        <ele>437</ele>
        <time>2012-08-12T07:08:40.000Z</time>
      </trkpt>
      <trkpt lat="43.24196" lon="0.83762">
        <ele>438</ele>
        <time>2012-08-12T07:08:42.000Z</time>
      </trkpt>
      <trkpt lat="43.24201" lon="0.83756">
        <ele>438</ele>
        <time>2012-08-12T07:08:44.000Z</time>
      </trkpt>
      <trkpt lat="43.24206" lon="0.83749">
        <ele>436</ele>
        <time>2012-08-12T07:08:46.000Z</time>
      </trkpt>
      <trkpt lat="43.24214" lon="0.83745">
        <ele>436</ele>
        <time>2012-08-12T07:08:48.000Z</time>
      </trkpt>
      <trkpt lat="43.24218" lon="0.83742">
        <ele>436</ele>
        <time>2012-08-12T07:08:49.000Z</time>
      </trkpt>
      <trkpt lat="43.24223" lon="0.83735">
        <ele>436</ele>
        <time>2012-08-12T07:08:51.000Z</time>
      </trkpt>
      <trkpt lat="43.2423" lon="0.83731">
        <ele>437</ele>
        <time>2012-08-12T07:08:53.000Z</time>
      </trkpt>
      <trkpt lat="43.24239" lon="0.83726">
        <ele>437</ele>
        <time>2012-08-12T07:08:55.000Z</time>
      </trkpt>
      <trkpt lat="43.24244" lon="0.83722">
        <ele>437</ele>
        <time>2012-08-12T07:08:56.000Z</time>
      </trkpt>
      <trkpt lat="43.24248" lon="0.83719">
        <ele>436</ele>
        <time>2012-08-12T07:08:57.000Z</time>
      </trkpt>
      <trkpt lat="43.24255" lon="0.83713">
        <ele>433</ele>
        <time>2012-08-12T07:08:59.000Z</time>
      </trkpt>
      <trkpt lat="43.24262" lon="0.8371">
        <ele>432</ele>
        <time>2012-08-12T07:09:01.000Z</time>
      </trkpt>
      <trkpt lat="43.24267" lon="0.83708">
        <ele>432</ele>
        <time>2012-08-12T07:09:03.000Z</time>
      </trkpt>
      <trkpt lat="43.24274" lon="0.83711">
        <ele>434</ele>
        <time>2012-08-12T07:09:05.000Z</time>
      </trkpt>
      <trkpt lat="43.24281" lon="0.8371">
        <ele>436</ele>
        <time>2012-08-12T07:09:07.000Z</time>
      </trkpt>
      <trkpt lat="43.24286" lon="0.83708">
        <ele>438</ele>
        <time>2012-08-12T07:09:09.000Z</time>
      </trkpt>
      <trkpt lat="43.24291" lon="0.83706">
        <ele>439</ele>
        <time>2012-08-12T07:09:11.000Z</time>
      </trkpt>
      <trkpt lat="43.24294" lon="0.83698">
        <ele>442</ele>
        <time>2012-08-12T07:09:14.000Z</time>
      </trkpt>
      <trkpt lat="43.24295" lon="0.83692">
        <ele>442</ele>
        <time>2012-08-12T07:09:17.000Z</time>
      </trkpt>
      <trkpt lat="43.24293" lon="0.83684">
        <ele>443</ele>
        <time>2012-08-12T07:09:20.000Z</time>
      </trkpt>
      <trkpt lat="43.24291" lon="0.83677">
        <ele>443</ele>
        <time>2012-08-12T07:09:22.000Z</time>
      </trkpt>
      <trkpt lat="43.2429" lon="0.83671">
        <ele>442</ele>
        <time>2012-08-12T07:09:24.000Z</time>
      </trkpt>
      <trkpt lat="43.24287" lon="0.83664">
        <ele>442</ele>
        <time>2012-08-12T07:09:26.000Z</time>
      </trkpt>
      <trkpt lat="43.24285" lon="0.83658">
        <ele>442</ele>
        <time>2012-08-12T07:09:28.000Z</time>
      </trkpt>
      <trkpt lat="43.24282" lon="0.83652">
        <ele>442</ele>
        <time>2012-08-12T07:09:30.000Z</time>
      </trkpt>
      <trkpt lat="43.2428" lon="0.83643">
        <ele>443</ele>
        <time>2012-08-12T07:09:32.000Z</time>
      </trkpt>
      <trkpt lat="43.24278" lon="0.83637">
        <ele>443</ele>
        <time>2012-08-12T07:09:33.000Z</time>
      </trkpt>
      <trkpt lat="43.24277" lon="0.83626">
        <ele>444</ele>
        <time>2012-08-12T07:09:35.000Z</time>
      </trkpt>
      <trkpt lat="43.24278" lon="0.83614">
        <ele>445</ele>
        <time>2012-08-12T07:09:37.000Z</time>
      </trkpt>
      <trkpt lat="43.24277" lon="0.83607">
        <ele>445</ele>
        <time>2012-08-12T07:09:38.000Z</time>
      </trkpt>
      <trkpt lat="43.24278" lon="0.836">
        <ele>445</ele>
        <time>2012-08-12T07:09:39.000Z</time>
      </trkpt>
      <trkpt lat="43.24278" lon="0.83587">
        <ele>445</ele>
        <time>2012-08-12T07:09:41.000Z</time>
      </trkpt>
      <trkpt lat="43.24278" lon="0.83581">
        <ele>445</ele>
        <time>2012-08-12T07:09:42.000Z</time>
      </trkpt>
      <trkpt lat="43.24277" lon="0.83574">
        <ele>445</ele>
        <time>2012-08-12T07:09:43.000Z</time>
      </trkpt>
      <trkpt lat="43.24276" lon="0.83567">
        <ele>445</ele>
        <time>2012-08-12T07:09:44.000Z</time>
      </trkpt>
      <trkpt lat="43.24273" lon="0.83559">
        <ele>445</ele>
        <time>2012-08-12T07:09:45.000Z</time>
      </trkpt>
      <trkpt lat="43.24272" lon="0.83552">
        <ele>445</ele>
        <time>2012-08-12T07:09:46.000Z</time>
      </trkpt>
      <trkpt lat="43.24269" lon="0.83545">
        <ele>444</ele>
        <time>2012-08-12T07:09:47.000Z</time>
      </trkpt>
      <trkpt lat="43.24262" lon="0.83535">
        <ele>444</ele>
        <time>2012-08-12T07:09:48.000Z</time>
      </trkpt>
      <trkpt lat="43.24255" lon="0.83524">
        <ele>444</ele>
        <time>2012-08-12T07:09:49.000Z</time>
      </trkpt>
      <trkpt lat="43.24248" lon="0.83514">
        <ele>444</ele>
        <time>2012-08-12T07:09:50.000Z</time>
      </trkpt>
      <trkpt lat="43.24244" lon="0.83505">
        <ele>444</ele>
        <time>2012-08-12T07:09:51.000Z</time>
      </trkpt>
      <trkpt lat="43.2424" lon="0.83495">
        <ele>443</ele>
        <time>2012-08-12T07:09:52.000Z</time>
      </trkpt>
      <trkpt lat="43.24237" lon="0.83485">
        <ele>442</ele>
        <time>2012-08-12T07:09:53.000Z</time>
      </trkpt>
      <trkpt lat="43.24233" lon="0.83477">
        <ele>442</ele>
        <time>2012-08-12T07:09:54.000Z</time>
      </trkpt>
      <trkpt lat="43.24229" lon="0.83468">
        <ele>443</ele>
        <time>2012-08-12T07:09:55.000Z</time>
      </trkpt>
      <trkpt lat="43.24226" lon="0.83458">
        <ele>443</ele>
        <time>2012-08-12T07:09:56.000Z</time>
      </trkpt>
      <trkpt lat="43.24222" lon="0.83449">
        <ele>443</ele>
        <time>2012-08-12T07:09:57.000Z</time>
      </trkpt>
      <trkpt lat="43.24218" lon="0.83441">
        <ele>442</ele>
        <time>2012-08-12T07:09:58.000Z</time>
      </trkpt>
      <trkpt lat="43.24216" lon="0.83431">
        <ele>442</ele>
        <time>2012-08-12T07:09:59.000Z</time>
      </trkpt>
      <trkpt lat="43.24212" lon="0.8342">
        <ele>441</ele>
        <time>2012-08-12T07:10:00.000Z</time>
      </trkpt>
      <trkpt lat="43.24209" lon="0.83411">
        <ele>440</ele>
        <time>2012-08-12T07:10:01.000Z</time>
      </trkpt>
      <trkpt lat="43.24205" lon="0.83402">
        <ele>440</ele>
        <time>2012-08-12T07:10:02.000Z</time>
      </trkpt>
      <trkpt lat="43.24202" lon="0.83392">
        <ele>439</ele>
        <time>2012-08-12T07:10:03.000Z</time>
      </trkpt>
      <trkpt lat="43.24197" lon="0.83385">
        <ele>439</ele>
        <time>2012-08-12T07:10:04.000Z</time>
      </trkpt>
      <trkpt lat="43.24191" lon="0.83379">
        <ele>438</ele>
        <time>2012-08-12T07:10:05.000Z</time>
      </trkpt>
      <trkpt lat="43.24187" lon="0.83372">
        <ele>438</ele>
        <time>2012-08-12T07:10:06.000Z</time>
      </trkpt>
      <trkpt lat="43.24184" lon="0.83366">
        <ele>438</ele>
        <time>2012-08-12T07:10:07.000Z</time>
      </trkpt>
      <trkpt lat="43.24182" lon="0.83357">
        <ele>438</ele>
        <time>2012-08-12T07:10:09.000Z</time>
      </trkpt>
      <trkpt lat="43.24176" lon="0.83352">
        <ele>437</ele>
        <time>2012-08-12T07:10:11.000Z</time>
      </trkpt>
      <trkpt lat="43.24174" lon="0.83358">
        <ele>436</ele>
        <time>2012-08-12T07:10:14.000Z</time>
      </trkpt>
      <trkpt lat="43.24172" lon="0.83365">
        <ele>436</ele>
        <time>2012-08-12T07:10:17.000Z</time>
      </trkpt>
      <trkpt lat="43.24169" lon="0.83372">
        <ele>436</ele>
        <time>2012-08-12T07:10:20.000Z</time>
      </trkpt>
      <trkpt lat="43.24174" lon="0.83376">
        <ele>436</ele>
        <time>2012-08-12T07:10:21.000Z</time>
      </trkpt>
      <trkpt lat="43.24175" lon="0.83382">
        <ele>436</ele>
        <time>2012-08-12T07:10:23.000Z</time>
      </trkpt>
      <trkpt lat="43.2418" lon="0.8339">
        <ele>435</ele>
        <time>2012-08-12T07:10:26.000Z</time>
      </trkpt>
      <trkpt lat="43.24183" lon="0.83397">
        <ele>434</ele>
        <time>2012-08-12T07:10:28.000Z</time>
      </trkpt>
      <trkpt lat="43.24188" lon="0.83404">
        <ele>434</ele>
        <time>2012-08-12T07:10:31.000Z</time>
      </trkpt>
      <trkpt lat="43.24189" lon="0.83412">
        <ele>435</ele>
        <time>2012-08-12T07:10:34.000Z</time>
      </trkpt>
      <trkpt lat="43.24192" lon="0.83418">
        <ele>434</ele>
        <time>2012-08-12T07:10:36.000Z</time>
      </trkpt>
      <trkpt lat="43.24198" lon="0.83425">
        <ele>434</ele>
        <time>2012-08-12T07:10:40.000Z</time>
      </trkpt>
      <trkpt lat="43.24205" lon="0.83426">
        <ele>433</ele>
        <time>2012-08-12T07:10:41.000Z</time>
      </trkpt>
      <trkpt lat="43.24211" lon="0.83425">
        <ele>432</ele>
        <time>2012-08-12T07:10:43.000Z</time>
      </trkpt>
      <trkpt lat="43.24217" lon="0.83424">
        <ele>432</ele>
        <time>2012-08-12T07:10:44.000Z</time>
      </trkpt>
      <trkpt lat="43.24222" lon="0.83422">
        <ele>432</ele>
        <time>2012-08-12T07:10:45.000Z</time>
      </trkpt>
      <trkpt lat="43.24229" lon="0.8342">
        <ele>432</ele>
        <time>2012-08-12T07:10:46.000Z</time>
      </trkpt>
      <trkpt lat="43.24235" lon="0.83418">
        <ele>432</ele>
        <time>2012-08-12T07:10:47.000Z</time>
      </trkpt>
      <trkpt lat="43.24241" lon="0.83416">
        <ele>431</ele>
        <time>2012-08-12T07:10:48.000Z</time>
      </trkpt>
      <trkpt lat="43.24248" lon="0.83412">
        <ele>431</ele>
        <time>2012-08-12T07:10:49.000Z</time>
      </trkpt>
      <trkpt lat="43.24255" lon="0.83409">
        <ele>432</ele>
        <time>2012-08-12T07:10:50.000Z</time>
      </trkpt>
      <trkpt lat="43.2426" lon="0.83405">
        <ele>432</ele>
        <time>2012-08-12T07:10:51.000Z</time>
      </trkpt>
      <trkpt lat="43.24266" lon="0.83403">
        <ele>432</ele>
        <time>2012-08-12T07:10:52.000Z</time>
      </trkpt>
      <trkpt lat="43.24271" lon="0.83401">
        <ele>432</ele>
        <time>2012-08-12T07:10:53.000Z</time>
      </trkpt>
      <trkpt lat="43.24278" lon="0.83399">
        <ele>432</ele>
        <time>2012-08-12T07:10:54.000Z</time>
      </trkpt>
      <trkpt lat="43.24284" lon="0.83395">
        <ele>431</ele>
        <time>2012-08-12T07:10:55.000Z</time>
      </trkpt>
      <trkpt lat="43.24292" lon="0.83392">
        <ele>431</ele>
        <time>2012-08-12T07:10:56.000Z</time>
      </trkpt>
      <trkpt lat="43.243" lon="0.8339">
        <ele>431</ele>
        <time>2012-08-12T07:10:57.000Z</time>
      </trkpt>
      <trkpt lat="43.24307" lon="0.83387">
        <ele>431</ele>
        <time>2012-08-12T07:10:58.000Z</time>
      </trkpt>
      <trkpt lat="43.24314" lon="0.83384">
        <ele>432</ele>
        <time>2012-08-12T07:10:59.000Z</time>
      </trkpt>
      <trkpt lat="43.24322" lon="0.83382">
        <ele>432</ele>
        <time>2012-08-12T07:11:00.000Z</time>
      </trkpt>
      <trkpt lat="43.24331" lon="0.83378">
        <ele>432</ele>
        <time>2012-08-12T07:11:01.000Z</time>
      </trkpt>
      <trkpt lat="43.24338" lon="0.83374">
        <ele>433</ele>
        <time>2012-08-12T07:11:02.000Z</time>
      </trkpt>
      <trkpt lat="43.24345" lon="0.83369">
        <ele>433</ele>
        <time>2012-08-12T07:11:03.000Z</time>
      </trkpt>
      <trkpt lat="43.24353" lon="0.8336">
        <ele>434</ele>
        <time>2012-08-12T07:11:05.000Z</time>
      </trkpt>
      <trkpt lat="43.24358" lon="0.83354">
        <ele>434</ele>
        <time>2012-08-12T07:11:06.000Z</time>
      </trkpt>
      <trkpt lat="43.24361" lon="0.83348">
        <ele>434</ele>
        <time>2012-08-12T07:11:07.000Z</time>
      </trkpt>
      <trkpt lat="43.24366" lon="0.83344">
        <ele>434</ele>
        <time>2012-08-12T07:11:08.000Z</time>
      </trkpt>
      <trkpt lat="43.24371" lon="0.8334">
        <ele>434</ele>
        <time>2012-08-12T07:11:09.000Z</time>
      </trkpt>
      <trkpt lat="43.24375" lon="0.83335">
        <ele>434</ele>
        <time>2012-08-12T07:11:10.000Z</time>
      </trkpt>
      <trkpt lat="43.2438" lon="0.8333">
        <ele>434</ele>
        <time>2012-08-12T07:11:11.000Z</time>
      </trkpt>
      <trkpt lat="43.24386" lon="0.83326">
        <ele>434</ele>
        <time>2012-08-12T07:11:12.000Z</time>
      </trkpt>
      <trkpt lat="43.24392" lon="0.83321">
        <ele>434</ele>
        <time>2012-08-12T07:11:13.000Z</time>
      </trkpt>
      <trkpt lat="43.24396" lon="0.83314">
        <ele>434</ele>
        <time>2012-08-12T07:11:14.000Z</time>
      </trkpt>
      <trkpt lat="43.24401" lon="0.83307">
        <ele>434</ele>
        <time>2012-08-12T07:11:15.000Z</time>
      </trkpt>
      <trkpt lat="43.24405" lon="0.83302">
        <ele>434</ele>
        <time>2012-08-12T07:11:16.000Z</time>
      </trkpt>
      <trkpt lat="43.2441" lon="0.83296">
        <ele>434</ele>
        <time>2012-08-12T07:11:17.000Z</time>
      </trkpt>
      <trkpt lat="43.24416" lon="0.83287">
        <ele>434</ele>
        <time>2012-08-12T07:11:19.000Z</time>
      </trkpt>
      <trkpt lat="43.24419" lon="0.83282">
        <ele>433</ele>
        <time>2012-08-12T07:11:20.000Z</time>
      </trkpt>
      <trkpt lat="43.24424" lon="0.83274">
        <ele>434</ele>
        <time>2012-08-12T07:11:21.000Z</time>
      </trkpt>
      <trkpt lat="43.24429" lon="0.83269">
        <ele>433</ele>
        <time>2012-08-12T07:11:22.000Z</time>
      </trkpt>
      <trkpt lat="43.24434" lon="0.83263">
        <ele>433</ele>
        <time>2012-08-12T07:11:23.000Z</time>
      </trkpt>
      <trkpt lat="43.2444" lon="0.83262">
        <ele>434</ele>
        <time>2012-08-12T07:11:24.000Z</time>
      </trkpt>
      <trkpt lat="43.24444" lon="0.83258">
        <ele>434</ele>
        <time>2012-08-12T07:11:25.000Z</time>
      </trkpt>
      <trkpt lat="43.24448" lon="0.83252">
        <ele>433</ele>
        <time>2012-08-12T07:11:26.000Z</time>
      </trkpt>
      <trkpt lat="43.24453" lon="0.83249">
        <ele>432</ele>
        <time>2012-08-12T07:11:27.000Z</time>
      </trkpt>
      <trkpt lat="43.24458" lon="0.83244">
        <ele>432</ele>
        <time>2012-08-12T07:11:28.000Z</time>
      </trkpt>
      <trkpt lat="43.24463" lon="0.83241">
        <ele>432</ele>
        <time>2012-08-12T07:11:29.000Z</time>
      </trkpt>
      <trkpt lat="43.24469" lon="0.83238">
        <ele>432</ele>
        <time>2012-08-12T07:11:30.000Z</time>
      </trkpt>
      <trkpt lat="43.24478" lon="0.83233">
        <ele>431</ele>
        <time>2012-08-12T07:11:32.000Z</time>
      </trkpt>
      <trkpt lat="43.24484" lon="0.8323">
        <ele>430</ele>
        <time>2012-08-12T07:11:33.000Z</time>
      </trkpt>
      <trkpt lat="43.24489" lon="0.83228">
        <ele>430</ele>
        <time>2012-08-12T07:11:34.000Z</time>
      </trkpt>
      <trkpt lat="43.24497" lon="0.83227">
        <ele>430</ele>
        <time>2012-08-12T07:11:35.000Z</time>
      </trkpt>
      <trkpt lat="43.24502" lon="0.83225">
        <ele>429</ele>
        <time>2012-08-12T07:11:36.000Z</time>
      </trkpt>
      <trkpt lat="43.2451" lon="0.8322">
        <ele>429</ele>
        <time>2012-08-12T07:11:37.000Z</time>
      </trkpt>
      <trkpt lat="43.24517" lon="0.83217">
        <ele>429</ele>
        <time>2012-08-12T07:11:38.000Z</time>
      </trkpt>
      <trkpt lat="43.24525" lon="0.83213">
        <ele>428</ele>
        <time>2012-08-12T07:11:39.000Z</time>
      </trkpt>
      <trkpt lat="43.24532" lon="0.83208">
        <ele>428</ele>
        <time>2012-08-12T07:11:40.000Z</time>
      </trkpt>
      <trkpt lat="43.24538" lon="0.83202">
        <ele>427</ele>
        <time>2012-08-12T07:11:41.000Z</time>
      </trkpt>
      <trkpt lat="43.24546" lon="0.83196">
        <ele>427</ele>
        <time>2012-08-12T07:11:42.000Z</time>
      </trkpt>
      <trkpt lat="43.24553" lon="0.83191">
        <ele>427</ele>
        <time>2012-08-12T07:11:43.000Z</time>
      </trkpt>
      <trkpt lat="43.2456" lon="0.83185">
        <ele>427</ele>
        <time>2012-08-12T07:11:44.000Z</time>
      </trkpt>
      <trkpt lat="43.24565" lon="0.83178">
        <ele>427</ele>
        <time>2012-08-12T07:11:45.000Z</time>
      </trkpt>
      <trkpt lat="43.24572" lon="0.83171">
        <ele>427</ele>
        <time>2012-08-12T07:11:46.000Z</time>
      </trkpt>
      <trkpt lat="43.24579" lon="0.83165">
        <ele>427</ele>
        <time>2012-08-12T07:11:47.000Z</time>
      </trkpt>
      <trkpt lat="43.24585" lon="0.83159">
        <ele>427</ele>
        <time>2012-08-12T07:11:48.000Z</time>
      </trkpt>
      <trkpt lat="43.24589" lon="0.83153">
        <ele>428</ele>
        <time>2012-08-12T07:11:49.000Z</time>
      </trkpt>
      <trkpt lat="43.24594" lon="0.83148">
        <ele>428</ele>
        <time>2012-08-12T07:11:50.000Z</time>
      </trkpt>
      <trkpt lat="43.246" lon="0.83142">
        <ele>427</ele>
        <time>2012-08-12T07:11:51.000Z</time>
      </trkpt>
      <trkpt lat="43.24605" lon="0.83136">
        <ele>427</ele>
        <time>2012-08-12T07:11:52.000Z</time>
      </trkpt>
      <trkpt lat="43.24611" lon="0.83129">
        <ele>427</ele>
        <time>2012-08-12T07:11:53.000Z</time>
      </trkpt>
      <trkpt lat="43.24615" lon="0.83123">
        <ele>427</ele>
        <time>2012-08-12T07:11:54.000Z</time>
      </trkpt>
      <trkpt lat="43.24622" lon="0.83118">
        <ele>427</ele>
        <time>2012-08-12T07:11:55.000Z</time>
      </trkpt>
      <trkpt lat="43.24627" lon="0.83112">
        <ele>427</ele>
        <time>2012-08-12T07:11:56.000Z</time>
      </trkpt>
      <trkpt lat="43.24631" lon="0.83107">
        <ele>426</ele>
        <time>2012-08-12T07:11:57.000Z</time>
      </trkpt>
      <trkpt lat="43.24637" lon="0.83102">
        <ele>426</ele>
        <time>2012-08-12T07:11:58.000Z</time>
      </trkpt>
      <trkpt lat="43.24643" lon="0.83096">
        <ele>426</ele>
        <time>2012-08-12T07:11:59.000Z</time>
      </trkpt>
      <trkpt lat="43.24649" lon="0.83092">
        <ele>425</ele>
        <time>2012-08-12T07:12:00.000Z</time>
      </trkpt>
      <trkpt lat="43.24656" lon="0.83087">
        <ele>425</ele>
        <time>2012-08-12T07:12:01.000Z</time>
      </trkpt>
      <trkpt lat="43.24661" lon="0.83081">
        <ele>425</ele>
        <time>2012-08-12T07:12:02.000Z</time>
      </trkpt>
      <trkpt lat="43.2467" lon="0.83076">
        <ele>425</ele>
        <time>2012-08-12T07:12:03.000Z</time>
      </trkpt>
      <trkpt lat="43.24675" lon="0.8307">
        <ele>425</ele>
        <time>2012-08-12T07:12:04.000Z</time>
      </trkpt>
      <trkpt lat="43.24683" lon="0.83064">
        <ele>424</ele>
        <time>2012-08-12T07:12:05.000Z</time>
      </trkpt>
      <trkpt lat="43.2469" lon="0.83061">
        <ele>422</ele>
        <time>2012-08-12T07:12:06.000Z</time>
      </trkpt>
      <trkpt lat="43.24697" lon="0.83058">
        <ele>422</ele>
        <time>2012-08-12T07:12:07.000Z</time>
      </trkpt>
      <trkpt lat="43.24704" lon="0.83058">
        <ele>422</ele>
        <time>2012-08-12T07:12:08.000Z</time>
      </trkpt>
      <trkpt lat="43.2471" lon="0.8306">
        <ele>421</ele>
        <time>2012-08-12T07:12:09.000Z</time>
      </trkpt>
      <trkpt lat="43.24715" lon="0.83063">
        <ele>419</ele>
        <time>2012-08-12T07:12:10.000Z</time>
      </trkpt>
      <trkpt lat="43.24723" lon="0.83068">
        <ele>419</ele>
        <time>2012-08-12T07:12:11.000Z</time>
      </trkpt>
      <trkpt lat="43.2473" lon="0.83072">
        <ele>418</ele>
        <time>2012-08-12T07:12:12.000Z</time>
      </trkpt>
      <trkpt lat="43.24736" lon="0.83076">
        <ele>418</ele>
        <time>2012-08-12T07:12:13.000Z</time>
      </trkpt>
      <trkpt lat="43.24743" lon="0.83079">
        <ele>416</ele>
        <time>2012-08-12T07:12:14.000Z</time>
      </trkpt>
      <trkpt lat="43.24749" lon="0.83081">
        <ele>416</ele>
        <time>2012-08-12T07:12:15.000Z</time>
      </trkpt>
      <trkpt lat="43.24755" lon="0.83084">
        <ele>415</ele>
        <time>2012-08-12T07:12:16.000Z</time>
      </trkpt>
      <trkpt lat="43.2476" lon="0.83085">
        <ele>414</ele>
        <time>2012-08-12T07:12:17.000Z</time>
      </trkpt>
      <trkpt lat="43.24765" lon="0.83083">
        <ele>413</ele>
        <time>2012-08-12T07:12:18.000Z</time>
      </trkpt>
      <trkpt lat="43.2477" lon="0.83081">
        <ele>413</ele>
        <time>2012-08-12T07:12:19.000Z</time>
      </trkpt>
      <trkpt lat="43.24773" lon="0.83076">
        <ele>412</ele>
        <time>2012-08-12T07:12:21.000Z</time>
      </trkpt>
      <trkpt lat="43.24777" lon="0.83064">
        <ele>411</ele>
        <time>2012-08-12T07:12:23.000Z</time>
      </trkpt>
      <trkpt lat="43.24779" lon="0.83057">
        <ele>410</ele>
        <time>2012-08-12T07:12:24.000Z</time>
      </trkpt>
      <trkpt lat="43.24782" lon="0.83044">
        <ele>410</ele>
        <time>2012-08-12T07:12:26.000Z</time>
      </trkpt>
      <trkpt lat="43.24784" lon="0.83037">
        <ele>409</ele>
        <time>2012-08-12T07:12:27.000Z</time>
      </trkpt>
      <trkpt lat="43.24786" lon="0.83028">
        <ele>409</ele>
        <time>2012-08-12T07:12:28.000Z</time>
      </trkpt>
      <trkpt lat="43.24789" lon="0.8302">
        <ele>408</ele>
        <time>2012-08-12T07:12:29.000Z</time>
      </trkpt>
      <trkpt lat="43.24793" lon="0.83013">
        <ele>407</ele>
        <time>2012-08-12T07:12:30.000Z</time>
      </trkpt>
      <trkpt lat="43.24796" lon="0.83006">
        <ele>406</ele>
        <time>2012-08-12T07:12:31.000Z</time>
      </trkpt>
      <trkpt lat="43.24799" lon="0.83">
        <ele>406</ele>
        <time>2012-08-12T07:12:32.000Z</time>
      </trkpt>
      <trkpt lat="43.24802" lon="0.82994">
        <ele>405</ele>
        <time>2012-08-12T07:12:33.000Z</time>
      </trkpt>
      <trkpt lat="43.24807" lon="0.8299">
        <ele>405</ele>
        <time>2012-08-12T07:12:34.000Z</time>
      </trkpt>
      <trkpt lat="43.24812" lon="0.82987">
        <ele>405</ele>
        <time>2012-08-12T07:12:35.000Z</time>
      </trkpt>
      <trkpt lat="43.24819" lon="0.82983">
        <ele>405</ele>
        <time>2012-08-12T07:12:37.000Z</time>
      </trkpt>
      <trkpt lat="43.24829" lon="0.82982">
        <ele>405</ele>
        <time>2012-08-12T07:12:39.000Z</time>
      </trkpt>
      <trkpt lat="43.24834" lon="0.82981">
        <ele>404</ele>
        <time>2012-08-12T07:12:40.000Z</time>
      </trkpt>
      <trkpt lat="43.24839" lon="0.82982">
        <ele>404</ele>
        <time>2012-08-12T07:12:41.000Z</time>
      </trkpt>
      <trkpt lat="43.24843" lon="0.82985">
        <ele>403</ele>
        <time>2012-08-12T07:12:42.000Z</time>
      </trkpt>
      <trkpt lat="43.24847" lon="0.82989">
        <ele>403</ele>
        <time>2012-08-12T07:12:43.000Z</time>
      </trkpt>
      <trkpt lat="43.24853" lon="0.82993">
        <ele>403</ele>
        <time>2012-08-12T07:12:44.000Z</time>
      </trkpt>
      <trkpt lat="43.24857" lon="0.82998">
        <ele>403</ele>
        <time>2012-08-12T07:12:45.000Z</time>
      </trkpt>
      <trkpt lat="43.24862" lon="0.82998">
        <ele>401</ele>
        <time>2012-08-12T07:12:46.000Z</time>
      </trkpt>
      <trkpt lat="43.24869" lon="0.82997">
        <ele>400</ele>
        <time>2012-08-12T07:12:47.000Z</time>
      </trkpt>
      <trkpt lat="43.24875" lon="0.82994">
        <ele>399</ele>
        <time>2012-08-12T07:12:48.000Z</time>
      </trkpt>
      <trkpt lat="43.24882" lon="0.82993">
        <ele>397</ele>
        <time>2012-08-12T07:12:49.000Z</time>
      </trkpt>
      <trkpt lat="43.24889" lon="0.82993">
        <ele>397</ele>
        <time>2012-08-12T07:12:50.000Z</time>
      </trkpt>
      <trkpt lat="43.24896" lon="0.82991">
        <ele>396</ele>
        <time>2012-08-12T07:12:51.000Z</time>
      </trkpt>
      <trkpt lat="43.24904" lon="0.8299">
        <ele>396</ele>
        <time>2012-08-12T07:12:52.000Z</time>
      </trkpt>
      <trkpt lat="43.24912" lon="0.8299">
        <ele>395</ele>
        <time>2012-08-12T07:12:53.000Z</time>
      </trkpt>
      <trkpt lat="43.24922" lon="0.82989">
        <ele>395</ele>
        <time>2012-08-12T07:12:54.000Z</time>
      </trkpt>
      <trkpt lat="43.2493" lon="0.82989">
        <ele>395</ele>
        <time>2012-08-12T07:12:55.000Z</time>
      </trkpt>
      <trkpt lat="43.24938" lon="0.82988">
        <ele>395</ele>
        <time>2012-08-12T07:12:56.000Z</time>
      </trkpt>
      <trkpt lat="43.24945" lon="0.82988">
        <ele>395</ele>
        <time>2012-08-12T07:12:57.000Z</time>
      </trkpt>
      <trkpt lat="43.24953" lon="0.82986">
        <ele>395</ele>
        <time>2012-08-12T07:12:58.000Z</time>
      </trkpt>
      <trkpt lat="43.2496" lon="0.82985">
        <ele>395</ele>
        <time>2012-08-12T07:12:59.000Z</time>
      </trkpt>
      <trkpt lat="43.24968" lon="0.82984">
        <ele>395</ele>
        <time>2012-08-12T07:13:00.000Z</time>
      </trkpt>
      <trkpt lat="43.24974" lon="0.82984">
        <ele>393</ele>
        <time>2012-08-12T07:13:01.000Z</time>
      </trkpt>
      <trkpt lat="43.24983" lon="0.82983">
        <ele>393</ele>
        <time>2012-08-12T07:13:02.000Z</time>
      </trkpt>
      <trkpt lat="43.24991" lon="0.82979">
        <ele>391</ele>
        <time>2012-08-12T07:13:03.000Z</time>
      </trkpt>
      <trkpt lat="43.24999" lon="0.82976">
        <ele>390</ele>
        <time>2012-08-12T07:13:04.000Z</time>
      </trkpt>
      <trkpt lat="43.25008" lon="0.82974">
        <ele>389</ele>
        <time>2012-08-12T07:13:05.000Z</time>
      </trkpt>
      <trkpt lat="43.25016" lon="0.8297">
        <ele>388</ele>
        <time>2012-08-12T07:13:06.000Z</time>
      </trkpt>
      <trkpt lat="43.25024" lon="0.82968">
        <ele>387</ele>
        <time>2012-08-12T07:13:07.000Z</time>
      </trkpt>
      <trkpt lat="43.25032" lon="0.82965">
        <ele>386</ele>
        <time>2012-08-12T07:13:08.000Z</time>
      </trkpt>
      <trkpt lat="43.2504" lon="0.82961">
        <ele>386</ele>
        <time>2012-08-12T07:13:09.000Z</time>
      </trkpt>
      <trkpt lat="43.25049" lon="0.82958">
        <ele>385</ele>
        <time>2012-08-12T07:13:10.000Z</time>
      </trkpt>
      <trkpt lat="43.25055" lon="0.82956">
        <ele>384</ele>
        <time>2012-08-12T07:13:11.000Z</time>
      </trkpt>
      <trkpt lat="43.25062" lon="0.82954">
        <ele>384</ele>
        <time>2012-08-12T07:13:12.000Z</time>
      </trkpt>
      <trkpt lat="43.25067" lon="0.82951">
        <ele>384</ele>
        <time>2012-08-12T07:13:13.000Z</time>
      </trkpt>
      <trkpt lat="43.25073" lon="0.82943">
        <ele>383</ele>
        <time>2012-08-12T07:13:15.000Z</time>
      </trkpt>
      <trkpt lat="43.2507" lon="0.82931">
        <ele>382</ele>
        <time>2012-08-12T07:13:17.000Z</time>
      </trkpt>
      <trkpt lat="43.25067" lon="0.82925">
        <ele>382</ele>
        <time>2012-08-12T07:13:18.000Z</time>
      </trkpt>
      <trkpt lat="43.25066" lon="0.82918">
        <ele>383</ele>
        <time>2012-08-12T07:13:19.000Z</time>
      </trkpt>
      <trkpt lat="43.25065" lon="0.82911">
        <ele>382</ele>
        <time>2012-08-12T07:13:20.000Z</time>
      </trkpt>
      <trkpt lat="43.25065" lon="0.82904">
        <ele>381</ele>
        <time>2012-08-12T07:13:21.000Z</time>
      </trkpt>
      <trkpt lat="43.25064" lon="0.82897">
        <ele>380</ele>
        <time>2012-08-12T07:13:22.000Z</time>
      </trkpt>
      <trkpt lat="43.25064" lon="0.82885">
        <ele>379</ele>
        <time>2012-08-12T07:13:24.000Z</time>
      </trkpt>
      <trkpt lat="43.25064" lon="0.82878">
        <ele>378</ele>
        <time>2012-08-12T07:13:25.000Z</time>
      </trkpt>
      <trkpt lat="43.25062" lon="0.82865">
        <ele>377</ele>
        <time>2012-08-12T07:13:27.000Z</time>
      </trkpt>
      <trkpt lat="43.25062" lon="0.82857">
        <ele>377</ele>
        <time>2012-08-12T07:13:28.000Z</time>
      </trkpt>
      <trkpt lat="43.25061" lon="0.82849">
        <ele>376</ele>
        <time>2012-08-12T07:13:29.000Z</time>
      </trkpt>
      <trkpt lat="43.2506" lon="0.82842">
        <ele>375</ele>
        <time>2012-08-12T07:13:30.000Z</time>
      </trkpt>
      <trkpt lat="43.2506" lon="0.8283">
        <ele>375</ele>
        <time>2012-08-12T07:13:32.000Z</time>
      </trkpt>
      <trkpt lat="43.2506" lon="0.8282">
        <ele>375</ele>
        <time>2012-08-12T07:13:34.000Z</time>
      </trkpt>
      <trkpt lat="43.2506" lon="0.82808">
        <ele>374</ele>
        <time>2012-08-12T07:13:36.000Z</time>
      </trkpt>
      <trkpt lat="43.2506" lon="0.82796">
        <ele>373</ele>
        <time>2012-08-12T07:13:38.000Z</time>
      </trkpt>
      <trkpt lat="43.25056" lon="0.8278">
        <ele>372</ele>
        <time>2012-08-12T07:13:40.000Z</time>
      </trkpt>
      <trkpt lat="43.25055" lon="0.82772">
        <ele>372</ele>
        <time>2012-08-12T07:13:41.000Z</time>
      </trkpt>
      <trkpt lat="43.25056" lon="0.8276">
        <ele>373</ele>
        <time>2012-08-12T07:13:43.000Z</time>
      </trkpt>
      <trkpt lat="43.25056" lon="0.82754">
        <ele>372</ele>
        <time>2012-08-12T07:13:44.000Z</time>
      </trkpt>
      <trkpt lat="43.25057" lon="0.82747">
        <ele>372</ele>
        <time>2012-08-12T07:13:45.000Z</time>
      </trkpt>
      <trkpt lat="43.25056" lon="0.82739">
        <ele>372</ele>
        <time>2012-08-12T07:13:46.000Z</time>
      </trkpt>
      <trkpt lat="43.25056" lon="0.82732">
        <ele>371</ele>
        <time>2012-08-12T07:13:47.000Z</time>
      </trkpt>
      <trkpt lat="43.25057" lon="0.82725">
        <ele>370</ele>
        <time>2012-08-12T07:13:48.000Z</time>
      </trkpt>
      <trkpt lat="43.25057" lon="0.82718">
        <ele>371</ele>
        <time>2012-08-12T07:13:49.000Z</time>
      </trkpt>
      <trkpt lat="43.25057" lon="0.82707">
        <ele>371</ele>
        <time>2012-08-12T07:13:51.000Z</time>
      </trkpt>
      <trkpt lat="43.25058" lon="0.82695">
        <ele>370</ele>
        <time>2012-08-12T07:13:53.000Z</time>
      </trkpt>
      <trkpt lat="43.25059" lon="0.82686">
        <ele>370</ele>
        <time>2012-08-12T07:13:54.000Z</time>
      </trkpt>
      <trkpt lat="43.2506" lon="0.82678">
        <ele>370</ele>
        <time>2012-08-12T07:13:55.000Z</time>
      </trkpt>
      <trkpt lat="43.2506" lon="0.82672">
        <ele>368</ele>
        <time>2012-08-12T07:13:56.000Z</time>
      </trkpt>
      <trkpt lat="43.2506" lon="0.82664">
        <ele>367</ele>
        <time>2012-08-12T07:13:57.000Z</time>
      </trkpt>
      <trkpt lat="43.2506" lon="0.82654">
        <ele>366</ele>
        <time>2012-08-12T07:13:58.000Z</time>
      </trkpt>
      <trkpt lat="43.2506" lon="0.82647">
        <ele>365</ele>
        <time>2012-08-12T07:13:59.000Z</time>
      </trkpt>
      <trkpt lat="43.2506" lon="0.82638">
        <ele>363</ele>
        <time>2012-08-12T07:14:00.000Z</time>
      </trkpt>
      <trkpt lat="43.25059" lon="0.82631">
        <ele>362</ele>
        <time>2012-08-12T07:14:01.000Z</time>
      </trkpt>
      <trkpt lat="43.25059" lon="0.82623">
        <ele>361</ele>
        <time>2012-08-12T07:14:02.000Z</time>
      </trkpt>
      <trkpt lat="43.25058" lon="0.82616">
        <ele>361</ele>
        <time>2012-08-12T07:14:03.000Z</time>
      </trkpt>
      <trkpt lat="43.25057" lon="0.82608">
        <ele>360</ele>
        <time>2012-08-12T07:14:04.000Z</time>
      </trkpt>
      <trkpt lat="43.25057" lon="0.826">
        <ele>360</ele>
        <time>2012-08-12T07:14:05.000Z</time>
      </trkpt>
      <trkpt lat="43.25056" lon="0.82593">
        <ele>360</ele>
        <time>2012-08-12T07:14:06.000Z</time>
      </trkpt>
      <trkpt lat="43.25054" lon="0.82585">
        <ele>359</ele>
        <time>2012-08-12T07:14:07.000Z</time>
      </trkpt>
      <trkpt lat="43.25054" lon="0.82577">
        <ele>359</ele>
        <time>2012-08-12T07:14:08.000Z</time>
      </trkpt>
      <trkpt lat="43.25053" lon="0.82568">
        <ele>359</ele>
        <time>2012-08-12T07:14:09.000Z</time>
      </trkpt>
      <trkpt lat="43.25052" lon="0.8256">
        <ele>358</ele>
        <time>2012-08-12T07:14:10.000Z</time>
      </trkpt>
      <trkpt lat="43.25051" lon="0.8255">
        <ele>358</ele>
        <time>2012-08-12T07:14:11.000Z</time>
      </trkpt>
      <trkpt lat="43.2505" lon="0.82541">
        <ele>357</ele>
        <time>2012-08-12T07:14:12.000Z</time>
      </trkpt>
      <trkpt lat="43.25049" lon="0.82531">
        <ele>356</ele>
        <time>2012-08-12T07:14:13.000Z</time>
      </trkpt>
      <trkpt lat="43.25047" lon="0.82522">
        <ele>356</ele>
        <time>2012-08-12T07:14:14.000Z</time>
      </trkpt>
      <trkpt lat="43.25045" lon="0.82513">
        <ele>356</ele>
        <time>2012-08-12T07:14:15.000Z</time>
      </trkpt>
      <trkpt lat="43.25045" lon="0.82503">
        <ele>356</ele>
        <time>2012-08-12T07:14:16.000Z</time>
      </trkpt>
      <trkpt lat="43.25044" lon="0.82494">
        <ele>356</ele>
        <time>2012-08-12T07:14:17.000Z</time>
      </trkpt>
      <trkpt lat="43.25043" lon="0.82484">
        <ele>355</ele>
        <time>2012-08-12T07:14:18.000Z</time>
      </trkpt>
      <trkpt lat="43.25043" lon="0.82475">
        <ele>355</ele>
        <time>2012-08-12T07:14:19.000Z</time>
      </trkpt>
      <trkpt lat="43.25041" lon="0.82466">
        <ele>355</ele>
        <time>2012-08-12T07:14:20.000Z</time>
      </trkpt>
      <trkpt lat="43.2504" lon="0.82457">
        <ele>355</ele>
        <time>2012-08-12T07:14:21.000Z</time>
      </trkpt>
      <trkpt lat="43.2504" lon="0.82448">
        <ele>355</ele>
        <time>2012-08-12T07:14:22.000Z</time>
      </trkpt>
      <trkpt lat="43.25038" lon="0.8244">
        <ele>355</ele>
        <time>2012-08-12T07:14:23.000Z</time>
      </trkpt>
      <trkpt lat="43.25038" lon="0.8243">
        <ele>355</ele>
        <time>2012-08-12T07:14:24.000Z</time>
      </trkpt>
      <trkpt lat="43.25037" lon="0.82422">
        <ele>354</ele>
        <time>2012-08-12T07:14:25.000Z</time>
      </trkpt>
      <trkpt lat="43.25036" lon="0.82412">
        <ele>354</ele>
        <time>2012-08-12T07:14:26.000Z</time>
      </trkpt>
      <trkpt lat="43.25035" lon="0.82404">
        <ele>354</ele>
        <time>2012-08-12T07:14:27.000Z</time>
      </trkpt>
      <trkpt lat="43.25034" lon="0.82396">
        <ele>354</ele>
        <time>2012-08-12T07:14:28.000Z</time>
      </trkpt>
      <trkpt lat="43.25032" lon="0.82388">
        <ele>353</ele>
        <time>2012-08-12T07:14:29.000Z</time>
      </trkpt>
      <trkpt lat="43.25032" lon="0.82379">
        <ele>354</ele>
        <time>2012-08-12T07:14:30.000Z</time>
      </trkpt>
      <trkpt lat="43.25031" lon="0.82371">
        <ele>353</ele>
        <time>2012-08-12T07:14:31.000Z</time>
      </trkpt>
      <trkpt lat="43.2503" lon="0.82363">
        <ele>353</ele>
        <time>2012-08-12T07:14:32.000Z</time>
      </trkpt>
      <trkpt lat="43.25029" lon="0.82355">
        <ele>353</ele>
        <time>2012-08-12T07:14:33.000Z</time>
      </trkpt>
      <trkpt lat="43.25028" lon="0.82347">
        <ele>353</ele>
        <time>2012-08-12T07:14:34.000Z</time>
      </trkpt>
      <trkpt lat="43.25027" lon="0.8234">
        <ele>353</ele>
        <time>2012-08-12T07:14:35.000Z</time>
      </trkpt>
      <trkpt lat="43.25026" lon="0.82332">
        <ele>352</ele>
        <time>2012-08-12T07:14:36.000Z</time>
      </trkpt>
      <trkpt lat="43.25025" lon="0.82324">
        <ele>352</ele>
        <time>2012-08-12T07:14:37.000Z</time>
      </trkpt>
      <trkpt lat="43.25024" lon="0.82316">
        <ele>352</ele>
        <time>2012-08-12T07:14:38.000Z</time>
      </trkpt>
      <trkpt lat="43.25023" lon="0.82309">
        <ele>352</ele>
        <time>2012-08-12T07:14:39.000Z</time>
      </trkpt>
      <trkpt lat="43.25023" lon="0.82301">
        <ele>352</ele>
        <time>2012-08-12T07:14:40.000Z</time>
      </trkpt>
      <trkpt lat="43.25022" lon="0.82294">
        <ele>352</ele>
        <time>2012-08-12T07:14:41.000Z</time>
      </trkpt>
      <trkpt lat="43.25021" lon="0.82286">
        <ele>352</ele>
        <time>2012-08-12T07:14:42.000Z</time>
      </trkpt>
      <trkpt lat="43.25021" lon="0.82279">
        <ele>352</ele>
        <time>2012-08-12T07:14:43.000Z</time>
      </trkpt>
      <trkpt lat="43.2502" lon="0.82271">
        <ele>353</ele>
        <time>2012-08-12T07:14:44.000Z</time>
      </trkpt>
      <trkpt lat="43.25019" lon="0.82264">
        <ele>353</ele>
        <time>2012-08-12T07:14:45.000Z</time>
      </trkpt>
      <trkpt lat="43.25018" lon="0.82257">
        <ele>353</ele>
        <time>2012-08-12T07:14:46.000Z</time>
      </trkpt>
      <trkpt lat="43.25018" lon="0.8225">
        <ele>352</ele>
        <time>2012-08-12T07:14:47.000Z</time>
      </trkpt>
      <trkpt lat="43.25017" lon="0.82243">
        <ele>352</ele>
        <time>2012-08-12T07:14:48.000Z</time>
      </trkpt>
      <trkpt lat="43.25016" lon="0.82235">
        <ele>352</ele>
        <time>2012-08-12T07:14:49.000Z</time>
      </trkpt>
      <trkpt lat="43.25015" lon="0.82228">
        <ele>353</ele>
        <time>2012-08-12T07:14:50.000Z</time>
      </trkpt>
      <trkpt lat="43.25015" lon="0.82222">
        <ele>353</ele>
        <time>2012-08-12T07:14:51.000Z</time>
      </trkpt>
      <trkpt lat="43.25014" lon="0.82214">
        <ele>353</ele>
        <time>2012-08-12T07:14:52.000Z</time>
      </trkpt>
      <trkpt lat="43.25014" lon="0.82208">
        <ele>353</ele>
        <time>2012-08-12T07:14:53.000Z</time>
      </trkpt>
      <trkpt lat="43.25013" lon="0.822">
        <ele>353</ele>
        <time>2012-08-12T07:14:54.000Z</time>
      </trkpt>
      <trkpt lat="43.25012" lon="0.82194">
        <ele>353</ele>
        <time>2012-08-12T07:14:55.000Z</time>
      </trkpt>
      <trkpt lat="43.25011" lon="0.82187">
        <ele>353</ele>
        <time>2012-08-12T07:14:56.000Z</time>
      </trkpt>
      <trkpt lat="43.25011" lon="0.8218">
        <ele>353</ele>
        <time>2012-08-12T07:14:57.000Z</time>
      </trkpt>
      <trkpt lat="43.2501" lon="0.82173">
        <ele>353</ele>
        <time>2012-08-12T07:14:58.000Z</time>
      </trkpt>
      <trkpt lat="43.2501" lon="0.82166">
        <ele>354</ele>
        <time>2012-08-12T07:14:59.000Z</time>
      </trkpt>
      <trkpt lat="43.25008" lon="0.82154">
        <ele>354</ele>
        <time>2012-08-12T07:15:01.000Z</time>
      </trkpt>
      <trkpt lat="43.25008" lon="0.82144">
        <ele>354</ele>
        <time>2012-08-12T07:15:03.000Z</time>
      </trkpt>
      <trkpt lat="43.25008" lon="0.82137">
        <ele>354</ele>
        <time>2012-08-12T07:15:04.000Z</time>
      </trkpt>
      <trkpt lat="43.25007" lon="0.8213">
        <ele>354</ele>
        <time>2012-08-12T07:15:05.000Z</time>
      </trkpt>
      <trkpt lat="43.25005" lon="0.82122">
        <ele>355</ele>
        <time>2012-08-12T07:15:07.000Z</time>
      </trkpt>
      <trkpt lat="43.25002" lon="0.82112">
        <ele>354</ele>
        <time>2012-08-12T07:15:09.000Z</time>
      </trkpt>
      <trkpt lat="43.25" lon="0.82107">
        <ele>354</ele>
        <time>2012-08-12T07:15:12.000Z</time>
      </trkpt>
      <trkpt lat="43.24995" lon="0.82109">
        <ele>355</ele>
        <time>2012-08-12T07:15:23.000Z</time>
      </trkpt>
      <trkpt lat="43.2499" lon="0.82107">
        <ele>352</ele>
        <time>2012-08-12T07:15:35.000Z</time>
      </trkpt>
      <trkpt lat="43.24992" lon="0.82113">
        <ele>353</ele>
        <time>2012-08-12T07:15:41.000Z</time>
      </trkpt>
      <trkpt lat="43.24993" lon="0.82107">
        <ele>353</ele>
        <time>2012-08-12T07:15:46.000Z</time>
      </trkpt>
      <trkpt lat="43.24992" lon="0.82115">
        <ele>352</ele>
        <time>2012-08-12T07:15:53.000Z</time>
      </trkpt>
      <trkpt lat="43.24992" lon="0.82123">
        <ele>352</ele>
        <time>2012-08-12T07:15:55.000Z</time>
      </trkpt>
      <trkpt lat="43.24992" lon="0.82133">
        <ele>352</ele>
        <time>2012-08-12T07:15:57.000Z</time>
      </trkpt>
      <trkpt lat="43.24994" lon="0.82142">
        <ele>351</ele>
        <time>2012-08-12T07:15:58.000Z</time>
      </trkpt>
      <trkpt lat="43.24996" lon="0.82149">
        <ele>351</ele>
        <time>2012-08-12T07:15:59.000Z</time>
      </trkpt>
      <trkpt lat="43.24996" lon="0.82156">
        <ele>351</ele>
        <time>2012-08-12T07:16:00.000Z</time>
      </trkpt>
      <trkpt lat="43.24996" lon="0.82162">
        <ele>351</ele>
        <time>2012-08-12T07:16:01.000Z</time>
      </trkpt>
      <trkpt lat="43.24998" lon="0.82169">
        <ele>351</ele>
        <time>2012-08-12T07:16:02.000Z</time>
      </trkpt>
      <trkpt lat="43.24999" lon="0.82177">
        <ele>351</ele>
        <time>2012-08-12T07:16:03.000Z</time>
      </trkpt>
      <trkpt lat="43.25001" lon="0.82184">
        <ele>351</ele>
        <time>2012-08-12T07:16:04.000Z</time>
      </trkpt>
      <trkpt lat="43.25001" lon="0.82192">
        <ele>351</ele>
        <time>2012-08-12T07:16:05.000Z</time>
      </trkpt>
      <trkpt lat="43.25002" lon="0.822">
        <ele>351</ele>
        <time>2012-08-12T07:16:06.000Z</time>
      </trkpt>
      <trkpt lat="43.25004" lon="0.82208">
        <ele>351</ele>
        <time>2012-08-12T07:16:07.000Z</time>
      </trkpt>
      <trkpt lat="43.25005" lon="0.82217">
        <ele>351</ele>
        <time>2012-08-12T07:16:08.000Z</time>
      </trkpt>
      <trkpt lat="43.25006" lon="0.82224">
        <ele>351</ele>
        <time>2012-08-12T07:16:09.000Z</time>
      </trkpt>
      <trkpt lat="43.25007" lon="0.82232">
        <ele>351</ele>
        <time>2012-08-12T07:16:10.000Z</time>
      </trkpt>
      <trkpt lat="43.25008" lon="0.8224">
        <ele>351</ele>
        <time>2012-08-12T07:16:11.000Z</time>
      </trkpt>
      <trkpt lat="43.2501" lon="0.82249">
        <ele>351</ele>
        <time>2012-08-12T07:16:12.000Z</time>
      </trkpt>
      <trkpt lat="43.25012" lon="0.82257">
        <ele>351</ele>
        <time>2012-08-12T07:16:13.000Z</time>
      </trkpt>
      <trkpt lat="43.25013" lon="0.82265">
        <ele>351</ele>
        <time>2012-08-12T07:16:14.000Z</time>
      </trkpt>
      <trkpt lat="43.25014" lon="0.82273">
        <ele>352</ele>
        <time>2012-08-12T07:16:15.000Z</time>
      </trkpt>
      <trkpt lat="43.25015" lon="0.82281">
        <ele>351</ele>
        <time>2012-08-12T07:16:16.000Z</time>
      </trkpt>
      <trkpt lat="43.25016" lon="0.82288">
        <ele>352</ele>
        <time>2012-08-12T07:16:17.000Z</time>
      </trkpt>
      <trkpt lat="43.25018" lon="0.82299">
        <ele>351</ele>
        <time>2012-08-12T07:16:18.000Z</time>
      </trkpt>
      <trkpt lat="43.25018" lon="0.82308">
        <ele>351</ele>
        <time>2012-08-12T07:16:19.000Z</time>
      </trkpt>
      <trkpt lat="43.25019" lon="0.82316">
        <ele>351</ele>
        <time>2012-08-12T07:16:20.000Z</time>
      </trkpt>
      <trkpt lat="43.2502" lon="0.82325">
        <ele>350</ele>
        <time>2012-08-12T07:16:21.000Z</time>
      </trkpt>
      <trkpt lat="43.25021" lon="0.82333">
        <ele>350</ele>
        <time>2012-08-12T07:16:22.000Z</time>
      </trkpt>
      <trkpt lat="43.25022" lon="0.8234">
        <ele>350</ele>
        <time>2012-08-12T07:16:23.000Z</time>
      </trkpt>
      <trkpt lat="43.25023" lon="0.82348">
        <ele>350</ele>
        <time>2012-08-12T07:16:24.000Z</time>
      </trkpt>
      <trkpt lat="43.25023" lon="0.82355">
        <ele>351</ele>
        <time>2012-08-12T07:16:25.000Z</time>
      </trkpt>
      <trkpt lat="43.25024" lon="0.82362">
        <ele>351</ele>
        <time>2012-08-12T07:16:26.000Z</time>
      </trkpt>
      <trkpt lat="43.25024" lon="0.8237">
        <ele>351</ele>
        <time>2012-08-12T07:16:27.000Z</time>
      </trkpt>
      <trkpt lat="43.25025" lon="0.82378">
        <ele>351</ele>
        <time>2012-08-12T07:16:28.000Z</time>
      </trkpt>
      <trkpt lat="43.25026" lon="0.82386">
        <ele>351</ele>
        <time>2012-08-12T07:16:29.000Z</time>
      </trkpt>
      <trkpt lat="43.25028" lon="0.82393">
        <ele>351</ele>
        <time>2012-08-12T07:16:30.000Z</time>
      </trkpt>
      <trkpt lat="43.25028" lon="0.82401">
        <ele>351</ele>
        <time>2012-08-12T07:16:31.000Z</time>
      </trkpt>
      <trkpt lat="43.25029" lon="0.82409">
        <ele>352</ele>
        <time>2012-08-12T07:16:32.000Z</time>
      </trkpt>
      <trkpt lat="43.2503" lon="0.82416">
        <ele>352</ele>
        <time>2012-08-12T07:16:33.000Z</time>
      </trkpt>
      <trkpt lat="43.2503" lon="0.82422">
        <ele>352</ele>
        <time>2012-08-12T07:16:34.000Z</time>
      </trkpt>
      <trkpt lat="43.2503" lon="0.82429">
        <ele>352</ele>
        <time>2012-08-12T07:16:35.000Z</time>
      </trkpt>
      <trkpt lat="43.25031" lon="0.82436">
        <ele>352</ele>
        <time>2012-08-12T07:16:36.000Z</time>
      </trkpt>
      <trkpt lat="43.25032" lon="0.82444">
        <ele>352</ele>
        <time>2012-08-12T07:16:37.000Z</time>
      </trkpt>
      <trkpt lat="43.25033" lon="0.82451">
        <ele>352</ele>
        <time>2012-08-12T07:16:38.000Z</time>
      </trkpt>
      <trkpt lat="43.25033" lon="0.82458">
        <ele>352</ele>
        <time>2012-08-12T07:16:39.000Z</time>
      </trkpt>
      <trkpt lat="43.25033" lon="0.82464">
        <ele>352</ele>
        <time>2012-08-12T07:16:40.000Z</time>
      </trkpt>
      <trkpt lat="43.25034" lon="0.82471">
        <ele>352</ele>
        <time>2012-08-12T07:16:41.000Z</time>
      </trkpt>
      <trkpt lat="43.25032" lon="0.82483">
        <ele>352</ele>
        <time>2012-08-12T07:16:43.000Z</time>
      </trkpt>
      <trkpt lat="43.25031" lon="0.8249">
        <ele>352</ele>
        <time>2012-08-12T07:16:44.000Z</time>
      </trkpt>
      <trkpt lat="43.2503" lon="0.82496">
        <ele>353</ele>
        <time>2012-08-12T07:16:45.000Z</time>
      </trkpt>
      <trkpt lat="43.25031" lon="0.82503">
        <ele>353</ele>
        <time>2012-08-12T07:16:46.000Z</time>
      </trkpt>
      <trkpt lat="43.2503" lon="0.82509">
        <ele>353</ele>
        <time>2012-08-12T07:16:47.000Z</time>
      </trkpt>
      <trkpt lat="43.25032" lon="0.82516">
        <ele>352</ele>
        <time>2012-08-12T07:16:48.000Z</time>
      </trkpt>
      <trkpt lat="43.25032" lon="0.82525">
        <ele>353</ele>
        <time>2012-08-12T07:16:49.000Z</time>
      </trkpt>
      <trkpt lat="43.25031" lon="0.82533">
        <ele>353</ele>
        <time>2012-08-12T07:16:50.000Z</time>
      </trkpt>
      <trkpt lat="43.2503" lon="0.82542">
        <ele>353</ele>
        <time>2012-08-12T07:16:51.000Z</time>
      </trkpt>
      <trkpt lat="43.25031" lon="0.82551">
        <ele>354</ele>
        <time>2012-08-12T07:16:52.000Z</time>
      </trkpt>
      <trkpt lat="43.2503" lon="0.82558">
        <ele>354</ele>
        <time>2012-08-12T07:16:53.000Z</time>
      </trkpt>
      <trkpt lat="43.2503" lon="0.82566">
        <ele>354</ele>
        <time>2012-08-12T07:16:54.000Z</time>
      </trkpt>
      <trkpt lat="43.25033" lon="0.82574">
        <ele>354</ele>
        <time>2012-08-12T07:16:55.000Z</time>
      </trkpt>
      <trkpt lat="43.25038" lon="0.82582">
        <ele>353</ele>
        <time>2012-08-12T07:16:56.000Z</time>
      </trkpt>
      <trkpt lat="43.2504" lon="0.82588">
        <ele>354</ele>
        <time>2012-08-12T07:16:57.000Z</time>
      </trkpt>
      <trkpt lat="43.25044" lon="0.82602">
        <ele>354</ele>
        <time>2012-08-12T07:16:59.000Z</time>
      </trkpt>
      <trkpt lat="43.25046" lon="0.82608">
        <ele>354</ele>
        <time>2012-08-12T07:17:00.000Z</time>
      </trkpt>
      <trkpt lat="43.25047" lon="0.82615">
        <ele>354</ele>
        <time>2012-08-12T07:17:01.000Z</time>
      </trkpt>
      <trkpt lat="43.25049" lon="0.82621">
        <ele>354</ele>
        <time>2012-08-12T07:17:02.000Z</time>
      </trkpt>
      <trkpt lat="43.2505" lon="0.82632">
        <ele>354</ele>
        <time>2012-08-12T07:17:04.000Z</time>
      </trkpt>
      <trkpt lat="43.2505" lon="0.82639">
        <ele>354</ele>
        <time>2012-08-12T07:17:05.000Z</time>
      </trkpt>
      <trkpt lat="43.25051" lon="0.82645">
        <ele>354</ele>
        <time>2012-08-12T07:17:06.000Z</time>
      </trkpt>
      <trkpt lat="43.25052" lon="0.82657">
        <ele>354</ele>
        <time>2012-08-12T07:17:08.000Z</time>
      </trkpt>
      <trkpt lat="43.25051" lon="0.82668">
        <ele>355</ele>
        <time>2012-08-12T07:17:10.000Z</time>
      </trkpt>
      <trkpt lat="43.25048" lon="0.82677">
        <ele>355</ele>
        <time>2012-08-12T07:17:12.000Z</time>
      </trkpt>
      <trkpt lat="43.25045" lon="0.82686">
        <ele>356</ele>
        <time>2012-08-12T07:17:14.000Z</time>
      </trkpt>
      <trkpt lat="43.25042" lon="0.82691">
        <ele>356</ele>
        <time>2012-08-12T07:17:15.000Z</time>
      </trkpt>
      <trkpt lat="43.25044" lon="0.82698">
        <ele>356</ele>
        <time>2012-08-12T07:17:16.000Z</time>
      </trkpt>
      <trkpt lat="43.2504" lon="0.8271">
        <ele>356</ele>
        <time>2012-08-12T07:17:18.000Z</time>
      </trkpt>
      <trkpt lat="43.25037" lon="0.82716">
        <ele>356</ele>
        <time>2012-08-12T07:17:19.000Z</time>
      </trkpt>
      <trkpt lat="43.25035" lon="0.82722">
        <ele>356</ele>
        <time>2012-08-12T07:17:20.000Z</time>
      </trkpt>
      <trkpt lat="43.25032" lon="0.82733">
        <ele>357</ele>
        <time>2012-08-12T07:17:22.000Z</time>
      </trkpt>
      <trkpt lat="43.25032" lon="0.82739">
        <ele>358</ele>
        <time>2012-08-12T07:17:23.000Z</time>
      </trkpt>
      <trkpt lat="43.25031" lon="0.82746">
        <ele>358</ele>
        <time>2012-08-12T07:17:24.000Z</time>
      </trkpt>
      <trkpt lat="43.25029" lon="0.82757">
        <ele>359</ele>
        <time>2012-08-12T07:17:26.000Z</time>
      </trkpt>
      <trkpt lat="43.25028" lon="0.82764">
        <ele>358</ele>
        <time>2012-08-12T07:17:27.000Z</time>
      </trkpt>
      <trkpt lat="43.25029" lon="0.82777">
        <ele>358</ele>
        <time>2012-08-12T07:17:29.000Z</time>
      </trkpt>
      <trkpt lat="43.25032" lon="0.82786">
        <ele>358</ele>
        <time>2012-08-12T07:17:30.000Z</time>
      </trkpt>
      <trkpt lat="43.25034" lon="0.82794">
        <ele>358</ele>
        <time>2012-08-12T07:17:31.000Z</time>
      </trkpt>
      <trkpt lat="43.25034" lon="0.82805">
        <ele>358</ele>
        <time>2012-08-12T07:17:32.000Z</time>
      </trkpt>
      <trkpt lat="43.25035" lon="0.82816">
        <ele>358</ele>
        <time>2012-08-12T07:17:33.000Z</time>
      </trkpt>
      <trkpt lat="43.25036" lon="0.82827">
        <ele>358</ele>
        <time>2012-08-12T07:17:34.000Z</time>
      </trkpt>
      <trkpt lat="43.25035" lon="0.82834">
        <ele>358</ele>
        <time>2012-08-12T07:17:35.000Z</time>
      </trkpt>
      <trkpt lat="43.25035" lon="0.8284">
        <ele>358</ele>
        <time>2012-08-12T07:17:36.000Z</time>
      </trkpt>
      <trkpt lat="43.25034" lon="0.82847">
        <ele>359</ele>
        <time>2012-08-12T07:17:37.000Z</time>
      </trkpt>
      <trkpt lat="43.25033" lon="0.82854">
        <ele>359</ele>
        <time>2012-08-12T07:17:38.000Z</time>
      </trkpt>
      <trkpt lat="43.25031" lon="0.8286">
        <ele>360</ele>
        <time>2012-08-12T07:17:39.000Z</time>
      </trkpt>
      <trkpt lat="43.2503" lon="0.82866">
        <ele>359</ele>
        <time>2012-08-12T07:17:40.000Z</time>
      </trkpt>
      <trkpt lat="43.2503" lon="0.8288">
        <ele>359</ele>
        <time>2012-08-12T07:17:42.000Z</time>
      </trkpt>
      <trkpt lat="43.25028" lon="0.82887">
        <ele>359</ele>
        <time>2012-08-12T07:17:43.000Z</time>
      </trkpt>
      <trkpt lat="43.25028" lon="0.82893">
        <ele>359</ele>
        <time>2012-08-12T07:17:44.000Z</time>
      </trkpt>
      <trkpt lat="43.2503" lon="0.82902">
        <ele>359</ele>
        <time>2012-08-12T07:17:45.000Z</time>
      </trkpt>
      <trkpt lat="43.2503" lon="0.82909">
        <ele>359</ele>
        <time>2012-08-12T07:17:46.000Z</time>
      </trkpt>
      <trkpt lat="43.2503" lon="0.82916">
        <ele>359</ele>
        <time>2012-08-12T07:17:47.000Z</time>
      </trkpt>
      <trkpt lat="43.25029" lon="0.82924">
        <ele>359</ele>
        <time>2012-08-12T07:17:48.000Z</time>
      </trkpt>
      <trkpt lat="43.25026" lon="0.82932">
        <ele>359</ele>
        <time>2012-08-12T07:17:49.000Z</time>
      </trkpt>
      <trkpt lat="43.25023" lon="0.8294">
        <ele>359</ele>
        <time>2012-08-12T07:17:50.000Z</time>
      </trkpt>
      <trkpt lat="43.25025" lon="0.8295">
        <ele>360</ele>
        <time>2012-08-12T07:17:51.000Z</time>
      </trkpt>
      <trkpt lat="43.25024" lon="0.8296">
        <ele>359</ele>
        <time>2012-08-12T07:17:52.000Z</time>
      </trkpt>
      <trkpt lat="43.25024" lon="0.82969">
        <ele>359</ele>
        <time>2012-08-12T07:17:53.000Z</time>
      </trkpt>
      <trkpt lat="43.25026" lon="0.8298">
        <ele>359</ele>
        <time>2012-08-12T07:17:54.000Z</time>
      </trkpt>
      <trkpt lat="43.25028" lon="0.82991">
        <ele>359</ele>
        <time>2012-08-12T07:17:55.000Z</time>
      </trkpt>
      <trkpt lat="43.25028" lon="0.83">
        <ele>359</ele>
        <time>2012-08-12T07:17:56.000Z</time>
      </trkpt>
      <trkpt lat="43.25028" lon="0.83008">
        <ele>359</ele>
        <time>2012-08-12T07:17:57.000Z</time>
      </trkpt>
      <trkpt lat="43.25028" lon="0.83015">
        <ele>359</ele>
        <time>2012-08-12T07:17:58.000Z</time>
      </trkpt>
      <trkpt lat="43.25026" lon="0.83022">
        <ele>360</ele>
        <time>2012-08-12T07:17:59.000Z</time>
      </trkpt>
      <trkpt lat="43.25026" lon="0.83029">
        <ele>360</ele>
        <time>2012-08-12T07:18:00.000Z</time>
      </trkpt>
      <trkpt lat="43.25023" lon="0.83036">
        <ele>360</ele>
        <time>2012-08-12T07:18:01.000Z</time>
      </trkpt>
      <trkpt lat="43.25024" lon="0.83043">
        <ele>360</ele>
        <time>2012-08-12T07:18:02.000Z</time>
      </trkpt>
      <trkpt lat="43.25022" lon="0.8305">
        <ele>361</ele>
        <time>2012-08-12T07:18:03.000Z</time>
      </trkpt>
      <trkpt lat="43.25023" lon="0.83062">
        <ele>361</ele>
        <time>2012-08-12T07:18:05.000Z</time>
      </trkpt>
      <trkpt lat="43.25023" lon="0.8307">
        <ele>362</ele>
        <time>2012-08-12T07:18:06.000Z</time>
      </trkpt>
      <trkpt lat="43.25023" lon="0.83079">
        <ele>361</ele>
        <time>2012-08-12T07:18:07.000Z</time>
      </trkpt>
      <trkpt lat="43.25023" lon="0.83086">
        <ele>362</ele>
        <time>2012-08-12T07:18:08.000Z</time>
      </trkpt>
      <trkpt lat="43.25023" lon="0.83094">
        <ele>362</ele>
        <time>2012-08-12T07:18:09.000Z</time>
      </trkpt>
      <trkpt lat="43.25018" lon="0.83101">
        <ele>362</ele>
        <time>2012-08-12T07:18:10.000Z</time>
      </trkpt>
      <trkpt lat="43.25016" lon="0.83109">
        <ele>362</ele>
        <time>2012-08-12T07:18:11.000Z</time>
      </trkpt>
      <trkpt lat="43.25018" lon="0.83117">
        <ele>362</ele>
        <time>2012-08-12T07:18:12.000Z</time>
      </trkpt>
      <trkpt lat="43.25018" lon="0.83125">
        <ele>362</ele>
        <time>2012-08-12T07:18:13.000Z</time>
      </trkpt>
      <trkpt lat="43.25015" lon="0.83134">
        <ele>362</ele>
        <time>2012-08-12T07:18:14.000Z</time>
      </trkpt>
      <trkpt lat="43.25012" lon="0.83142">
        <ele>362</ele>
        <time>2012-08-12T07:18:15.000Z</time>
      </trkpt>
      <trkpt lat="43.25013" lon="0.8315">
        <ele>362</ele>
        <time>2012-08-12T07:18:16.000Z</time>
      </trkpt>
      <trkpt lat="43.25013" lon="0.83159">
        <ele>362</ele>
        <time>2012-08-12T07:18:17.000Z</time>
      </trkpt>
      <trkpt lat="43.25013" lon="0.83166">
        <ele>361</ele>
        <time>2012-08-12T07:18:18.000Z</time>
      </trkpt>
      <trkpt lat="43.25012" lon="0.83178">
        <ele>360</ele>
        <time>2012-08-12T07:18:20.000Z</time>
      </trkpt>
      <trkpt lat="43.25009" lon="0.83186">
        <ele>359</ele>
        <time>2012-08-12T07:18:22.000Z</time>
      </trkpt>
      <trkpt lat="43.2501" lon="0.83195">
        <ele>359</ele>
        <time>2012-08-12T07:18:24.000Z</time>
      </trkpt>
      <trkpt lat="43.25018" lon="0.83204">
        <ele>359</ele>
        <time>2012-08-12T07:18:27.000Z</time>
      </trkpt>
      <trkpt lat="43.25023" lon="0.83206">
        <ele>359</ele>
        <time>2012-08-12T07:18:29.000Z</time>
      </trkpt>
      <trkpt lat="43.25023" lon="0.83206">
        <ele>359</ele>
        <time>2012-08-12T07:18:29.000Z</time>
      </trkpt>
      <trkpt lat="43.25023" lon="0.83206">
        <ele>359</ele>
        <time>2012-08-12T07:18:30.000Z</time>
      </trkpt>
      <trkpt lat="43.25028" lon="0.83209">
        <ele>359</ele>
        <time>2012-08-12T07:18:31.000Z</time>
      </trkpt>
      <trkpt lat="43.25032" lon="0.83212">
        <ele>359</ele>
        <time>2012-08-12T07:18:32.000Z</time>
      </trkpt>
      <trkpt lat="43.25036" lon="0.83219">
        <ele>361</ele>
        <time>2012-08-12T07:18:34.000Z</time>
      </trkpt>
      <trkpt lat="43.2504" lon="0.83225">
        <ele>363</ele>
        <time>2012-08-12T07:18:37.000Z</time>
      </trkpt>
      <trkpt lat="43.2504" lon="0.83225">
        <ele>363</ele>
        <time>2012-08-12T07:18:37.000Z</time>
      </trkpt>
      <trkpt lat="43.2504" lon="0.83225">
        <ele>363</ele>
        <time>2012-08-12T07:18:38.000Z</time>
      </trkpt>
      <trkpt lat="43.25041" lon="0.83233">
        <ele>360</ele>
        <time>2012-08-12T07:18:46.000Z</time>
      </trkpt>
      <trkpt lat="43.25037" lon="0.8324">
        <ele>361</ele>
        <time>2012-08-12T07:18:51.000Z</time>
      </trkpt>
      <trkpt lat="43.25032" lon="0.83243">
        <ele>361</ele>
        <time>2012-08-12T07:18:53.000Z</time>
      </trkpt>
      <trkpt lat="43.25029" lon="0.83247">
        <ele>361</ele>
        <time>2012-08-12T07:18:55.000Z</time>
      </trkpt>
      <trkpt lat="43.25023" lon="0.83255">
        <ele>361</ele>
        <time>2012-08-12T07:18:58.000Z</time>
      </trkpt>
      <trkpt lat="43.25016" lon="0.83258">
        <ele>362</ele>
        <time>2012-08-12T07:19:00.000Z</time>
      </trkpt>
      <trkpt lat="43.25013" lon="0.83263">
        <ele>363</ele>
        <time>2012-08-12T07:19:02.000Z</time>
      </trkpt>
      <trkpt lat="43.25012" lon="0.83272">
        <ele>365</ele>
        <time>2012-08-12T07:19:04.000Z</time>
      </trkpt>
      <trkpt lat="43.2501" lon="0.8328">
        <ele>367</ele>
        <time>2012-08-12T07:19:06.000Z</time>
      </trkpt>
      <trkpt lat="43.25007" lon="0.83287">
        <ele>369</ele>
        <time>2012-08-12T07:19:10.000Z</time>
      </trkpt>
      <trkpt lat="43.25001" lon="0.8329">
        <ele>369</ele>
        <time>2012-08-12T07:19:12.000Z</time>
      </trkpt>
      <trkpt lat="43.24996" lon="0.83296">
        <ele>370</ele>
        <time>2012-08-12T07:19:15.000Z</time>
      </trkpt>
      <trkpt lat="43.24991" lon="0.833">
        <ele>370</ele>
        <time>2012-08-12T07:19:17.000Z</time>
      </trkpt>
      <trkpt lat="43.2499" lon="0.83309">
        <ele>372</ele>
        <time>2012-08-12T07:19:19.000Z</time>
      </trkpt>
      <trkpt lat="43.24988" lon="0.83317">
        <ele>372</ele>
        <time>2012-08-12T07:19:21.000Z</time>
      </trkpt>
      <trkpt lat="43.24985" lon="0.83326">
        <ele>374</ele>
        <time>2012-08-12T07:19:24.000Z</time>
      </trkpt>
      <trkpt lat="43.24984" lon="0.83332">
        <ele>374</ele>
        <time>2012-08-12T07:19:27.000Z</time>
      </trkpt>
      <trkpt lat="43.24981" lon="0.8334">
        <ele>375</ele>
        <time>2012-08-12T07:19:30.000Z</time>
      </trkpt>
      <trkpt lat="43.24978" lon="0.83346">
        <ele>377</ele>
        <time>2012-08-12T07:19:33.000Z</time>
      </trkpt>
      <trkpt lat="43.24974" lon="0.83351">
        <ele>378</ele>
        <time>2012-08-12T07:19:36.000Z</time>
      </trkpt>
      <trkpt lat="43.2497" lon="0.83357">
        <ele>378</ele>
        <time>2012-08-12T07:19:40.000Z</time>
      </trkpt>
      <trkpt lat="43.24966" lon="0.83361">
        <ele>379</ele>
        <time>2012-08-12T07:19:43.000Z</time>
      </trkpt>
      <trkpt lat="43.24963" lon="0.83367">
        <ele>379</ele>
        <time>2012-08-12T07:19:45.000Z</time>
      </trkpt>
      <trkpt lat="43.24958" lon="0.83372">
        <ele>380</ele>
        <time>2012-08-12T07:19:47.000Z</time>
      </trkpt>
      <trkpt lat="43.24955" lon="0.83376">
        <ele>380</ele>
        <time>2012-08-12T07:19:50.000Z</time>
      </trkpt>
      <trkpt lat="43.2495" lon="0.83382">
        <ele>381</ele>
        <time>2012-08-12T07:19:53.000Z</time>
      </trkpt>
      <trkpt lat="43.24947" lon="0.83389">
        <ele>381</ele>
        <time>2012-08-12T07:19:56.000Z</time>
      </trkpt>
      <trkpt lat="43.24943" lon="0.83396">
        <ele>382</ele>
        <time>2012-08-12T07:19:59.000Z</time>
      </trkpt>
      <trkpt lat="43.24938" lon="0.83401">
        <ele>382</ele>
        <time>2012-08-12T07:20:02.000Z</time>
      </trkpt>
      <trkpt lat="43.24934" lon="0.83405">
        <ele>384</ele>
        <time>2012-08-12T07:20:06.000Z</time>
      </trkpt>
      <trkpt lat="43.2493" lon="0.8341">
        <ele>384</ele>
        <time>2012-08-12T07:20:09.000Z</time>
      </trkpt>
      <trkpt lat="43.24924" lon="0.83415">
        <ele>384</ele>
        <time>2012-08-12T07:20:12.000Z</time>
      </trkpt>
      <trkpt lat="43.2492" lon="0.83419">
        <ele>384</ele>
        <time>2012-08-12T07:20:15.000Z</time>
      </trkpt>
      <trkpt lat="43.24917" lon="0.83427">
        <ele>385</ele>
        <time>2012-08-12T07:20:19.000Z</time>
      </trkpt>
      <trkpt lat="43.24914" lon="0.83433">
        <ele>384</ele>
        <time>2012-08-12T07:20:21.000Z</time>
      </trkpt>
      <trkpt lat="43.24912" lon="0.83439">
        <ele>383</ele>
        <time>2012-08-12T07:20:24.000Z</time>
      </trkpt>
      <trkpt lat="43.24906" lon="0.83445">
        <ele>384</ele>
        <time>2012-08-12T07:20:27.000Z</time>
      </trkpt>
      <trkpt lat="43.24902" lon="0.83449">
        <ele>386</ele>
        <time>2012-08-12T07:20:30.000Z</time>
      </trkpt>
      <trkpt lat="43.24898" lon="0.83455">
        <ele>387</ele>
        <time>2012-08-12T07:20:34.000Z</time>
      </trkpt>
      <trkpt lat="43.24894" lon="0.83462">
        <ele>387</ele>
        <time>2012-08-12T07:20:37.000Z</time>
      </trkpt>
      <trkpt lat="43.24892" lon="0.83468">
        <ele>387</ele>
        <time>2012-08-12T07:20:39.000Z</time>
      </trkpt>
      <trkpt lat="43.24889" lon="0.83476">
        <ele>388</ele>
        <time>2012-08-12T07:20:42.000Z</time>
      </trkpt>
      <trkpt lat="43.24886" lon="0.83484">
        <ele>389</ele>
        <time>2012-08-12T07:20:45.000Z</time>
      </trkpt>
      <trkpt lat="43.24886" lon="0.83492">
        <ele>390</ele>
        <time>2012-08-12T07:20:48.000Z</time>
      </trkpt>
      <trkpt lat="43.24884" lon="0.835">
        <ele>391</ele>
        <time>2012-08-12T07:20:51.000Z</time>
      </trkpt>
      <trkpt lat="43.24883" lon="0.83508">
        <ele>392</ele>
        <time>2012-08-12T07:20:54.000Z</time>
      </trkpt>
      <trkpt lat="43.24881" lon="0.83515">
        <ele>391</ele>
        <time>2012-08-12T07:20:56.000Z</time>
      </trkpt>
      <trkpt lat="43.24879" lon="0.83521">
        <ele>391</ele>
        <time>2012-08-12T07:20:58.000Z</time>
      </trkpt>
      <trkpt lat="43.24876" lon="0.83527">
        <ele>391</ele>
        <time>2012-08-12T07:21:01.000Z</time>
      </trkpt>
      <trkpt lat="43.24873" lon="0.83534">
        <ele>393</ele>
        <time>2012-08-12T07:21:04.000Z</time>
      </trkpt>
      <trkpt lat="43.24871" lon="0.8354">
        <ele>394</ele>
        <time>2012-08-12T07:21:06.000Z</time>
      </trkpt>
      <trkpt lat="43.24868" lon="0.83545">
        <ele>395</ele>
        <time>2012-08-12T07:21:08.000Z</time>
      </trkpt>
      <trkpt lat="43.24865" lon="0.83552">
        <ele>395</ele>
        <time>2012-08-12T07:21:10.000Z</time>
      </trkpt>
      <trkpt lat="43.24862" lon="0.83558">
        <ele>396</ele>
        <time>2012-08-12T07:21:12.000Z</time>
      </trkpt>
      <trkpt lat="43.24859" lon="0.83566">
        <ele>397</ele>
        <time>2012-08-12T07:21:14.000Z</time>
      </trkpt>
      <trkpt lat="43.24856" lon="0.83573">
        <ele>399</ele>
        <time>2012-08-12T07:21:16.000Z</time>
      </trkpt>
      <trkpt lat="43.24852" lon="0.8358">
        <ele>399</ele>
        <time>2012-08-12T07:21:18.000Z</time>
      </trkpt>
      <trkpt lat="43.24849" lon="0.83587">
        <ele>399</ele>
        <time>2012-08-12T07:21:20.000Z</time>
      </trkpt>
      <trkpt lat="43.24845" lon="0.83594">
        <ele>400</ele>
        <time>2012-08-12T07:21:22.000Z</time>
      </trkpt>
      <trkpt lat="43.24842" lon="0.83601">
        <ele>400</ele>
        <time>2012-08-12T07:21:24.000Z</time>
      </trkpt>
      <trkpt lat="43.2484" lon="0.83609">
        <ele>401</ele>
        <time>2012-08-12T07:21:26.000Z</time>
      </trkpt>
      <trkpt lat="43.24837" lon="0.83615">
        <ele>401</ele>
        <time>2012-08-12T07:21:28.000Z</time>
      </trkpt>
      <trkpt lat="43.24834" lon="0.8362">
        <ele>401</ele>
        <time>2012-08-12T07:21:30.000Z</time>
      </trkpt>
      <trkpt lat="43.24832" lon="0.83628">
        <ele>402</ele>
        <time>2012-08-12T07:21:33.000Z</time>
      </trkpt>
      <trkpt lat="43.2483" lon="0.83634">
        <ele>402</ele>
        <time>2012-08-12T07:21:36.000Z</time>
      </trkpt>
      <trkpt lat="43.24828" lon="0.83643">
        <ele>402</ele>
        <time>2012-08-12T07:21:38.000Z</time>
      </trkpt>
      <trkpt lat="43.24825" lon="0.83651">
        <ele>400</ele>
        <time>2012-08-12T07:21:40.000Z</time>
      </trkpt>
      <trkpt lat="43.24824" lon="0.8366">
        <ele>400</ele>
        <time>2012-08-12T07:21:42.000Z</time>
      </trkpt>
      <trkpt lat="43.24822" lon="0.83668">
        <ele>400</ele>
        <time>2012-08-12T07:21:45.000Z</time>
      </trkpt>
      <trkpt lat="43.24819" lon="0.83677">
        <ele>400</ele>
        <time>2012-08-12T07:21:48.000Z</time>
      </trkpt>
      <trkpt lat="43.24817" lon="0.83685">
        <ele>400</ele>
        <time>2012-08-12T07:21:51.000Z</time>
      </trkpt>
      <trkpt lat="43.24817" lon="0.83694">
        <ele>400</ele>
        <time>2012-08-12T07:21:53.000Z</time>
      </trkpt>
      <trkpt lat="43.24816" lon="0.83703">
        <ele>401</ele>
        <time>2012-08-12T07:21:56.000Z</time>
      </trkpt>
      <trkpt lat="43.24812" lon="0.83712">
        <ele>402</ele>
        <time>2012-08-12T07:21:58.000Z</time>
      </trkpt>
      <trkpt lat="43.24808" lon="0.83715">
        <ele>402</ele>
        <time>2012-08-12T07:21:59.000Z</time>
      </trkpt>
      <trkpt lat="43.24805" lon="0.83721">
        <ele>402</ele>
        <time>2012-08-12T07:22:01.000Z</time>
      </trkpt>
      <trkpt lat="43.24803" lon="0.83728">
        <ele>403</ele>
        <time>2012-08-12T07:22:03.000Z</time>
      </trkpt>
      <trkpt lat="43.24808" lon="0.83733">
        <ele>405</ele>
        <time>2012-08-12T07:22:04.000Z</time>
      </trkpt>
      <trkpt lat="43.24809" lon="0.83742">
        <ele>408</ele>
        <time>2012-08-12T07:22:06.000Z</time>
      </trkpt>
      <trkpt lat="43.24809" lon="0.8375">
        <ele>407</ele>
        <time>2012-08-12T07:22:08.000Z</time>
      </trkpt>
      <trkpt lat="43.2481" lon="0.83758">
        <ele>407</ele>
        <time>2012-08-12T07:22:10.000Z</time>
      </trkpt>
      <trkpt lat="43.2481" lon="0.83764">
        <ele>408</ele>
        <time>2012-08-12T07:22:12.000Z</time>
      </trkpt>
      <trkpt lat="43.24808" lon="0.83772">
        <ele>411</ele>
        <time>2012-08-12T07:22:15.000Z</time>
      </trkpt>
      <trkpt lat="43.24805" lon="0.83781">
        <ele>411</ele>
        <time>2012-08-12T07:22:18.000Z</time>
      </trkpt>
      <trkpt lat="43.24802" lon="0.83786">
        <ele>412</ele>
        <time>2012-08-12T07:22:20.000Z</time>
      </trkpt>
      <trkpt lat="43.24804" lon="0.83793">
        <ele>413</ele>
        <time>2012-08-12T07:22:22.000Z</time>
      </trkpt>
      <trkpt lat="43.24802" lon="0.83799">
        <ele>414</ele>
        <time>2012-08-12T07:22:24.000Z</time>
      </trkpt>
      <trkpt lat="43.248" lon="0.83807">
        <ele>417</ele>
        <time>2012-08-12T07:22:27.000Z</time>
      </trkpt>
      <trkpt lat="43.24798" lon="0.83813">
        <ele>417</ele>
        <time>2012-08-12T07:22:29.000Z</time>
      </trkpt>
      <trkpt lat="43.24796" lon="0.83823">
        <ele>417</ele>
        <time>2012-08-12T07:22:32.000Z</time>
      </trkpt>
      <trkpt lat="43.24794" lon="0.83829">
        <ele>417</ele>
        <time>2012-08-12T07:22:35.000Z</time>
      </trkpt>
      <trkpt lat="43.24793" lon="0.83836">
        <ele>417</ele>
        <time>2012-08-12T07:22:38.000Z</time>
      </trkpt>
      <trkpt lat="43.24789" lon="0.8384">
        <ele>418</ele>
        <time>2012-08-12T07:22:42.000Z</time>
      </trkpt>
      <trkpt lat="43.24785" lon="0.83844">
        <ele>418</ele>
        <time>2012-08-12T07:22:45.000Z</time>
      </trkpt>
      <trkpt lat="43.24782" lon="0.8385">
        <ele>417</ele>
        <time>2012-08-12T07:22:48.000Z</time>
      </trkpt>
      <trkpt lat="43.24779" lon="0.83856">
        <ele>418</ele>
        <time>2012-08-12T07:22:50.000Z</time>
      </trkpt>
      <trkpt lat="43.24777" lon="0.83864">
        <ele>419</ele>
        <time>2012-08-12T07:22:53.000Z</time>
      </trkpt>
      <trkpt lat="43.24774" lon="0.83869">
        <ele>420</ele>
        <time>2012-08-12T07:22:55.000Z</time>
      </trkpt>
      <trkpt lat="43.24771" lon="0.83874">
        <ele>421</ele>
        <time>2012-08-12T07:22:57.000Z</time>
      </trkpt>
      <trkpt lat="43.24771" lon="0.83882">
        <ele>420</ele>
        <time>2012-08-12T07:23:00.000Z</time>
      </trkpt>
      <trkpt lat="43.2477" lon="0.83888">
        <ele>420</ele>
        <time>2012-08-12T07:23:02.000Z</time>
      </trkpt>
      <trkpt lat="43.24766" lon="0.83893">
        <ele>422</ele>
        <time>2012-08-12T07:23:07.000Z</time>
      </trkpt>
      <trkpt lat="43.24766" lon="0.839">
        <ele>425</ele>
        <time>2012-08-12T07:23:10.000Z</time>
      </trkpt>
      <trkpt lat="43.24762" lon="0.83907">
        <ele>427</ele>
        <time>2012-08-12T07:23:13.000Z</time>
      </trkpt>
      <trkpt lat="43.24758" lon="0.83911">
        <ele>428</ele>
        <time>2012-08-12T07:23:15.000Z</time>
      </trkpt>
      <trkpt lat="43.24755" lon="0.83918">
        <ele>429</ele>
        <time>2012-08-12T07:23:18.000Z</time>
      </trkpt>
      <trkpt lat="43.24751" lon="0.83922">
        <ele>430</ele>
        <time>2012-08-12T07:23:20.000Z</time>
      </trkpt>
      <trkpt lat="43.24749" lon="0.83928">
        <ele>430</ele>
        <time>2012-08-12T07:23:22.000Z</time>
      </trkpt>
      <trkpt lat="43.24744" lon="0.83932">
        <ele>429</ele>
        <time>2012-08-12T07:23:24.000Z</time>
      </trkpt>
      <trkpt lat="43.24739" lon="0.83935">
        <ele>429</ele>
        <time>2012-08-12T07:23:26.000Z</time>
      </trkpt>
      <trkpt lat="43.24735" lon="0.83941">
        <ele>430</ele>
        <time>2012-08-12T07:23:28.000Z</time>
      </trkpt>
      <trkpt lat="43.24731" lon="0.83946">
        <ele>431</ele>
        <time>2012-08-12T07:23:30.000Z</time>
      </trkpt>
      <trkpt lat="43.24728" lon="0.83953">
        <ele>432</ele>
        <time>2012-08-12T07:23:32.000Z</time>
      </trkpt>
      <trkpt lat="43.24718" lon="0.83957">
        <ele>431</ele>
        <time>2012-08-12T07:23:34.000Z</time>
      </trkpt>
      <trkpt lat="43.24711" lon="0.83961">
        <ele>431</ele>
        <time>2012-08-12T07:23:36.000Z</time>
      </trkpt>
      <trkpt lat="43.24707" lon="0.83963">
        <ele>431</ele>
        <time>2012-08-12T07:23:37.000Z</time>
      </trkpt>
      <trkpt lat="43.24699" lon="0.83972">
        <ele>433</ele>
        <time>2012-08-12T07:23:39.000Z</time>
      </trkpt>
      <trkpt lat="43.24695" lon="0.83974">
        <ele>433</ele>
        <time>2012-08-12T07:23:40.000Z</time>
      </trkpt>
      <trkpt lat="43.24689" lon="0.8398">
        <ele>434</ele>
        <time>2012-08-12T07:23:42.000Z</time>
      </trkpt>
      <trkpt lat="43.24682" lon="0.83986">
        <ele>433</ele>
        <time>2012-08-12T07:23:44.000Z</time>
      </trkpt>
      <trkpt lat="43.24678" lon="0.83991">
        <ele>433</ele>
        <time>2012-08-12T07:23:46.000Z</time>
      </trkpt>
      <trkpt lat="43.24672" lon="0.83994">
        <ele>435</ele>
        <time>2012-08-12T07:23:48.000Z</time>
      </trkpt>
      <trkpt lat="43.24667" lon="0.83996">
        <ele>435</ele>
        <time>2012-08-12T07:23:50.000Z</time>
      </trkpt>
      <trkpt lat="43.24662" lon="0.84">
        <ele>435</ele>
        <time>2012-08-12T07:23:52.000Z</time>
      </trkpt>
      <trkpt lat="43.24656" lon="0.84006">
        <ele>436</ele>
        <time>2012-08-12T07:23:54.000Z</time>
      </trkpt>
      <trkpt lat="43.2465" lon="0.8401">
        <ele>437</ele>
        <time>2012-08-12T07:23:56.000Z</time>
      </trkpt>
      <trkpt lat="43.24645" lon="0.84015">
        <ele>437</ele>
        <time>2012-08-12T07:23:58.000Z</time>
      </trkpt>
      <trkpt lat="43.2464" lon="0.84018">
        <ele>436</ele>
        <time>2012-08-12T07:24:00.000Z</time>
      </trkpt>
      <trkpt lat="43.24635" lon="0.84021">
        <ele>436</ele>
        <time>2012-08-12T07:24:02.000Z</time>
      </trkpt>
      <trkpt lat="43.24628" lon="0.84026">
        <ele>436</ele>
        <time>2012-08-12T07:24:04.000Z</time>
      </trkpt>
      <trkpt lat="43.24622" lon="0.84031">
        <ele>435</ele>
        <time>2012-08-12T07:24:06.000Z</time>
      </trkpt>
      <trkpt lat="43.24614" lon="0.84037">
        <ele>435</ele>
        <time>2012-08-12T07:24:08.000Z</time>
      </trkpt>
      <trkpt lat="43.24608" lon="0.84041">
        <ele>435</ele>
        <time>2012-08-12T07:24:10.000Z</time>
      </trkpt>
      <trkpt lat="43.24601" lon="0.84044">
        <ele>435</ele>
        <time>2012-08-12T07:24:12.000Z</time>
      </trkpt>
      <trkpt lat="43.24596" lon="0.84047">
        <ele>436</ele>
        <time>2012-08-12T07:24:14.000Z</time>
      </trkpt>
      <trkpt lat="43.24591" lon="0.8405">
        <ele>437</ele>
        <time>2012-08-12T07:24:16.000Z</time>
      </trkpt>
      <trkpt lat="43.24585" lon="0.84051">
        <ele>438</ele>
        <time>2012-08-12T07:24:17.000Z</time>
      </trkpt>
      <trkpt lat="43.24579" lon="0.84054">
        <ele>438</ele>
        <time>2012-08-12T07:24:19.000Z</time>
      </trkpt>
      <trkpt lat="43.24573" lon="0.84053">
        <ele>438</ele>
        <time>2012-08-12T07:24:21.000Z</time>
      </trkpt>
      <trkpt lat="43.24567" lon="0.84052">
        <ele>438</ele>
        <time>2012-08-12T07:24:23.000Z</time>
      </trkpt>
      <trkpt lat="43.24561" lon="0.84048">
        <ele>437</ele>
        <time>2012-08-12T07:24:26.000Z</time>
      </trkpt>
      <trkpt lat="43.24556" lon="0.84044">
        <ele>437</ele>
        <time>2012-08-12T07:24:28.000Z</time>
      </trkpt>
      <trkpt lat="43.24551" lon="0.8404">
        <ele>438</ele>
        <time>2012-08-12T07:24:30.000Z</time>
      </trkpt>
      <trkpt lat="43.24545" lon="0.84035">
        <ele>437</ele>
        <time>2012-08-12T07:24:32.000Z</time>
      </trkpt>
      <trkpt lat="43.24541" lon="0.84029">
        <ele>438</ele>
        <time>2012-08-12T07:24:34.000Z</time>
      </trkpt>
      <trkpt lat="43.24535" lon="0.84023">
        <ele>439</ele>
        <time>2012-08-12T07:24:36.000Z</time>
      </trkpt>
      <trkpt lat="43.24526" lon="0.84021">
        <ele>438</ele>
        <time>2012-08-12T07:24:38.000Z</time>
      </trkpt>
      <trkpt lat="43.24519" lon="0.84019">
        <ele>439</ele>
        <time>2012-08-12T07:24:40.000Z</time>
      </trkpt>
      <trkpt lat="43.24511" lon="0.8402">
        <ele>440</ele>
        <time>2012-08-12T07:24:42.000Z</time>
      </trkpt>
      <trkpt lat="43.24507" lon="0.84023">
        <ele>440</ele>
        <time>2012-08-12T07:24:43.000Z</time>
      </trkpt>
      <trkpt lat="43.24499" lon="0.84024">
        <ele>440</ele>
        <time>2012-08-12T07:24:45.000Z</time>
      </trkpt>
      <trkpt lat="43.24491" lon="0.84025">
        <ele>439</ele>
        <time>2012-08-12T07:24:47.000Z</time>
      </trkpt>
      <trkpt lat="43.24485" lon="0.84027">
        <ele>440</ele>
        <time>2012-08-12T07:24:49.000Z</time>
      </trkpt>
      <trkpt lat="43.2448" lon="0.84029">
        <ele>439</ele>
        <time>2012-08-12T07:24:50.000Z</time>
      </trkpt>
      <trkpt lat="43.24475" lon="0.84031">
        <ele>439</ele>
        <time>2012-08-12T07:24:52.000Z</time>
      </trkpt>
      <trkpt lat="43.24471" lon="0.84036">
        <ele>438</ele>
        <time>2012-08-12T07:24:54.000Z</time>
      </trkpt>
      <trkpt lat="43.24468" lon="0.8404">
        <ele>438</ele>
        <time>2012-08-12T07:24:56.000Z</time>
      </trkpt>
      <trkpt lat="43.24464" lon="0.84045">
        <ele>438</ele>
        <time>2012-08-12T07:24:58.000Z</time>
      </trkpt>
      <trkpt lat="43.2447" lon="0.84052">
        <ele>437</ele>
        <time>2012-08-12T07:24:59.000Z</time>
      </trkpt>
      <trkpt lat="43.24471" lon="0.84059">
        <ele>437</ele>
        <time>2012-08-12T07:25:01.000Z</time>
      </trkpt>
      <trkpt lat="43.24475" lon="0.8407">
        <ele>436</ele>
        <time>2012-08-12T07:25:03.000Z</time>
      </trkpt>
      <trkpt lat="43.24478" lon="0.84078">
        <ele>436</ele>
        <time>2012-08-12T07:25:05.000Z</time>
      </trkpt>
      <trkpt lat="43.2448" lon="0.84085">
        <ele>437</ele>
        <time>2012-08-12T07:25:07.000Z</time>
      </trkpt>
      <trkpt lat="43.24479" lon="0.84092">
        <ele>438</ele>
        <time>2012-08-12T07:25:09.000Z</time>
      </trkpt>
      <trkpt lat="43.24482" lon="0.84102">
        <ele>438</ele>
        <time>2012-08-12T07:25:11.000Z</time>
      </trkpt>
      <trkpt lat="43.24485" lon="0.84111">
        <ele>438</ele>
        <time>2012-08-12T07:25:13.000Z</time>
      </trkpt>
      <trkpt lat="43.24486" lon="0.84119">
        <ele>438</ele>
        <time>2012-08-12T07:25:15.000Z</time>
      </trkpt>
      <trkpt lat="43.24486" lon="0.84126">
        <ele>439</ele>
        <time>2012-08-12T07:25:17.000Z</time>
      </trkpt>
      <trkpt lat="43.24485" lon="0.84133">
        <ele>440</ele>
        <time>2012-08-12T07:25:19.000Z</time>
      </trkpt>
      <trkpt lat="43.24483" lon="0.84141">
        <ele>440</ele>
        <time>2012-08-12T07:25:21.000Z</time>
      </trkpt>
      <trkpt lat="43.24483" lon="0.8415">
        <ele>440</ele>
        <time>2012-08-12T07:25:23.000Z</time>
      </trkpt>
      <trkpt lat="43.24482" lon="0.84158">
        <ele>441</ele>
        <time>2012-08-12T07:25:25.000Z</time>
      </trkpt>
      <trkpt lat="43.2448" lon="0.84167">
        <ele>440</ele>
        <time>2012-08-12T07:25:27.000Z</time>
      </trkpt>
      <trkpt lat="43.24482" lon="0.84173">
        <ele>440</ele>
        <time>2012-08-12T07:25:28.000Z</time>
      </trkpt>
      <trkpt lat="43.24485" lon="0.84183">
        <ele>439</ele>
        <time>2012-08-12T07:25:30.000Z</time>
      </trkpt>
      <trkpt lat="43.24483" lon="0.84191">
        <ele>441</ele>
        <time>2012-08-12T07:25:33.000Z</time>
      </trkpt>
      <trkpt lat="43.24482" lon="0.84198">
        <ele>441</ele>
        <time>2012-08-12T07:25:35.000Z</time>
      </trkpt>
      <trkpt lat="43.24487" lon="0.84205">
        <ele>441</ele>
        <time>2012-08-12T07:25:36.000Z</time>
      </trkpt>
      <trkpt lat="43.24488" lon="0.84214">
        <ele>442</ele>
        <time>2012-08-12T07:25:38.000Z</time>
      </trkpt>
      <trkpt lat="43.2449" lon="0.84224">
        <ele>442</ele>
        <time>2012-08-12T07:25:40.000Z</time>
      </trkpt>
      <trkpt lat="43.24491" lon="0.84236">
        <ele>442</ele>
        <time>2012-08-12T07:25:42.000Z</time>
      </trkpt>
      <trkpt lat="43.24493" lon="0.84244">
        <ele>442</ele>
        <time>2012-08-12T07:25:43.000Z</time>
      </trkpt>
      <trkpt lat="43.24493" lon="0.8425">
        <ele>442</ele>
        <time>2012-08-12T07:25:44.000Z</time>
      </trkpt>
      <trkpt lat="43.24495" lon="0.8426">
        <ele>442</ele>
        <time>2012-08-12T07:25:46.000Z</time>
      </trkpt>
      <trkpt lat="43.24494" lon="0.84271">
        <ele>440</ele>
        <time>2012-08-12T07:25:48.000Z</time>
      </trkpt>
      <trkpt lat="43.24496" lon="0.84282">
        <ele>439</ele>
        <time>2012-08-12T07:25:50.000Z</time>
      </trkpt>
      <trkpt lat="43.24497" lon="0.84294">
        <ele>439</ele>
        <time>2012-08-12T07:25:52.000Z</time>
      </trkpt>
      <trkpt lat="43.24497" lon="0.84301">
        <ele>439</ele>
        <time>2012-08-12T07:25:53.000Z</time>
      </trkpt>
      <trkpt lat="43.24492" lon="0.84311">
        <ele>439</ele>
        <time>2012-08-12T07:25:55.000Z</time>
      </trkpt>
      <trkpt lat="43.24489" lon="0.84327">
        <ele>438</ele>
        <time>2012-08-12T07:25:57.000Z</time>
      </trkpt>
      <trkpt lat="43.2449" lon="0.84337">
        <ele>437</ele>
        <time>2012-08-12T07:25:58.000Z</time>
      </trkpt>
      <trkpt lat="43.24491" lon="0.84347">
        <ele>437</ele>
        <time>2012-08-12T07:25:59.000Z</time>
      </trkpt>
      <trkpt lat="43.2449" lon="0.84357">
        <ele>437</ele>
        <time>2012-08-12T07:26:00.000Z</time>
      </trkpt>
      <trkpt lat="43.24489" lon="0.84364">
        <ele>437</ele>
        <time>2012-08-12T07:26:01.000Z</time>
      </trkpt>
      <trkpt lat="43.2449" lon="0.84375">
        <ele>436</ele>
        <time>2012-08-12T07:26:02.000Z</time>
      </trkpt>
      <trkpt lat="43.24494" lon="0.84388">
        <ele>436</ele>
        <time>2012-08-12T07:26:03.000Z</time>
      </trkpt>
      <trkpt lat="43.24494" lon="0.84396">
        <ele>435</ele>
        <time>2012-08-12T07:26:04.000Z</time>
      </trkpt>
      <trkpt lat="43.24497" lon="0.8441">
        <ele>434</ele>
        <time>2012-08-12T07:26:05.000Z</time>
      </trkpt>
      <trkpt lat="43.24504" lon="0.84424">
        <ele>433</ele>
        <time>2012-08-12T07:26:06.000Z</time>
      </trkpt>
      <trkpt lat="43.24508" lon="0.84438">
        <ele>434</ele>
        <time>2012-08-12T07:26:07.000Z</time>
      </trkpt>
      <trkpt lat="43.24514" lon="0.84454">
        <ele>434</ele>
        <time>2012-08-12T07:26:08.000Z</time>
      </trkpt>
      <trkpt lat="43.24518" lon="0.84468">
        <ele>434</ele>
        <time>2012-08-12T07:26:09.000Z</time>
      </trkpt>
      <trkpt lat="43.24522" lon="0.84481">
        <ele>435</ele>
        <time>2012-08-12T07:26:10.000Z</time>
      </trkpt>
      <trkpt lat="43.24527" lon="0.84498">
        <ele>434</ele>
        <time>2012-08-12T07:26:11.000Z</time>
      </trkpt>
      <trkpt lat="43.2453" lon="0.84511">
        <ele>433</ele>
        <time>2012-08-12T07:26:12.000Z</time>
      </trkpt>
      <trkpt lat="43.24535" lon="0.84523">
        <ele>432</ele>
        <time>2012-08-12T07:26:13.000Z</time>
      </trkpt>
      <trkpt lat="43.24539" lon="0.84537">
        <ele>432</ele>
        <time>2012-08-12T07:26:14.000Z</time>
      </trkpt>
      <trkpt lat="43.24547" lon="0.84551">
        <ele>431</ele>
        <time>2012-08-12T07:26:15.000Z</time>
      </trkpt>
      <trkpt lat="43.24555" lon="0.84565">
        <ele>429</ele>
        <time>2012-08-12T07:26:16.000Z</time>
      </trkpt>
      <trkpt lat="43.24565" lon="0.84578">
        <ele>428</ele>
        <time>2012-08-12T07:26:17.000Z</time>
      </trkpt>
      <trkpt lat="43.24573" lon="0.84587">
        <ele>427</ele>
        <time>2012-08-12T07:26:18.000Z</time>
      </trkpt>
      <trkpt lat="43.2458" lon="0.84596">
        <ele>426</ele>
        <time>2012-08-12T07:26:19.000Z</time>
      </trkpt>
      <trkpt lat="43.24587" lon="0.84605">
        <ele>424</ele>
        <time>2012-08-12T07:26:20.000Z</time>
      </trkpt>
      <trkpt lat="43.24595" lon="0.84612">
        <ele>424</ele>
        <time>2012-08-12T07:26:21.000Z</time>
      </trkpt>
      <trkpt lat="43.24603" lon="0.84618">
        <ele>423</ele>
        <time>2012-08-12T07:26:22.000Z</time>
      </trkpt>
      <trkpt lat="43.2461" lon="0.84625">
        <ele>422</ele>
        <time>2012-08-12T07:26:23.000Z</time>
      </trkpt>
      <trkpt lat="43.24617" lon="0.84631">
        <ele>422</ele>
        <time>2012-08-12T07:26:24.000Z</time>
      </trkpt>
      <trkpt lat="43.24624" lon="0.84636">
        <ele>421</ele>
        <time>2012-08-12T07:26:25.000Z</time>
      </trkpt>
      <trkpt lat="43.24631" lon="0.84642">
        <ele>422</ele>
        <time>2012-08-12T07:26:26.000Z</time>
      </trkpt>
      <trkpt lat="43.24638" lon="0.84647">
        <ele>421</ele>
        <time>2012-08-12T07:26:27.000Z</time>
      </trkpt>
      <trkpt lat="43.24644" lon="0.84653">
        <ele>421</ele>
        <time>2012-08-12T07:26:28.000Z</time>
      </trkpt>
      <trkpt lat="43.24649" lon="0.84658">
        <ele>421</ele>
        <time>2012-08-12T07:26:29.000Z</time>
      </trkpt>
      <trkpt lat="43.24654" lon="0.84663">
        <ele>421</ele>
        <time>2012-08-12T07:26:30.000Z</time>
      </trkpt>
      <trkpt lat="43.24659" lon="0.84668">
        <ele>420</ele>
        <time>2012-08-12T07:26:31.000Z</time>
      </trkpt>
      <trkpt lat="43.24663" lon="0.84675">
        <ele>421</ele>
        <time>2012-08-12T07:26:32.000Z</time>
      </trkpt>
      <trkpt lat="43.24667" lon="0.84681">
        <ele>421</ele>
        <time>2012-08-12T07:26:33.000Z</time>
      </trkpt>
      <trkpt lat="43.24672" lon="0.84687">
        <ele>421</ele>
        <time>2012-08-12T07:26:34.000Z</time>
      </trkpt>
      <trkpt lat="43.24675" lon="0.84694">
        <ele>421</ele>
        <time>2012-08-12T07:26:35.000Z</time>
      </trkpt>
      <trkpt lat="43.24679" lon="0.847">
        <ele>421</ele>
        <time>2012-08-12T07:26:36.000Z</time>
      </trkpt>
      <trkpt lat="43.24683" lon="0.84707">
        <ele>421</ele>
        <time>2012-08-12T07:26:37.000Z</time>
      </trkpt>
      <trkpt lat="43.24686" lon="0.84714">
        <ele>421</ele>
        <time>2012-08-12T07:26:38.000Z</time>
      </trkpt>
      <trkpt lat="43.2469" lon="0.84721">
        <ele>421</ele>
        <time>2012-08-12T07:26:39.000Z</time>
      </trkpt>
      <trkpt lat="43.24694" lon="0.84728">
        <ele>421</ele>
        <time>2012-08-12T07:26:40.000Z</time>
      </trkpt>
      <trkpt lat="43.24698" lon="0.84735">
        <ele>421</ele>
        <time>2012-08-12T07:26:41.000Z</time>
      </trkpt>
      <trkpt lat="43.24701" lon="0.84745">
        <ele>420</ele>
        <time>2012-08-12T07:26:43.000Z</time>
      </trkpt>
      <trkpt lat="43.24704" lon="0.84751">
        <ele>420</ele>
        <time>2012-08-12T07:26:44.000Z</time>
      </trkpt>
      <trkpt lat="43.24712" lon="0.84762">
        <ele>420</ele>
        <time>2012-08-12T07:26:46.000Z</time>
      </trkpt>
      <trkpt lat="43.24715" lon="0.84767">
        <ele>420</ele>
        <time>2012-08-12T07:26:47.000Z</time>
      </trkpt>
      <trkpt lat="43.24718" lon="0.84772">
        <ele>420</ele>
        <time>2012-08-12T07:26:48.000Z</time>
      </trkpt>
      <trkpt lat="43.24722" lon="0.84779">
        <ele>420</ele>
        <time>2012-08-12T07:26:49.000Z</time>
      </trkpt>
      <trkpt lat="43.24716" lon="0.84778">
        <ele>420</ele>
        <time>2012-08-12T07:26:50.000Z</time>
      </trkpt>
      <trkpt lat="43.2472" lon="0.84788">
        <ele>420</ele>
        <time>2012-08-12T07:26:52.000Z</time>
      </trkpt>
      <trkpt lat="43.24724" lon="0.84794">
        <ele>420</ele>
        <time>2012-08-12T07:26:53.000Z</time>
      </trkpt>
      <trkpt lat="43.24728" lon="0.84806">
        <ele>420</ele>
        <time>2012-08-12T07:26:55.000Z</time>
      </trkpt>
      <trkpt lat="43.24731" lon="0.84811">
        <ele>421</ele>
        <time>2012-08-12T07:26:56.000Z</time>
      </trkpt>
      <trkpt lat="43.24736" lon="0.84822">
        <ele>421</ele>
        <time>2012-08-12T07:26:58.000Z</time>
      </trkpt>
      <trkpt lat="43.24737" lon="0.84828">
        <ele>421</ele>
        <time>2012-08-12T07:26:59.000Z</time>
      </trkpt>
      <trkpt lat="43.2474" lon="0.84833">
        <ele>421</ele>
        <time>2012-08-12T07:27:00.000Z</time>
      </trkpt>
      <trkpt lat="43.24742" lon="0.84845">
        <ele>422</ele>
        <time>2012-08-12T07:27:02.000Z</time>
      </trkpt>
      <trkpt lat="43.24743" lon="0.84851">
        <ele>423</ele>
        <time>2012-08-12T07:27:03.000Z</time>
      </trkpt>
      <trkpt lat="43.24745" lon="0.84856">
        <ele>423</ele>
        <time>2012-08-12T07:27:04.000Z</time>
      </trkpt>
      <trkpt lat="43.24747" lon="0.84867">
        <ele>424</ele>
        <time>2012-08-12T07:27:06.000Z</time>
      </trkpt>
      <trkpt lat="43.24748" lon="0.84878">
        <ele>424</ele>
        <time>2012-08-12T07:27:08.000Z</time>
      </trkpt>
      <trkpt lat="43.2475" lon="0.8489">
        <ele>424</ele>
        <time>2012-08-12T07:27:10.000Z</time>
      </trkpt>
      <trkpt lat="43.24751" lon="0.84901">
        <ele>424</ele>
        <time>2012-08-12T07:27:12.000Z</time>
      </trkpt>
      <trkpt lat="43.24752" lon="0.84912">
        <ele>424</ele>
        <time>2012-08-12T07:27:14.000Z</time>
      </trkpt>
      <trkpt lat="43.24753" lon="0.84924">
        <ele>424</ele>
        <time>2012-08-12T07:27:16.000Z</time>
      </trkpt>
      <trkpt lat="43.24754" lon="0.84935">
        <ele>425</ele>
        <time>2012-08-12T07:27:18.000Z</time>
      </trkpt>
      <trkpt lat="43.24753" lon="0.84947">
        <ele>426</ele>
        <time>2012-08-12T07:27:20.000Z</time>
      </trkpt>
      <trkpt lat="43.24753" lon="0.84957">
        <ele>427</ele>
        <time>2012-08-12T07:27:22.000Z</time>
      </trkpt>
      <trkpt lat="43.24754" lon="0.84967">
        <ele>427</ele>
        <time>2012-08-12T07:27:24.000Z</time>
      </trkpt>
      <trkpt lat="43.24755" lon="0.84978">
        <ele>426</ele>
        <time>2012-08-12T07:27:26.000Z</time>
      </trkpt>
      <trkpt lat="43.24755" lon="0.84987">
        <ele>426</ele>
        <time>2012-08-12T07:27:28.000Z</time>
      </trkpt>
      <trkpt lat="43.24755" lon="0.84998">
        <ele>426</ele>
        <time>2012-08-12T07:27:30.000Z</time>
      </trkpt>
      <trkpt lat="43.24755" lon="0.85007">
        <ele>427</ele>
        <time>2012-08-12T07:27:32.000Z</time>
      </trkpt>
      <trkpt lat="43.24756" lon="0.85018">
        <ele>427</ele>
        <time>2012-08-12T07:27:34.000Z</time>
      </trkpt>
      <trkpt lat="43.24756" lon="0.85028">
        <ele>426</ele>
        <time>2012-08-12T07:27:36.000Z</time>
      </trkpt>
      <trkpt lat="43.24757" lon="0.85039">
        <ele>426</ele>
        <time>2012-08-12T07:27:38.000Z</time>
      </trkpt>
      <trkpt lat="43.24757" lon="0.85046">
        <ele>426</ele>
        <time>2012-08-12T07:27:39.000Z</time>
      </trkpt>
      <trkpt lat="43.24757" lon="0.85058">
        <ele>426</ele>
        <time>2012-08-12T07:27:41.000Z</time>
      </trkpt>
      <trkpt lat="43.24757" lon="0.85066">
        <ele>425</ele>
        <time>2012-08-12T07:27:43.000Z</time>
      </trkpt>
      <trkpt lat="43.24757" lon="0.85074">
        <ele>425</ele>
        <time>2012-08-12T07:27:44.000Z</time>
      </trkpt>
      <trkpt lat="43.24757" lon="0.8508">
        <ele>425</ele>
        <time>2012-08-12T07:27:45.000Z</time>
      </trkpt>
      <trkpt lat="43.24758" lon="0.85087">
        <ele>425</ele>
        <time>2012-08-12T07:27:46.000Z</time>
      </trkpt>
      <trkpt lat="43.24758" lon="0.85093">
        <ele>425</ele>
        <time>2012-08-12T07:27:47.000Z</time>
      </trkpt>
      <trkpt lat="43.24758" lon="0.85105">
        <ele>425</ele>
        <time>2012-08-12T07:27:49.000Z</time>
      </trkpt>
      <trkpt lat="43.24758" lon="0.85118">
        <ele>425</ele>
        <time>2012-08-12T07:27:51.000Z</time>
      </trkpt>
      <trkpt lat="43.24757" lon="0.85124">
        <ele>425</ele>
        <time>2012-08-12T07:27:52.000Z</time>
      </trkpt>
      <trkpt lat="43.24757" lon="0.85131">
        <ele>425</ele>
        <time>2012-08-12T07:27:53.000Z</time>
      </trkpt>
      <trkpt lat="43.24756" lon="0.85143">
        <ele>425</ele>
        <time>2012-08-12T07:27:55.000Z</time>
      </trkpt>
      <trkpt lat="43.24755" lon="0.85155">
        <ele>425</ele>
        <time>2012-08-12T07:27:57.000Z</time>
      </trkpt>
      <trkpt lat="43.24756" lon="0.85169">
        <ele>425</ele>
        <time>2012-08-12T07:27:59.000Z</time>
      </trkpt>
      <trkpt lat="43.24752" lon="0.85179">
        <ele>425</ele>
        <time>2012-08-12T07:28:01.000Z</time>
      </trkpt>
      <trkpt lat="43.24749" lon="0.85184">
        <ele>425</ele>
        <time>2012-08-12T07:28:02.000Z</time>
      </trkpt>
      <trkpt lat="43.24746" lon="0.85194">
        <ele>425</ele>
        <time>2012-08-12T07:28:04.000Z</time>
      </trkpt>
      <trkpt lat="43.24744" lon="0.85201">
        <ele>426</ele>
        <time>2012-08-12T07:28:05.000Z</time>
      </trkpt>
      <trkpt lat="43.24744" lon="0.85208">
        <ele>426</ele>
        <time>2012-08-12T07:28:06.000Z</time>
      </trkpt>
      <trkpt lat="43.24741" lon="0.85215">
        <ele>426</ele>
        <time>2012-08-12T07:28:07.000Z</time>
      </trkpt>
      <trkpt lat="43.24733" lon="0.85219">
        <ele>426</ele>
        <time>2012-08-12T07:28:08.000Z</time>
      </trkpt>
      <trkpt lat="43.24729" lon="0.85223">
        <ele>426</ele>
        <time>2012-08-12T07:28:09.000Z</time>
      </trkpt>
      <trkpt lat="43.24727" lon="0.85229">
        <ele>426</ele>
        <time>2012-08-12T07:28:10.000Z</time>
      </trkpt>
      <trkpt lat="43.24725" lon="0.85235">
        <ele>426</ele>
        <time>2012-08-12T07:28:11.000Z</time>
      </trkpt>
      <trkpt lat="43.24723" lon="0.85242">
        <ele>426</ele>
        <time>2012-08-12T07:28:12.000Z</time>
      </trkpt>
      <trkpt lat="43.24721" lon="0.85248">
        <ele>425</ele>
        <time>2012-08-12T07:28:13.000Z</time>
      </trkpt>
      <trkpt lat="43.2472" lon="0.85254">
        <ele>425</ele>
        <time>2012-08-12T07:28:14.000Z</time>
      </trkpt>
      <trkpt lat="43.24718" lon="0.85264">
        <ele>425</ele>
        <time>2012-08-12T07:28:16.000Z</time>
      </trkpt>
      <trkpt lat="43.24716" lon="0.85275">
        <ele>424</ele>
        <time>2012-08-12T07:28:18.000Z</time>
      </trkpt>
      <trkpt lat="43.24716" lon="0.85282">
        <ele>424</ele>
        <time>2012-08-12T07:28:19.000Z</time>
      </trkpt>
      <trkpt lat="43.24719" lon="0.8529">
        <ele>424</ele>
        <time>2012-08-12T07:28:20.000Z</time>
      </trkpt>
      <trkpt lat="43.2472" lon="0.85297">
        <ele>424</ele>
        <time>2012-08-12T07:28:21.000Z</time>
      </trkpt>
      <trkpt lat="43.24718" lon="0.85306">
        <ele>425</ele>
        <time>2012-08-12T07:28:23.000Z</time>
      </trkpt>
      <trkpt lat="43.24716" lon="0.85316">
        <ele>424</ele>
        <time>2012-08-12T07:28:25.000Z</time>
      </trkpt>
      <trkpt lat="43.24716" lon="0.85325">
        <ele>425</ele>
        <time>2012-08-12T07:28:27.000Z</time>
      </trkpt>
      <trkpt lat="43.24713" lon="0.85334">
        <ele>427</ele>
        <time>2012-08-12T07:28:29.000Z</time>
      </trkpt>
      <trkpt lat="43.24711" lon="0.85345">
        <ele>429</ele>
        <time>2012-08-12T07:28:31.000Z</time>
      </trkpt>
      <trkpt lat="43.24711" lon="0.85357">
        <ele>429</ele>
        <time>2012-08-12T07:28:33.000Z</time>
      </trkpt>
      <trkpt lat="43.24712" lon="0.85368">
        <ele>429</ele>
        <time>2012-08-12T07:28:35.000Z</time>
      </trkpt>
      <trkpt lat="43.24711" lon="0.85375">
        <ele>429</ele>
        <time>2012-08-12T07:28:36.000Z</time>
      </trkpt>
      <trkpt lat="43.24709" lon="0.85381">
        <ele>429</ele>
        <time>2012-08-12T07:28:37.000Z</time>
      </trkpt>
      <trkpt lat="43.24709" lon="0.85388">
        <ele>429</ele>
        <time>2012-08-12T07:28:38.000Z</time>
      </trkpt>
      <trkpt lat="43.24708" lon="0.85395">
        <ele>429</ele>
        <time>2012-08-12T07:28:39.000Z</time>
      </trkpt>
      <trkpt lat="43.24708" lon="0.85407">
        <ele>429</ele>
        <time>2012-08-12T07:28:41.000Z</time>
      </trkpt>
      <trkpt lat="43.24707" lon="0.85414">
        <ele>428</ele>
        <time>2012-08-12T07:28:42.000Z</time>
      </trkpt>
      <trkpt lat="43.24707" lon="0.8542">
        <ele>428</ele>
        <time>2012-08-12T07:28:43.000Z</time>
      </trkpt>
      <trkpt lat="43.24706" lon="0.85427">
        <ele>428</ele>
        <time>2012-08-12T07:28:44.000Z</time>
      </trkpt>
      <trkpt lat="43.24705" lon="0.85438">
        <ele>428</ele>
        <time>2012-08-12T07:28:46.000Z</time>
      </trkpt>
      <trkpt lat="43.24704" lon="0.85446">
        <ele>428</ele>
        <time>2012-08-12T07:28:47.000Z</time>
      </trkpt>
      <trkpt lat="43.24703" lon="0.85453">
        <ele>429</ele>
        <time>2012-08-12T07:28:48.000Z</time>
      </trkpt>
      <trkpt lat="43.24704" lon="0.8546">
        <ele>428</ele>
        <time>2012-08-12T07:28:49.000Z</time>
      </trkpt>
      <trkpt lat="43.24704" lon="0.85467">
        <ele>429</ele>
        <time>2012-08-12T07:28:50.000Z</time>
      </trkpt>
      <trkpt lat="43.24704" lon="0.85475">
        <ele>428</ele>
        <time>2012-08-12T07:28:51.000Z</time>
      </trkpt>
      <trkpt lat="43.24703" lon="0.85488">
        <ele>428</ele>
        <time>2012-08-12T07:28:53.000Z</time>
      </trkpt>
      <trkpt lat="43.24703" lon="0.855">
        <ele>428</ele>
        <time>2012-08-12T07:28:55.000Z</time>
      </trkpt>
      <trkpt lat="43.24704" lon="0.85512">
        <ele>428</ele>
        <time>2012-08-12T07:28:57.000Z</time>
      </trkpt>
      <trkpt lat="43.24706" lon="0.85528">
        <ele>427</ele>
        <time>2012-08-12T07:28:59.000Z</time>
      </trkpt>
      <trkpt lat="43.24708" lon="0.85536">
        <ele>426</ele>
        <time>2012-08-12T07:29:00.000Z</time>
      </trkpt>
      <trkpt lat="43.24708" lon="0.85544">
        <ele>427</ele>
        <time>2012-08-12T07:29:01.000Z</time>
      </trkpt>
      <trkpt lat="43.24707" lon="0.85552">
        <ele>427</ele>
        <time>2012-08-12T07:29:02.000Z</time>
      </trkpt>
      <trkpt lat="43.24707" lon="0.85561">
        <ele>427</ele>
        <time>2012-08-12T07:29:03.000Z</time>
      </trkpt>
      <trkpt lat="43.24707" lon="0.85569">
        <ele>427</ele>
        <time>2012-08-12T07:29:04.000Z</time>
      </trkpt>
      <trkpt lat="43.24707" lon="0.85577">
        <ele>426</ele>
        <time>2012-08-12T07:29:05.000Z</time>
      </trkpt>
      <trkpt lat="43.24706" lon="0.85584">
        <ele>426</ele>
        <time>2012-08-12T07:29:06.000Z</time>
      </trkpt>
      <trkpt lat="43.24707" lon="0.85591">
        <ele>427</ele>
        <time>2012-08-12T07:29:07.000Z</time>
      </trkpt>
      <trkpt lat="43.24706" lon="0.85599">
        <ele>426</ele>
        <time>2012-08-12T07:29:08.000Z</time>
      </trkpt>
      <trkpt lat="43.24704" lon="0.85606">
        <ele>427</ele>
        <time>2012-08-12T07:29:09.000Z</time>
      </trkpt>
      <trkpt lat="43.24703" lon="0.85614">
        <ele>427</ele>
        <time>2012-08-12T07:29:10.000Z</time>
      </trkpt>
      <trkpt lat="43.24702" lon="0.85622">
        <ele>427</ele>
        <time>2012-08-12T07:29:11.000Z</time>
      </trkpt>
      <trkpt lat="43.24702" lon="0.85632">
        <ele>426</ele>
        <time>2012-08-12T07:29:12.000Z</time>
      </trkpt>
      <trkpt lat="43.24702" lon="0.85641">
        <ele>426</ele>
        <time>2012-08-12T07:29:13.000Z</time>
      </trkpt>
      <trkpt lat="43.24701" lon="0.85652">
        <ele>425</ele>
        <time>2012-08-12T07:29:14.000Z</time>
      </trkpt>
      <trkpt lat="43.24702" lon="0.85661">
        <ele>425</ele>
        <time>2012-08-12T07:29:15.000Z</time>
      </trkpt>
      <trkpt lat="43.24702" lon="0.85669">
        <ele>426</ele>
        <time>2012-08-12T07:29:16.000Z</time>
      </trkpt>
      <trkpt lat="43.24702" lon="0.85677">
        <ele>426</ele>
        <time>2012-08-12T07:29:17.000Z</time>
      </trkpt>
      <trkpt lat="43.24703" lon="0.85687">
        <ele>425</ele>
        <time>2012-08-12T07:29:18.000Z</time>
      </trkpt>
      <trkpt lat="43.24702" lon="0.85694">
        <ele>425</ele>
        <time>2012-08-12T07:29:19.000Z</time>
      </trkpt>
      <trkpt lat="43.24703" lon="0.85702">
        <ele>424</ele>
        <time>2012-08-12T07:29:20.000Z</time>
      </trkpt>
      <trkpt lat="43.24703" lon="0.85711">
        <ele>424</ele>
        <time>2012-08-12T07:29:21.000Z</time>
      </trkpt>
      <trkpt lat="43.24703" lon="0.8572">
        <ele>425</ele>
        <time>2012-08-12T07:29:22.000Z</time>
      </trkpt>
      <trkpt lat="43.24702" lon="0.85728">
        <ele>424</ele>
        <time>2012-08-12T07:29:23.000Z</time>
      </trkpt>
      <trkpt lat="43.247" lon="0.85735">
        <ele>425</ele>
        <time>2012-08-12T07:29:24.000Z</time>
      </trkpt>
      <trkpt lat="43.24699" lon="0.85743">
        <ele>426</ele>
        <time>2012-08-12T07:29:25.000Z</time>
      </trkpt>
      <trkpt lat="43.24698" lon="0.85752">
        <ele>425</ele>
        <time>2012-08-12T07:29:26.000Z</time>
      </trkpt>
      <trkpt lat="43.24698" lon="0.8576">
        <ele>425</ele>
        <time>2012-08-12T07:29:27.000Z</time>
      </trkpt>
      <trkpt lat="43.24697" lon="0.85768">
        <ele>425</ele>
        <time>2012-08-12T07:29:28.000Z</time>
      </trkpt>
      <trkpt lat="43.24697" lon="0.85776">
        <ele>426</ele>
        <time>2012-08-12T07:29:29.000Z</time>
      </trkpt>
      <trkpt lat="43.24696" lon="0.85784">
        <ele>425</ele>
        <time>2012-08-12T07:29:30.000Z</time>
      </trkpt>
      <trkpt lat="43.24695" lon="0.85792">
        <ele>425</ele>
        <time>2012-08-12T07:29:31.000Z</time>
      </trkpt>
      <trkpt lat="43.24695" lon="0.85801">
        <ele>425</ele>
        <time>2012-08-12T07:29:32.000Z</time>
      </trkpt>
      <trkpt lat="43.24696" lon="0.8581">
        <ele>425</ele>
        <time>2012-08-12T07:29:33.000Z</time>
      </trkpt>
      <trkpt lat="43.24696" lon="0.85819">
        <ele>425</ele>
        <time>2012-08-12T07:29:34.000Z</time>
      </trkpt>
      <trkpt lat="43.24696" lon="0.85826">
        <ele>424</ele>
        <time>2012-08-12T07:29:35.000Z</time>
      </trkpt>
      <trkpt lat="43.24696" lon="0.85834">
        <ele>425</ele>
        <time>2012-08-12T07:29:36.000Z</time>
      </trkpt>
      <trkpt lat="43.24695" lon="0.85846">
        <ele>426</ele>
        <time>2012-08-12T07:29:38.000Z</time>
      </trkpt>
      <trkpt lat="43.24695" lon="0.85859">
        <ele>425</ele>
        <time>2012-08-12T07:29:40.000Z</time>
      </trkpt>
      <trkpt lat="43.24696" lon="0.85871">
        <ele>425</ele>
        <time>2012-08-12T07:29:42.000Z</time>
      </trkpt>
      <trkpt lat="43.24696" lon="0.85883">
        <ele>425</ele>
        <time>2012-08-12T07:29:44.000Z</time>
      </trkpt>
      <trkpt lat="43.24697" lon="0.85889">
        <ele>425</ele>
        <time>2012-08-12T07:29:45.000Z</time>
      </trkpt>
      <trkpt lat="43.24698" lon="0.85896">
        <ele>426</ele>
        <time>2012-08-12T07:29:46.000Z</time>
      </trkpt>
      <trkpt lat="43.24699" lon="0.85908">
        <ele>425</ele>
        <time>2012-08-12T07:29:48.000Z</time>
      </trkpt>
      <trkpt lat="43.24702" lon="0.85916">
        <ele>425</ele>
        <time>2012-08-12T07:29:49.000Z</time>
      </trkpt>
      <trkpt lat="43.24703" lon="0.85924">
        <ele>425</ele>
        <time>2012-08-12T07:29:50.000Z</time>
      </trkpt>
      <trkpt lat="43.24704" lon="0.85932">
        <ele>425</ele>
        <time>2012-08-12T07:29:51.000Z</time>
      </trkpt>
      <trkpt lat="43.24704" lon="0.85943">
        <ele>426</ele>
        <time>2012-08-12T07:29:53.000Z</time>
      </trkpt>
      <trkpt lat="43.24705" lon="0.85951">
        <ele>425</ele>
        <time>2012-08-12T07:29:54.000Z</time>
      </trkpt>
      <trkpt lat="43.24705" lon="0.85963">
        <ele>425</ele>
        <time>2012-08-12T07:29:56.000Z</time>
      </trkpt>
      <trkpt lat="43.24707" lon="0.85981">
        <ele>425</ele>
        <time>2012-08-12T07:29:59.000Z</time>
      </trkpt>
      <trkpt lat="43.24708" lon="0.85988">
        <ele>425</ele>
        <time>2012-08-12T07:30:00.000Z</time>
      </trkpt>
      <trkpt lat="43.2471" lon="0.85995">
        <ele>426</ele>
        <time>2012-08-12T07:30:01.000Z</time>
      </trkpt>
      <trkpt lat="43.24712" lon="0.86007">
        <ele>425</ele>
        <time>2012-08-12T07:30:03.000Z</time>
      </trkpt>
      <trkpt lat="43.24713" lon="0.86012">
        <ele>425</ele>
        <time>2012-08-12T07:30:04.000Z</time>
      </trkpt>
      <trkpt lat="43.24714" lon="0.86019">
        <ele>426</ele>
        <time>2012-08-12T07:30:05.000Z</time>
      </trkpt>
      <trkpt lat="43.24715" lon="0.86025">
        <ele>426</ele>
        <time>2012-08-12T07:30:06.000Z</time>
      </trkpt>
      <trkpt lat="43.24716" lon="0.86036">
        <ele>425</ele>
        <time>2012-08-12T07:30:08.000Z</time>
      </trkpt>
      <trkpt lat="43.24718" lon="0.86046">
        <ele>426</ele>
        <time>2012-08-12T07:30:10.000Z</time>
      </trkpt>
      <trkpt lat="43.24717" lon="0.86056">
        <ele>426</ele>
        <time>2012-08-12T07:30:12.000Z</time>
      </trkpt>
      <trkpt lat="43.2472" lon="0.86067">
        <ele>426</ele>
        <time>2012-08-12T07:30:14.000Z</time>
      </trkpt>
      <trkpt lat="43.24722" lon="0.86073">
        <ele>426</ele>
        <time>2012-08-12T07:30:15.000Z</time>
      </trkpt>
      <trkpt lat="43.24726" lon="0.86078">
        <ele>426</ele>
        <time>2012-08-12T07:30:16.000Z</time>
      </trkpt>
      <trkpt lat="43.24728" lon="0.86089">
        <ele>427</ele>
        <time>2012-08-12T07:30:18.000Z</time>
      </trkpt>
      <trkpt lat="43.24731" lon="0.861">
        <ele>427</ele>
        <time>2012-08-12T07:30:20.000Z</time>
      </trkpt>
      <trkpt lat="43.24734" lon="0.86111">
        <ele>428</ele>
        <time>2012-08-12T07:30:22.000Z</time>
      </trkpt>
      <trkpt lat="43.24736" lon="0.86117">
        <ele>428</ele>
        <time>2012-08-12T07:30:23.000Z</time>
      </trkpt>
      <trkpt lat="43.2474" lon="0.86126">
        <ele>427</ele>
        <time>2012-08-12T07:30:25.000Z</time>
      </trkpt>
      <trkpt lat="43.24744" lon="0.86136">
        <ele>427</ele>
        <time>2012-08-12T07:30:27.000Z</time>
      </trkpt>
      <trkpt lat="43.24747" lon="0.86147">
        <ele>427</ele>
        <time>2012-08-12T07:30:29.000Z</time>
      </trkpt>
      <trkpt lat="43.2475" lon="0.86158">
        <ele>427</ele>
        <time>2012-08-12T07:30:31.000Z</time>
      </trkpt>
      <trkpt lat="43.24753" lon="0.86168">
        <ele>426</ele>
        <time>2012-08-12T07:30:33.000Z</time>
      </trkpt>
      <trkpt lat="43.24757" lon="0.86177">
        <ele>426</ele>
        <time>2012-08-12T07:30:35.000Z</time>
      </trkpt>
      <trkpt lat="43.24761" lon="0.86186">
        <ele>426</ele>
        <time>2012-08-12T07:30:37.000Z</time>
      </trkpt>
      <trkpt lat="43.24763" lon="0.86196">
        <ele>427</ele>
        <time>2012-08-12T07:30:39.000Z</time>
      </trkpt>
      <trkpt lat="43.24766" lon="0.86207">
        <ele>427</ele>
        <time>2012-08-12T07:30:41.000Z</time>
      </trkpt>
      <trkpt lat="43.2477" lon="0.86218">
        <ele>426</ele>
        <time>2012-08-12T07:30:43.000Z</time>
      </trkpt>
      <trkpt lat="43.24771" lon="0.86224">
        <ele>427</ele>
        <time>2012-08-12T07:30:44.000Z</time>
      </trkpt>
      <trkpt lat="43.24773" lon="0.8623">
        <ele>427</ele>
        <time>2012-08-12T07:30:45.000Z</time>
      </trkpt>
      <trkpt lat="43.24774" lon="0.86236">
        <ele>427</ele>
        <time>2012-08-12T07:30:46.000Z</time>
      </trkpt>
      <trkpt lat="43.24777" lon="0.86248">
        <ele>426</ele>
        <time>2012-08-12T07:30:48.000Z</time>
      </trkpt>
      <trkpt lat="43.24778" lon="0.86254">
        <ele>426</ele>
        <time>2012-08-12T07:30:49.000Z</time>
      </trkpt>
      <trkpt lat="43.24781" lon="0.86265">
        <ele>426</ele>
        <time>2012-08-12T07:30:51.000Z</time>
      </trkpt>
      <trkpt lat="43.24783" lon="0.86277">
        <ele>425</ele>
        <time>2012-08-12T07:30:53.000Z</time>
      </trkpt>
      <trkpt lat="43.24785" lon="0.86289">
        <ele>425</ele>
        <time>2012-08-12T07:30:55.000Z</time>
      </trkpt>
      <trkpt lat="43.24786" lon="0.86296">
        <ele>425</ele>
        <time>2012-08-12T07:30:56.000Z</time>
      </trkpt>
      <trkpt lat="43.24787" lon="0.86302">
        <ele>425</ele>
        <time>2012-08-12T07:30:57.000Z</time>
      </trkpt>
      <trkpt lat="43.24788" lon="0.86316">
        <ele>425</ele>
        <time>2012-08-12T07:30:59.000Z</time>
      </trkpt>
      <trkpt lat="43.24789" lon="0.86324">
        <ele>425</ele>
        <time>2012-08-12T07:31:00.000Z</time>
      </trkpt>
      <trkpt lat="43.24788" lon="0.86334">
        <ele>425</ele>
        <time>2012-08-12T07:31:01.000Z</time>
      </trkpt>
      <trkpt lat="43.24788" lon="0.86344">
        <ele>425</ele>
        <time>2012-08-12T07:31:02.000Z</time>
      </trkpt>
      <trkpt lat="43.24789" lon="0.86354">
        <ele>425</ele>
        <time>2012-08-12T07:31:03.000Z</time>
      </trkpt>
      <trkpt lat="43.2479" lon="0.86362">
        <ele>425</ele>
        <time>2012-08-12T07:31:04.000Z</time>
      </trkpt>
      <trkpt lat="43.24792" lon="0.8637">
        <ele>425</ele>
        <time>2012-08-12T07:31:05.000Z</time>
      </trkpt>
      <trkpt lat="43.24793" lon="0.86378">
        <ele>425</ele>
        <time>2012-08-12T07:31:06.000Z</time>
      </trkpt>
      <trkpt lat="43.24798" lon="0.8639">
        <ele>425</ele>
        <time>2012-08-12T07:31:07.000Z</time>
      </trkpt>
      <trkpt lat="43.24803" lon="0.864">
        <ele>425</ele>
        <time>2012-08-12T07:31:08.000Z</time>
      </trkpt>
      <trkpt lat="43.24804" lon="0.86409">
        <ele>425</ele>
        <time>2012-08-12T07:31:09.000Z</time>
      </trkpt>
      <trkpt lat="43.24807" lon="0.86419">
        <ele>424</ele>
        <time>2012-08-12T07:31:10.000Z</time>
      </trkpt>
      <trkpt lat="43.24811" lon="0.8643">
        <ele>424</ele>
        <time>2012-08-12T07:31:11.000Z</time>
      </trkpt>
      <trkpt lat="43.24812" lon="0.86441">
        <ele>425</ele>
        <time>2012-08-12T07:31:12.000Z</time>
      </trkpt>
      <trkpt lat="43.24816" lon="0.86452">
        <ele>425</ele>
        <time>2012-08-12T07:31:13.000Z</time>
      </trkpt>
      <trkpt lat="43.24818" lon="0.86465">
        <ele>424</ele>
        <time>2012-08-12T07:31:14.000Z</time>
      </trkpt>
      <trkpt lat="43.24822" lon="0.86477">
        <ele>424</ele>
        <time>2012-08-12T07:31:15.000Z</time>
      </trkpt>
      <trkpt lat="43.24825" lon="0.86488">
        <ele>423</ele>
        <time>2012-08-12T07:31:16.000Z</time>
      </trkpt>
      <trkpt lat="43.24829" lon="0.86499">
        <ele>422</ele>
        <time>2012-08-12T07:31:17.000Z</time>
      </trkpt>
      <trkpt lat="43.24833" lon="0.8651">
        <ele>421</ele>
        <time>2012-08-12T07:31:18.000Z</time>
      </trkpt>
      <trkpt lat="43.24836" lon="0.86519">
        <ele>420</ele>
        <time>2012-08-12T07:31:19.000Z</time>
      </trkpt>
      <trkpt lat="43.2484" lon="0.8653">
        <ele>420</ele>
        <time>2012-08-12T07:31:20.000Z</time>
      </trkpt>
      <trkpt lat="43.24843" lon="0.86539">
        <ele>419</ele>
        <time>2012-08-12T07:31:21.000Z</time>
      </trkpt>
      <trkpt lat="43.24846" lon="0.86549">
        <ele>419</ele>
        <time>2012-08-12T07:31:22.000Z</time>
      </trkpt>
      <trkpt lat="43.2485" lon="0.86558">
        <ele>419</ele>
        <time>2012-08-12T07:31:23.000Z</time>
      </trkpt>
      <trkpt lat="43.24854" lon="0.86566">
        <ele>419</ele>
        <time>2012-08-12T07:31:24.000Z</time>
      </trkpt>
      <trkpt lat="43.24858" lon="0.86575">
        <ele>419</ele>
        <time>2012-08-12T07:31:25.000Z</time>
      </trkpt>
      <trkpt lat="43.24861" lon="0.86584">
        <ele>419</ele>
        <time>2012-08-12T07:31:26.000Z</time>
      </trkpt>
      <trkpt lat="43.24864" lon="0.86591">
        <ele>419</ele>
        <time>2012-08-12T07:31:27.000Z</time>
      </trkpt>
      <trkpt lat="43.24867" lon="0.86598">
        <ele>418</ele>
        <time>2012-08-12T07:31:28.000Z</time>
      </trkpt>
      <trkpt lat="43.2487" lon="0.86605">
        <ele>418</ele>
        <time>2012-08-12T07:31:29.000Z</time>
      </trkpt>
      <trkpt lat="43.24872" lon="0.86612">
        <ele>418</ele>
        <time>2012-08-12T07:31:30.000Z</time>
      </trkpt>
      <trkpt lat="43.24875" lon="0.86618">
        <ele>417</ele>
        <time>2012-08-12T07:31:31.000Z</time>
      </trkpt>
      <trkpt lat="43.24878" lon="0.86625">
        <ele>417</ele>
        <time>2012-08-12T07:31:32.000Z</time>
      </trkpt>
      <trkpt lat="43.2488" lon="0.8663">
        <ele>417</ele>
        <time>2012-08-12T07:31:33.000Z</time>
      </trkpt>
      <trkpt lat="43.24882" lon="0.86637">
        <ele>417</ele>
        <time>2012-08-12T07:31:34.000Z</time>
      </trkpt>
      <trkpt lat="43.24886" lon="0.86643">
        <ele>417</ele>
        <time>2012-08-12T07:31:35.000Z</time>
      </trkpt>
      <trkpt lat="43.24888" lon="0.86649">
        <ele>417</ele>
        <time>2012-08-12T07:31:36.000Z</time>
      </trkpt>
      <trkpt lat="43.2489" lon="0.86655">
        <ele>417</ele>
        <time>2012-08-12T07:31:37.000Z</time>
      </trkpt>
      <trkpt lat="43.24892" lon="0.86661">
        <ele>417</ele>
        <time>2012-08-12T07:31:38.000Z</time>
      </trkpt>
      <trkpt lat="43.24895" lon="0.86668">
        <ele>417</ele>
        <time>2012-08-12T07:31:39.000Z</time>
      </trkpt>
      <trkpt lat="43.24898" lon="0.86673">
        <ele>416</ele>
        <time>2012-08-12T07:31:40.000Z</time>
      </trkpt>
      <trkpt lat="43.24901" lon="0.86679">
        <ele>415</ele>
        <time>2012-08-12T07:31:41.000Z</time>
      </trkpt>
      <trkpt lat="43.24904" lon="0.86686">
        <ele>416</ele>
        <time>2012-08-12T07:31:42.000Z</time>
      </trkpt>
      <trkpt lat="43.24906" lon="0.86692">
        <ele>416</ele>
        <time>2012-08-12T07:31:43.000Z</time>
      </trkpt>
      <trkpt lat="43.2491" lon="0.86698">
        <ele>416</ele>
        <time>2012-08-12T07:31:44.000Z</time>
      </trkpt>
      <trkpt lat="43.24912" lon="0.86704">
        <ele>416</ele>
        <time>2012-08-12T07:31:45.000Z</time>
      </trkpt>
      <trkpt lat="43.24914" lon="0.86711">
        <ele>416</ele>
        <time>2012-08-12T07:31:46.000Z</time>
      </trkpt>
      <trkpt lat="43.24917" lon="0.86718">
        <ele>415</ele>
        <time>2012-08-12T07:31:47.000Z</time>
      </trkpt>
      <trkpt lat="43.2492" lon="0.86724">
        <ele>415</ele>
        <time>2012-08-12T07:31:48.000Z</time>
      </trkpt>
      <trkpt lat="43.24924" lon="0.86731">
        <ele>415</ele>
        <time>2012-08-12T07:31:49.000Z</time>
      </trkpt>
      <trkpt lat="43.24927" lon="0.86737">
        <ele>415</ele>
        <time>2012-08-12T07:31:50.000Z</time>
      </trkpt>
      <trkpt lat="43.24931" lon="0.86743">
        <ele>414</ele>
        <time>2012-08-12T07:31:51.000Z</time>
      </trkpt>
      <trkpt lat="43.24933" lon="0.86748">
        <ele>414</ele>
        <time>2012-08-12T07:31:52.000Z</time>
      </trkpt>
      <trkpt lat="43.24935" lon="0.86754">
        <ele>414</ele>
        <time>2012-08-12T07:31:53.000Z</time>
      </trkpt>
      <trkpt lat="43.24936" lon="0.86762">
        <ele>414</ele>
        <time>2012-08-12T07:31:54.000Z</time>
      </trkpt>
      <trkpt lat="43.24936" lon="0.86769">
        <ele>415</ele>
        <time>2012-08-12T07:31:55.000Z</time>
      </trkpt>
      <trkpt lat="43.24938" lon="0.86776">
        <ele>415</ele>
        <time>2012-08-12T07:31:56.000Z</time>
      </trkpt>
      <trkpt lat="43.2493" lon="0.8678">
        <ele>415</ele>
        <time>2012-08-12T07:31:59.000Z</time>
      </trkpt>
      <trkpt lat="43.24909" lon="0.86774">
        <ele>416</ele>
        <time>2012-08-12T07:32:01.000Z</time>
      </trkpt>
      <trkpt lat="43.24904" lon="0.86773">
        <ele>416</ele>
        <time>2012-08-12T07:32:02.000Z</time>
      </trkpt>
      <trkpt lat="43.24898" lon="0.86772">
        <ele>416</ele>
        <time>2012-08-12T07:32:03.000Z</time>
      </trkpt>
      <trkpt lat="43.24891" lon="0.86773">
        <ele>417</ele>
        <time>2012-08-12T07:32:04.000Z</time>
      </trkpt>
      <trkpt lat="43.24886" lon="0.86773">
        <ele>417</ele>
        <time>2012-08-12T07:32:05.000Z</time>
      </trkpt>
      <trkpt lat="43.24879" lon="0.86771">
        <ele>416</ele>
        <time>2012-08-12T07:32:06.000Z</time>
      </trkpt>
      <trkpt lat="43.24873" lon="0.8677">
        <ele>417</ele>
        <time>2012-08-12T07:32:07.000Z</time>
      </trkpt>
      <trkpt lat="43.24866" lon="0.8677">
        <ele>416</ele>
        <time>2012-08-12T07:32:08.000Z</time>
      </trkpt>
      <trkpt lat="43.24859" lon="0.8677">
        <ele>416</ele>
        <time>2012-08-12T07:32:09.000Z</time>
      </trkpt>
      <trkpt lat="43.24853" lon="0.86769">
        <ele>416</ele>
        <time>2012-08-12T07:32:10.000Z</time>
      </trkpt>
      <trkpt lat="43.24848" lon="0.8677">
        <ele>416</ele>
        <time>2012-08-12T07:32:11.000Z</time>
      </trkpt>
      <trkpt lat="43.24843" lon="0.8677">
        <ele>416</ele>
        <time>2012-08-12T07:32:12.000Z</time>
      </trkpt>
      <trkpt lat="43.24834" lon="0.8677">
        <ele>416</ele>
        <time>2012-08-12T07:32:13.000Z</time>
      </trkpt>
      <trkpt lat="43.24826" lon="0.8677">
        <ele>416</ele>
        <time>2012-08-12T07:32:14.000Z</time>
      </trkpt>
      <trkpt lat="43.24816" lon="0.86766">
        <ele>416</ele>
        <time>2012-08-12T07:32:15.000Z</time>
      </trkpt>
      <trkpt lat="43.24806" lon="0.86766">
        <ele>416</ele>
        <time>2012-08-12T07:32:16.000Z</time>
      </trkpt>
      <trkpt lat="43.2479" lon="0.86764">
        <ele>415</ele>
        <time>2012-08-12T07:32:17.000Z</time>
      </trkpt>
      <trkpt lat="43.24781" lon="0.86766">
        <ele>412</ele>
        <time>2012-08-12T07:32:18.000Z</time>
      </trkpt>
      <trkpt lat="43.24769" lon="0.86765">
        <ele>410</ele>
        <time>2012-08-12T07:32:19.000Z</time>
      </trkpt>
      <trkpt lat="43.24757" lon="0.86765">
        <ele>408</ele>
        <time>2012-08-12T07:32:20.000Z</time>
      </trkpt>
      <trkpt lat="43.24747" lon="0.86765">
        <ele>407</ele>
        <time>2012-08-12T07:32:21.000Z</time>
      </trkpt>
      <trkpt lat="43.24735" lon="0.86764">
        <ele>406</ele>
        <time>2012-08-12T07:32:22.000Z</time>
      </trkpt>
      <trkpt lat="43.24724" lon="0.86764">
        <ele>406</ele>
        <time>2012-08-12T07:32:23.000Z</time>
      </trkpt>
      <trkpt lat="43.24713" lon="0.86765">
        <ele>406</ele>
        <time>2012-08-12T07:32:24.000Z</time>
      </trkpt>
      <trkpt lat="43.24702" lon="0.86766">
        <ele>406</ele>
        <time>2012-08-12T07:32:25.000Z</time>
      </trkpt>
      <trkpt lat="43.24693" lon="0.8677">
        <ele>406</ele>
        <time>2012-08-12T07:32:26.000Z</time>
      </trkpt>
      <trkpt lat="43.24682" lon="0.86774">
        <ele>406</ele>
        <time>2012-08-12T07:32:27.000Z</time>
      </trkpt>
      <trkpt lat="43.24671" lon="0.86778">
        <ele>406</ele>
        <time>2012-08-12T07:32:28.000Z</time>
      </trkpt>
      <trkpt lat="43.24666" lon="0.86788">
        <ele>406</ele>
        <time>2012-08-12T07:32:29.000Z</time>
      </trkpt>
      <trkpt lat="43.24661" lon="0.86795">
        <ele>406</ele>
        <time>2012-08-12T07:32:30.000Z</time>
      </trkpt>
      <trkpt lat="43.24653" lon="0.86803">
        <ele>406</ele>
        <time>2012-08-12T07:32:31.000Z</time>
      </trkpt>
      <trkpt lat="43.24646" lon="0.86809">
        <ele>407</ele>
        <time>2012-08-12T07:32:32.000Z</time>
      </trkpt>
      <trkpt lat="43.2464" lon="0.86812">
        <ele>406</ele>
        <time>2012-08-12T07:32:33.000Z</time>
      </trkpt>
      <trkpt lat="43.24635" lon="0.86814">
        <ele>406</ele>
        <time>2012-08-12T07:32:34.000Z</time>
      </trkpt>
      <trkpt lat="43.24626" lon="0.86817">
        <ele>407</ele>
        <time>2012-08-12T07:32:36.000Z</time>
      </trkpt>
      <trkpt lat="43.24622" lon="0.86818">
        <ele>407</ele>
        <time>2012-08-12T07:32:37.000Z</time>
      </trkpt>
      <trkpt lat="43.24611" lon="0.86821">
        <ele>406</ele>
        <time>2012-08-12T07:32:39.000Z</time>
      </trkpt>
      <trkpt lat="43.24603" lon="0.86824">
        <ele>406</ele>
        <time>2012-08-12T07:32:40.000Z</time>
      </trkpt>
      <trkpt lat="43.24595" lon="0.86825">
        <ele>404</ele>
        <time>2012-08-12T07:32:41.000Z</time>
      </trkpt>
      <trkpt lat="43.24584" lon="0.86827">
        <ele>402</ele>
        <time>2012-08-12T07:32:42.000Z</time>
      </trkpt>
      <trkpt lat="43.24576" lon="0.8683">
        <ele>401</ele>
        <time>2012-08-12T07:32:43.000Z</time>
      </trkpt>
      <trkpt lat="43.24567" lon="0.86833">
        <ele>401</ele>
        <time>2012-08-12T07:32:44.000Z</time>
      </trkpt>
      <trkpt lat="43.24556" lon="0.86836">
        <ele>400</ele>
        <time>2012-08-12T07:32:45.000Z</time>
      </trkpt>
      <trkpt lat="43.24545" lon="0.8684">
        <ele>400</ele>
        <time>2012-08-12T07:32:46.000Z</time>
      </trkpt>
      <trkpt lat="43.24536" lon="0.86844">
        <ele>401</ele>
        <time>2012-08-12T07:32:47.000Z</time>
      </trkpt>
      <trkpt lat="43.24528" lon="0.86848">
        <ele>401</ele>
        <time>2012-08-12T07:32:48.000Z</time>
      </trkpt>
      <trkpt lat="43.2452" lon="0.86852">
        <ele>402</ele>
        <time>2012-08-12T07:32:49.000Z</time>
      </trkpt>
      <trkpt lat="43.24514" lon="0.86855">
        <ele>403</ele>
        <time>2012-08-12T07:32:50.000Z</time>
      </trkpt>
      <trkpt lat="43.24507" lon="0.86859">
        <ele>403</ele>
        <time>2012-08-12T07:32:51.000Z</time>
      </trkpt>
      <trkpt lat="43.24502" lon="0.86862">
        <ele>403</ele>
        <time>2012-08-12T07:32:52.000Z</time>
      </trkpt>
      <trkpt lat="43.24497" lon="0.86866">
        <ele>404</ele>
        <time>2012-08-12T07:32:53.000Z</time>
      </trkpt>
      <trkpt lat="43.24489" lon="0.86872">
        <ele>405</ele>
        <time>2012-08-12T07:32:55.000Z</time>
      </trkpt>
      <trkpt lat="43.24485" lon="0.86876">
        <ele>405</ele>
        <time>2012-08-12T07:32:56.000Z</time>
      </trkpt>
      <trkpt lat="43.24477" lon="0.86882">
        <ele>406</ele>
        <time>2012-08-12T07:32:58.000Z</time>
      </trkpt>
      <trkpt lat="43.24469" lon="0.86885">
        <ele>406</ele>
        <time>2012-08-12T07:33:00.000Z</time>
      </trkpt>
      <trkpt lat="43.24462" lon="0.86888">
        <ele>408</ele>
        <time>2012-08-12T07:33:02.000Z</time>
      </trkpt>
      <trkpt lat="43.24455" lon="0.86888">
        <ele>409</ele>
        <time>2012-08-12T07:33:04.000Z</time>
      </trkpt>
      <trkpt lat="43.24449" lon="0.86888">
        <ele>408</ele>
        <time>2012-08-12T07:33:06.000Z</time>
      </trkpt>
      <trkpt lat="43.24448" lon="0.86882">
        <ele>408</ele>
        <time>2012-08-12T07:33:08.000Z</time>
      </trkpt>
      <trkpt lat="43.24452" lon="0.86875">
        <ele>409</ele>
        <time>2012-08-12T07:33:11.000Z</time>
      </trkpt>
      <trkpt lat="43.24455" lon="0.8687">
        <ele>409</ele>
        <time>2012-08-12T07:33:13.000Z</time>
      </trkpt>
      <trkpt lat="43.24456" lon="0.86861">
        <ele>409</ele>
        <time>2012-08-12T07:33:16.000Z</time>
      </trkpt>
      <trkpt lat="43.24456" lon="0.86853">
        <ele>410</ele>
        <time>2012-08-12T07:33:19.000Z</time>
      </trkpt>
      <trkpt lat="43.24455" lon="0.86844">
        <ele>410</ele>
        <time>2012-08-12T07:33:22.000Z</time>
      </trkpt>
      <trkpt lat="43.24454" lon="0.86838">
        <ele>410</ele>
        <time>2012-08-12T07:33:24.000Z</time>
      </trkpt>
      <trkpt lat="43.24453" lon="0.86828">
        <ele>411</ele>
        <time>2012-08-12T07:33:27.000Z</time>
      </trkpt>
      <trkpt lat="43.24452" lon="0.86821">
        <ele>412</ele>
        <time>2012-08-12T07:33:29.000Z</time>
      </trkpt>
      <trkpt lat="43.24451" lon="0.86815">
        <ele>412</ele>
        <time>2012-08-12T07:33:31.000Z</time>
      </trkpt>
      <trkpt lat="43.2445" lon="0.86809">
        <ele>412</ele>
        <time>2012-08-12T07:33:33.000Z</time>
      </trkpt>
      <trkpt lat="43.24449" lon="0.868">
        <ele>413</ele>
        <time>2012-08-12T07:33:36.000Z</time>
      </trkpt>
      <trkpt lat="43.24447" lon="0.8679">
        <ele>414</ele>
        <time>2012-08-12T07:33:39.000Z</time>
      </trkpt>
      <trkpt lat="43.24446" lon="0.86783">
        <ele>414</ele>
        <time>2012-08-12T07:33:41.000Z</time>
      </trkpt>
      <trkpt lat="43.24444" lon="0.86776">
        <ele>414</ele>
        <time>2012-08-12T07:33:43.000Z</time>
      </trkpt>
      <trkpt lat="43.24444" lon="0.86769">
        <ele>415</ele>
        <time>2012-08-12T07:33:45.000Z</time>
      </trkpt>
      <trkpt lat="43.24442" lon="0.86762">
        <ele>416</ele>
        <time>2012-08-12T07:33:47.000Z</time>
      </trkpt>
      <trkpt lat="43.24441" lon="0.86754">
        <ele>416</ele>
        <time>2012-08-12T07:33:49.000Z</time>
      </trkpt>
      <trkpt lat="43.24439" lon="0.86747">
        <ele>417</ele>
        <time>2012-08-12T07:33:51.000Z</time>
      </trkpt>
      <trkpt lat="43.24438" lon="0.86739">
        <ele>417</ele>
        <time>2012-08-12T07:33:53.000Z</time>
      </trkpt>
      <trkpt lat="43.24437" lon="0.86732">
        <ele>417</ele>
        <time>2012-08-12T07:33:55.000Z</time>
      </trkpt>
      <trkpt lat="43.24436" lon="0.86724">
        <ele>418</ele>
        <time>2012-08-12T07:33:57.000Z</time>
      </trkpt>
      <trkpt lat="43.24434" lon="0.86715">
        <ele>418</ele>
        <time>2012-08-12T07:33:59.000Z</time>
      </trkpt>
      <trkpt lat="43.24433" lon="0.86706">
        <ele>419</ele>
        <time>2012-08-12T07:34:01.000Z</time>
      </trkpt>
      <trkpt lat="43.2443" lon="0.86701">
        <ele>420</ele>
        <time>2012-08-12T07:34:03.000Z</time>
      </trkpt>
      <trkpt lat="43.24427" lon="0.86695">
        <ele>421</ele>
        <time>2012-08-12T07:34:05.000Z</time>
      </trkpt>
      <trkpt lat="43.24426" lon="0.86687">
        <ele>422</ele>
        <time>2012-08-12T07:34:08.000Z</time>
      </trkpt>
      <trkpt lat="43.24427" lon="0.86679">
        <ele>423</ele>
        <time>2012-08-12T07:34:11.000Z</time>
      </trkpt>
      <trkpt lat="43.24428" lon="0.86672">
        <ele>423</ele>
        <time>2012-08-12T07:34:13.000Z</time>
      </trkpt>
      <trkpt lat="43.24427" lon="0.86664">
        <ele>421</ele>
        <time>2012-08-12T07:34:15.000Z</time>
      </trkpt>
      <trkpt lat="43.24426" lon="0.86657">
        <ele>421</ele>
        <time>2012-08-12T07:34:17.000Z</time>
      </trkpt>
      <trkpt lat="43.24424" lon="0.86651">
        <ele>421</ele>
        <time>2012-08-12T07:34:19.000Z</time>
      </trkpt>
      <trkpt lat="43.2442" lon="0.86643">
        <ele>421</ele>
        <time>2012-08-12T07:34:21.000Z</time>
      </trkpt>
      <trkpt lat="43.24417" lon="0.86634">
        <ele>421</ele>
        <time>2012-08-12T07:34:23.000Z</time>
      </trkpt>
      <trkpt lat="43.24415" lon="0.86628">
        <ele>420</ele>
        <time>2012-08-12T07:34:24.000Z</time>
      </trkpt>
      <trkpt lat="43.2441" lon="0.86616">
        <ele>420</ele>
        <time>2012-08-12T07:34:26.000Z</time>
      </trkpt>
      <trkpt lat="43.24408" lon="0.8661">
        <ele>419</ele>
        <time>2012-08-12T07:34:27.000Z</time>
      </trkpt>
      <trkpt lat="43.24405" lon="0.86602">
        <ele>418</ele>
        <time>2012-08-12T07:34:28.000Z</time>
      </trkpt>
      <trkpt lat="43.24403" lon="0.86594">
        <ele>417</ele>
        <time>2012-08-12T07:34:29.000Z</time>
      </trkpt>
      <trkpt lat="43.244" lon="0.86585">
        <ele>416</ele>
        <time>2012-08-12T07:34:30.000Z</time>
      </trkpt>
      <trkpt lat="43.24396" lon="0.86576">
        <ele>415</ele>
        <time>2012-08-12T07:34:31.000Z</time>
      </trkpt>
      <trkpt lat="43.24394" lon="0.86566">
        <ele>415</ele>
        <time>2012-08-12T07:34:32.000Z</time>
      </trkpt>
      <trkpt lat="43.2439" lon="0.86557">
        <ele>415</ele>
        <time>2012-08-12T07:34:33.000Z</time>
      </trkpt>
      <trkpt lat="43.24387" lon="0.8655">
        <ele>416</ele>
        <time>2012-08-12T07:34:34.000Z</time>
      </trkpt>
      <trkpt lat="43.24384" lon="0.86543">
        <ele>417</ele>
        <time>2012-08-12T07:34:35.000Z</time>
      </trkpt>
      <trkpt lat="43.24379" lon="0.86534">
        <ele>418</ele>
        <time>2012-08-12T07:34:37.000Z</time>
      </trkpt>
      <trkpt lat="43.24376" lon="0.86527">
        <ele>418</ele>
        <time>2012-08-12T07:34:39.000Z</time>
      </trkpt>
      <trkpt lat="43.24372" lon="0.86519">
        <ele>419</ele>
        <time>2012-08-12T07:34:42.000Z</time>
      </trkpt>
      <trkpt lat="43.24369" lon="0.86512">
        <ele>420</ele>
        <time>2012-08-12T07:34:44.000Z</time>
      </trkpt>
      <trkpt lat="43.24366" lon="0.86507">
        <ele>420</ele>
        <time>2012-08-12T07:34:46.000Z</time>
      </trkpt>
      <trkpt lat="43.24367" lon="0.865">
        <ele>423</ele>
        <time>2012-08-12T07:34:51.000Z</time>
      </trkpt>
      <trkpt lat="43.24369" lon="0.86493">
        <ele>425</ele>
        <time>2012-08-12T07:34:55.000Z</time>
      </trkpt>
      <trkpt lat="43.24369" lon="0.86485">
        <ele>425</ele>
        <time>2012-08-12T07:34:59.000Z</time>
      </trkpt>
      <trkpt lat="43.24372" lon="0.86478">
        <ele>427</ele>
        <time>2012-08-12T07:35:22.000Z</time>
      </trkpt>
      <trkpt lat="43.24373" lon="0.86471">
        <ele>428</ele>
        <time>2012-08-12T07:35:27.000Z</time>
      </trkpt>
      <trkpt lat="43.24376" lon="0.86463">
        <ele>430</ele>
        <time>2012-08-12T07:35:30.000Z</time>
      </trkpt>
      <trkpt lat="43.24377" lon="0.86455">
        <ele>433</ele>
        <time>2012-08-12T07:35:33.000Z</time>
      </trkpt>
      <trkpt lat="43.24376" lon="0.86448">
        <ele>435</ele>
        <time>2012-08-12T07:35:36.000Z</time>
      </trkpt>
      <trkpt lat="43.2438" lon="0.86442">
        <ele>438</ele>
        <time>2012-08-12T07:35:39.000Z</time>
      </trkpt>
      <trkpt lat="43.24383" lon="0.86436">
        <ele>440</ele>
        <time>2012-08-12T07:35:42.000Z</time>
      </trkpt>
      <trkpt lat="43.24384" lon="0.86429">
        <ele>441</ele>
        <time>2012-08-12T07:35:45.000Z</time>
      </trkpt>
      <trkpt lat="43.24387" lon="0.8642">
        <ele>442</ele>
        <time>2012-08-12T07:35:48.000Z</time>
      </trkpt>
      <trkpt lat="43.24387" lon="0.86413">
        <ele>441</ele>
        <time>2012-08-12T07:35:51.000Z</time>
      </trkpt>
      <trkpt lat="43.24382" lon="0.86407">
        <ele>441</ele>
        <time>2012-08-12T07:35:54.000Z</time>
      </trkpt>
      <trkpt lat="43.24377" lon="0.864">
        <ele>440</ele>
        <time>2012-08-12T07:35:57.000Z</time>
      </trkpt>
      <trkpt lat="43.24372" lon="0.86395">
        <ele>439</ele>
        <time>2012-08-12T07:35:59.000Z</time>
      </trkpt>
      <trkpt lat="43.24367" lon="0.86389">
        <ele>439</ele>
        <time>2012-08-12T07:36:00.000Z</time>
      </trkpt>
      <trkpt lat="43.2436" lon="0.86383">
        <ele>438</ele>
        <time>2012-08-12T07:36:01.000Z</time>
      </trkpt>
      <trkpt lat="43.24356" lon="0.86379">
        <ele>438</ele>
        <time>2012-08-12T07:36:02.000Z</time>
      </trkpt>
      <trkpt lat="43.24352" lon="0.86376">
        <ele>439</ele>
        <time>2012-08-12T07:36:03.000Z</time>
      </trkpt>
      <trkpt lat="43.24348" lon="0.86371">
        <ele>439</ele>
        <time>2012-08-12T07:36:04.000Z</time>
      </trkpt>
      <trkpt lat="43.24342" lon="0.86363">
        <ele>440</ele>
        <time>2012-08-12T07:36:06.000Z</time>
      </trkpt>
      <trkpt lat="43.24336" lon="0.86356">
        <ele>441</ele>
        <time>2012-08-12T07:36:08.000Z</time>
      </trkpt>
      <trkpt lat="43.24331" lon="0.86348">
        <ele>442</ele>
        <time>2012-08-12T07:36:10.000Z</time>
      </trkpt>
      <trkpt lat="43.24327" lon="0.86336">
        <ele>440</ele>
        <time>2012-08-12T07:36:12.000Z</time>
      </trkpt>
      <trkpt lat="43.24323" lon="0.86328">
        <ele>438</ele>
        <time>2012-08-12T07:36:14.000Z</time>
      </trkpt>
      <trkpt lat="43.24318" lon="0.86321">
        <ele>438</ele>
        <time>2012-08-12T07:36:16.000Z</time>
      </trkpt>
      <trkpt lat="43.24311" lon="0.86317">
        <ele>436</ele>
        <time>2012-08-12T07:36:18.000Z</time>
      </trkpt>
      <trkpt lat="43.24307" lon="0.86322">
        <ele>436</ele>
        <time>2012-08-12T07:36:21.000Z</time>
      </trkpt>
      <trkpt lat="43.24302" lon="0.86327">
        <ele>437</ele>
        <time>2012-08-12T07:36:24.000Z</time>
      </trkpt>
      <trkpt lat="43.24298" lon="0.8633">
        <ele>435</ele>
        <time>2012-08-12T07:36:28.000Z</time>
      </trkpt>
      <trkpt lat="43.24294" lon="0.86334">
        <ele>435</ele>
        <time>2012-08-12T07:36:31.000Z</time>
      </trkpt>
      <trkpt lat="43.24287" lon="0.86332">
        <ele>433</ele>
        <time>2012-08-12T07:36:35.000Z</time>
      </trkpt>
      <trkpt lat="43.24281" lon="0.86331">
        <ele>430</ele>
        <time>2012-08-12T07:36:37.000Z</time>
      </trkpt>
      <trkpt lat="43.24276" lon="0.86328">
        <ele>430</ele>
        <time>2012-08-12T07:36:39.000Z</time>
      </trkpt>
      <trkpt lat="43.24272" lon="0.86324">
        <ele>431</ele>
        <time>2012-08-12T07:36:41.000Z</time>
      </trkpt>
      <trkpt lat="43.24269" lon="0.86318">
        <ele>430</ele>
        <time>2012-08-12T07:36:43.000Z</time>
      </trkpt>
      <trkpt lat="43.24268" lon="0.86309">
        <ele>429</ele>
        <time>2012-08-12T07:36:45.000Z</time>
      </trkpt>
      <trkpt lat="43.24264" lon="0.86299">
        <ele>429</ele>
        <time>2012-08-12T07:36:47.000Z</time>
      </trkpt>
      <trkpt lat="43.24261" lon="0.86288">
        <ele>430</ele>
        <time>2012-08-12T07:36:49.000Z</time>
      </trkpt>
      <trkpt lat="43.24256" lon="0.86281">
        <ele>429</ele>
        <time>2012-08-12T07:36:51.000Z</time>
      </trkpt>
      <trkpt lat="43.24252" lon="0.86275">
        <ele>429</ele>
        <time>2012-08-12T07:36:52.000Z</time>
      </trkpt>
      <trkpt lat="43.24247" lon="0.86269">
        <ele>429</ele>
        <time>2012-08-12T07:36:53.000Z</time>
      </trkpt>
      <trkpt lat="43.24241" lon="0.8626">
        <ele>430</ele>
        <time>2012-08-12T07:36:54.000Z</time>
      </trkpt>
      <trkpt lat="43.24238" lon="0.86254">
        <ele>430</ele>
        <time>2012-08-12T07:36:55.000Z</time>
      </trkpt>
      <trkpt lat="43.24233" lon="0.86248">
        <ele>428</ele>
        <time>2012-08-12T07:36:58.000Z</time>
      </trkpt>
      <trkpt lat="43.24226" lon="0.86242">
        <ele>429</ele>
        <time>2012-08-12T07:37:03.000Z</time>
      </trkpt>
      <trkpt lat="43.24222" lon="0.86237">
        <ele>428</ele>
        <time>2012-08-12T07:37:05.000Z</time>
      </trkpt>
      <trkpt lat="43.24218" lon="0.86231">
        <ele>427</ele>
        <time>2012-08-12T07:37:08.000Z</time>
      </trkpt>
      <trkpt lat="43.24216" lon="0.86223">
        <ele>427</ele>
        <time>2012-08-12T07:37:11.000Z</time>
      </trkpt>
      <trkpt lat="43.24212" lon="0.86216">
        <ele>427</ele>
        <time>2012-08-12T07:37:13.000Z</time>
      </trkpt>
      <trkpt lat="43.24208" lon="0.86207">
        <ele>425</ele>
        <time>2012-08-12T07:37:15.000Z</time>
      </trkpt>
      <trkpt lat="43.24204" lon="0.86198">
        <ele>425</ele>
        <time>2012-08-12T07:37:17.000Z</time>
      </trkpt>
      <trkpt lat="43.24201" lon="0.86188">
        <ele>424</ele>
        <time>2012-08-12T07:37:19.000Z</time>
      </trkpt>
      <trkpt lat="43.24198" lon="0.8618">
        <ele>424</ele>
        <time>2012-08-12T07:37:21.000Z</time>
      </trkpt>
      <trkpt lat="43.24196" lon="0.86174">
        <ele>424</ele>
        <time>2012-08-12T07:37:23.000Z</time>
      </trkpt>
      <trkpt lat="43.24201" lon="0.86168">
        <ele>424</ele>
        <time>2012-08-12T07:37:26.000Z</time>
      </trkpt>
      <trkpt lat="43.24205" lon="0.86164">
        <ele>424</ele>
        <time>2012-08-12T07:37:28.000Z</time>
      </trkpt>
      <trkpt lat="43.24208" lon="0.8616">
        <ele>424</ele>
        <time>2012-08-12T07:37:30.000Z</time>
      </trkpt>
      <trkpt lat="43.24211" lon="0.86154">
        <ele>426</ele>
        <time>2012-08-12T07:37:32.000Z</time>
      </trkpt>
      <trkpt lat="43.24214" lon="0.86149">
        <ele>427</ele>
        <time>2012-08-12T07:37:34.000Z</time>
      </trkpt>
      <trkpt lat="43.24218" lon="0.86143">
        <ele>426</ele>
        <time>2012-08-12T07:37:36.000Z</time>
      </trkpt>
      <trkpt lat="43.24222" lon="0.86137">
        <ele>427</ele>
        <time>2012-08-12T07:37:39.000Z</time>
      </trkpt>
      <trkpt lat="43.24226" lon="0.8613">
        <ele>427</ele>
        <time>2012-08-12T07:37:42.000Z</time>
      </trkpt>
      <trkpt lat="43.24225" lon="0.8612">
        <ele>426</ele>
        <time>2012-08-12T07:37:45.000Z</time>
      </trkpt>
      <trkpt lat="43.24222" lon="0.86113">
        <ele>424</ele>
        <time>2012-08-12T07:37:47.000Z</time>
      </trkpt>
      <trkpt lat="43.24217" lon="0.86104">
        <ele>423</ele>
        <time>2012-08-12T07:37:49.000Z</time>
      </trkpt>
      <trkpt lat="43.24214" lon="0.86098">
        <ele>421</ele>
        <time>2012-08-12T07:37:50.000Z</time>
      </trkpt>
      <trkpt lat="43.2421" lon="0.86091">
        <ele>421</ele>
        <time>2012-08-12T07:37:51.000Z</time>
      </trkpt>
      <trkpt lat="43.242" lon="0.86081">
        <ele>420</ele>
        <time>2012-08-12T07:37:52.000Z</time>
      </trkpt>
      <trkpt lat="43.24191" lon="0.8607">
        <ele>419</ele>
        <time>2012-08-12T07:37:53.000Z</time>
      </trkpt>
      <trkpt lat="43.24184" lon="0.86062">
        <ele>418</ele>
        <time>2012-08-12T07:37:54.000Z</time>
      </trkpt>
      <trkpt lat="43.24177" lon="0.86053">
        <ele>417</ele>
        <time>2012-08-12T07:37:55.000Z</time>
      </trkpt>
      <trkpt lat="43.24172" lon="0.86046">
        <ele>416</ele>
        <time>2012-08-12T07:37:56.000Z</time>
      </trkpt>
      <trkpt lat="43.24168" lon="0.86038">
        <ele>416</ele>
        <time>2012-08-12T07:37:57.000Z</time>
      </trkpt>
      <trkpt lat="43.24159" lon="0.86023">
        <ele>414</ele>
        <time>2012-08-12T07:37:59.000Z</time>
      </trkpt>
      <trkpt lat="43.24154" lon="0.86015">
        <ele>413</ele>
        <time>2012-08-12T07:38:00.000Z</time>
      </trkpt>
      <trkpt lat="43.24149" lon="0.86009">
        <ele>413</ele>
        <time>2012-08-12T07:38:01.000Z</time>
      </trkpt>
      <trkpt lat="43.24145" lon="0.86003">
        <ele>412</ele>
        <time>2012-08-12T07:38:02.000Z</time>
      </trkpt>
      <trkpt lat="43.24142" lon="0.85996">
        <ele>412</ele>
        <time>2012-08-12T07:38:03.000Z</time>
      </trkpt>
      <trkpt lat="43.24139" lon="0.85989">
        <ele>412</ele>
        <time>2012-08-12T07:38:04.000Z</time>
      </trkpt>
      <trkpt lat="43.24133" lon="0.8598">
        <ele>410</ele>
        <time>2012-08-12T07:38:06.000Z</time>
      </trkpt>
      <trkpt lat="43.24129" lon="0.85975">
        <ele>409</ele>
        <time>2012-08-12T07:38:07.000Z</time>
      </trkpt>
      <trkpt lat="43.24127" lon="0.85968">
        <ele>408</ele>
        <time>2012-08-12T07:38:08.000Z</time>
      </trkpt>
      <trkpt lat="43.24125" lon="0.85961">
        <ele>407</ele>
        <time>2012-08-12T07:38:09.000Z</time>
      </trkpt>
      <trkpt lat="43.24123" lon="0.8595">
        <ele>406</ele>
        <time>2012-08-12T07:38:10.000Z</time>
      </trkpt>
      <trkpt lat="43.2412" lon="0.8594">
        <ele>406</ele>
        <time>2012-08-12T07:38:11.000Z</time>
      </trkpt>
      <trkpt lat="43.2412" lon="0.85932">
        <ele>405</ele>
        <time>2012-08-12T07:38:12.000Z</time>
      </trkpt>
      <trkpt lat="43.2412" lon="0.85921">
        <ele>405</ele>
        <time>2012-08-12T07:38:13.000Z</time>
      </trkpt>
      <trkpt lat="43.24119" lon="0.85912">
        <ele>404</ele>
        <time>2012-08-12T07:38:14.000Z</time>
      </trkpt>
      <trkpt lat="43.2412" lon="0.85901">
        <ele>404</ele>
        <time>2012-08-12T07:38:15.000Z</time>
      </trkpt>
      <trkpt lat="43.24119" lon="0.85892">
        <ele>403</ele>
        <time>2012-08-12T07:38:16.000Z</time>
      </trkpt>
      <trkpt lat="43.24119" lon="0.85881">
        <ele>402</ele>
        <time>2012-08-12T07:38:17.000Z</time>
      </trkpt>
      <trkpt lat="43.2412" lon="0.85871">
        <ele>401</ele>
        <time>2012-08-12T07:38:18.000Z</time>
      </trkpt>
      <trkpt lat="43.2412" lon="0.85861">
        <ele>401</ele>
        <time>2012-08-12T07:38:19.000Z</time>
      </trkpt>
      <trkpt lat="43.24122" lon="0.85853">
        <ele>400</ele>
        <time>2012-08-12T07:38:20.000Z</time>
      </trkpt>
      <trkpt lat="43.24123" lon="0.85845">
        <ele>400</ele>
        <time>2012-08-12T07:38:21.000Z</time>
      </trkpt>
      <trkpt lat="43.24125" lon="0.85838">
        <ele>400</ele>
        <time>2012-08-12T07:38:22.000Z</time>
      </trkpt>
      <trkpt lat="43.24127" lon="0.85831">
        <ele>400</ele>
        <time>2012-08-12T07:38:23.000Z</time>
      </trkpt>
      <trkpt lat="43.24131" lon="0.85822">
        <ele>399</ele>
        <time>2012-08-12T07:38:25.000Z</time>
      </trkpt>
      <trkpt lat="43.24134" lon="0.85816">
        <ele>398</ele>
        <time>2012-08-12T07:38:27.000Z</time>
      </trkpt>
      <trkpt lat="43.24137" lon="0.85807">
        <ele>396</ele>
        <time>2012-08-12T07:38:30.000Z</time>
      </trkpt>
      <trkpt lat="43.24136" lon="0.85798">
        <ele>394</ele>
        <time>2012-08-12T07:38:33.000Z</time>
      </trkpt>
      <trkpt lat="43.2413" lon="0.85794">
        <ele>393</ele>
        <time>2012-08-12T07:38:35.000Z</time>
      </trkpt>
      <trkpt lat="43.24123" lon="0.85792">
        <ele>392</ele>
        <time>2012-08-12T07:38:37.000Z</time>
      </trkpt>
      <trkpt lat="43.24118" lon="0.85795">
        <ele>390</ele>
        <time>2012-08-12T07:38:39.000Z</time>
      </trkpt>
      <trkpt lat="43.24113" lon="0.85796">
        <ele>390</ele>
        <time>2012-08-12T07:38:41.000Z</time>
      </trkpt>
      <trkpt lat="43.24106" lon="0.85797">
        <ele>389</ele>
        <time>2012-08-12T07:38:44.000Z</time>
      </trkpt>
      <trkpt lat="43.241" lon="0.85798">
        <ele>388</ele>
        <time>2012-08-12T07:38:46.000Z</time>
      </trkpt>
      <trkpt lat="43.24095" lon="0.85801">
        <ele>387</ele>
        <time>2012-08-12T07:38:48.000Z</time>
      </trkpt>
      <trkpt lat="43.24091" lon="0.85806">
        <ele>385</ele>
        <time>2012-08-12T07:38:51.000Z</time>
      </trkpt>
      <trkpt lat="43.24088" lon="0.85811">
        <ele>384</ele>
        <time>2012-08-12T07:38:53.000Z</time>
      </trkpt>
      <trkpt lat="43.24086" lon="0.85817">
        <ele>382</ele>
        <time>2012-08-12T07:38:57.000Z</time>
      </trkpt>
      <trkpt lat="43.24081" lon="0.85815">
        <ele>379</ele>
        <time>2012-08-12T07:39:06.000Z</time>
      </trkpt>
      <trkpt lat="43.24081" lon="0.85807">
        <ele>377</ele>
        <time>2012-08-12T07:39:20.000Z</time>
      </trkpt>
      <trkpt lat="43.24087" lon="0.85809">
        <ele>377</ele>
        <time>2012-08-12T07:39:23.000Z</time>
      </trkpt>
      <trkpt lat="43.24087" lon="0.85809">
        <ele>377</ele>
        <time>2012-08-12T07:39:23.000Z</time>
      </trkpt>
      <trkpt lat="43.24087" lon="0.85809">
        <ele>377</ele>
        <time>2012-08-12T07:39:24.000Z</time>
      </trkpt>
      <trkpt lat="43.24082" lon="0.85811">
        <ele>376</ele>
        <time>2012-08-12T07:39:48.000Z</time>
      </trkpt>
      <trkpt lat="43.24082" lon="0.85817">
        <ele>375</ele>
        <time>2012-08-12T07:39:50.000Z</time>
      </trkpt>
      <trkpt lat="43.24077" lon="0.85823">
        <ele>373</ele>
        <time>2012-08-12T07:39:53.000Z</time>
      </trkpt>
      <trkpt lat="43.24071" lon="0.85828">
        <ele>372</ele>
        <time>2012-08-12T07:39:55.000Z</time>
      </trkpt>
      <trkpt lat="43.24066" lon="0.85833">
        <ele>370</ele>
        <time>2012-08-12T07:39:57.000Z</time>
      </trkpt>
      <trkpt lat="43.24064" lon="0.8584">
        <ele>369</ele>
        <time>2012-08-12T07:39:59.000Z</time>
      </trkpt>
      <trkpt lat="43.24063" lon="0.85847">
        <ele>363</ele>
        <time>2012-08-12T07:40:11.000Z</time>
      </trkpt>
      <trkpt lat="43.24059" lon="0.85851">
        <ele>361</ele>
        <time>2012-08-12T07:42:10.000Z</time>
      </trkpt>
      <trkpt lat="43.24054" lon="0.85855">
        <ele>360</ele>
        <time>2012-08-12T07:42:12.000Z</time>
      </trkpt>
      <trkpt lat="43.24049" lon="0.8586">
        <ele>360</ele>
        <time>2012-08-12T07:42:14.000Z</time>
      </trkpt>
      <trkpt lat="43.24044" lon="0.85865">
        <ele>361</ele>
        <time>2012-08-12T07:42:16.000Z</time>
      </trkpt>
      <trkpt lat="43.24036" lon="0.85868">
        <ele>362</ele>
        <time>2012-08-12T07:42:18.000Z</time>
      </trkpt>
      <trkpt lat="43.24033" lon="0.85873">
        <ele>363</ele>
        <time>2012-08-12T07:42:20.000Z</time>
      </trkpt>
      <trkpt lat="43.24029" lon="0.85877">
        <ele>364</ele>
        <time>2012-08-12T07:42:21.000Z</time>
      </trkpt>
      <trkpt lat="43.24022" lon="0.85881">
        <ele>363</ele>
        <time>2012-08-12T07:42:23.000Z</time>
      </trkpt>
      <trkpt lat="43.24015" lon="0.85886">
        <ele>364</ele>
        <time>2012-08-12T07:42:25.000Z</time>
      </trkpt>
      <trkpt lat="43.24009" lon="0.85891">
        <ele>363</ele>
        <time>2012-08-12T07:42:27.000Z</time>
      </trkpt>
      <trkpt lat="43.24005" lon="0.85894">
        <ele>364</ele>
        <time>2012-08-12T07:42:28.000Z</time>
      </trkpt>
      <trkpt lat="43.24" lon="0.85904">
        <ele>360</ele>
        <time>2012-08-12T07:42:30.000Z</time>
      </trkpt>
      <trkpt lat="43.23998" lon="0.85913">
        <ele>358</ele>
        <time>2012-08-12T07:42:32.000Z</time>
      </trkpt>
      <trkpt lat="43.24002" lon="0.85928">
        <ele>359</ele>
        <time>2012-08-12T07:42:34.000Z</time>
      </trkpt>
      <trkpt lat="43.24005" lon="0.85937">
        <ele>356</ele>
        <time>2012-08-12T07:42:35.000Z</time>
      </trkpt>
      <trkpt lat="43.24007" lon="0.85945">
        <ele>355</ele>
        <time>2012-08-12T07:42:36.000Z</time>
      </trkpt>
      <trkpt lat="43.24008" lon="0.85954">
        <ele>355</ele>
        <time>2012-08-12T07:42:37.000Z</time>
      </trkpt>
      <trkpt lat="43.2401" lon="0.8596">
        <ele>354</ele>
        <time>2012-08-12T07:42:38.000Z</time>
      </trkpt>
      <trkpt lat="43.24012" lon="0.85968">
        <ele>354</ele>
        <time>2012-08-12T07:42:39.000Z</time>
      </trkpt>
      <trkpt lat="43.24014" lon="0.85976">
        <ele>354</ele>
        <time>2012-08-12T07:42:40.000Z</time>
      </trkpt>
      <trkpt lat="43.24015" lon="0.85982">
        <ele>354</ele>
        <time>2012-08-12T07:42:41.000Z</time>
      </trkpt>
      <trkpt lat="43.24015" lon="0.85989">
        <ele>354</ele>
        <time>2012-08-12T07:42:42.000Z</time>
      </trkpt>
      <trkpt lat="43.24016" lon="0.85995">
        <ele>354</ele>
        <time>2012-08-12T07:42:43.000Z</time>
      </trkpt>
      <trkpt lat="43.24019" lon="0.86009">
        <ele>354</ele>
        <time>2012-08-12T07:42:45.000Z</time>
      </trkpt>
      <trkpt lat="43.2402" lon="0.86016">
        <ele>354</ele>
        <time>2012-08-12T07:42:46.000Z</time>
      </trkpt>
      <trkpt lat="43.24021" lon="0.86024">
        <ele>354</ele>
        <time>2012-08-12T07:42:47.000Z</time>
      </trkpt>
      <trkpt lat="43.24022" lon="0.86032">
        <ele>354</ele>
        <time>2012-08-12T07:42:48.000Z</time>
      </trkpt>
      <trkpt lat="43.24023" lon="0.8604">
        <ele>354</ele>
        <time>2012-08-12T07:42:49.000Z</time>
      </trkpt>
      <trkpt lat="43.24024" lon="0.86048">
        <ele>355</ele>
        <time>2012-08-12T07:42:50.000Z</time>
      </trkpt>
      <trkpt lat="43.24025" lon="0.86055">
        <ele>354</ele>
        <time>2012-08-12T07:42:51.000Z</time>
      </trkpt>
      <trkpt lat="43.24026" lon="0.86062">
        <ele>354</ele>
        <time>2012-08-12T07:42:52.000Z</time>
      </trkpt>
      <trkpt lat="43.24026" lon="0.8607">
        <ele>354</ele>
        <time>2012-08-12T07:42:53.000Z</time>
      </trkpt>
      <trkpt lat="43.24027" lon="0.86077">
        <ele>353</ele>
        <time>2012-08-12T07:42:54.000Z</time>
      </trkpt>
      <trkpt lat="43.24029" lon="0.86085">
        <ele>353</ele>
        <time>2012-08-12T07:42:55.000Z</time>
      </trkpt>
      <trkpt lat="43.2403" lon="0.86092">
        <ele>353</ele>
        <time>2012-08-12T07:42:56.000Z</time>
      </trkpt>
      <trkpt lat="43.2403" lon="0.861">
        <ele>353</ele>
        <time>2012-08-12T07:42:57.000Z</time>
      </trkpt>
      <trkpt lat="43.24031" lon="0.86107">
        <ele>353</ele>
        <time>2012-08-12T07:42:58.000Z</time>
      </trkpt>
      <trkpt lat="43.24032" lon="0.86121">
        <ele>353</ele>
        <time>2012-08-12T07:43:00.000Z</time>
      </trkpt>
      <trkpt lat="43.24031" lon="0.86128">
        <ele>353</ele>
        <time>2012-08-12T07:43:01.000Z</time>
      </trkpt>
      <trkpt lat="43.24029" lon="0.86135">
        <ele>353</ele>
        <time>2012-08-12T07:43:02.000Z</time>
      </trkpt>
      <trkpt lat="43.24028" lon="0.86142">
        <ele>353</ele>
        <time>2012-08-12T07:43:03.000Z</time>
      </trkpt>
      <trkpt lat="43.24027" lon="0.86149">
        <ele>353</ele>
        <time>2012-08-12T07:43:04.000Z</time>
      </trkpt>
      <trkpt lat="43.24026" lon="0.86156">
        <ele>352</ele>
        <time>2012-08-12T07:43:05.000Z</time>
      </trkpt>
      <trkpt lat="43.24024" lon="0.86162">
        <ele>352</ele>
        <time>2012-08-12T07:43:06.000Z</time>
      </trkpt>
      <trkpt lat="43.24022" lon="0.86169">
        <ele>351</ele>
        <time>2012-08-12T07:43:07.000Z</time>
      </trkpt>
      <trkpt lat="43.2402" lon="0.86174">
        <ele>351</ele>
        <time>2012-08-12T07:43:08.000Z</time>
      </trkpt>
      <trkpt lat="43.24016" lon="0.8618">
        <ele>351</ele>
        <time>2012-08-12T07:43:09.000Z</time>
      </trkpt>
      <trkpt lat="43.24013" lon="0.86185">
        <ele>351</ele>
        <time>2012-08-12T07:43:10.000Z</time>
      </trkpt>
      <trkpt lat="43.2401" lon="0.86191">
        <ele>351</ele>
        <time>2012-08-12T07:43:11.000Z</time>
      </trkpt>
      <trkpt lat="43.24004" lon="0.862">
        <ele>351</ele>
        <time>2012-08-12T07:43:13.000Z</time>
      </trkpt>
      <trkpt lat="43.23999" lon="0.86209">
        <ele>352</ele>
        <time>2012-08-12T07:43:15.000Z</time>
      </trkpt>
      <trkpt lat="43.23994" lon="0.86218">
        <ele>352</ele>
        <time>2012-08-12T07:43:17.000Z</time>
      </trkpt>
      <trkpt lat="43.2399" lon="0.86227">
        <ele>352</ele>
        <time>2012-08-12T07:43:19.000Z</time>
      </trkpt>
      <trkpt lat="43.23987" lon="0.86237">
        <ele>352</ele>
        <time>2012-08-12T07:43:21.000Z</time>
      </trkpt>
      <trkpt lat="43.23984" lon="0.86247">
        <ele>353</ele>
        <time>2012-08-12T07:43:23.000Z</time>
      </trkpt>
      <trkpt lat="43.2398" lon="0.86257">
        <ele>353</ele>
        <time>2012-08-12T07:43:25.000Z</time>
      </trkpt>
      <trkpt lat="43.23978" lon="0.86267">
        <ele>353</ele>
        <time>2012-08-12T07:43:27.000Z</time>
      </trkpt>
      <trkpt lat="43.23975" lon="0.86278">
        <ele>354</ele>
        <time>2012-08-12T07:43:29.000Z</time>
      </trkpt>
      <trkpt lat="43.23972" lon="0.86288">
        <ele>354</ele>
        <time>2012-08-12T07:43:31.000Z</time>
      </trkpt>
      <trkpt lat="43.23969" lon="0.86298">
        <ele>354</ele>
        <time>2012-08-12T07:43:33.000Z</time>
      </trkpt>
      <trkpt lat="43.23966" lon="0.86308">
        <ele>354</ele>
        <time>2012-08-12T07:43:35.000Z</time>
      </trkpt>
      <trkpt lat="43.23964" lon="0.86314">
        <ele>354</ele>
        <time>2012-08-12T07:43:36.000Z</time>
      </trkpt>
      <trkpt lat="43.23962" lon="0.8632">
        <ele>354</ele>
        <time>2012-08-12T07:43:37.000Z</time>
      </trkpt>
      <trkpt lat="43.23958" lon="0.86331">
        <ele>354</ele>
        <time>2012-08-12T07:43:39.000Z</time>
      </trkpt>
      <trkpt lat="43.23955" lon="0.8634">
        <ele>355</ele>
        <time>2012-08-12T07:43:41.000Z</time>
      </trkpt>
      <trkpt lat="43.23953" lon="0.86346">
        <ele>355</ele>
        <time>2012-08-12T07:43:42.000Z</time>
      </trkpt>
      <trkpt lat="43.23952" lon="0.86352">
        <ele>354</ele>
        <time>2012-08-12T07:43:43.000Z</time>
      </trkpt>
      <trkpt lat="43.23948" lon="0.86363">
        <ele>354</ele>
        <time>2012-08-12T07:43:45.000Z</time>
      </trkpt>
      <trkpt lat="43.23946" lon="0.86369">
        <ele>354</ele>
        <time>2012-08-12T07:43:46.000Z</time>
      </trkpt>
      <trkpt lat="43.23945" lon="0.86375">
        <ele>354</ele>
        <time>2012-08-12T07:43:47.000Z</time>
      </trkpt>
      <trkpt lat="43.23942" lon="0.86381">
        <ele>354</ele>
        <time>2012-08-12T07:43:48.000Z</time>
      </trkpt>
      <trkpt lat="43.23941" lon="0.86387">
        <ele>353</ele>
        <time>2012-08-12T07:43:49.000Z</time>
      </trkpt>
      <trkpt lat="43.23939" lon="0.86393">
        <ele>353</ele>
        <time>2012-08-12T07:43:50.000Z</time>
      </trkpt>
      <trkpt lat="43.23936" lon="0.86405">
        <ele>353</ele>
        <time>2012-08-12T07:43:52.000Z</time>
      </trkpt>
      <trkpt lat="43.23934" lon="0.8641">
        <ele>353</ele>
        <time>2012-08-12T07:43:53.000Z</time>
      </trkpt>
      <trkpt lat="43.23931" lon="0.86421">
        <ele>352</ele>
        <time>2012-08-12T07:43:55.000Z</time>
      </trkpt>
      <trkpt lat="43.23927" lon="0.86431">
        <ele>352</ele>
        <time>2012-08-12T07:43:57.000Z</time>
      </trkpt>
      <trkpt lat="43.23923" lon="0.86439">
        <ele>352</ele>
        <time>2012-08-12T07:43:59.000Z</time>
      </trkpt>
      <trkpt lat="43.23916" lon="0.86446">
        <ele>353</ele>
        <time>2012-08-12T07:44:01.000Z</time>
      </trkpt>
      <trkpt lat="43.23912" lon="0.86449">
        <ele>353</ele>
        <time>2012-08-12T07:44:02.000Z</time>
      </trkpt>
      <trkpt lat="43.23904" lon="0.86448">
        <ele>352</ele>
        <time>2012-08-12T07:44:03.000Z</time>
      </trkpt>
      <trkpt lat="43.23896" lon="0.86446">
        <ele>351</ele>
        <time>2012-08-12T07:44:04.000Z</time>
      </trkpt>
      <trkpt lat="43.23889" lon="0.86447">
        <ele>351</ele>
        <time>2012-08-12T07:44:05.000Z</time>
      </trkpt>
      <trkpt lat="43.23882" lon="0.86447">
        <ele>352</ele>
        <time>2012-08-12T07:44:06.000Z</time>
      </trkpt>
      <trkpt lat="43.23876" lon="0.86448">
        <ele>352</ele>
        <time>2012-08-12T07:44:07.000Z</time>
      </trkpt>
      <trkpt lat="43.23871" lon="0.86449">
        <ele>351</ele>
        <time>2012-08-12T07:44:08.000Z</time>
      </trkpt>
      <trkpt lat="43.23866" lon="0.8645">
        <ele>351</ele>
        <time>2012-08-12T07:44:09.000Z</time>
      </trkpt>
      <trkpt lat="43.23861" lon="0.86451">
        <ele>351</ele>
        <time>2012-08-12T07:44:10.000Z</time>
      </trkpt>
      <trkpt lat="43.23856" lon="0.86452">
        <ele>351</ele>
        <time>2012-08-12T07:44:11.000Z</time>
      </trkpt>
      <trkpt lat="43.23851" lon="0.86453">
        <ele>352</ele>
        <time>2012-08-12T07:44:12.000Z</time>
      </trkpt>
      <trkpt lat="43.23846" lon="0.86453">
        <ele>352</ele>
        <time>2012-08-12T07:44:13.000Z</time>
      </trkpt>
      <trkpt lat="43.23837" lon="0.86454">
        <ele>352</ele>
        <time>2012-08-12T07:44:15.000Z</time>
      </trkpt>
      <trkpt lat="43.23828" lon="0.86457">
        <ele>352</ele>
        <time>2012-08-12T07:44:17.000Z</time>
      </trkpt>
      <trkpt lat="43.23817" lon="0.86458">
        <ele>351</ele>
        <time>2012-08-12T07:44:19.000Z</time>
      </trkpt>
      <trkpt lat="43.23812" lon="0.86457">
        <ele>351</ele>
        <time>2012-08-12T07:44:20.000Z</time>
      </trkpt>
      <trkpt lat="43.23807" lon="0.86458">
        <ele>351</ele>
        <time>2012-08-12T07:44:21.000Z</time>
      </trkpt>
      <trkpt lat="43.23802" lon="0.86459">
        <ele>351</ele>
        <time>2012-08-12T07:44:22.000Z</time>
      </trkpt>
      <trkpt lat="43.23792" lon="0.86463">
        <ele>351</ele>
        <time>2012-08-12T07:44:24.000Z</time>
      </trkpt>
      <trkpt lat="43.23787" lon="0.86464">
        <ele>350</ele>
        <time>2012-08-12T07:44:25.000Z</time>
      </trkpt>
      <trkpt lat="43.2378" lon="0.86464">
        <ele>349</ele>
        <time>2012-08-12T07:44:26.000Z</time>
      </trkpt>
      <trkpt lat="43.23774" lon="0.86465">
        <ele>349</ele>
        <time>2012-08-12T07:44:27.000Z</time>
      </trkpt>
      <trkpt lat="43.23768" lon="0.86466">
        <ele>348</ele>
        <time>2012-08-12T07:44:28.000Z</time>
      </trkpt>
      <trkpt lat="43.23763" lon="0.86468">
        <ele>348</ele>
        <time>2012-08-12T07:44:29.000Z</time>
      </trkpt>
      <trkpt lat="43.23756" lon="0.8647">
        <ele>347</ele>
        <time>2012-08-12T07:44:30.000Z</time>
      </trkpt>
      <trkpt lat="43.23751" lon="0.86473">
        <ele>347</ele>
        <time>2012-08-12T07:44:31.000Z</time>
      </trkpt>
      <trkpt lat="43.23745" lon="0.86477">
        <ele>347</ele>
        <time>2012-08-12T07:44:32.000Z</time>
      </trkpt>
      <trkpt lat="43.2374" lon="0.86481">
        <ele>347</ele>
        <time>2012-08-12T07:44:33.000Z</time>
      </trkpt>
      <trkpt lat="43.23735" lon="0.86487">
        <ele>347</ele>
        <time>2012-08-12T07:44:34.000Z</time>
      </trkpt>
      <trkpt lat="43.23732" lon="0.86493">
        <ele>347</ele>
        <time>2012-08-12T07:44:35.000Z</time>
      </trkpt>
      <trkpt lat="43.2373" lon="0.86499">
        <ele>348</ele>
        <time>2012-08-12T07:44:36.000Z</time>
      </trkpt>
      <trkpt lat="43.23728" lon="0.86505">
        <ele>348</ele>
        <time>2012-08-12T07:44:37.000Z</time>
      </trkpt>
      <trkpt lat="43.23727" lon="0.86511">
        <ele>348</ele>
        <time>2012-08-12T07:44:38.000Z</time>
      </trkpt>
      <trkpt lat="43.23725" lon="0.86517">
        <ele>348</ele>
        <time>2012-08-12T07:44:39.000Z</time>
      </trkpt>
      <trkpt lat="43.23724" lon="0.86523">
        <ele>348</ele>
        <time>2012-08-12T07:44:40.000Z</time>
      </trkpt>
      <trkpt lat="43.23723" lon="0.8653">
        <ele>348</ele>
        <time>2012-08-12T07:44:41.000Z</time>
      </trkpt>
      <trkpt lat="43.23723" lon="0.86537">
        <ele>348</ele>
        <time>2012-08-12T07:44:42.000Z</time>
      </trkpt>
      <trkpt lat="43.23721" lon="0.86544">
        <ele>348</ele>
        <time>2012-08-12T07:44:43.000Z</time>
      </trkpt>
      <trkpt lat="43.2372" lon="0.8655">
        <ele>348</ele>
        <time>2012-08-12T07:44:44.000Z</time>
      </trkpt>
      <trkpt lat="43.23719" lon="0.86556">
        <ele>348</ele>
        <time>2012-08-12T07:44:45.000Z</time>
      </trkpt>
      <trkpt lat="43.23719" lon="0.86563">
        <ele>348</ele>
        <time>2012-08-12T07:44:46.000Z</time>
      </trkpt>
      <trkpt lat="43.23719" lon="0.86571">
        <ele>348</ele>
        <time>2012-08-12T07:44:47.000Z</time>
      </trkpt>
      <trkpt lat="43.23718" lon="0.86578">
        <ele>348</ele>
        <time>2012-08-12T07:44:48.000Z</time>
      </trkpt>
      <trkpt lat="43.23718" lon="0.86585">
        <ele>348</ele>
        <time>2012-08-12T07:44:49.000Z</time>
      </trkpt>
      <trkpt lat="43.2372" lon="0.86596">
        <ele>348</ele>
        <time>2012-08-12T07:44:50.000Z</time>
      </trkpt>
      <trkpt lat="43.23721" lon="0.86606">
        <ele>348</ele>
        <time>2012-08-12T07:44:51.000Z</time>
      </trkpt>
      <trkpt lat="43.23724" lon="0.86618">
        <ele>347</ele>
        <time>2012-08-12T07:44:52.000Z</time>
      </trkpt>
      <trkpt lat="43.23724" lon="0.86627">
        <ele>347</ele>
        <time>2012-08-12T07:44:53.000Z</time>
      </trkpt>
      <trkpt lat="43.23724" lon="0.86636">
        <ele>348</ele>
        <time>2012-08-12T07:44:54.000Z</time>
      </trkpt>
      <trkpt lat="43.23724" lon="0.86646">
        <ele>348</ele>
        <time>2012-08-12T07:44:55.000Z</time>
      </trkpt>
      <trkpt lat="43.23722" lon="0.86652">
        <ele>348</ele>
        <time>2012-08-12T07:44:56.000Z</time>
      </trkpt>
      <trkpt lat="43.23719" lon="0.8666">
        <ele>348</ele>
        <time>2012-08-12T07:44:57.000Z</time>
      </trkpt>
      <trkpt lat="43.23718" lon="0.86669">
        <ele>348</ele>
        <time>2012-08-12T07:44:58.000Z</time>
      </trkpt>
      <trkpt lat="43.23714" lon="0.86685">
        <ele>349</ele>
        <time>2012-08-12T07:45:00.000Z</time>
      </trkpt>
      <trkpt lat="43.23715" lon="0.86693">
        <ele>349</ele>
        <time>2012-08-12T07:45:01.000Z</time>
      </trkpt>
      <trkpt lat="43.23715" lon="0.86703">
        <ele>349</ele>
        <time>2012-08-12T07:45:02.000Z</time>
      </trkpt>
      <trkpt lat="43.23716" lon="0.86713">
        <ele>349</ele>
        <time>2012-08-12T07:45:03.000Z</time>
      </trkpt>
      <trkpt lat="43.23715" lon="0.86723">
        <ele>349</ele>
        <time>2012-08-12T07:45:04.000Z</time>
      </trkpt>
      <trkpt lat="43.23716" lon="0.86735">
        <ele>350</ele>
        <time>2012-08-12T07:45:05.000Z</time>
      </trkpt>
      <trkpt lat="43.23714" lon="0.86744">
        <ele>351</ele>
        <time>2012-08-12T07:45:06.000Z</time>
      </trkpt>
      <trkpt lat="43.23712" lon="0.86752">
        <ele>351</ele>
        <time>2012-08-12T07:45:07.000Z</time>
      </trkpt>
      <trkpt lat="43.2371" lon="0.86759">
        <ele>351</ele>
        <time>2012-08-12T07:45:08.000Z</time>
      </trkpt>
      <trkpt lat="43.23709" lon="0.86767">
        <ele>351</ele>
        <time>2012-08-12T07:45:09.000Z</time>
      </trkpt>
      <trkpt lat="43.23708" lon="0.86776">
        <ele>350</ele>
        <time>2012-08-12T07:45:10.000Z</time>
      </trkpt>
      <trkpt lat="43.23706" lon="0.86785">
        <ele>350</ele>
        <time>2012-08-12T07:45:11.000Z</time>
      </trkpt>
      <trkpt lat="43.23705" lon="0.86794">
        <ele>350</ele>
        <time>2012-08-12T07:45:12.000Z</time>
      </trkpt>
      <trkpt lat="43.23704" lon="0.86803">
        <ele>351</ele>
        <time>2012-08-12T07:45:13.000Z</time>
      </trkpt>
      <trkpt lat="43.23703" lon="0.86812">
        <ele>351</ele>
        <time>2012-08-12T07:45:14.000Z</time>
      </trkpt>
      <trkpt lat="43.23701" lon="0.86821">
        <ele>350</ele>
        <time>2012-08-12T07:45:15.000Z</time>
      </trkpt>
      <trkpt lat="43.23699" lon="0.8683">
        <ele>350</ele>
        <time>2012-08-12T07:45:16.000Z</time>
      </trkpt>
      <trkpt lat="43.23696" lon="0.86838">
        <ele>350</ele>
        <time>2012-08-12T07:45:17.000Z</time>
      </trkpt>
      <trkpt lat="43.23694" lon="0.86846">
        <ele>350</ele>
        <time>2012-08-12T07:45:18.000Z</time>
      </trkpt>
      <trkpt lat="43.23692" lon="0.86853">
        <ele>350</ele>
        <time>2012-08-12T07:45:19.000Z</time>
      </trkpt>
      <trkpt lat="43.23688" lon="0.86861">
        <ele>350</ele>
        <time>2012-08-12T07:45:20.000Z</time>
      </trkpt>
      <trkpt lat="43.23686" lon="0.8687">
        <ele>350</ele>
        <time>2012-08-12T07:45:21.000Z</time>
      </trkpt>
      <trkpt lat="43.23683" lon="0.86879">
        <ele>350</ele>
        <time>2012-08-12T07:45:22.000Z</time>
      </trkpt>
      <trkpt lat="43.23682" lon="0.86888">
        <ele>350</ele>
        <time>2012-08-12T07:45:23.000Z</time>
      </trkpt>
      <trkpt lat="43.2368" lon="0.86899">
        <ele>350</ele>
        <time>2012-08-12T07:45:24.000Z</time>
      </trkpt>
      <trkpt lat="43.23677" lon="0.86912">
        <ele>350</ele>
        <time>2012-08-12T07:45:25.000Z</time>
      </trkpt>
      <trkpt lat="43.23676" lon="0.86924">
        <ele>350</ele>
        <time>2012-08-12T07:45:26.000Z</time>
      </trkpt>
      <trkpt lat="43.23676" lon="0.86936">
        <ele>350</ele>
        <time>2012-08-12T07:45:27.000Z</time>
      </trkpt>
      <trkpt lat="43.23676" lon="0.86949">
        <ele>350</ele>
        <time>2012-08-12T07:45:28.000Z</time>
      </trkpt>
      <trkpt lat="43.23675" lon="0.8696">
        <ele>350</ele>
        <time>2012-08-12T07:45:29.000Z</time>
      </trkpt>
      <trkpt lat="43.23676" lon="0.86972">
        <ele>350</ele>
        <time>2012-08-12T07:45:30.000Z</time>
      </trkpt>
      <trkpt lat="43.23676" lon="0.86983">
        <ele>349</ele>
        <time>2012-08-12T07:45:31.000Z</time>
      </trkpt>
      <trkpt lat="43.23676" lon="0.86994">
        <ele>349</ele>
        <time>2012-08-12T07:45:32.000Z</time>
      </trkpt>
      <trkpt lat="43.23678" lon="0.87005">
        <ele>348</ele>
        <time>2012-08-12T07:45:33.000Z</time>
      </trkpt>
      <trkpt lat="43.2368" lon="0.87016">
        <ele>348</ele>
        <time>2012-08-12T07:45:34.000Z</time>
      </trkpt>
      <trkpt lat="43.23682" lon="0.87025">
        <ele>348</ele>
        <time>2012-08-12T07:45:35.000Z</time>
      </trkpt>
      <trkpt lat="43.23684" lon="0.87035">
        <ele>348</ele>
        <time>2012-08-12T07:45:36.000Z</time>
      </trkpt>
      <trkpt lat="43.23686" lon="0.87045">
        <ele>348</ele>
        <time>2012-08-12T07:45:37.000Z</time>
      </trkpt>
      <trkpt lat="43.23687" lon="0.87054">
        <ele>348</ele>
        <time>2012-08-12T07:45:38.000Z</time>
      </trkpt>
      <trkpt lat="43.23689" lon="0.87064">
        <ele>348</ele>
        <time>2012-08-12T07:45:39.000Z</time>
      </trkpt>
      <trkpt lat="43.23689" lon="0.87073">
        <ele>348</ele>
        <time>2012-08-12T07:45:40.000Z</time>
      </trkpt>
      <trkpt lat="43.23688" lon="0.87082">
        <ele>349</ele>
        <time>2012-08-12T07:45:41.000Z</time>
      </trkpt>
      <trkpt lat="43.23686" lon="0.87092">
        <ele>349</ele>
        <time>2012-08-12T07:45:42.000Z</time>
      </trkpt>
      <trkpt lat="43.23685" lon="0.871">
        <ele>349</ele>
        <time>2012-08-12T07:45:43.000Z</time>
      </trkpt>
      <trkpt lat="43.23683" lon="0.87108">
        <ele>348</ele>
        <time>2012-08-12T07:45:44.000Z</time>
      </trkpt>
      <trkpt lat="43.23681" lon="0.87116">
        <ele>349</ele>
        <time>2012-08-12T07:45:45.000Z</time>
      </trkpt>
      <trkpt lat="43.23678" lon="0.87124">
        <ele>349</ele>
        <time>2012-08-12T07:45:46.000Z</time>
      </trkpt>
      <trkpt lat="43.23676" lon="0.8713">
        <ele>349</ele>
        <time>2012-08-12T07:45:47.000Z</time>
      </trkpt>
      <trkpt lat="43.23673" lon="0.87137">
        <ele>349</ele>
        <time>2012-08-12T07:45:48.000Z</time>
      </trkpt>
      <trkpt lat="43.2367" lon="0.87143">
        <ele>350</ele>
        <time>2012-08-12T07:45:49.000Z</time>
      </trkpt>
      <trkpt lat="43.23668" lon="0.87148">
        <ele>350</ele>
        <time>2012-08-12T07:45:50.000Z</time>
      </trkpt>
      <trkpt lat="43.23662" lon="0.87154">
        <ele>351</ele>
        <time>2012-08-12T07:45:52.000Z</time>
      </trkpt>
      <trkpt lat="43.23657" lon="0.87157">
        <ele>351</ele>
        <time>2012-08-12T07:45:54.000Z</time>
      </trkpt>
      <trkpt lat="43.23651" lon="0.8716">
        <ele>351</ele>
        <time>2012-08-12T07:45:57.000Z</time>
      </trkpt>
      <trkpt lat="43.23646" lon="0.8716">
        <ele>351</ele>
        <time>2012-08-12T07:45:59.000Z</time>
      </trkpt>
      <trkpt lat="43.23641" lon="0.87162">
        <ele>351</ele>
        <time>2012-08-12T07:46:01.000Z</time>
      </trkpt>
      <trkpt lat="43.23637" lon="0.87164">
        <ele>350</ele>
        <time>2012-08-12T07:46:03.000Z</time>
      </trkpt>
      <trkpt lat="43.23632" lon="0.87166">
        <ele>350</ele>
        <time>2012-08-12T07:46:05.000Z</time>
      </trkpt>
      <trkpt lat="43.23628" lon="0.87169">
        <ele>350</ele>
        <time>2012-08-12T07:46:07.000Z</time>
      </trkpt>
      <trkpt lat="43.23624" lon="0.87173">
        <ele>351</ele>
        <time>2012-08-12T07:46:09.000Z</time>
      </trkpt>
      <trkpt lat="43.23618" lon="0.87177">
        <ele>352</ele>
        <time>2012-08-12T07:46:11.000Z</time>
      </trkpt>
      <trkpt lat="43.23615" lon="0.87184">
        <ele>354</ele>
        <time>2012-08-12T07:46:14.000Z</time>
      </trkpt>
      <trkpt lat="43.23615" lon="0.87191">
        <ele>356</ele>
        <time>2012-08-12T07:46:16.000Z</time>
      </trkpt>
      <trkpt lat="43.23615" lon="0.87199">
        <ele>357</ele>
        <time>2012-08-12T07:46:19.000Z</time>
      </trkpt>
      <trkpt lat="43.23614" lon="0.87206">
        <ele>358</ele>
        <time>2012-08-12T07:46:22.000Z</time>
      </trkpt>
      <trkpt lat="43.23616" lon="0.87214">
        <ele>358</ele>
        <time>2012-08-12T07:46:25.000Z</time>
      </trkpt>
      <trkpt lat="43.2362" lon="0.87221">
        <ele>359</ele>
        <time>2012-08-12T07:46:27.000Z</time>
      </trkpt>
      <trkpt lat="43.23623" lon="0.87226">
        <ele>359</ele>
        <time>2012-08-12T07:46:29.000Z</time>
      </trkpt>
      <trkpt lat="43.23625" lon="0.87232">
        <ele>359</ele>
        <time>2012-08-12T07:46:31.000Z</time>
      </trkpt>
      <trkpt lat="43.23629" lon="0.87239">
        <ele>362</ele>
        <time>2012-08-12T07:46:33.000Z</time>
      </trkpt>
      <trkpt lat="43.23632" lon="0.87248">
        <ele>362</ele>
        <time>2012-08-12T07:46:35.000Z</time>
      </trkpt>
      <trkpt lat="43.23636" lon="0.87255">
        <ele>362</ele>
        <time>2012-08-12T07:46:37.000Z</time>
      </trkpt>
      <trkpt lat="43.23638" lon="0.87262">
        <ele>362</ele>
        <time>2012-08-12T07:46:39.000Z</time>
      </trkpt>
      <trkpt lat="43.2364" lon="0.87269">
        <ele>362</ele>
        <time>2012-08-12T07:46:41.000Z</time>
      </trkpt>
      <trkpt lat="43.2364" lon="0.87275">
        <ele>363</ele>
        <time>2012-08-12T07:46:43.000Z</time>
      </trkpt>
      <trkpt lat="43.23639" lon="0.87286">
        <ele>363</ele>
        <time>2012-08-12T07:46:46.000Z</time>
      </trkpt>
      <trkpt lat="43.23636" lon="0.87295">
        <ele>365</ele>
        <time>2012-08-12T07:46:48.000Z</time>
      </trkpt>
      <trkpt lat="43.23634" lon="0.87303">
        <ele>366</ele>
        <time>2012-08-12T07:46:50.000Z</time>
      </trkpt>
      <trkpt lat="43.23631" lon="0.8731">
        <ele>366</ele>
        <time>2012-08-12T07:46:52.000Z</time>
      </trkpt>
      <trkpt lat="43.23629" lon="0.87315">
        <ele>366</ele>
        <time>2012-08-12T07:46:54.000Z</time>
      </trkpt>
      <trkpt lat="43.23624" lon="0.8732">
        <ele>367</ele>
        <time>2012-08-12T07:46:57.000Z</time>
      </trkpt>
      <trkpt lat="43.2362" lon="0.87323">
        <ele>369</ele>
        <time>2012-08-12T07:47:00.000Z</time>
      </trkpt>
      <trkpt lat="43.23616" lon="0.87328">
        <ele>368</ele>
        <time>2012-08-12T07:47:02.000Z</time>
      </trkpt>
      <trkpt lat="43.23611" lon="0.87332">
        <ele>369</ele>
        <time>2012-08-12T07:47:05.000Z</time>
      </trkpt>
      <trkpt lat="43.23607" lon="0.87337">
        <ele>371</ele>
        <time>2012-08-12T07:47:08.000Z</time>
      </trkpt>
      <trkpt lat="43.23601" lon="0.8734">
        <ele>371</ele>
        <time>2012-08-12T07:47:11.000Z</time>
      </trkpt>
      <trkpt lat="43.23596" lon="0.87344">
        <ele>372</ele>
        <time>2012-08-12T07:47:13.000Z</time>
      </trkpt>
      <trkpt lat="43.2359" lon="0.87346">
        <ele>372</ele>
        <time>2012-08-12T07:47:15.000Z</time>
      </trkpt>
      <trkpt lat="43.23585" lon="0.87348">
        <ele>372</ele>
        <time>2012-08-12T07:47:17.000Z</time>
      </trkpt>
      <trkpt lat="43.2358" lon="0.87352">
        <ele>372</ele>
        <time>2012-08-12T07:47:19.000Z</time>
      </trkpt>
      <trkpt lat="43.23576" lon="0.87355">
        <ele>371</ele>
        <time>2012-08-12T07:47:21.000Z</time>
      </trkpt>
      <trkpt lat="43.23571" lon="0.87358">
        <ele>371</ele>
        <time>2012-08-12T07:47:23.000Z</time>
      </trkpt>
      <trkpt lat="43.23568" lon="0.87362">
        <ele>372</ele>
        <time>2012-08-12T07:47:25.000Z</time>
      </trkpt>
      <trkpt lat="43.23563" lon="0.87365">
        <ele>372</ele>
        <time>2012-08-12T07:47:27.000Z</time>
      </trkpt>
      <trkpt lat="43.23559" lon="0.87368">
        <ele>373</ele>
        <time>2012-08-12T07:47:29.000Z</time>
      </trkpt>
      <trkpt lat="43.23553" lon="0.8737">
        <ele>373</ele>
        <time>2012-08-12T07:47:32.000Z</time>
      </trkpt>
      <trkpt lat="43.23548" lon="0.87373">
        <ele>374</ele>
        <time>2012-08-12T07:47:35.000Z</time>
      </trkpt>
      <trkpt lat="43.23543" lon="0.87378">
        <ele>376</ele>
        <time>2012-08-12T07:47:38.000Z</time>
      </trkpt>
      <trkpt lat="43.23537" lon="0.8738">
        <ele>378</ele>
        <time>2012-08-12T07:47:41.000Z</time>
      </trkpt>
      <trkpt lat="43.23532" lon="0.87383">
        <ele>380</ele>
        <time>2012-08-12T07:47:44.000Z</time>
      </trkpt>
      <trkpt lat="43.23526" lon="0.87385">
        <ele>380</ele>
        <time>2012-08-12T07:47:46.000Z</time>
      </trkpt>
      <trkpt lat="43.23521" lon="0.87388">
        <ele>381</ele>
        <time>2012-08-12T07:47:48.000Z</time>
      </trkpt>
      <trkpt lat="43.23515" lon="0.87392">
        <ele>382</ele>
        <time>2012-08-12T07:47:51.000Z</time>
      </trkpt>
      <trkpt lat="43.23512" lon="0.87396">
        <ele>382</ele>
        <time>2012-08-12T07:47:53.000Z</time>
      </trkpt>
      <trkpt lat="43.23506" lon="0.87398">
        <ele>384</ele>
        <time>2012-08-12T07:47:55.000Z</time>
      </trkpt>
      <trkpt lat="43.23502" lon="0.87402">
        <ele>384</ele>
        <time>2012-08-12T07:47:57.000Z</time>
      </trkpt>
      <trkpt lat="43.23498" lon="0.87405">
        <ele>385</ele>
        <time>2012-08-12T07:47:59.000Z</time>
      </trkpt>
      <trkpt lat="43.23493" lon="0.87409">
        <ele>385</ele>
        <time>2012-08-12T07:48:01.000Z</time>
      </trkpt>
      <trkpt lat="43.23488" lon="0.8741">
        <ele>387</ele>
        <time>2012-08-12T07:48:03.000Z</time>
      </trkpt>
      <trkpt lat="43.23483" lon="0.87413">
        <ele>388</ele>
        <time>2012-08-12T07:48:05.000Z</time>
      </trkpt>
      <trkpt lat="43.23478" lon="0.87415">
        <ele>389</ele>
        <time>2012-08-12T07:48:08.000Z</time>
      </trkpt>
      <trkpt lat="43.23472" lon="0.87417">
        <ele>389</ele>
        <time>2012-08-12T07:48:11.000Z</time>
      </trkpt>
      <trkpt lat="43.23467" lon="0.8742">
        <ele>391</ele>
        <time>2012-08-12T07:48:14.000Z</time>
      </trkpt>
      <trkpt lat="43.23462" lon="0.87422">
        <ele>394</ele>
        <time>2012-08-12T07:48:17.000Z</time>
      </trkpt>
      <trkpt lat="43.23458" lon="0.87425">
        <ele>395</ele>
        <time>2012-08-12T07:48:20.000Z</time>
      </trkpt>
      <trkpt lat="43.23453" lon="0.87427">
        <ele>395</ele>
        <time>2012-08-12T07:48:23.000Z</time>
      </trkpt>
      <trkpt lat="43.23447" lon="0.87428">
        <ele>395</ele>
        <time>2012-08-12T07:48:26.000Z</time>
      </trkpt>
      <trkpt lat="43.23441" lon="0.87428">
        <ele>394</ele>
        <time>2012-08-12T07:48:30.000Z</time>
      </trkpt>
      <trkpt lat="43.23439" lon="0.8742">
        <ele>396</ele>
        <time>2012-08-12T07:48:35.000Z</time>
      </trkpt>
      <trkpt lat="43.23439" lon="0.87413">
        <ele>398</ele>
        <time>2012-08-12T07:48:39.000Z</time>
      </trkpt>
      <trkpt lat="43.2344" lon="0.87406">
        <ele>400</ele>
        <time>2012-08-12T07:48:42.000Z</time>
      </trkpt>
      <trkpt lat="43.23438" lon="0.87399">
        <ele>399</ele>
        <time>2012-08-12T07:48:44.000Z</time>
      </trkpt>
      <trkpt lat="43.23436" lon="0.87393">
        <ele>399</ele>
        <time>2012-08-12T07:48:46.000Z</time>
      </trkpt>
      <trkpt lat="43.23434" lon="0.87385">
        <ele>400</ele>
        <time>2012-08-12T07:48:49.000Z</time>
      </trkpt>
      <trkpt lat="43.23432" lon="0.87378">
        <ele>400</ele>
        <time>2012-08-12T07:48:52.000Z</time>
      </trkpt>
      <trkpt lat="43.23432" lon="0.8737">
        <ele>400</ele>
        <time>2012-08-12T07:48:55.000Z</time>
      </trkpt>
      <trkpt lat="43.23431" lon="0.87364">
        <ele>400</ele>
        <time>2012-08-12T07:48:58.000Z</time>
      </trkpt>
      <trkpt lat="43.23427" lon="0.87355">
        <ele>401</ele>
        <time>2012-08-12T07:49:01.000Z</time>
      </trkpt>
      <trkpt lat="43.23425" lon="0.87349">
        <ele>400</ele>
        <time>2012-08-12T07:49:02.000Z</time>
      </trkpt>
      <trkpt lat="43.23425" lon="0.87342">
        <ele>398</ele>
        <time>2012-08-12T07:49:03.000Z</time>
      </trkpt>
      <trkpt lat="43.23421" lon="0.87335">
        <ele>399</ele>
        <time>2012-08-12T07:49:05.000Z</time>
      </trkpt>
      <trkpt lat="43.23418" lon="0.87329">
        <ele>400</ele>
        <time>2012-08-12T07:49:07.000Z</time>
      </trkpt>
      <trkpt lat="43.23416" lon="0.87324">
        <ele>401</ele>
        <time>2012-08-12T07:49:09.000Z</time>
      </trkpt>
      <trkpt lat="43.23411" lon="0.87315">
        <ele>400</ele>
        <time>2012-08-12T07:49:12.000Z</time>
      </trkpt>
      <trkpt lat="43.23406" lon="0.8731">
        <ele>401</ele>
        <time>2012-08-12T07:49:14.000Z</time>
      </trkpt>
      <trkpt lat="43.23402" lon="0.87305">
        <ele>400</ele>
        <time>2012-08-12T07:49:16.000Z</time>
      </trkpt>
      <trkpt lat="43.23397" lon="0.873">
        <ele>400</ele>
        <time>2012-08-12T07:49:18.000Z</time>
      </trkpt>
      <trkpt lat="43.2339" lon="0.87298">
        <ele>401</ele>
        <time>2012-08-12T07:49:20.000Z</time>
      </trkpt>
      <trkpt lat="43.23384" lon="0.87296">
        <ele>401</ele>
        <time>2012-08-12T07:49:22.000Z</time>
      </trkpt>
      <trkpt lat="43.23378" lon="0.87296">
        <ele>401</ele>
        <time>2012-08-12T07:49:24.000Z</time>
      </trkpt>
      <trkpt lat="43.23371" lon="0.87295">
        <ele>401</ele>
        <time>2012-08-12T07:49:26.000Z</time>
      </trkpt>
      <trkpt lat="43.23363" lon="0.87296">
        <ele>401</ele>
        <time>2012-08-12T07:49:28.000Z</time>
      </trkpt>
      <trkpt lat="43.23354" lon="0.87296">
        <ele>400</ele>
        <time>2012-08-12T07:49:30.000Z</time>
      </trkpt>
      <trkpt lat="43.23347" lon="0.873">
        <ele>401</ele>
        <time>2012-08-12T07:49:32.000Z</time>
      </trkpt>
      <trkpt lat="43.23339" lon="0.87302">
        <ele>401</ele>
        <time>2012-08-12T07:49:34.000Z</time>
      </trkpt>
      <trkpt lat="43.23331" lon="0.87305">
        <ele>401</ele>
        <time>2012-08-12T07:49:36.000Z</time>
      </trkpt>
      <trkpt lat="43.23324" lon="0.87308">
        <ele>401</ele>
        <time>2012-08-12T07:49:38.000Z</time>
      </trkpt>
      <trkpt lat="43.23318" lon="0.87311">
        <ele>402</ele>
        <time>2012-08-12T07:49:40.000Z</time>
      </trkpt>
      <trkpt lat="43.2331" lon="0.87313">
        <ele>404</ele>
        <time>2012-08-12T07:49:42.000Z</time>
      </trkpt>
      <trkpt lat="43.23303" lon="0.87316">
        <ele>405</ele>
        <time>2012-08-12T07:49:44.000Z</time>
      </trkpt>
      <trkpt lat="43.23296" lon="0.8732">
        <ele>405</ele>
        <time>2012-08-12T07:49:46.000Z</time>
      </trkpt>
      <trkpt lat="43.23288" lon="0.87322">
        <ele>406</ele>
        <time>2012-08-12T07:49:48.000Z</time>
      </trkpt>
      <trkpt lat="43.23284" lon="0.87325">
        <ele>406</ele>
        <time>2012-08-12T07:49:49.000Z</time>
      </trkpt>
      <trkpt lat="43.23277" lon="0.87328">
        <ele>408</ele>
        <time>2012-08-12T07:49:51.000Z</time>
      </trkpt>
      <trkpt lat="43.23268" lon="0.87332">
        <ele>407</ele>
        <time>2012-08-12T07:49:53.000Z</time>
      </trkpt>
      <trkpt lat="43.23263" lon="0.87333">
        <ele>407</ele>
        <time>2012-08-12T07:49:54.000Z</time>
      </trkpt>
      <trkpt lat="43.23258" lon="0.87334">
        <ele>407</ele>
        <time>2012-08-12T07:49:55.000Z</time>
      </trkpt>
      <trkpt lat="43.23254" lon="0.87336">
        <ele>407</ele>
        <time>2012-08-12T07:49:56.000Z</time>
      </trkpt>
      <trkpt lat="43.23245" lon="0.87339">
        <ele>407</ele>
        <time>2012-08-12T07:49:58.000Z</time>
      </trkpt>
      <trkpt lat="43.2324" lon="0.87342">
        <ele>408</ele>
        <time>2012-08-12T07:49:59.000Z</time>
      </trkpt>
      <trkpt lat="43.23232" lon="0.87345">
        <ele>408</ele>
        <time>2012-08-12T07:50:01.000Z</time>
      </trkpt>
      <trkpt lat="43.23225" lon="0.87349">
        <ele>408</ele>
        <time>2012-08-12T07:50:03.000Z</time>
      </trkpt>
      <trkpt lat="43.23217" lon="0.87348">
        <ele>409</ele>
        <time>2012-08-12T07:50:05.000Z</time>
      </trkpt>
      <trkpt lat="43.23211" lon="0.87351">
        <ele>409</ele>
        <time>2012-08-12T07:50:07.000Z</time>
      </trkpt>
      <trkpt lat="43.23205" lon="0.87355">
        <ele>409</ele>
        <time>2012-08-12T07:50:09.000Z</time>
      </trkpt>
      <trkpt lat="43.23198" lon="0.87356">
        <ele>409</ele>
        <time>2012-08-12T07:50:11.000Z</time>
      </trkpt>
      <trkpt lat="43.2319" lon="0.87358">
        <ele>410</ele>
        <time>2012-08-12T07:50:13.000Z</time>
      </trkpt>
      <trkpt lat="43.23181" lon="0.87361">
        <ele>410</ele>
        <time>2012-08-12T07:50:15.000Z</time>
      </trkpt>
      <trkpt lat="43.23171" lon="0.87363">
        <ele>411</ele>
        <time>2012-08-12T07:50:17.000Z</time>
      </trkpt>
      <trkpt lat="43.23166" lon="0.87363">
        <ele>411</ele>
        <time>2012-08-12T07:50:18.000Z</time>
      </trkpt>
      <trkpt lat="43.23159" lon="0.87361">
        <ele>411</ele>
        <time>2012-08-12T07:50:19.000Z</time>
      </trkpt>
      <trkpt lat="43.23151" lon="0.8736">
        <ele>412</ele>
        <time>2012-08-12T07:50:21.000Z</time>
      </trkpt>
      <trkpt lat="43.23144" lon="0.8736">
        <ele>412</ele>
        <time>2012-08-12T07:50:23.000Z</time>
      </trkpt>
      <trkpt lat="43.23137" lon="0.8736">
        <ele>412</ele>
        <time>2012-08-12T07:50:25.000Z</time>
      </trkpt>
      <trkpt lat="43.2313" lon="0.87357">
        <ele>412</ele>
        <time>2012-08-12T07:50:27.000Z</time>
      </trkpt>
      <trkpt lat="43.23124" lon="0.87357">
        <ele>412</ele>
        <time>2012-08-12T07:50:29.000Z</time>
      </trkpt>
      <trkpt lat="43.2312" lon="0.87355">
        <ele>413</ele>
        <time>2012-08-12T07:50:30.000Z</time>
      </trkpt>
      <trkpt lat="43.23115" lon="0.87356">
        <ele>413</ele>
        <time>2012-08-12T07:50:31.000Z</time>
      </trkpt>
      <trkpt lat="43.2311" lon="0.87358">
        <ele>413</ele>
        <time>2012-08-12T07:50:32.000Z</time>
      </trkpt>
      <trkpt lat="43.23104" lon="0.87361">
        <ele>415</ele>
        <time>2012-08-12T07:50:34.000Z</time>
      </trkpt>
      <trkpt lat="43.23102" lon="0.87368">
        <ele>417</ele>
        <time>2012-08-12T07:50:37.000Z</time>
      </trkpt>
      <trkpt lat="43.23108" lon="0.87373">
        <ele>417</ele>
        <time>2012-08-12T07:50:39.000Z</time>
      </trkpt>
      <trkpt lat="43.23113" lon="0.87378">
        <ele>418</ele>
        <time>2012-08-12T07:50:41.000Z</time>
      </trkpt>
      <trkpt lat="43.23118" lon="0.87384">
        <ele>417</ele>
        <time>2012-08-12T07:50:43.000Z</time>
      </trkpt>
      <trkpt lat="43.23122" lon="0.87393">
        <ele>417</ele>
        <time>2012-08-12T07:50:45.000Z</time>
      </trkpt>
      <trkpt lat="43.23126" lon="0.87401">
        <ele>419</ele>
        <time>2012-08-12T07:50:47.000Z</time>
      </trkpt>
      <trkpt lat="43.2313" lon="0.87407">
        <ele>418</ele>
        <time>2012-08-12T07:50:48.000Z</time>
      </trkpt>
      <trkpt lat="43.23134" lon="0.87416">
        <ele>419</ele>
        <time>2012-08-12T07:50:50.000Z</time>
      </trkpt>
      <trkpt lat="43.23137" lon="0.87422">
        <ele>420</ele>
        <time>2012-08-12T07:50:51.000Z</time>
      </trkpt>
      <trkpt lat="43.23137" lon="0.87433">
        <ele>421</ele>
        <time>2012-08-12T07:50:53.000Z</time>
      </trkpt>
      <trkpt lat="43.23134" lon="0.87442">
        <ele>421</ele>
        <time>2012-08-12T07:50:55.000Z</time>
      </trkpt>
      <trkpt lat="43.2313" lon="0.87445">
        <ele>422</ele>
        <time>2012-08-12T07:50:56.000Z</time>
      </trkpt>
      <trkpt lat="43.23124" lon="0.87446">
        <ele>422</ele>
        <time>2012-08-12T07:50:57.000Z</time>
      </trkpt>
      <trkpt lat="43.23116" lon="0.87452">
        <ele>423</ele>
        <time>2012-08-12T07:50:59.000Z</time>
      </trkpt>
      <trkpt lat="43.23112" lon="0.87456">
        <ele>423</ele>
        <time>2012-08-12T07:51:00.000Z</time>
      </trkpt>
      <trkpt lat="43.23107" lon="0.87459">
        <ele>423</ele>
        <time>2012-08-12T07:51:01.000Z</time>
      </trkpt>
      <trkpt lat="43.23098" lon="0.87467">
        <ele>425</ele>
        <time>2012-08-12T07:51:03.000Z</time>
      </trkpt>
      <trkpt lat="43.23095" lon="0.87472">
        <ele>425</ele>
        <time>2012-08-12T07:51:04.000Z</time>
      </trkpt>
      <trkpt lat="43.23089" lon="0.87479">
        <ele>426</ele>
        <time>2012-08-12T07:51:06.000Z</time>
      </trkpt>
      <trkpt lat="43.23085" lon="0.87482">
        <ele>426</ele>
        <time>2012-08-12T07:51:07.000Z</time>
      </trkpt>
      <trkpt lat="43.23078" lon="0.87489">
        <ele>425</ele>
        <time>2012-08-12T07:51:09.000Z</time>
      </trkpt>
      <trkpt lat="43.23071" lon="0.87496">
        <ele>425</ele>
        <time>2012-08-12T07:51:11.000Z</time>
      </trkpt>
      <trkpt lat="43.23067" lon="0.87499">
        <ele>425</ele>
        <time>2012-08-12T07:51:12.000Z</time>
      </trkpt>
      <trkpt lat="43.23059" lon="0.87505">
        <ele>426</ele>
        <time>2012-08-12T07:51:14.000Z</time>
      </trkpt>
      <trkpt lat="43.23051" lon="0.87511">
        <ele>426</ele>
        <time>2012-08-12T07:51:16.000Z</time>
      </trkpt>
      <trkpt lat="43.23042" lon="0.87519">
        <ele>426</ele>
        <time>2012-08-12T07:51:18.000Z</time>
      </trkpt>
      <trkpt lat="43.23038" lon="0.87524">
        <ele>426</ele>
        <time>2012-08-12T07:51:19.000Z</time>
      </trkpt>
      <trkpt lat="43.23033" lon="0.87528">
        <ele>427</ele>
        <time>2012-08-12T07:51:20.000Z</time>
      </trkpt>
      <trkpt lat="43.23027" lon="0.87534">
        <ele>427</ele>
        <time>2012-08-12T07:51:22.000Z</time>
      </trkpt>
      <trkpt lat="43.2302" lon="0.87538">
        <ele>428</ele>
        <time>2012-08-12T07:51:24.000Z</time>
      </trkpt>
      <trkpt lat="43.23013" lon="0.87546">
        <ele>427</ele>
        <time>2012-08-12T07:51:26.000Z</time>
      </trkpt>
      <trkpt lat="43.23006" lon="0.87552">
        <ele>427</ele>
        <time>2012-08-12T07:51:28.000Z</time>
      </trkpt>
      <trkpt lat="43.23001" lon="0.87556">
        <ele>428</ele>
        <time>2012-08-12T07:51:30.000Z</time>
      </trkpt>
      <trkpt lat="43.22994" lon="0.87559">
        <ele>429</ele>
        <time>2012-08-12T07:51:32.000Z</time>
      </trkpt>
      <trkpt lat="43.22988" lon="0.87563">
        <ele>428</ele>
        <time>2012-08-12T07:51:34.000Z</time>
      </trkpt>
      <trkpt lat="43.22983" lon="0.87566">
        <ele>427</ele>
        <time>2012-08-12T07:51:35.000Z</time>
      </trkpt>
      <trkpt lat="43.22977" lon="0.8757">
        <ele>428</ele>
        <time>2012-08-12T07:51:37.000Z</time>
      </trkpt>
      <trkpt lat="43.2297" lon="0.87572">
        <ele>428</ele>
        <time>2012-08-12T07:51:39.000Z</time>
      </trkpt>
      <trkpt lat="43.22964" lon="0.87577">
        <ele>428</ele>
        <time>2012-08-12T07:51:41.000Z</time>
      </trkpt>
      <trkpt lat="43.22958" lon="0.87582">
        <ele>428</ele>
        <time>2012-08-12T07:51:43.000Z</time>
      </trkpt>
      <trkpt lat="43.22951" lon="0.87588">
        <ele>428</ele>
        <time>2012-08-12T07:51:45.000Z</time>
      </trkpt>
      <trkpt lat="43.22945" lon="0.87593">
        <ele>429</ele>
        <time>2012-08-12T07:51:47.000Z</time>
      </trkpt>
      <trkpt lat="43.22938" lon="0.87594">
        <ele>429</ele>
        <time>2012-08-12T07:51:49.000Z</time>
      </trkpt>
      <trkpt lat="43.22932" lon="0.87595">
        <ele>429</ele>
        <time>2012-08-12T07:51:51.000Z</time>
      </trkpt>
      <trkpt lat="43.22926" lon="0.87593">
        <ele>428</ele>
        <time>2012-08-12T07:51:53.000Z</time>
      </trkpt>
      <trkpt lat="43.22921" lon="0.87591">
        <ele>427</ele>
        <time>2012-08-12T07:51:55.000Z</time>
      </trkpt>
      <trkpt lat="43.22916" lon="0.8759">
        <ele>427</ele>
        <time>2012-08-12T07:51:57.000Z</time>
      </trkpt>
      <trkpt lat="43.22911" lon="0.8759">
        <ele>427</ele>
        <time>2012-08-12T07:51:58.000Z</time>
      </trkpt>
      <trkpt lat="43.22904" lon="0.87589">
        <ele>427</ele>
        <time>2012-08-12T07:52:00.000Z</time>
      </trkpt>
      <trkpt lat="43.22896" lon="0.87588">
        <ele>427</ele>
        <time>2012-08-12T07:52:02.000Z</time>
      </trkpt>
      <trkpt lat="43.22886" lon="0.87586">
        <ele>427</ele>
        <time>2012-08-12T07:52:04.000Z</time>
      </trkpt>
      <trkpt lat="43.22881" lon="0.87586">
        <ele>427</ele>
        <time>2012-08-12T07:52:05.000Z</time>
      </trkpt>
      <trkpt lat="43.22875" lon="0.87586">
        <ele>426</ele>
        <time>2012-08-12T07:52:07.000Z</time>
      </trkpt>
      <trkpt lat="43.22869" lon="0.87588">
        <ele>426</ele>
        <time>2012-08-12T07:52:09.000Z</time>
      </trkpt>
      <trkpt lat="43.22861" lon="0.87587">
        <ele>427</ele>
        <time>2012-08-12T07:52:11.000Z</time>
      </trkpt>
      <trkpt lat="43.22858" lon="0.87592">
        <ele>426</ele>
        <time>2012-08-12T07:52:12.000Z</time>
      </trkpt>
      <trkpt lat="43.22851" lon="0.87593">
        <ele>426</ele>
        <time>2012-08-12T07:52:13.000Z</time>
      </trkpt>
      <trkpt lat="43.22844" lon="0.87598">
        <ele>424</ele>
        <time>2012-08-12T07:52:15.000Z</time>
      </trkpt>
      <trkpt lat="43.22835" lon="0.876">
        <ele>424</ele>
        <time>2012-08-12T07:52:17.000Z</time>
      </trkpt>
      <trkpt lat="43.2283" lon="0.87602">
        <ele>423</ele>
        <time>2012-08-12T07:52:19.000Z</time>
      </trkpt>
      <trkpt lat="43.22824" lon="0.87604">
        <ele>423</ele>
        <time>2012-08-12T07:52:21.000Z</time>
      </trkpt>
      <trkpt lat="43.2282" lon="0.87608">
        <ele>423</ele>
        <time>2012-08-12T07:52:24.000Z</time>
      </trkpt>
      <trkpt lat="43.22821" lon="0.87617">
        <ele>423</ele>
        <time>2012-08-12T07:52:27.000Z</time>
      </trkpt>
      <trkpt lat="43.2282" lon="0.87624">
        <ele>424</ele>
        <time>2012-08-12T07:52:29.000Z</time>
      </trkpt>
      <trkpt lat="43.22819" lon="0.87632">
        <ele>425</ele>
        <time>2012-08-12T07:52:31.000Z</time>
      </trkpt>
      <trkpt lat="43.22818" lon="0.8764">
        <ele>426</ele>
        <time>2012-08-12T07:52:33.000Z</time>
      </trkpt>
      <trkpt lat="43.22816" lon="0.87647">
        <ele>426</ele>
        <time>2012-08-12T07:52:35.000Z</time>
      </trkpt>
      <trkpt lat="43.22811" lon="0.87656">
        <ele>427</ele>
        <time>2012-08-12T07:52:38.000Z</time>
      </trkpt>
      <trkpt lat="43.22807" lon="0.87665">
        <ele>428</ele>
        <time>2012-08-12T07:52:40.000Z</time>
      </trkpt>
      <trkpt lat="43.22804" lon="0.87673">
        <ele>430</ele>
        <time>2012-08-12T07:52:42.000Z</time>
      </trkpt>
      <trkpt lat="43.228" lon="0.87681">
        <ele>430</ele>
        <time>2012-08-12T07:52:44.000Z</time>
      </trkpt>
      <trkpt lat="43.22796" lon="0.87689">
        <ele>430</ele>
        <time>2012-08-12T07:52:46.000Z</time>
      </trkpt>
      <trkpt lat="43.22794" lon="0.87697">
        <ele>431</ele>
        <time>2012-08-12T07:52:48.000Z</time>
      </trkpt>
      <trkpt lat="43.22794" lon="0.87706">
        <ele>431</ele>
        <time>2012-08-12T07:52:50.000Z</time>
      </trkpt>
      <trkpt lat="43.22797" lon="0.87716">
        <ele>431</ele>
        <time>2012-08-12T07:52:53.000Z</time>
      </trkpt>
      <trkpt lat="43.22799" lon="0.87725">
        <ele>431</ele>
        <time>2012-08-12T07:52:55.000Z</time>
      </trkpt>
      <trkpt lat="43.228" lon="0.87731">
        <ele>432</ele>
        <time>2012-08-12T07:52:57.000Z</time>
      </trkpt>
      <trkpt lat="43.22802" lon="0.87739">
        <ele>431</ele>
        <time>2012-08-12T07:53:00.000Z</time>
      </trkpt>
      <trkpt lat="43.22806" lon="0.87743">
        <ele>431</ele>
        <time>2012-08-12T07:53:02.000Z</time>
      </trkpt>
      <trkpt lat="43.22808" lon="0.87748">
        <ele>431</ele>
        <time>2012-08-12T07:53:04.000Z</time>
      </trkpt>
      <trkpt lat="43.22812" lon="0.87755">
        <ele>431</ele>
        <time>2012-08-12T07:53:06.000Z</time>
      </trkpt>
      <trkpt lat="43.22816" lon="0.8776">
        <ele>431</ele>
        <time>2012-08-12T07:53:08.000Z</time>
      </trkpt>
      <trkpt lat="43.2282" lon="0.87767">
        <ele>433</ele>
        <time>2012-08-12T07:53:10.000Z</time>
      </trkpt>
      <trkpt lat="43.22822" lon="0.87775">
        <ele>432</ele>
        <time>2012-08-12T07:53:12.000Z</time>
      </trkpt>
      <trkpt lat="43.22825" lon="0.87782">
        <ele>432</ele>
        <time>2012-08-12T07:53:14.000Z</time>
      </trkpt>
      <trkpt lat="43.22829" lon="0.87789">
        <ele>431</ele>
        <time>2012-08-12T07:53:16.000Z</time>
      </trkpt>
      <trkpt lat="43.22832" lon="0.87796">
        <ele>432</ele>
        <time>2012-08-12T07:53:18.000Z</time>
      </trkpt>
      <trkpt lat="43.22837" lon="0.87801">
        <ele>431</ele>
        <time>2012-08-12T07:53:21.000Z</time>
      </trkpt>
      <trkpt lat="43.22841" lon="0.87804">
        <ele>431</ele>
        <time>2012-08-12T07:53:23.000Z</time>
      </trkpt>
      <trkpt lat="43.22845" lon="0.87809">
        <ele>431</ele>
        <time>2012-08-12T07:53:26.000Z</time>
      </trkpt>
      <trkpt lat="43.22847" lon="0.87816">
        <ele>432</ele>
        <time>2012-08-12T07:53:28.000Z</time>
      </trkpt>
      <trkpt lat="43.22849" lon="0.87822">
        <ele>433</ele>
        <time>2012-08-12T07:53:30.000Z</time>
      </trkpt>
      <trkpt lat="43.2285" lon="0.87829">
        <ele>436</ele>
        <time>2012-08-12T07:53:33.000Z</time>
      </trkpt>
      <trkpt lat="43.22849" lon="0.87836">
        <ele>437</ele>
        <time>2012-08-12T07:53:36.000Z</time>
      </trkpt>
      <trkpt lat="43.22849" lon="0.87843">
        <ele>439</ele>
        <time>2012-08-12T07:53:40.000Z</time>
      </trkpt>
      <trkpt lat="43.22849" lon="0.8785">
        <ele>437</ele>
        <time>2012-08-12T07:53:42.000Z</time>
      </trkpt>
      <trkpt lat="43.22848" lon="0.8786">
        <ele>439</ele>
        <time>2012-08-12T07:53:45.000Z</time>
      </trkpt>
      <trkpt lat="43.22845" lon="0.87868">
        <ele>443</ele>
        <time>2012-08-12T07:53:49.000Z</time>
      </trkpt>
      <trkpt lat="43.22843" lon="0.87874">
        <ele>445</ele>
        <time>2012-08-12T07:53:52.000Z</time>
      </trkpt>
      <trkpt lat="43.22842" lon="0.87882">
        <ele>446</ele>
        <time>2012-08-12T07:53:55.000Z</time>
      </trkpt>
      <trkpt lat="43.2284" lon="0.87891">
        <ele>447</ele>
        <time>2012-08-12T07:53:58.000Z</time>
      </trkpt>
      <trkpt lat="43.22836" lon="0.87896">
        <ele>448</ele>
        <time>2012-08-12T07:54:01.000Z</time>
      </trkpt>
      <trkpt lat="43.22835" lon="0.87904">
        <ele>448</ele>
        <time>2012-08-12T07:54:04.000Z</time>
      </trkpt>
      <trkpt lat="43.22838" lon="0.87911">
        <ele>449</ele>
        <time>2012-08-12T07:54:07.000Z</time>
      </trkpt>
      <trkpt lat="43.22842" lon="0.87917">
        <ele>450</ele>
        <time>2012-08-12T07:54:09.000Z</time>
      </trkpt>
      <trkpt lat="43.22846" lon="0.87923">
        <ele>449</ele>
        <time>2012-08-12T07:54:11.000Z</time>
      </trkpt>
      <trkpt lat="43.22851" lon="0.87929">
        <ele>449</ele>
        <time>2012-08-12T07:54:13.000Z</time>
      </trkpt>
      <trkpt lat="43.22851" lon="0.87937">
        <ele>451</ele>
        <time>2012-08-12T07:54:16.000Z</time>
      </trkpt>
      <trkpt lat="43.22851" lon="0.87944">
        <ele>450</ele>
        <time>2012-08-12T07:54:18.000Z</time>
      </trkpt>
      <trkpt lat="43.22851" lon="0.8795">
        <ele>451</ele>
        <time>2012-08-12T07:54:20.000Z</time>
      </trkpt>
      <trkpt lat="43.22849" lon="0.87958">
        <ele>451</ele>
        <time>2012-08-12T07:54:22.000Z</time>
      </trkpt>
      <trkpt lat="43.22847" lon="0.87965">
        <ele>452</ele>
        <time>2012-08-12T07:54:24.000Z</time>
      </trkpt>
      <trkpt lat="43.22845" lon="0.87973">
        <ele>450</ele>
        <time>2012-08-12T07:54:27.000Z</time>
      </trkpt>
      <trkpt lat="43.22842" lon="0.8798">
        <ele>447</ele>
        <time>2012-08-12T07:54:30.000Z</time>
      </trkpt>
      <trkpt lat="43.22838" lon="0.87984">
        <ele>446</ele>
        <time>2012-08-12T07:54:35.000Z</time>
      </trkpt>
      <trkpt lat="43.22834" lon="0.8799">
        <ele>444</ele>
        <time>2012-08-12T07:54:38.000Z</time>
      </trkpt>
      <trkpt lat="43.22831" lon="0.87996">
        <ele>444</ele>
        <time>2012-08-12T07:54:40.000Z</time>
      </trkpt>
      <trkpt lat="43.22827" lon="0.88003">
        <ele>442</ele>
        <time>2012-08-12T07:54:43.000Z</time>
      </trkpt>
      <trkpt lat="43.22823" lon="0.8801">
        <ele>441</ele>
        <time>2012-08-12T07:54:46.000Z</time>
      </trkpt>
      <trkpt lat="43.2282" lon="0.88016">
        <ele>441</ele>
        <time>2012-08-12T07:54:49.000Z</time>
      </trkpt>
      <trkpt lat="43.22812" lon="0.8802">
        <ele>442</ele>
        <time>2012-08-12T07:54:51.000Z</time>
      </trkpt>
      <trkpt lat="43.22806" lon="0.88026">
        <ele>442</ele>
        <time>2012-08-12T07:54:53.000Z</time>
      </trkpt>
      <trkpt lat="43.22799" lon="0.88032">
        <ele>443</ele>
        <time>2012-08-12T07:54:55.000Z</time>
      </trkpt>
      <trkpt lat="43.22796" lon="0.88036">
        <ele>444</ele>
        <time>2012-08-12T07:54:56.000Z</time>
      </trkpt>
      <trkpt lat="43.22792" lon="0.88047">
        <ele>445</ele>
        <time>2012-08-12T07:54:58.000Z</time>
      </trkpt>
      <trkpt lat="43.2279" lon="0.88058">
        <ele>447</ele>
        <time>2012-08-12T07:55:00.000Z</time>
      </trkpt>
      <trkpt lat="43.22786" lon="0.88067">
        <ele>448</ele>
        <time>2012-08-12T07:55:02.000Z</time>
      </trkpt>
      <trkpt lat="43.22788" lon="0.88075">
        <ele>450</ele>
        <time>2012-08-12T07:55:04.000Z</time>
      </trkpt>
      <trkpt lat="43.22788" lon="0.88082">
        <ele>453</ele>
        <time>2012-08-12T07:55:06.000Z</time>
      </trkpt>
      <trkpt lat="43.22788" lon="0.88089">
        <ele>454</ele>
        <time>2012-08-12T07:55:08.000Z</time>
      </trkpt>
      <trkpt lat="43.22785" lon="0.88097">
        <ele>456</ele>
        <time>2012-08-12T07:55:11.000Z</time>
      </trkpt>
      <trkpt lat="43.22782" lon="0.88104">
        <ele>455</ele>
        <time>2012-08-12T07:55:14.000Z</time>
      </trkpt>
      <trkpt lat="43.22782" lon="0.88111">
        <ele>456</ele>
        <time>2012-08-12T07:55:16.000Z</time>
      </trkpt>
      <trkpt lat="43.22782" lon="0.88121">
        <ele>454</ele>
        <time>2012-08-12T07:55:19.000Z</time>
      </trkpt>
      <trkpt lat="43.22783" lon="0.88127">
        <ele>454</ele>
        <time>2012-08-12T07:55:21.000Z</time>
      </trkpt>
      <trkpt lat="43.22785" lon="0.88134">
        <ele>453</ele>
        <time>2012-08-12T07:55:23.000Z</time>
      </trkpt>
      <trkpt lat="43.22786" lon="0.8814">
        <ele>453</ele>
        <time>2012-08-12T07:55:25.000Z</time>
      </trkpt>
      <trkpt lat="43.22786" lon="0.88147">
        <ele>454</ele>
        <time>2012-08-12T07:55:28.000Z</time>
      </trkpt>
      <trkpt lat="43.22786" lon="0.88154">
        <ele>453</ele>
        <time>2012-08-12T07:55:32.000Z</time>
      </trkpt>
      <trkpt lat="43.22789" lon="0.88159">
        <ele>451</ele>
        <time>2012-08-12T07:55:43.000Z</time>
      </trkpt>
      <trkpt lat="43.22789" lon="0.88159">
        <ele>451</ele>
        <time>2012-08-12T07:55:43.000Z</time>
      </trkpt>
      <trkpt lat="43.22789" lon="0.88159">
        <ele>451</ele>
        <time>2012-08-12T07:55:44.000Z</time>
      </trkpt>
      <trkpt lat="43.22784" lon="0.88155">
        <ele>450</ele>
        <time>2012-08-12T07:55:50.000Z</time>
      </trkpt>
      <trkpt lat="43.2278" lon="0.8815">
        <ele>449</ele>
        <time>2012-08-12T07:55:52.000Z</time>
      </trkpt>
      <trkpt lat="43.22777" lon="0.88145">
        <ele>449</ele>
        <time>2012-08-12T07:55:54.000Z</time>
      </trkpt>
      <trkpt lat="43.22774" lon="0.88141">
        <ele>448</ele>
        <time>2012-08-12T07:55:56.000Z</time>
      </trkpt>
      <trkpt lat="43.2277" lon="0.88134">
        <ele>448</ele>
        <time>2012-08-12T07:55:59.000Z</time>
      </trkpt>
      <trkpt lat="43.22767" lon="0.88129">
        <ele>447</ele>
        <time>2012-08-12T07:56:02.000Z</time>
      </trkpt>
      <trkpt lat="43.22762" lon="0.88126">
        <ele>447</ele>
        <time>2012-08-12T07:56:06.000Z</time>
      </trkpt>
      <trkpt lat="43.22757" lon="0.88122">
        <ele>449</ele>
        <time>2012-08-12T07:56:09.000Z</time>
      </trkpt>
      <trkpt lat="43.22753" lon="0.8812">
        <ele>448</ele>
        <time>2012-08-12T07:56:13.000Z</time>
      </trkpt>
      <trkpt lat="43.22758" lon="0.88123">
        <ele>451</ele>
        <time>2012-08-12T07:56:27.000Z</time>
      </trkpt>
      <trkpt lat="43.22763" lon="0.88125">
        <ele>451</ele>
        <time>2012-08-12T07:56:30.000Z</time>
      </trkpt>
      <trkpt lat="43.22766" lon="0.88129">
        <ele>451</ele>
        <time>2012-08-12T07:56:33.000Z</time>
      </trkpt>
      <trkpt lat="43.2277" lon="0.88135">
        <ele>452</ele>
        <time>2012-08-12T07:56:37.000Z</time>
      </trkpt>
      <trkpt lat="43.22774" lon="0.8814">
        <ele>452</ele>
        <time>2012-08-12T07:56:39.000Z</time>
      </trkpt>
      <trkpt lat="43.22778" lon="0.88148">
        <ele>449</ele>
        <time>2012-08-12T07:56:41.000Z</time>
      </trkpt>
      <trkpt lat="43.22782" lon="0.88152">
        <ele>448</ele>
        <time>2012-08-12T07:56:43.000Z</time>
      </trkpt>
      <trkpt lat="43.22785" lon="0.88156">
        <ele>448</ele>
        <time>2012-08-12T07:56:45.000Z</time>
      </trkpt>
      <trkpt lat="43.22788" lon="0.8816">
        <ele>448</ele>
        <time>2012-08-12T07:56:47.000Z</time>
      </trkpt>
      <trkpt lat="43.22791" lon="0.88168">
        <ele>448</ele>
        <time>2012-08-12T07:56:50.000Z</time>
      </trkpt>
      <trkpt lat="43.2279" lon="0.88177">
        <ele>449</ele>
        <time>2012-08-12T07:56:53.000Z</time>
      </trkpt>
      <trkpt lat="43.2279" lon="0.88186">
        <ele>450</ele>
        <time>2012-08-12T07:56:56.000Z</time>
      </trkpt>
      <trkpt lat="43.2279" lon="0.88194">
        <ele>449</ele>
        <time>2012-08-12T07:56:59.000Z</time>
      </trkpt>
      <trkpt lat="43.22791" lon="0.88202">
        <ele>450</ele>
        <time>2012-08-12T07:57:02.000Z</time>
      </trkpt>
      <trkpt lat="43.22791" lon="0.88209">
        <ele>450</ele>
        <time>2012-08-12T07:57:05.000Z</time>
      </trkpt>
      <trkpt lat="43.22791" lon="0.88216">
        <ele>452</ele>
        <time>2012-08-12T07:57:08.000Z</time>
      </trkpt>
      <trkpt lat="43.22791" lon="0.88224">
        <ele>451</ele>
        <time>2012-08-12T07:57:12.000Z</time>
      </trkpt>
      <trkpt lat="43.2279" lon="0.88232">
        <ele>454</ele>
        <time>2012-08-12T07:57:16.000Z</time>
      </trkpt>
      <trkpt lat="43.22786" lon="0.88237">
        <ele>455</ele>
        <time>2012-08-12T07:57:19.000Z</time>
      </trkpt>
      <trkpt lat="43.22783" lon="0.88242">
        <ele>455</ele>
        <time>2012-08-12T07:57:23.000Z</time>
      </trkpt>
      <trkpt lat="43.22779" lon="0.88248">
        <ele>456</ele>
        <time>2012-08-12T07:57:27.000Z</time>
      </trkpt>
      <trkpt lat="43.2278" lon="0.88258">
        <ele>458</ele>
        <time>2012-08-12T07:57:32.000Z</time>
      </trkpt>
      <trkpt lat="43.22779" lon="0.88267">
        <ele>458</ele>
        <time>2012-08-12T07:57:35.000Z</time>
      </trkpt>
      <trkpt lat="43.22779" lon="0.88275">
        <ele>459</ele>
        <time>2012-08-12T07:57:38.000Z</time>
      </trkpt>
      <trkpt lat="43.22779" lon="0.88282">
        <ele>460</ele>
        <time>2012-08-12T07:57:41.000Z</time>
      </trkpt>
      <trkpt lat="43.22779" lon="0.8829">
        <ele>460</ele>
        <time>2012-08-12T07:57:44.000Z</time>
      </trkpt>
      <trkpt lat="43.22781" lon="0.88296">
        <ele>460</ele>
        <time>2012-08-12T07:57:46.000Z</time>
      </trkpt>
      <trkpt lat="43.22782" lon="0.88302">
        <ele>461</ele>
        <time>2012-08-12T07:57:49.000Z</time>
      </trkpt>
      <trkpt lat="43.22784" lon="0.88309">
        <ele>460</ele>
        <time>2012-08-12T07:57:52.000Z</time>
      </trkpt>
      <trkpt lat="43.22785" lon="0.88315">
        <ele>460</ele>
        <time>2012-08-12T07:57:55.000Z</time>
      </trkpt>
      <trkpt lat="43.22788" lon="0.88321">
        <ele>461</ele>
        <time>2012-08-12T07:57:57.000Z</time>
      </trkpt>
      <trkpt lat="43.2279" lon="0.88328">
        <ele>462</ele>
        <time>2012-08-12T07:58:00.000Z</time>
      </trkpt>
      <trkpt lat="43.22791" lon="0.88335">
        <ele>464</ele>
        <time>2012-08-12T07:58:03.000Z</time>
      </trkpt>
      <trkpt lat="43.22793" lon="0.88342">
        <ele>465</ele>
        <time>2012-08-12T07:58:06.000Z</time>
      </trkpt>
      <trkpt lat="43.22794" lon="0.88348">
        <ele>465</ele>
        <time>2012-08-12T07:58:09.000Z</time>
      </trkpt>
      <trkpt lat="43.22795" lon="0.88354">
        <ele>467</ele>
        <time>2012-08-12T07:58:12.000Z</time>
      </trkpt>
      <trkpt lat="43.22794" lon="0.88361">
        <ele>467</ele>
        <time>2012-08-12T07:58:16.000Z</time>
      </trkpt>
      <trkpt lat="43.22794" lon="0.88369">
        <ele>469</ele>
        <time>2012-08-12T07:58:19.000Z</time>
      </trkpt>
      <trkpt lat="43.22794" lon="0.88378">
        <ele>470</ele>
        <time>2012-08-12T07:58:22.000Z</time>
      </trkpt>
      <trkpt lat="43.22795" lon="0.88386">
        <ele>469</ele>
        <time>2012-08-12T07:58:25.000Z</time>
      </trkpt>
      <trkpt lat="43.22797" lon="0.88393">
        <ele>469</ele>
        <time>2012-08-12T07:58:27.000Z</time>
      </trkpt>
      <trkpt lat="43.22798" lon="0.884">
        <ele>470</ele>
        <time>2012-08-12T07:58:30.000Z</time>
      </trkpt>
      <trkpt lat="43.228" lon="0.88407">
        <ele>471</ele>
        <time>2012-08-12T07:58:33.000Z</time>
      </trkpt>
      <trkpt lat="43.22803" lon="0.88414">
        <ele>472</ele>
        <time>2012-08-12T07:58:36.000Z</time>
      </trkpt>
      <trkpt lat="43.22805" lon="0.88423">
        <ele>473</ele>
        <time>2012-08-12T07:58:39.000Z</time>
      </trkpt>
      <trkpt lat="43.22806" lon="0.88429">
        <ele>472</ele>
        <time>2012-08-12T07:58:41.000Z</time>
      </trkpt>
      <trkpt lat="43.22807" lon="0.88435">
        <ele>471</ele>
        <time>2012-08-12T07:58:43.000Z</time>
      </trkpt>
      <trkpt lat="43.22808" lon="0.88442">
        <ele>471</ele>
        <time>2012-08-12T07:58:46.000Z</time>
      </trkpt>
      <trkpt lat="43.2281" lon="0.88448">
        <ele>472</ele>
        <time>2012-08-12T07:58:49.000Z</time>
      </trkpt>
      <trkpt lat="43.22813" lon="0.88454">
        <ele>473</ele>
        <time>2012-08-12T07:58:53.000Z</time>
      </trkpt>
      <trkpt lat="43.22818" lon="0.88459">
        <ele>476</ele>
        <time>2012-08-12T07:58:57.000Z</time>
      </trkpt>
      <trkpt lat="43.22823" lon="0.88462">
        <ele>477</ele>
        <time>2012-08-12T07:59:00.000Z</time>
      </trkpt>
      <trkpt lat="43.22826" lon="0.88468">
        <ele>478</ele>
        <time>2012-08-12T07:59:02.000Z</time>
      </trkpt>
      <trkpt lat="43.22828" lon="0.88473">
        <ele>479</ele>
        <time>2012-08-12T07:59:04.000Z</time>
      </trkpt>
      <trkpt lat="43.22832" lon="0.88479">
        <ele>479</ele>
        <time>2012-08-12T07:59:11.000Z</time>
      </trkpt>
      <trkpt lat="43.22836" lon="0.88486">
        <ele>482</ele>
        <time>2012-08-12T07:59:13.000Z</time>
      </trkpt>
      <trkpt lat="43.2284" lon="0.8849">
        <ele>483</ele>
        <time>2012-08-12T07:59:16.000Z</time>
      </trkpt>
      <trkpt lat="43.22845" lon="0.88494">
        <ele>485</ele>
        <time>2012-08-12T07:59:18.000Z</time>
      </trkpt>
      <trkpt lat="43.22849" lon="0.88496">
        <ele>487</ele>
        <time>2012-08-12T07:59:20.000Z</time>
      </trkpt>
      <trkpt lat="43.22856" lon="0.88499">
        <ele>489</ele>
        <time>2012-08-12T07:59:22.000Z</time>
      </trkpt>
      <trkpt lat="43.22862" lon="0.88503">
        <ele>489</ele>
        <time>2012-08-12T07:59:24.000Z</time>
      </trkpt>
      <trkpt lat="43.22867" lon="0.88507">
        <ele>488</ele>
        <time>2012-08-12T07:59:26.000Z</time>
      </trkpt>
      <trkpt lat="43.22872" lon="0.88511">
        <ele>488</ele>
        <time>2012-08-12T07:59:28.000Z</time>
      </trkpt>
      <trkpt lat="43.22876" lon="0.88516">
        <ele>488</ele>
        <time>2012-08-12T07:59:30.000Z</time>
      </trkpt>
      <trkpt lat="43.22881" lon="0.88518">
        <ele>487</ele>
        <time>2012-08-12T07:59:32.000Z</time>
      </trkpt>
      <trkpt lat="43.22886" lon="0.88521">
        <ele>487</ele>
        <time>2012-08-12T07:59:34.000Z</time>
      </trkpt>
      <trkpt lat="43.22891" lon="0.88526">
        <ele>487</ele>
        <time>2012-08-12T07:59:36.000Z</time>
      </trkpt>
      <trkpt lat="43.22897" lon="0.88532">
        <ele>487</ele>
        <time>2012-08-12T07:59:38.000Z</time>
      </trkpt>
      <trkpt lat="43.22902" lon="0.88538">
        <ele>486</ele>
        <time>2012-08-12T07:59:40.000Z</time>
      </trkpt>
      <trkpt lat="43.22907" lon="0.88542">
        <ele>486</ele>
        <time>2012-08-12T07:59:42.000Z</time>
      </trkpt>
      <trkpt lat="43.22912" lon="0.88545">
        <ele>487</ele>
        <time>2012-08-12T07:59:44.000Z</time>
      </trkpt>
      <trkpt lat="43.22918" lon="0.88548">
        <ele>486</ele>
        <time>2012-08-12T07:59:46.000Z</time>
      </trkpt>
      <trkpt lat="43.22923" lon="0.88552">
        <ele>485</ele>
        <time>2012-08-12T07:59:48.000Z</time>
      </trkpt>
      <trkpt lat="43.22926" lon="0.88557">
        <ele>486</ele>
        <time>2012-08-12T07:59:50.000Z</time>
      </trkpt>
      <trkpt lat="43.2293" lon="0.88562">
        <ele>485</ele>
        <time>2012-08-12T07:59:52.000Z</time>
      </trkpt>
      <trkpt lat="43.22933" lon="0.88568">
        <ele>486</ele>
        <time>2012-08-12T07:59:55.000Z</time>
      </trkpt>
      <trkpt lat="43.22935" lon="0.88574">
        <ele>487</ele>
        <time>2012-08-12T07:59:57.000Z</time>
      </trkpt>
      <trkpt lat="43.22937" lon="0.88582">
        <ele>487</ele>
        <time>2012-08-12T08:00:00.000Z</time>
      </trkpt>
      <trkpt lat="43.22937" lon="0.88591">
        <ele>489</ele>
        <time>2012-08-12T08:00:04.000Z</time>
      </trkpt>
      <trkpt lat="43.22936" lon="0.88601">
        <ele>490</ele>
        <time>2012-08-12T08:00:07.000Z</time>
      </trkpt>
      <trkpt lat="43.22934" lon="0.88608">
        <ele>490</ele>
        <time>2012-08-12T08:00:09.000Z</time>
      </trkpt>
      <trkpt lat="43.22932" lon="0.88614">
        <ele>491</ele>
        <time>2012-08-12T08:00:12.000Z</time>
      </trkpt>
      <trkpt lat="43.2293" lon="0.8862">
        <ele>491</ele>
        <time>2012-08-12T08:00:14.000Z</time>
      </trkpt>
      <trkpt lat="43.22927" lon="0.88627">
        <ele>492</ele>
        <time>2012-08-12T08:00:17.000Z</time>
      </trkpt>
      <trkpt lat="43.22924" lon="0.88633">
        <ele>493</ele>
        <time>2012-08-12T08:00:19.000Z</time>
      </trkpt>
      <trkpt lat="43.2292" lon="0.88639">
        <ele>494</ele>
        <time>2012-08-12T08:00:22.000Z</time>
      </trkpt>
      <trkpt lat="43.22917" lon="0.88645">
        <ele>495</ele>
        <time>2012-08-12T08:00:24.000Z</time>
      </trkpt>
      <trkpt lat="43.22914" lon="0.88652">
        <ele>496</ele>
        <time>2012-08-12T08:00:26.000Z</time>
      </trkpt>
      <trkpt lat="43.22911" lon="0.88658">
        <ele>498</ele>
        <time>2012-08-12T08:00:28.000Z</time>
      </trkpt>
      <trkpt lat="43.22908" lon="0.88666">
        <ele>500</ele>
        <time>2012-08-12T08:00:31.000Z</time>
      </trkpt>
      <trkpt lat="43.22907" lon="0.88675">
        <ele>501</ele>
        <time>2012-08-12T08:00:34.000Z</time>
      </trkpt>
      <trkpt lat="43.22907" lon="0.88685">
        <ele>499</ele>
        <time>2012-08-12T08:00:36.000Z</time>
      </trkpt>
      <trkpt lat="43.22905" lon="0.88693">
        <ele>498</ele>
        <time>2012-08-12T08:00:40.000Z</time>
      </trkpt>
      <trkpt lat="43.22903" lon="0.887">
        <ele>499</ele>
        <time>2012-08-12T08:00:43.000Z</time>
      </trkpt>
      <trkpt lat="43.22901" lon="0.88709">
        <ele>500</ele>
        <time>2012-08-12T08:00:46.000Z</time>
      </trkpt>
      <trkpt lat="43.229" lon="0.88716">
        <ele>500</ele>
        <time>2012-08-12T08:00:48.000Z</time>
      </trkpt>
      <trkpt lat="43.22897" lon="0.88722">
        <ele>501</ele>
        <time>2012-08-12T08:00:50.000Z</time>
      </trkpt>
      <trkpt lat="43.22895" lon="0.88728">
        <ele>502</ele>
        <time>2012-08-12T08:00:53.000Z</time>
      </trkpt>
      <trkpt lat="43.22892" lon="0.88738">
        <ele>503</ele>
        <time>2012-08-12T08:00:56.000Z</time>
      </trkpt>
      <trkpt lat="43.2289" lon="0.88745">
        <ele>504</ele>
        <time>2012-08-12T08:00:58.000Z</time>
      </trkpt>
      <trkpt lat="43.22887" lon="0.8875">
        <ele>505</ele>
        <time>2012-08-12T08:01:00.000Z</time>
      </trkpt>
      <trkpt lat="43.22885" lon="0.88756">
        <ele>505</ele>
        <time>2012-08-12T08:01:02.000Z</time>
      </trkpt>
      <trkpt lat="43.22881" lon="0.88763">
        <ele>508</ele>
        <time>2012-08-12T08:01:06.000Z</time>
      </trkpt>
      <trkpt lat="43.2288" lon="0.88771">
        <ele>507</ele>
        <time>2012-08-12T08:01:09.000Z</time>
      </trkpt>
      <trkpt lat="43.22882" lon="0.88777">
        <ele>505</ele>
        <time>2012-08-12T08:01:12.000Z</time>
      </trkpt>
      <trkpt lat="43.22885" lon="0.88783">
        <ele>505</ele>
        <time>2012-08-12T08:01:16.000Z</time>
      </trkpt>
      <trkpt lat="43.2289" lon="0.88789">
        <ele>506</ele>
        <time>2012-08-12T08:01:20.000Z</time>
      </trkpt>
      <trkpt lat="43.22893" lon="0.88795">
        <ele>505</ele>
        <time>2012-08-12T08:01:24.000Z</time>
      </trkpt>
      <trkpt lat="43.22895" lon="0.888">
        <ele>505</ele>
        <time>2012-08-12T08:01:27.000Z</time>
      </trkpt>
      <trkpt lat="43.22897" lon="0.88807">
        <ele>505</ele>
        <time>2012-08-12T08:01:30.000Z</time>
      </trkpt>
      <trkpt lat="43.22899" lon="0.88814">
        <ele>504</ele>
        <time>2012-08-12T08:01:32.000Z</time>
      </trkpt>
      <trkpt lat="43.22901" lon="0.88823">
        <ele>504</ele>
        <time>2012-08-12T08:01:34.000Z</time>
      </trkpt>
      <trkpt lat="43.22904" lon="0.8883">
        <ele>505</ele>
        <time>2012-08-12T08:01:36.000Z</time>
      </trkpt>
      <trkpt lat="43.2291" lon="0.8884">
        <ele>505</ele>
        <time>2012-08-12T08:01:38.000Z</time>
      </trkpt>
      <trkpt lat="43.22916" lon="0.88848">
        <ele>503</ele>
        <time>2012-08-12T08:01:40.000Z</time>
      </trkpt>
      <trkpt lat="43.22923" lon="0.88855">
        <ele>502</ele>
        <time>2012-08-12T08:01:42.000Z</time>
      </trkpt>
      <trkpt lat="43.22926" lon="0.88859">
        <ele>502</ele>
        <time>2012-08-12T08:01:43.000Z</time>
      </trkpt>
      <trkpt lat="43.22931" lon="0.88867">
        <ele>502</ele>
        <time>2012-08-12T08:01:45.000Z</time>
      </trkpt>
      <trkpt lat="43.22935" lon="0.88874">
        <ele>501</ele>
        <time>2012-08-12T08:01:47.000Z</time>
      </trkpt>
      <trkpt lat="43.2294" lon="0.88879">
        <ele>501</ele>
        <time>2012-08-12T08:01:48.000Z</time>
      </trkpt>
      <trkpt lat="43.22948" lon="0.88886">
        <ele>501</ele>
        <time>2012-08-12T08:01:50.000Z</time>
      </trkpt>
      <trkpt lat="43.22952" lon="0.8889">
        <ele>501</ele>
        <time>2012-08-12T08:01:51.000Z</time>
      </trkpt>
      <trkpt lat="43.22955" lon="0.88895">
        <ele>501</ele>
        <time>2012-08-12T08:01:52.000Z</time>
      </trkpt>
      <trkpt lat="43.22959" lon="0.88899">
        <ele>501</ele>
        <time>2012-08-12T08:01:53.000Z</time>
      </trkpt>
      <trkpt lat="43.22962" lon="0.88903">
        <ele>500</ele>
        <time>2012-08-12T08:01:54.000Z</time>
      </trkpt>
      <trkpt lat="43.22966" lon="0.8891">
        <ele>499</ele>
        <time>2012-08-12T08:01:56.000Z</time>
      </trkpt>
      <trkpt lat="43.2297" lon="0.88915">
        <ele>498</ele>
        <time>2012-08-12T08:01:58.000Z</time>
      </trkpt>
      <trkpt lat="43.22975" lon="0.88921">
        <ele>497</ele>
        <time>2012-08-12T08:02:00.000Z</time>
      </trkpt>
      <trkpt lat="43.2298" lon="0.88925">
        <ele>496</ele>
        <time>2012-08-12T08:02:03.000Z</time>
      </trkpt>
      <trkpt lat="43.22974" lon="0.88925">
        <ele>500</ele>
        <time>2012-08-12T08:02:56.000Z</time>
      </trkpt>
      <trkpt lat="43.22969" lon="0.88927">
        <ele>503</ele>
        <time>2012-08-12T08:03:00.000Z</time>
      </trkpt>
      <trkpt lat="43.22963" lon="0.88925">
        <ele>502</ele>
        <time>2012-08-12T08:03:03.000Z</time>
      </trkpt>
      <trkpt lat="43.22958" lon="0.8893">
        <ele>503</ele>
        <time>2012-08-12T08:03:07.000Z</time>
      </trkpt>
      <trkpt lat="43.22955" lon="0.88936">
        <ele>501</ele>
        <time>2012-08-12T08:03:11.000Z</time>
      </trkpt>
      <trkpt lat="43.22951" lon="0.8894">
        <ele>502</ele>
        <time>2012-08-12T08:03:14.000Z</time>
      </trkpt>
      <trkpt lat="43.22947" lon="0.88945">
        <ele>503</ele>
        <time>2012-08-12T08:03:17.000Z</time>
      </trkpt>
      <trkpt lat="43.22945" lon="0.8895">
        <ele>505</ele>
        <time>2012-08-12T08:03:20.000Z</time>
      </trkpt>
      <trkpt lat="43.22942" lon="0.88956">
        <ele>504</ele>
        <time>2012-08-12T08:03:23.000Z</time>
      </trkpt>
      <trkpt lat="43.2294" lon="0.88962">
        <ele>505</ele>
        <time>2012-08-12T08:03:26.000Z</time>
      </trkpt>
      <trkpt lat="43.22946" lon="0.88959">
        <ele>502</ele>
        <time>2012-08-12T08:03:49.000Z</time>
      </trkpt>
      <trkpt lat="43.22947" lon="0.88953">
        <ele>502</ele>
        <time>2012-08-12T08:03:51.000Z</time>
      </trkpt>
      <trkpt lat="43.2295" lon="0.88947">
        <ele>502</ele>
        <time>2012-08-12T08:03:53.000Z</time>
      </trkpt>
      <trkpt lat="43.22955" lon="0.8894">
        <ele>501</ele>
        <time>2012-08-12T08:03:55.000Z</time>
      </trkpt>
      <trkpt lat="43.22959" lon="0.88933">
        <ele>500</ele>
        <time>2012-08-12T08:03:57.000Z</time>
      </trkpt>
      <trkpt lat="43.22963" lon="0.8893">
        <ele>498</ele>
        <time>2012-08-12T08:03:59.000Z</time>
      </trkpt>
      <trkpt lat="43.22968" lon="0.88926">
        <ele>497</ele>
        <time>2012-08-12T08:04:01.000Z</time>
      </trkpt>
      <trkpt lat="43.22974" lon="0.88925">
        <ele>496</ele>
        <time>2012-08-12T08:04:04.000Z</time>
      </trkpt>
      <trkpt lat="43.22978" lon="0.88925">
        <ele>496</ele>
        <time>2012-08-12T08:04:08.000Z</time>
      </trkpt>
      <trkpt lat="43.22982" lon="0.88929">
        <ele>497</ele>
        <time>2012-08-12T08:04:11.000Z</time>
      </trkpt>
      <trkpt lat="43.22985" lon="0.88934">
        <ele>497</ele>
        <time>2012-08-12T08:04:15.000Z</time>
      </trkpt>
      <trkpt lat="43.22991" lon="0.88936">
        <ele>497</ele>
        <time>2012-08-12T08:04:19.000Z</time>
      </trkpt>
      <trkpt lat="43.22995" lon="0.8894">
        <ele>497</ele>
        <time>2012-08-12T08:04:23.000Z</time>
      </trkpt>
      <trkpt lat="43.22998" lon="0.88945">
        <ele>497</ele>
        <time>2012-08-12T08:04:25.000Z</time>
      </trkpt>
      <trkpt lat="43.23002" lon="0.88948">
        <ele>497</ele>
        <time>2012-08-12T08:04:27.000Z</time>
      </trkpt>
      <trkpt lat="43.23006" lon="0.88954">
        <ele>498</ele>
        <time>2012-08-12T08:04:29.000Z</time>
      </trkpt>
      <trkpt lat="43.23011" lon="0.8896">
        <ele>497</ele>
        <time>2012-08-12T08:04:31.000Z</time>
      </trkpt>
      <trkpt lat="43.23016" lon="0.88965">
        <ele>496</ele>
        <time>2012-08-12T08:04:33.000Z</time>
      </trkpt>
      <trkpt lat="43.2302" lon="0.8897">
        <ele>496</ele>
        <time>2012-08-12T08:04:34.000Z</time>
      </trkpt>
      <trkpt lat="43.23024" lon="0.88975">
        <ele>495</ele>
        <time>2012-08-12T08:04:35.000Z</time>
      </trkpt>
      <trkpt lat="43.23028" lon="0.88979">
        <ele>495</ele>
        <time>2012-08-12T08:04:36.000Z</time>
      </trkpt>
      <trkpt lat="43.23036" lon="0.88986">
        <ele>493</ele>
        <time>2012-08-12T08:04:38.000Z</time>
      </trkpt>
      <trkpt lat="43.23044" lon="0.88991">
        <ele>492</ele>
        <time>2012-08-12T08:04:40.000Z</time>
      </trkpt>
      <trkpt lat="43.23049" lon="0.88992">
        <ele>492</ele>
        <time>2012-08-12T08:04:41.000Z</time>
      </trkpt>
      <trkpt lat="43.23054" lon="0.88994">
        <ele>491</ele>
        <time>2012-08-12T08:04:42.000Z</time>
      </trkpt>
      <trkpt lat="43.23058" lon="0.88994">
        <ele>491</ele>
        <time>2012-08-12T08:04:43.000Z</time>
      </trkpt>
      <trkpt lat="43.23064" lon="0.88998">
        <ele>490</ele>
        <time>2012-08-12T08:04:44.000Z</time>
      </trkpt>
      <trkpt lat="43.23069" lon="0.89001">
        <ele>490</ele>
        <time>2012-08-12T08:04:45.000Z</time>
      </trkpt>
      <trkpt lat="43.23073" lon="0.89004">
        <ele>490</ele>
        <time>2012-08-12T08:04:46.000Z</time>
      </trkpt>
      <trkpt lat="43.23077" lon="0.89007">
        <ele>490</ele>
        <time>2012-08-12T08:04:47.000Z</time>
      </trkpt>
      <trkpt lat="43.23085" lon="0.89016">
        <ele>490</ele>
        <time>2012-08-12T08:04:49.000Z</time>
      </trkpt>
      <trkpt lat="43.23086" lon="0.89022">
        <ele>492</ele>
        <time>2012-08-12T08:04:51.000Z</time>
      </trkpt>
      <trkpt lat="43.23085" lon="0.89032">
        <ele>493</ele>
        <time>2012-08-12T08:04:53.000Z</time>
      </trkpt>
      <trkpt lat="43.23082" lon="0.8904">
        <ele>494</ele>
        <time>2012-08-12T08:04:55.000Z</time>
      </trkpt>
      <trkpt lat="43.2308" lon="0.89046">
        <ele>494</ele>
        <time>2012-08-12T08:04:57.000Z</time>
      </trkpt>
      <trkpt lat="43.23077" lon="0.89052">
        <ele>495</ele>
        <time>2012-08-12T08:04:59.000Z</time>
      </trkpt>
      <trkpt lat="43.23073" lon="0.89058">
        <ele>495</ele>
        <time>2012-08-12T08:05:01.000Z</time>
      </trkpt>
      <trkpt lat="43.23068" lon="0.89068">
        <ele>496</ele>
        <time>2012-08-12T08:05:03.000Z</time>
      </trkpt>
      <trkpt lat="43.23064" lon="0.89074">
        <ele>497</ele>
        <time>2012-08-12T08:05:05.000Z</time>
      </trkpt>
      <trkpt lat="43.23061" lon="0.89084">
        <ele>498</ele>
        <time>2012-08-12T08:05:07.000Z</time>
      </trkpt>
      <trkpt lat="43.23057" lon="0.89093">
        <ele>499</ele>
        <time>2012-08-12T08:05:09.000Z</time>
      </trkpt>
      <trkpt lat="43.2305" lon="0.891">
        <ele>500</ele>
        <time>2012-08-12T08:05:11.000Z</time>
      </trkpt>
      <trkpt lat="43.23047" lon="0.89104">
        <ele>499</ele>
        <time>2012-08-12T08:05:12.000Z</time>
      </trkpt>
      <trkpt lat="43.2304" lon="0.89112">
        <ele>500</ele>
        <time>2012-08-12T08:05:14.000Z</time>
      </trkpt>
      <trkpt lat="43.23032" lon="0.89117">
        <ele>501</ele>
        <time>2012-08-12T08:05:16.000Z</time>
      </trkpt>
      <trkpt lat="43.23025" lon="0.89121">
        <ele>500</ele>
        <time>2012-08-12T08:05:18.000Z</time>
      </trkpt>
      <trkpt lat="43.23019" lon="0.89124">
        <ele>501</ele>
        <time>2012-08-12T08:05:20.000Z</time>
      </trkpt>
      <trkpt lat="43.23012" lon="0.89129">
        <ele>500</ele>
        <time>2012-08-12T08:05:22.000Z</time>
      </trkpt>
      <trkpt lat="43.23011" lon="0.89135">
        <ele>499</ele>
        <time>2012-08-12T08:05:24.000Z</time>
      </trkpt>
      <trkpt lat="43.23007" lon="0.89142">
        <ele>496</ele>
        <time>2012-08-12T08:05:27.000Z</time>
      </trkpt>
      <trkpt lat="43.23003" lon="0.89145">
        <ele>495</ele>
        <time>2012-08-12T08:05:30.000Z</time>
      </trkpt>
      <trkpt lat="43.22997" lon="0.89145">
        <ele>495</ele>
        <time>2012-08-12T08:05:34.000Z</time>
      </trkpt>
      <trkpt lat="43.22992" lon="0.89146">
        <ele>495</ele>
        <time>2012-08-12T08:05:38.000Z</time>
      </trkpt>
      <trkpt lat="43.22986" lon="0.89146">
        <ele>495</ele>
        <time>2012-08-12T08:05:42.000Z</time>
      </trkpt>
      <trkpt lat="43.2298" lon="0.89146">
        <ele>496</ele>
        <time>2012-08-12T08:05:46.000Z</time>
      </trkpt>
      <trkpt lat="43.22974" lon="0.89146">
        <ele>495</ele>
        <time>2012-08-12T08:05:49.000Z</time>
      </trkpt>
      <trkpt lat="43.22969" lon="0.89145">
        <ele>494</ele>
        <time>2012-08-12T08:05:51.000Z</time>
      </trkpt>
      <trkpt lat="43.22962" lon="0.89143">
        <ele>495</ele>
        <time>2012-08-12T08:05:54.000Z</time>
      </trkpt>
      <trkpt lat="43.22958" lon="0.89143">
        <ele>496</ele>
        <time>2012-08-12T08:05:56.000Z</time>
      </trkpt>
      <trkpt lat="43.22952" lon="0.89143">
        <ele>496</ele>
        <time>2012-08-12T08:05:58.000Z</time>
      </trkpt>
      <trkpt lat="43.22946" lon="0.89142">
        <ele>496</ele>
        <time>2012-08-12T08:06:01.000Z</time>
      </trkpt>
      <trkpt lat="43.2294" lon="0.89142">
        <ele>496</ele>
        <time>2012-08-12T08:06:03.000Z</time>
      </trkpt>
      <trkpt lat="43.22934" lon="0.89139">
        <ele>497</ele>
        <time>2012-08-12T08:06:06.000Z</time>
      </trkpt>
      <trkpt lat="43.22929" lon="0.89139">
        <ele>497</ele>
        <time>2012-08-12T08:06:09.000Z</time>
      </trkpt>
      <trkpt lat="43.22924" lon="0.89138">
        <ele>497</ele>
        <time>2012-08-12T08:06:11.000Z</time>
      </trkpt>
      <trkpt lat="43.22917" lon="0.89137">
        <ele>497</ele>
        <time>2012-08-12T08:06:13.000Z</time>
      </trkpt>
      <trkpt lat="43.22912" lon="0.89137">
        <ele>497</ele>
        <time>2012-08-12T08:06:14.000Z</time>
      </trkpt>
      <trkpt lat="43.22908" lon="0.89137">
        <ele>497</ele>
        <time>2012-08-12T08:06:16.000Z</time>
      </trkpt>
      <trkpt lat="43.22903" lon="0.89136">
        <ele>498</ele>
        <time>2012-08-12T08:06:18.000Z</time>
      </trkpt>
      <trkpt lat="43.22897" lon="0.89135">
        <ele>498</ele>
        <time>2012-08-12T08:06:20.000Z</time>
      </trkpt>
      <trkpt lat="43.22891" lon="0.89134">
        <ele>498</ele>
        <time>2012-08-12T08:06:22.000Z</time>
      </trkpt>
      <trkpt lat="43.22886" lon="0.89134">
        <ele>499</ele>
        <time>2012-08-12T08:06:24.000Z</time>
      </trkpt>
      <trkpt lat="43.2288" lon="0.89131">
        <ele>497</ele>
        <time>2012-08-12T08:06:27.000Z</time>
      </trkpt>
      <trkpt lat="43.22875" lon="0.89129">
        <ele>497</ele>
        <time>2012-08-12T08:06:30.000Z</time>
      </trkpt>
      <trkpt lat="43.22869" lon="0.89129">
        <ele>499</ele>
        <time>2012-08-12T08:06:34.000Z</time>
      </trkpt>
      <trkpt lat="43.22871" lon="0.89123">
        <ele>505</ele>
        <time>2012-08-12T08:06:43.000Z</time>
      </trkpt>
      <trkpt lat="43.22875" lon="0.89118">
        <ele>508</ele>
        <time>2012-08-12T08:06:47.000Z</time>
      </trkpt>
      <trkpt lat="43.22879" lon="0.89113">
        <ele>508</ele>
        <time>2012-08-12T08:06:50.000Z</time>
      </trkpt>
      <trkpt lat="43.22882" lon="0.89106">
        <ele>507</ele>
        <time>2012-08-12T08:06:53.000Z</time>
      </trkpt>
      <trkpt lat="43.22885" lon="0.891">
        <ele>506</ele>
        <time>2012-08-12T08:06:56.000Z</time>
      </trkpt>
      <trkpt lat="43.22888" lon="0.89093">
        <ele>507</ele>
        <time>2012-08-12T08:06:59.000Z</time>
      </trkpt>
      <trkpt lat="43.2289" lon="0.89087">
        <ele>507</ele>
        <time>2012-08-12T08:07:00.000Z</time>
      </trkpt>
      <trkpt lat="43.22893" lon="0.89079">
        <ele>507</ele>
        <time>2012-08-12T08:07:02.000Z</time>
      </trkpt>
      <trkpt lat="43.22895" lon="0.89073">
        <ele>507</ele>
        <time>2012-08-12T08:07:04.000Z</time>
      </trkpt>
      <trkpt lat="43.22897" lon="0.89067">
        <ele>508</ele>
        <time>2012-08-12T08:07:06.000Z</time>
      </trkpt>
      <trkpt lat="43.22897" lon="0.8906">
        <ele>507</ele>
        <time>2012-08-12T08:07:08.000Z</time>
      </trkpt>
      <trkpt lat="43.22898" lon="0.89052">
        <ele>507</ele>
        <time>2012-08-12T08:07:10.000Z</time>
      </trkpt>
      <trkpt lat="43.22899" lon="0.89046">
        <ele>507</ele>
        <time>2012-08-12T08:07:12.000Z</time>
      </trkpt>
      <trkpt lat="43.22901" lon="0.8904">
        <ele>507</ele>
        <time>2012-08-12T08:07:14.000Z</time>
      </trkpt>
      <trkpt lat="43.22902" lon="0.89033">
        <ele>507</ele>
        <time>2012-08-12T08:07:16.000Z</time>
      </trkpt>
      <trkpt lat="43.22906" lon="0.89028">
        <ele>506</ele>
        <time>2012-08-12T08:07:18.000Z</time>
      </trkpt>
      <trkpt lat="43.2291" lon="0.89022">
        <ele>505</ele>
        <time>2012-08-12T08:07:20.000Z</time>
      </trkpt>
      <trkpt lat="43.22914" lon="0.89017">
        <ele>506</ele>
        <time>2012-08-12T08:07:22.000Z</time>
      </trkpt>
      <trkpt lat="43.22916" lon="0.8901">
        <ele>505</ele>
        <time>2012-08-12T08:07:24.000Z</time>
      </trkpt>
      <trkpt lat="43.22918" lon="0.89003">
        <ele>505</ele>
        <time>2012-08-12T08:07:26.000Z</time>
      </trkpt>
      <trkpt lat="43.22921" lon="0.88997">
        <ele>503</ele>
        <time>2012-08-12T08:07:28.000Z</time>
      </trkpt>
      <trkpt lat="43.22924" lon="0.8899">
        <ele>503</ele>
        <time>2012-08-12T08:07:30.000Z</time>
      </trkpt>
      <trkpt lat="43.22925" lon="0.88984">
        <ele>503</ele>
        <time>2012-08-12T08:07:32.000Z</time>
      </trkpt>
      <trkpt lat="43.2293" lon="0.88977">
        <ele>502</ele>
        <time>2012-08-12T08:07:35.000Z</time>
      </trkpt>
      <trkpt lat="43.22936" lon="0.88974">
        <ele>502</ele>
        <time>2012-08-12T08:07:37.000Z</time>
      </trkpt>
      <trkpt lat="43.22941" lon="0.88969">
        <ele>502</ele>
        <time>2012-08-12T08:07:39.000Z</time>
      </trkpt>
      <trkpt lat="43.22946" lon="0.88964">
        <ele>501</ele>
        <time>2012-08-12T08:07:41.000Z</time>
      </trkpt>
      <trkpt lat="43.22951" lon="0.88956">
        <ele>501</ele>
        <time>2012-08-12T08:07:43.000Z</time>
      </trkpt>
      <trkpt lat="43.22956" lon="0.8895">
        <ele>501</ele>
        <time>2012-08-12T08:07:45.000Z</time>
      </trkpt>
      <trkpt lat="43.22959" lon="0.88944">
        <ele>500</ele>
        <time>2012-08-12T08:07:47.000Z</time>
      </trkpt>
      <trkpt lat="43.22962" lon="0.88938">
        <ele>499</ele>
        <time>2012-08-12T08:07:49.000Z</time>
      </trkpt>
      <trkpt lat="43.22967" lon="0.88936">
        <ele>499</ele>
        <time>2012-08-12T08:07:51.000Z</time>
      </trkpt>
      <trkpt lat="43.22972" lon="0.88932">
        <ele>500</ele>
        <time>2012-08-12T08:07:54.000Z</time>
      </trkpt>
      <trkpt lat="43.22975" lon="0.88929">
        <ele>500</ele>
        <time>2012-08-12T08:07:57.000Z</time>
      </trkpt>
      <trkpt lat="43.22976" lon="0.88922">
        <ele>501</ele>
        <time>2012-08-12T08:08:04.000Z</time>
      </trkpt>
      <trkpt lat="43.22972" lon="0.88916">
        <ele>501</ele>
        <time>2012-08-12T08:08:08.000Z</time>
      </trkpt>
      <trkpt lat="43.22967" lon="0.88912">
        <ele>501</ele>
        <time>2012-08-12T08:08:10.000Z</time>
      </trkpt>
      <trkpt lat="43.22962" lon="0.88906">
        <ele>501</ele>
        <time>2012-08-12T08:08:12.000Z</time>
      </trkpt>
      <trkpt lat="43.22957" lon="0.88899">
        <ele>500</ele>
        <time>2012-08-12T08:08:14.000Z</time>
      </trkpt>
      <trkpt lat="43.22953" lon="0.88894">
        <ele>500</ele>
        <time>2012-08-12T08:08:15.000Z</time>
      </trkpt>
      <trkpt lat="43.22949" lon="0.88886">
        <ele>500</ele>
        <time>2012-08-12T08:08:17.000Z</time>
      </trkpt>
      <trkpt lat="43.22945" lon="0.88878">
        <ele>501</ele>
        <time>2012-08-12T08:08:19.000Z</time>
      </trkpt>
      <trkpt lat="43.2294" lon="0.88873">
        <ele>500</ele>
        <time>2012-08-12T08:08:21.000Z</time>
      </trkpt>
      <trkpt lat="43.22937" lon="0.88867">
        <ele>499</ele>
        <time>2012-08-12T08:08:23.000Z</time>
      </trkpt>
      <trkpt lat="43.22931" lon="0.88869">
        <ele>500</ele>
        <time>2012-08-12T08:08:40.000Z</time>
      </trkpt>
      <trkpt lat="43.22931" lon="0.88869">
        <ele>500</ele>
        <time>2012-08-12T08:08:40.000Z</time>
      </trkpt>
      <trkpt lat="43.22931" lon="0.88869">
        <ele>501</ele>
        <time>2012-08-12T08:08:42.000Z</time>
      </trkpt>
      <trkpt lat="43.22936" lon="0.88872">
        <ele>501</ele>
        <time>2012-08-12T08:08:47.000Z</time>
      </trkpt>
      <trkpt lat="43.2294" lon="0.88876">
        <ele>501</ele>
        <time>2012-08-12T08:08:50.000Z</time>
      </trkpt>
      <trkpt lat="43.22942" lon="0.88883">
        <ele>500</ele>
        <time>2012-08-12T08:08:53.000Z</time>
      </trkpt>
      <trkpt lat="43.22946" lon="0.88888">
        <ele>500</ele>
        <time>2012-08-12T08:08:57.000Z</time>
      </trkpt>
      <trkpt lat="43.2295" lon="0.88892">
        <ele>500</ele>
        <time>2012-08-12T08:08:59.000Z</time>
      </trkpt>
      <trkpt lat="43.22955" lon="0.88893">
        <ele>501</ele>
        <time>2012-08-12T08:09:36.000Z</time>
      </trkpt>
      <trkpt lat="43.22957" lon="0.88899">
        <ele>495</ele>
        <time>2012-08-12T08:10:02.000Z</time>
      </trkpt>
      <trkpt lat="43.22953" lon="0.88894">
        <ele>494</ele>
        <time>2012-08-12T08:12:03.000Z</time>
      </trkpt>
      <trkpt lat="43.2295" lon="0.88888">
        <ele>494</ele>
        <time>2012-08-12T08:12:06.000Z</time>
      </trkpt>
      <trkpt lat="43.22946" lon="0.88884">
        <ele>497</ele>
        <time>2012-08-12T08:12:08.000Z</time>
      </trkpt>
      <trkpt lat="43.22941" lon="0.88876">
        <ele>497</ele>
        <time>2012-08-12T08:12:10.000Z</time>
      </trkpt>
      <trkpt lat="43.22938" lon="0.8887">
        <ele>496</ele>
        <time>2012-08-12T08:12:12.000Z</time>
      </trkpt>
      <trkpt lat="43.22934" lon="0.88866">
        <ele>496</ele>
        <time>2012-08-12T08:12:14.000Z</time>
      </trkpt>
      <trkpt lat="43.22928" lon="0.88859">
        <ele>497</ele>
        <time>2012-08-12T08:12:16.000Z</time>
      </trkpt>
      <trkpt lat="43.22924" lon="0.88854">
        <ele>498</ele>
        <time>2012-08-12T08:12:18.000Z</time>
      </trkpt>
      <trkpt lat="43.22918" lon="0.88844">
        <ele>500</ele>
        <time>2012-08-12T08:12:20.000Z</time>
      </trkpt>
      <trkpt lat="43.22914" lon="0.88837">
        <ele>501</ele>
        <time>2012-08-12T08:12:22.000Z</time>
      </trkpt>
      <trkpt lat="43.2291" lon="0.88828">
        <ele>502</ele>
        <time>2012-08-12T08:12:24.000Z</time>
      </trkpt>
      <trkpt lat="43.22908" lon="0.88822">
        <ele>502</ele>
        <time>2012-08-12T08:12:25.000Z</time>
      </trkpt>
      <trkpt lat="43.229" lon="0.88812">
        <ele>501</ele>
        <time>2012-08-12T08:12:27.000Z</time>
      </trkpt>
      <trkpt lat="43.22897" lon="0.88805">
        <ele>499</ele>
        <time>2012-08-12T08:12:28.000Z</time>
      </trkpt>
      <trkpt lat="43.22894" lon="0.88798">
        <ele>498</ele>
        <time>2012-08-12T08:12:29.000Z</time>
      </trkpt>
      <trkpt lat="43.22889" lon="0.88792">
        <ele>498</ele>
        <time>2012-08-12T08:12:30.000Z</time>
      </trkpt>
      <trkpt lat="43.22885" lon="0.88786">
        <ele>498</ele>
        <time>2012-08-12T08:12:31.000Z</time>
      </trkpt>
      <trkpt lat="43.22881" lon="0.8878">
        <ele>497</ele>
        <time>2012-08-12T08:12:32.000Z</time>
      </trkpt>
      <trkpt lat="43.22876" lon="0.88772">
        <ele>495</ele>
        <time>2012-08-12T08:12:33.000Z</time>
      </trkpt>
      <trkpt lat="43.22871" lon="0.88766">
        <ele>495</ele>
        <time>2012-08-12T08:12:34.000Z</time>
      </trkpt>
      <trkpt lat="43.22866" lon="0.88761">
        <ele>495</ele>
        <time>2012-08-12T08:12:35.000Z</time>
      </trkpt>
      <trkpt lat="43.2286" lon="0.88755">
        <ele>495</ele>
        <time>2012-08-12T08:12:36.000Z</time>
      </trkpt>
      <trkpt lat="43.22854" lon="0.88749">
        <ele>495</ele>
        <time>2012-08-12T08:12:37.000Z</time>
      </trkpt>
      <trkpt lat="43.22848" lon="0.88745">
        <ele>495</ele>
        <time>2012-08-12T08:12:38.000Z</time>
      </trkpt>
      <trkpt lat="43.22843" lon="0.8874">
        <ele>495</ele>
        <time>2012-08-12T08:12:39.000Z</time>
      </trkpt>
      <trkpt lat="43.22837" lon="0.88735">
        <ele>494</ele>
        <time>2012-08-12T08:12:40.000Z</time>
      </trkpt>
      <trkpt lat="43.22832" lon="0.88732">
        <ele>495</ele>
        <time>2012-08-12T08:12:41.000Z</time>
      </trkpt>
      <trkpt lat="43.22827" lon="0.88728">
        <ele>495</ele>
        <time>2012-08-12T08:12:42.000Z</time>
      </trkpt>
      <trkpt lat="43.22822" lon="0.88727">
        <ele>495</ele>
        <time>2012-08-12T08:12:43.000Z</time>
      </trkpt>
      <trkpt lat="43.22812" lon="0.88722">
        <ele>495</ele>
        <time>2012-08-12T08:12:44.000Z</time>
      </trkpt>
      <trkpt lat="43.22805" lon="0.88719">
        <ele>495</ele>
        <time>2012-08-12T08:12:45.000Z</time>
      </trkpt>
      <trkpt lat="43.22798" lon="0.88715">
        <ele>494</ele>
        <time>2012-08-12T08:12:46.000Z</time>
      </trkpt>
      <trkpt lat="43.2279" lon="0.88712">
        <ele>494</ele>
        <time>2012-08-12T08:12:47.000Z</time>
      </trkpt>
      <trkpt lat="43.22783" lon="0.8871">
        <ele>494</ele>
        <time>2012-08-12T08:12:48.000Z</time>
      </trkpt>
      <trkpt lat="43.22776" lon="0.88706">
        <ele>494</ele>
        <time>2012-08-12T08:12:49.000Z</time>
      </trkpt>
      <trkpt lat="43.2277" lon="0.88703">
        <ele>495</ele>
        <time>2012-08-12T08:12:50.000Z</time>
      </trkpt>
      <trkpt lat="43.22763" lon="0.88699">
        <ele>494</ele>
        <time>2012-08-12T08:12:51.000Z</time>
      </trkpt>
      <trkpt lat="43.22756" lon="0.88696">
        <ele>494</ele>
        <time>2012-08-12T08:12:52.000Z</time>
      </trkpt>
      <trkpt lat="43.2275" lon="0.88694">
        <ele>494</ele>
        <time>2012-08-12T08:12:53.000Z</time>
      </trkpt>
      <trkpt lat="43.22744" lon="0.8869">
        <ele>494</ele>
        <time>2012-08-12T08:12:54.000Z</time>
      </trkpt>
      <trkpt lat="43.22739" lon="0.88684">
        <ele>494</ele>
        <time>2012-08-12T08:12:55.000Z</time>
      </trkpt>
      <trkpt lat="43.22734" lon="0.88679">
        <ele>493</ele>
        <time>2012-08-12T08:12:56.000Z</time>
      </trkpt>
      <trkpt lat="43.22728" lon="0.88673">
        <ele>494</ele>
        <time>2012-08-12T08:12:57.000Z</time>
      </trkpt>
      <trkpt lat="43.22722" lon="0.88667">
        <ele>494</ele>
        <time>2012-08-12T08:12:58.000Z</time>
      </trkpt>
      <trkpt lat="43.22716" lon="0.88662">
        <ele>493</ele>
        <time>2012-08-12T08:12:59.000Z</time>
      </trkpt>
      <trkpt lat="43.22712" lon="0.88658">
        <ele>494</ele>
        <time>2012-08-12T08:13:00.000Z</time>
      </trkpt>
      <trkpt lat="43.22706" lon="0.88655">
        <ele>494</ele>
        <time>2012-08-12T08:13:01.000Z</time>
      </trkpt>
      <trkpt lat="43.22698" lon="0.88648">
        <ele>495</ele>
        <time>2012-08-12T08:13:03.000Z</time>
      </trkpt>
      <trkpt lat="43.22694" lon="0.88644">
        <ele>494</ele>
        <time>2012-08-12T08:13:06.000Z</time>
      </trkpt>
      <trkpt lat="43.22694" lon="0.8865">
        <ele>498</ele>
        <time>2012-08-12T08:13:17.000Z</time>
      </trkpt>
      <trkpt lat="43.22699" lon="0.88653">
        <ele>495</ele>
        <time>2012-08-12T08:13:24.000Z</time>
      </trkpt>
      <trkpt lat="43.22691" lon="0.88656">
        <ele>496</ele>
        <time>2012-08-12T08:14:45.000Z</time>
      </trkpt>
      <trkpt lat="43.22684" lon="0.88658">
        <ele>499</ele>
        <time>2012-08-12T08:14:47.000Z</time>
      </trkpt>
      <trkpt lat="43.2268" lon="0.8866">
        <ele>499</ele>
        <time>2012-08-12T08:14:49.000Z</time>
      </trkpt>
      <trkpt lat="43.22679" lon="0.88668">
        <ele>501</ele>
        <time>2012-08-12T08:14:53.000Z</time>
      </trkpt>
      <trkpt lat="43.22676" lon="0.88674">
        <ele>502</ele>
        <time>2012-08-12T08:14:56.000Z</time>
      </trkpt>
      <trkpt lat="43.22671" lon="0.88681">
        <ele>503</ele>
        <time>2012-08-12T08:15:00.000Z</time>
      </trkpt>
      <trkpt lat="43.22668" lon="0.88688">
        <ele>506</ele>
        <time>2012-08-12T08:15:03.000Z</time>
      </trkpt>
      <trkpt lat="43.22665" lon="0.88695">
        <ele>510</ele>
        <time>2012-08-12T08:15:06.000Z</time>
      </trkpt>
      <trkpt lat="43.22664" lon="0.88701">
        <ele>509</ele>
        <time>2012-08-12T08:15:08.000Z</time>
      </trkpt>
      <trkpt lat="43.22661" lon="0.88708">
        <ele>510</ele>
        <time>2012-08-12T08:15:11.000Z</time>
      </trkpt>
      <trkpt lat="43.22659" lon="0.88714">
        <ele>510</ele>
        <time>2012-08-12T08:15:14.000Z</time>
      </trkpt>
      <trkpt lat="43.22656" lon="0.88722">
        <ele>510</ele>
        <time>2012-08-12T08:15:17.000Z</time>
      </trkpt>
      <trkpt lat="43.22653" lon="0.88729">
        <ele>510</ele>
        <time>2012-08-12T08:15:20.000Z</time>
      </trkpt>
      <trkpt lat="43.22651" lon="0.88734">
        <ele>511</ele>
        <time>2012-08-12T08:15:22.000Z</time>
      </trkpt>
      <trkpt lat="43.22648" lon="0.8874">
        <ele>512</ele>
        <time>2012-08-12T08:15:25.000Z</time>
      </trkpt>
      <trkpt lat="43.22646" lon="0.88747">
        <ele>513</ele>
        <time>2012-08-12T08:15:29.000Z</time>
      </trkpt>
      <trkpt lat="43.22647" lon="0.88754">
        <ele>513</ele>
        <time>2012-08-12T08:15:31.000Z</time>
      </trkpt>
      <trkpt lat="43.22646" lon="0.88762">
        <ele>512</ele>
        <time>2012-08-12T08:15:34.000Z</time>
      </trkpt>
      <trkpt lat="43.22644" lon="0.88768">
        <ele>512</ele>
        <time>2012-08-12T08:15:37.000Z</time>
      </trkpt>
      <trkpt lat="43.22643" lon="0.88774">
        <ele>512</ele>
        <time>2012-08-12T08:15:40.000Z</time>
      </trkpt>
      <trkpt lat="43.2264" lon="0.8878">
        <ele>515</ele>
        <time>2012-08-12T08:15:44.000Z</time>
      </trkpt>
      <trkpt lat="43.22638" lon="0.88786">
        <ele>517</ele>
        <time>2012-08-12T08:15:47.000Z</time>
      </trkpt>
      <trkpt lat="43.22636" lon="0.88793">
        <ele>516</ele>
        <time>2012-08-12T08:15:51.000Z</time>
      </trkpt>
      <trkpt lat="43.22633" lon="0.888">
        <ele>517</ele>
        <time>2012-08-12T08:15:54.000Z</time>
      </trkpt>
      <trkpt lat="43.22632" lon="0.88807">
        <ele>517</ele>
        <time>2012-08-12T08:15:57.000Z</time>
      </trkpt>
      <trkpt lat="43.22629" lon="0.88814">
        <ele>519</ele>
        <time>2012-08-12T08:16:01.000Z</time>
      </trkpt>
      <trkpt lat="43.22628" lon="0.8882">
        <ele>518</ele>
        <time>2012-08-12T08:16:04.000Z</time>
      </trkpt>
      <trkpt lat="43.22623" lon="0.88826">
        <ele>517</ele>
        <time>2012-08-12T08:16:08.000Z</time>
      </trkpt>
      <trkpt lat="43.22618" lon="0.8883">
        <ele>517</ele>
        <time>2012-08-12T08:16:10.000Z</time>
      </trkpt>
      <trkpt lat="43.22613" lon="0.88833">
        <ele>517</ele>
        <time>2012-08-12T08:16:12.000Z</time>
      </trkpt>
      <trkpt lat="43.22608" lon="0.88835">
        <ele>517</ele>
        <time>2012-08-12T08:16:14.000Z</time>
      </trkpt>
      <trkpt lat="43.22602" lon="0.88837">
        <ele>517</ele>
        <time>2012-08-12T08:16:16.000Z</time>
      </trkpt>
      <trkpt lat="43.22597" lon="0.88841">
        <ele>516</ele>
        <time>2012-08-12T08:16:18.000Z</time>
      </trkpt>
      <trkpt lat="43.22592" lon="0.88848">
        <ele>515</ele>
        <time>2012-08-12T08:16:21.000Z</time>
      </trkpt>
      <trkpt lat="43.22587" lon="0.88851">
        <ele>517</ele>
        <time>2012-08-12T08:16:23.000Z</time>
      </trkpt>
      <trkpt lat="43.22584" lon="0.88856">
        <ele>517</ele>
        <time>2012-08-12T08:16:25.000Z</time>
      </trkpt>
      <trkpt lat="43.22583" lon="0.88863">
        <ele>516</ele>
        <time>2012-08-12T08:16:27.000Z</time>
      </trkpt>
      <trkpt lat="43.2258" lon="0.88868">
        <ele>517</ele>
        <time>2012-08-12T08:16:30.000Z</time>
      </trkpt>
      <trkpt lat="43.22576" lon="0.88876">
        <ele>517</ele>
        <time>2012-08-12T08:16:34.000Z</time>
      </trkpt>
      <trkpt lat="43.22572" lon="0.8888">
        <ele>517</ele>
        <time>2012-08-12T08:16:36.000Z</time>
      </trkpt>
      <trkpt lat="43.22568" lon="0.88885">
        <ele>517</ele>
        <time>2012-08-12T08:16:39.000Z</time>
      </trkpt>
      <trkpt lat="43.22563" lon="0.88886">
        <ele>517</ele>
        <time>2012-08-12T08:16:42.000Z</time>
      </trkpt>
      <trkpt lat="43.22556" lon="0.88885">
        <ele>517</ele>
        <time>2012-08-12T08:16:45.000Z</time>
      </trkpt>
      <trkpt lat="43.22549" lon="0.88886">
        <ele>515</ele>
        <time>2012-08-12T08:16:47.000Z</time>
      </trkpt>
      <trkpt lat="43.22542" lon="0.88889">
        <ele>515</ele>
        <time>2012-08-12T08:16:49.000Z</time>
      </trkpt>
      <trkpt lat="43.22537" lon="0.88892">
        <ele>513</ele>
        <time>2012-08-12T08:16:51.000Z</time>
      </trkpt>
      <trkpt lat="43.22529" lon="0.88893">
        <ele>511</ele>
        <time>2012-08-12T08:16:53.000Z</time>
      </trkpt>
      <trkpt lat="43.22521" lon="0.88896">
        <ele>510</ele>
        <time>2012-08-12T08:16:55.000Z</time>
      </trkpt>
      <trkpt lat="43.22514" lon="0.88898">
        <ele>510</ele>
        <time>2012-08-12T08:16:57.000Z</time>
      </trkpt>
      <trkpt lat="43.22506" lon="0.889">
        <ele>510</ele>
        <time>2012-08-12T08:16:59.000Z</time>
      </trkpt>
      <trkpt lat="43.22498" lon="0.889">
        <ele>510</ele>
        <time>2012-08-12T08:17:01.000Z</time>
      </trkpt>
      <trkpt lat="43.22492" lon="0.88901">
        <ele>510</ele>
        <time>2012-08-12T08:17:03.000Z</time>
      </trkpt>
      <trkpt lat="43.22486" lon="0.88905">
        <ele>511</ele>
        <time>2012-08-12T08:17:05.000Z</time>
      </trkpt>
      <trkpt lat="43.2248" lon="0.8891">
        <ele>512</ele>
        <time>2012-08-12T08:17:07.000Z</time>
      </trkpt>
      <trkpt lat="43.22475" lon="0.88915">
        <ele>513</ele>
        <time>2012-08-12T08:17:09.000Z</time>
      </trkpt>
      <trkpt lat="43.2247" lon="0.8892">
        <ele>513</ele>
        <time>2012-08-12T08:17:11.000Z</time>
      </trkpt>
      <trkpt lat="43.22465" lon="0.88925">
        <ele>515</ele>
        <time>2012-08-12T08:17:13.000Z</time>
      </trkpt>
      <trkpt lat="43.22461" lon="0.88931">
        <ele>515</ele>
        <time>2012-08-12T08:17:15.000Z</time>
      </trkpt>
      <trkpt lat="43.22458" lon="0.88934">
        <ele>515</ele>
        <time>2012-08-12T08:17:17.000Z</time>
      </trkpt>
      <trkpt lat="43.22453" lon="0.88937">
        <ele>516</ele>
        <time>2012-08-12T08:17:19.000Z</time>
      </trkpt>
      <trkpt lat="43.22447" lon="0.88938">
        <ele>516</ele>
        <time>2012-08-12T08:17:21.000Z</time>
      </trkpt>
      <trkpt lat="43.22442" lon="0.8894">
        <ele>516</ele>
        <time>2012-08-12T08:17:23.000Z</time>
      </trkpt>
      <trkpt lat="43.22436" lon="0.88941">
        <ele>516</ele>
        <time>2012-08-12T08:17:25.000Z</time>
      </trkpt>
      <trkpt lat="43.22431" lon="0.88942">
        <ele>515</ele>
        <time>2012-08-12T08:17:27.000Z</time>
      </trkpt>
      <trkpt lat="43.22425" lon="0.88947">
        <ele>515</ele>
        <time>2012-08-12T08:17:29.000Z</time>
      </trkpt>
      <trkpt lat="43.22422" lon="0.88952">
        <ele>515</ele>
        <time>2012-08-12T08:17:31.000Z</time>
      </trkpt>
      <trkpt lat="43.2242" lon="0.88959">
        <ele>515</ele>
        <time>2012-08-12T08:17:34.000Z</time>
      </trkpt>
      <trkpt lat="43.22418" lon="0.88966">
        <ele>516</ele>
        <time>2012-08-12T08:17:37.000Z</time>
      </trkpt>
      <trkpt lat="43.22416" lon="0.88975">
        <ele>518</ele>
        <time>2012-08-12T08:17:40.000Z</time>
      </trkpt>
      <trkpt lat="43.22414" lon="0.88981">
        <ele>518</ele>
        <time>2012-08-12T08:17:42.000Z</time>
      </trkpt>
      <trkpt lat="43.22411" lon="0.88991">
        <ele>519</ele>
        <time>2012-08-12T08:17:44.000Z</time>
      </trkpt>
      <trkpt lat="43.22408" lon="0.88997">
        <ele>521</ele>
        <time>2012-08-12T08:17:46.000Z</time>
      </trkpt>
      <trkpt lat="43.22403" lon="0.89005">
        <ele>521</ele>
        <time>2012-08-12T08:17:49.000Z</time>
      </trkpt>
      <trkpt lat="43.22399" lon="0.89007">
        <ele>521</ele>
        <time>2012-08-12T08:17:51.000Z</time>
      </trkpt>
      <trkpt lat="43.22392" lon="0.8901">
        <ele>520</ele>
        <time>2012-08-12T08:17:55.000Z</time>
      </trkpt>
      <trkpt lat="43.22387" lon="0.89014">
        <ele>521</ele>
        <time>2012-08-12T08:17:57.000Z</time>
      </trkpt>
      <trkpt lat="43.22385" lon="0.8902">
        <ele>523</ele>
        <time>2012-08-12T08:17:59.000Z</time>
      </trkpt>
      <trkpt lat="43.2238" lon="0.89025">
        <ele>523</ele>
        <time>2012-08-12T08:18:02.000Z</time>
      </trkpt>
      <trkpt lat="43.22377" lon="0.89032">
        <ele>525</ele>
        <time>2012-08-12T08:18:04.000Z</time>
      </trkpt>
      <trkpt lat="43.22376" lon="0.89042">
        <ele>526</ele>
        <time>2012-08-12T08:18:06.000Z</time>
      </trkpt>
      <trkpt lat="43.22374" lon="0.89048">
        <ele>526</ele>
        <time>2012-08-12T08:18:08.000Z</time>
      </trkpt>
      <trkpt lat="43.22371" lon="0.89054">
        <ele>526</ele>
        <time>2012-08-12T08:18:11.000Z</time>
      </trkpt>
      <trkpt lat="43.22374" lon="0.89058">
        <ele>525</ele>
        <time>2012-08-12T08:18:15.000Z</time>
      </trkpt>
      <trkpt lat="43.22374" lon="0.89058">
        <ele>525</ele>
        <time>2012-08-12T08:18:15.000Z</time>
      </trkpt>
      <trkpt lat="43.22374" lon="0.89058">
        <ele>524</ele>
        <time>2012-08-12T08:18:22.000Z</time>
      </trkpt>
      <trkpt lat="43.22369" lon="0.8906">
        <ele>524</ele>
        <time>2012-08-12T08:18:26.000Z</time>
      </trkpt>
      <trkpt lat="43.22373" lon="0.89062">
        <ele>524</ele>
        <time>2012-08-12T08:18:29.000Z</time>
      </trkpt>
      <trkpt lat="43.22378" lon="0.89064">
        <ele>521</ele>
        <time>2012-08-12T08:18:32.000Z</time>
      </trkpt>
      <trkpt lat="43.22373" lon="0.89063">
        <ele>522</ele>
        <time>2012-08-12T08:18:55.000Z</time>
      </trkpt>
      <trkpt lat="43.22366" lon="0.89061">
        <ele>522</ele>
        <time>2012-08-12T08:18:58.000Z</time>
      </trkpt>
      <trkpt lat="43.22362" lon="0.89059">
        <ele>522</ele>
        <time>2012-08-12T08:19:00.000Z</time>
      </trkpt>
      <trkpt lat="43.22355" lon="0.89057">
        <ele>523</ele>
        <time>2012-08-12T08:19:02.000Z</time>
      </trkpt>
      <trkpt lat="43.2235" lon="0.89056">
        <ele>523</ele>
        <time>2012-08-12T08:19:04.000Z</time>
      </trkpt>
      <trkpt lat="43.22345" lon="0.89051">
        <ele>523</ele>
        <time>2012-08-12T08:19:06.000Z</time>
      </trkpt>
      <trkpt lat="43.22342" lon="0.89046">
        <ele>523</ele>
        <time>2012-08-12T08:19:08.000Z</time>
      </trkpt>
      <trkpt lat="43.2234" lon="0.89039">
        <ele>523</ele>
        <time>2012-08-12T08:19:10.000Z</time>
      </trkpt>
      <trkpt lat="43.22339" lon="0.89032">
        <ele>523</ele>
        <time>2012-08-12T08:19:11.000Z</time>
      </trkpt>
      <trkpt lat="43.22337" lon="0.89021">
        <ele>523</ele>
        <time>2012-08-12T08:19:13.000Z</time>
      </trkpt>
      <trkpt lat="43.22335" lon="0.89012">
        <ele>524</ele>
        <time>2012-08-12T08:19:15.000Z</time>
      </trkpt>
      <trkpt lat="43.22335" lon="0.89004">
        <ele>525</ele>
        <time>2012-08-12T08:19:17.000Z</time>
      </trkpt>
      <trkpt lat="43.22338" lon="0.88996">
        <ele>526</ele>
        <time>2012-08-12T08:19:20.000Z</time>
      </trkpt>
      <trkpt lat="43.22341" lon="0.88989">
        <ele>527</ele>
        <time>2012-08-12T08:19:22.000Z</time>
      </trkpt>
      <trkpt lat="43.22343" lon="0.88983">
        <ele>528</ele>
        <time>2012-08-12T08:19:24.000Z</time>
      </trkpt>
      <trkpt lat="43.22348" lon="0.88975">
        <ele>528</ele>
        <time>2012-08-12T08:19:26.000Z</time>
      </trkpt>
      <trkpt lat="43.22351" lon="0.88967">
        <ele>529</ele>
        <time>2012-08-12T08:19:27.000Z</time>
      </trkpt>
      <trkpt lat="43.22355" lon="0.88962">
        <ele>529</ele>
        <time>2012-08-12T08:19:28.000Z</time>
      </trkpt>
      <trkpt lat="43.22358" lon="0.88956">
        <ele>530</ele>
        <time>2012-08-12T08:19:29.000Z</time>
      </trkpt>
      <trkpt lat="43.22362" lon="0.88952">
        <ele>530</ele>
        <time>2012-08-12T08:19:30.000Z</time>
      </trkpt>
      <trkpt lat="43.22366" lon="0.88946">
        <ele>529</ele>
        <time>2012-08-12T08:19:31.000Z</time>
      </trkpt>
      <trkpt lat="43.22368" lon="0.88941">
        <ele>529</ele>
        <time>2012-08-12T08:19:32.000Z</time>
      </trkpt>
      <trkpt lat="43.22372" lon="0.88936">
        <ele>530</ele>
        <time>2012-08-12T08:19:33.000Z</time>
      </trkpt>
      <trkpt lat="43.22374" lon="0.8893">
        <ele>528</ele>
        <time>2012-08-12T08:19:34.000Z</time>
      </trkpt>
      <trkpt lat="43.22377" lon="0.8892">
        <ele>526</ele>
        <time>2012-08-12T08:19:36.000Z</time>
      </trkpt>
      <trkpt lat="43.22382" lon="0.88909">
        <ele>524</ele>
        <time>2012-08-12T08:19:38.000Z</time>
      </trkpt>
      <trkpt lat="43.22384" lon="0.88902">
        <ele>524</ele>
        <time>2012-08-12T08:19:39.000Z</time>
      </trkpt>
      <trkpt lat="43.22387" lon="0.88896">
        <ele>523</ele>
        <time>2012-08-12T08:19:40.000Z</time>
      </trkpt>
      <trkpt lat="43.2239" lon="0.88889">
        <ele>523</ele>
        <time>2012-08-12T08:19:41.000Z</time>
      </trkpt>
      <trkpt lat="43.22393" lon="0.88882">
        <ele>523</ele>
        <time>2012-08-12T08:19:42.000Z</time>
      </trkpt>
      <trkpt lat="43.22396" lon="0.88874">
        <ele>523</ele>
        <time>2012-08-12T08:19:43.000Z</time>
      </trkpt>
      <trkpt lat="43.22398" lon="0.88867">
        <ele>522</ele>
        <time>2012-08-12T08:19:44.000Z</time>
      </trkpt>
      <trkpt lat="43.224" lon="0.88858">
        <ele>520</ele>
        <time>2012-08-12T08:19:45.000Z</time>
      </trkpt>
      <trkpt lat="43.22404" lon="0.88848">
        <ele>519</ele>
        <time>2012-08-12T08:19:46.000Z</time>
      </trkpt>
      <trkpt lat="43.22407" lon="0.88841">
        <ele>519</ele>
        <time>2012-08-12T08:19:47.000Z</time>
      </trkpt>
      <trkpt lat="43.22408" lon="0.88832">
        <ele>518</ele>
        <time>2012-08-12T08:19:48.000Z</time>
      </trkpt>
      <trkpt lat="43.2241" lon="0.88823">
        <ele>518</ele>
        <time>2012-08-12T08:19:49.000Z</time>
      </trkpt>
      <trkpt lat="43.22411" lon="0.88814">
        <ele>517</ele>
        <time>2012-08-12T08:19:50.000Z</time>
      </trkpt>
      <trkpt lat="43.22414" lon="0.88806">
        <ele>517</ele>
        <time>2012-08-12T08:19:51.000Z</time>
      </trkpt>
      <trkpt lat="43.22416" lon="0.88797">
        <ele>517</ele>
        <time>2012-08-12T08:19:52.000Z</time>
      </trkpt>
      <trkpt lat="43.22418" lon="0.88788">
        <ele>517</ele>
        <time>2012-08-12T08:19:53.000Z</time>
      </trkpt>
      <trkpt lat="43.2242" lon="0.88778">
        <ele>516</ele>
        <time>2012-08-12T08:19:54.000Z</time>
      </trkpt>
      <trkpt lat="43.22421" lon="0.88768">
        <ele>515</ele>
        <time>2012-08-12T08:19:55.000Z</time>
      </trkpt>
      <trkpt lat="43.22422" lon="0.88759">
        <ele>514</ele>
        <time>2012-08-12T08:19:56.000Z</time>
      </trkpt>
      <trkpt lat="43.22423" lon="0.88749">
        <ele>514</ele>
        <time>2012-08-12T08:19:57.000Z</time>
      </trkpt>
      <trkpt lat="43.22422" lon="0.8874">
        <ele>514</ele>
        <time>2012-08-12T08:19:58.000Z</time>
      </trkpt>
      <trkpt lat="43.22423" lon="0.88732">
        <ele>513</ele>
        <time>2012-08-12T08:19:59.000Z</time>
      </trkpt>
      <trkpt lat="43.22426" lon="0.88719">
        <ele>513</ele>
        <time>2012-08-12T08:20:01.000Z</time>
      </trkpt>
      <trkpt lat="43.22428" lon="0.88711">
        <ele>512</ele>
        <time>2012-08-12T08:20:02.000Z</time>
      </trkpt>
      <trkpt lat="43.2243" lon="0.88703">
        <ele>512</ele>
        <time>2012-08-12T08:20:03.000Z</time>
      </trkpt>
      <trkpt lat="43.22432" lon="0.88696">
        <ele>512</ele>
        <time>2012-08-12T08:20:04.000Z</time>
      </trkpt>
      <trkpt lat="43.22436" lon="0.88686">
        <ele>511</ele>
        <time>2012-08-12T08:20:05.000Z</time>
      </trkpt>
      <trkpt lat="43.22437" lon="0.88678">
        <ele>511</ele>
        <time>2012-08-12T08:20:06.000Z</time>
      </trkpt>
      <trkpt lat="43.2244" lon="0.88668">
        <ele>510</ele>
        <time>2012-08-12T08:20:07.000Z</time>
      </trkpt>
      <trkpt lat="43.22441" lon="0.88659">
        <ele>509</ele>
        <time>2012-08-12T08:20:08.000Z</time>
      </trkpt>
      <trkpt lat="43.22442" lon="0.8865">
        <ele>509</ele>
        <time>2012-08-12T08:20:09.000Z</time>
      </trkpt>
      <trkpt lat="43.22442" lon="0.88636">
        <ele>509</ele>
        <time>2012-08-12T08:20:11.000Z</time>
      </trkpt>
      <trkpt lat="43.22443" lon="0.88628">
        <ele>508</ele>
        <time>2012-08-12T08:20:12.000Z</time>
      </trkpt>
      <trkpt lat="43.22443" lon="0.88617">
        <ele>507</ele>
        <time>2012-08-12T08:20:13.000Z</time>
      </trkpt>
      <trkpt lat="43.22442" lon="0.88607">
        <ele>505</ele>
        <time>2012-08-12T08:20:14.000Z</time>
      </trkpt>
      <trkpt lat="43.22441" lon="0.88601">
        <ele>505</ele>
        <time>2012-08-12T08:20:15.000Z</time>
      </trkpt>
      <trkpt lat="43.22441" lon="0.88594">
        <ele>504</ele>
        <time>2012-08-12T08:20:16.000Z</time>
      </trkpt>
      <trkpt lat="43.2244" lon="0.88588">
        <ele>504</ele>
        <time>2012-08-12T08:20:17.000Z</time>
      </trkpt>
      <trkpt lat="43.2244" lon="0.8858">
        <ele>503</ele>
        <time>2012-08-12T08:20:18.000Z</time>
      </trkpt>
      <trkpt lat="43.22442" lon="0.88572">
        <ele>502</ele>
        <time>2012-08-12T08:20:19.000Z</time>
      </trkpt>
      <trkpt lat="43.2244" lon="0.88566">
        <ele>501</ele>
        <time>2012-08-12T08:20:20.000Z</time>
      </trkpt>
      <trkpt lat="43.2244" lon="0.88557">
        <ele>501</ele>
        <time>2012-08-12T08:20:22.000Z</time>
      </trkpt>
      <trkpt lat="43.2244" lon="0.88549">
        <ele>501</ele>
        <time>2012-08-12T08:20:24.000Z</time>
      </trkpt>
      <trkpt lat="43.22438" lon="0.88543">
        <ele>501</ele>
        <time>2012-08-12T08:20:25.000Z</time>
      </trkpt>
      <trkpt lat="43.22434" lon="0.88536">
        <ele>500</ele>
        <time>2012-08-12T08:20:27.000Z</time>
      </trkpt>
      <trkpt lat="43.22432" lon="0.88527">
        <ele>498</ele>
        <time>2012-08-12T08:20:29.000Z</time>
      </trkpt>
      <trkpt lat="43.22425" lon="0.88517">
        <ele>496</ele>
        <time>2012-08-12T08:20:31.000Z</time>
      </trkpt>
      <trkpt lat="43.22421" lon="0.88502">
        <ele>493</ele>
        <time>2012-08-12T08:20:33.000Z</time>
      </trkpt>
      <trkpt lat="43.22415" lon="0.88494">
        <ele>492</ele>
        <time>2012-08-12T08:20:35.000Z</time>
      </trkpt>
      <trkpt lat="43.22406" lon="0.8849">
        <ele>491</ele>
        <time>2012-08-12T08:20:37.000Z</time>
      </trkpt>
      <trkpt lat="43.22401" lon="0.88488">
        <ele>491</ele>
        <time>2012-08-12T08:20:38.000Z</time>
      </trkpt>
      <trkpt lat="43.22396" lon="0.88485">
        <ele>490</ele>
        <time>2012-08-12T08:20:39.000Z</time>
      </trkpt>
      <trkpt lat="43.22389" lon="0.88482">
        <ele>489</ele>
        <time>2012-08-12T08:20:40.000Z</time>
      </trkpt>
      <trkpt lat="43.22384" lon="0.88479">
        <ele>488</ele>
        <time>2012-08-12T08:20:41.000Z</time>
      </trkpt>
      <trkpt lat="43.22379" lon="0.88476">
        <ele>487</ele>
        <time>2012-08-12T08:20:42.000Z</time>
      </trkpt>
      <trkpt lat="43.22373" lon="0.88474">
        <ele>486</ele>
        <time>2012-08-12T08:20:43.000Z</time>
      </trkpt>
      <trkpt lat="43.22367" lon="0.8847">
        <ele>486</ele>
        <time>2012-08-12T08:20:44.000Z</time>
      </trkpt>
      <trkpt lat="43.22362" lon="0.88466">
        <ele>485</ele>
        <time>2012-08-12T08:20:45.000Z</time>
      </trkpt>
      <trkpt lat="43.22354" lon="0.88462">
        <ele>484</ele>
        <time>2012-08-12T08:20:46.000Z</time>
      </trkpt>
      <trkpt lat="43.22347" lon="0.88458">
        <ele>483</ele>
        <time>2012-08-12T08:20:47.000Z</time>
      </trkpt>
      <trkpt lat="43.2234" lon="0.88454">
        <ele>482</ele>
        <time>2012-08-12T08:20:48.000Z</time>
      </trkpt>
      <trkpt lat="43.22334" lon="0.8845">
        <ele>482</ele>
        <time>2012-08-12T08:20:49.000Z</time>
      </trkpt>
      <trkpt lat="43.22329" lon="0.88446">
        <ele>481</ele>
        <time>2012-08-12T08:20:50.000Z</time>
      </trkpt>
      <trkpt lat="43.22324" lon="0.88445">
        <ele>481</ele>
        <time>2012-08-12T08:20:51.000Z</time>
      </trkpt>
      <trkpt lat="43.22319" lon="0.88444">
        <ele>480</ele>
        <time>2012-08-12T08:20:52.000Z</time>
      </trkpt>
      <trkpt lat="43.22313" lon="0.88443">
        <ele>479</ele>
        <time>2012-08-12T08:20:53.000Z</time>
      </trkpt>
      <trkpt lat="43.22307" lon="0.88442">
        <ele>479</ele>
        <time>2012-08-12T08:20:54.000Z</time>
      </trkpt>
      <trkpt lat="43.22301" lon="0.8844">
        <ele>478</ele>
        <time>2012-08-12T08:20:55.000Z</time>
      </trkpt>
      <trkpt lat="43.22295" lon="0.88438">
        <ele>478</ele>
        <time>2012-08-12T08:20:56.000Z</time>
      </trkpt>
      <trkpt lat="43.2229" lon="0.88437">
        <ele>478</ele>
        <time>2012-08-12T08:20:57.000Z</time>
      </trkpt>
      <trkpt lat="43.22282" lon="0.88432">
        <ele>477</ele>
        <time>2012-08-12T08:20:59.000Z</time>
      </trkpt>
      <trkpt lat="43.22276" lon="0.8843">
        <ele>476</ele>
        <time>2012-08-12T08:21:00.000Z</time>
      </trkpt>
      <trkpt lat="43.22266" lon="0.88429">
        <ele>476</ele>
        <time>2012-08-12T08:21:02.000Z</time>
      </trkpt>
      <trkpt lat="43.22257" lon="0.88426">
        <ele>477</ele>
        <time>2012-08-12T08:21:03.000Z</time>
      </trkpt>
      <trkpt lat="43.2225" lon="0.88424">
        <ele>477</ele>
        <time>2012-08-12T08:21:04.000Z</time>
      </trkpt>
      <trkpt lat="43.22244" lon="0.88422">
        <ele>477</ele>
        <time>2012-08-12T08:21:05.000Z</time>
      </trkpt>
      <trkpt lat="43.22236" lon="0.8842">
        <ele>476</ele>
        <time>2012-08-12T08:21:06.000Z</time>
      </trkpt>
      <trkpt lat="43.2223" lon="0.88418">
        <ele>476</ele>
        <time>2012-08-12T08:21:07.000Z</time>
      </trkpt>
      <trkpt lat="43.22222" lon="0.88417">
        <ele>476</ele>
        <time>2012-08-12T08:21:08.000Z</time>
      </trkpt>
      <trkpt lat="43.22216" lon="0.88417">
        <ele>475</ele>
        <time>2012-08-12T08:21:09.000Z</time>
      </trkpt>
      <trkpt lat="43.22209" lon="0.88417">
        <ele>475</ele>
        <time>2012-08-12T08:21:10.000Z</time>
      </trkpt>
      <trkpt lat="43.22203" lon="0.88417">
        <ele>474</ele>
        <time>2012-08-12T08:21:11.000Z</time>
      </trkpt>
      <trkpt lat="43.22197" lon="0.88418">
        <ele>473</ele>
        <time>2012-08-12T08:21:12.000Z</time>
      </trkpt>
      <trkpt lat="43.22191" lon="0.88416">
        <ele>473</ele>
        <time>2012-08-12T08:21:13.000Z</time>
      </trkpt>
      <trkpt lat="43.22185" lon="0.88415">
        <ele>472</ele>
        <time>2012-08-12T08:21:14.000Z</time>
      </trkpt>
      <trkpt lat="43.22176" lon="0.88413">
        <ele>471</ele>
        <time>2012-08-12T08:21:15.000Z</time>
      </trkpt>
      <trkpt lat="43.22167" lon="0.88411">
        <ele>472</ele>
        <time>2012-08-12T08:21:16.000Z</time>
      </trkpt>
      <trkpt lat="43.22159" lon="0.8841">
        <ele>470</ele>
        <time>2012-08-12T08:21:17.000Z</time>
      </trkpt>
      <trkpt lat="43.22151" lon="0.88409">
        <ele>469</ele>
        <time>2012-08-12T08:21:18.000Z</time>
      </trkpt>
      <trkpt lat="43.22145" lon="0.88407">
        <ele>466</ele>
        <time>2012-08-12T08:21:19.000Z</time>
      </trkpt>
      <trkpt lat="43.22138" lon="0.88407">
        <ele>465</ele>
        <time>2012-08-12T08:21:20.000Z</time>
      </trkpt>
      <trkpt lat="43.22132" lon="0.88406">
        <ele>465</ele>
        <time>2012-08-12T08:21:21.000Z</time>
      </trkpt>
      <trkpt lat="43.22126" lon="0.88406">
        <ele>464</ele>
        <time>2012-08-12T08:21:22.000Z</time>
      </trkpt>
      <trkpt lat="43.2212" lon="0.88405">
        <ele>463</ele>
        <time>2012-08-12T08:21:23.000Z</time>
      </trkpt>
      <trkpt lat="43.22115" lon="0.88403">
        <ele>463</ele>
        <time>2012-08-12T08:21:24.000Z</time>
      </trkpt>
      <trkpt lat="43.22108" lon="0.88404">
        <ele>462</ele>
        <time>2012-08-12T08:21:25.000Z</time>
      </trkpt>
      <trkpt lat="43.221" lon="0.88403">
        <ele>461</ele>
        <time>2012-08-12T08:21:26.000Z</time>
      </trkpt>
      <trkpt lat="43.22086" lon="0.88401">
        <ele>459</ele>
        <time>2012-08-12T08:21:28.000Z</time>
      </trkpt>
      <trkpt lat="43.22078" lon="0.884">
        <ele>458</ele>
        <time>2012-08-12T08:21:29.000Z</time>
      </trkpt>
      <trkpt lat="43.22072" lon="0.88399">
        <ele>457</ele>
        <time>2012-08-12T08:21:30.000Z</time>
      </trkpt>
      <trkpt lat="43.22065" lon="0.88399">
        <ele>457</ele>
        <time>2012-08-12T08:21:31.000Z</time>
      </trkpt>
      <trkpt lat="43.22059" lon="0.88399">
        <ele>456</ele>
        <time>2012-08-12T08:21:32.000Z</time>
      </trkpt>
      <trkpt lat="43.22052" lon="0.88399">
        <ele>456</ele>
        <time>2012-08-12T08:21:33.000Z</time>
      </trkpt>
      <trkpt lat="43.22044" lon="0.88399">
        <ele>455</ele>
        <time>2012-08-12T08:21:34.000Z</time>
      </trkpt>
      <trkpt lat="43.22037" lon="0.88399">
        <ele>455</ele>
        <time>2012-08-12T08:21:35.000Z</time>
      </trkpt>
      <trkpt lat="43.22029" lon="0.884">
        <ele>455</ele>
        <time>2012-08-12T08:21:36.000Z</time>
      </trkpt>
      <trkpt lat="43.2202" lon="0.88401">
        <ele>454</ele>
        <time>2012-08-12T08:21:37.000Z</time>
      </trkpt>
      <trkpt lat="43.22014" lon="0.88401">
        <ele>453</ele>
        <time>2012-08-12T08:21:38.000Z</time>
      </trkpt>
      <trkpt lat="43.22009" lon="0.88401">
        <ele>452</ele>
        <time>2012-08-12T08:21:39.000Z</time>
      </trkpt>
      <trkpt lat="43.22004" lon="0.88401">
        <ele>450</ele>
        <time>2012-08-12T08:21:40.000Z</time>
      </trkpt>
      <trkpt lat="43.21997" lon="0.88399">
        <ele>449</ele>
        <time>2012-08-12T08:21:42.000Z</time>
      </trkpt>
      <trkpt lat="43.21989" lon="0.88398">
        <ele>444</ele>
        <time>2012-08-12T08:21:44.000Z</time>
      </trkpt>
      <trkpt lat="43.21982" lon="0.88399">
        <ele>438</ele>
        <time>2012-08-12T08:21:46.000Z</time>
      </trkpt>
      <trkpt lat="43.21976" lon="0.884">
        <ele>434</ele>
        <time>2012-08-12T08:21:48.000Z</time>
      </trkpt>
      <trkpt lat="43.21972" lon="0.88402">
        <ele>429</ele>
        <time>2012-08-12T08:21:50.000Z</time>
      </trkpt>
      <trkpt lat="43.21966" lon="0.88402">
        <ele>429</ele>
        <time>2012-08-12T08:21:52.000Z</time>
      </trkpt>
      <trkpt lat="43.2196" lon="0.88401">
        <ele>429</ele>
        <time>2012-08-12T08:21:54.000Z</time>
      </trkpt>
      <trkpt lat="43.21955" lon="0.884">
        <ele>429</ele>
        <time>2012-08-12T08:21:56.000Z</time>
      </trkpt>
      <trkpt lat="43.21947" lon="0.88401">
        <ele>427</ele>
        <time>2012-08-12T08:21:59.000Z</time>
      </trkpt>
      <trkpt lat="43.21942" lon="0.88401">
        <ele>428</ele>
        <time>2012-08-12T08:22:01.000Z</time>
      </trkpt>
      <trkpt lat="43.21936" lon="0.88402">
        <ele>426</ele>
        <time>2012-08-12T08:22:03.000Z</time>
      </trkpt>
      <trkpt lat="43.2193" lon="0.88404">
        <ele>425</ele>
        <time>2012-08-12T08:22:05.000Z</time>
      </trkpt>
      <trkpt lat="43.21924" lon="0.88406">
        <ele>425</ele>
        <time>2012-08-12T08:22:07.000Z</time>
      </trkpt>
      <trkpt lat="43.2192" lon="0.88413">
        <ele>425</ele>
        <time>2012-08-12T08:22:10.000Z</time>
      </trkpt>
      <trkpt lat="43.21916" lon="0.88423">
        <ele>426</ele>
        <time>2012-08-12T08:22:13.000Z</time>
      </trkpt>
      <trkpt lat="43.21913" lon="0.88429">
        <ele>427</ele>
        <time>2012-08-12T08:22:15.000Z</time>
      </trkpt>
      <trkpt lat="43.21909" lon="0.88439">
        <ele>426</ele>
        <time>2012-08-12T08:22:17.000Z</time>
      </trkpt>
      <trkpt lat="43.21906" lon="0.88445">
        <ele>427</ele>
        <time>2012-08-12T08:22:18.000Z</time>
      </trkpt>
      <trkpt lat="43.21904" lon="0.88451">
        <ele>428</ele>
        <time>2012-08-12T08:22:19.000Z</time>
      </trkpt>
      <trkpt lat="43.21903" lon="0.88462">
        <ele>429</ele>
        <time>2012-08-12T08:22:20.000Z</time>
      </trkpt>
      <trkpt lat="43.21901" lon="0.88469">
        <ele>429</ele>
        <time>2012-08-12T08:22:21.000Z</time>
      </trkpt>
      <trkpt lat="43.21901" lon="0.88476">
        <ele>430</ele>
        <time>2012-08-12T08:22:22.000Z</time>
      </trkpt>
      <trkpt lat="43.21899" lon="0.88483">
        <ele>429</ele>
        <time>2012-08-12T08:22:23.000Z</time>
      </trkpt>
      <trkpt lat="43.21895" lon="0.88494">
        <ele>429</ele>
        <time>2012-08-12T08:22:25.000Z</time>
      </trkpt>
      <trkpt lat="43.21893" lon="0.88499">
        <ele>430</ele>
        <time>2012-08-12T08:22:26.000Z</time>
      </trkpt>
      <trkpt lat="43.21891" lon="0.88505">
        <ele>430</ele>
        <time>2012-08-12T08:22:27.000Z</time>
      </trkpt>
      <trkpt lat="43.21889" lon="0.88516">
        <ele>430</ele>
        <time>2012-08-12T08:22:29.000Z</time>
      </trkpt>
      <trkpt lat="43.21887" lon="0.88527">
        <ele>431</ele>
        <time>2012-08-12T08:22:31.000Z</time>
      </trkpt>
      <trkpt lat="43.21884" lon="0.88536">
        <ele>432</ele>
        <time>2012-08-12T08:22:33.000Z</time>
      </trkpt>
      <trkpt lat="43.21881" lon="0.88546">
        <ele>432</ele>
        <time>2012-08-12T08:22:35.000Z</time>
      </trkpt>
      <trkpt lat="43.2188" lon="0.88554">
        <ele>433</ele>
        <time>2012-08-12T08:22:37.000Z</time>
      </trkpt>
      <trkpt lat="43.21879" lon="0.88562">
        <ele>433</ele>
        <time>2012-08-12T08:22:39.000Z</time>
      </trkpt>
      <trkpt lat="43.21876" lon="0.88571">
        <ele>433</ele>
        <time>2012-08-12T08:22:41.000Z</time>
      </trkpt>
      <trkpt lat="43.21873" lon="0.8858">
        <ele>433</ele>
        <time>2012-08-12T08:22:43.000Z</time>
      </trkpt>
      <trkpt lat="43.21871" lon="0.88586">
        <ele>433</ele>
        <time>2012-08-12T08:22:44.000Z</time>
      </trkpt>
      <trkpt lat="43.21868" lon="0.88598">
        <ele>433</ele>
        <time>2012-08-12T08:22:46.000Z</time>
      </trkpt>
      <trkpt lat="43.21867" lon="0.88607">
        <ele>432</ele>
        <time>2012-08-12T08:22:48.000Z</time>
      </trkpt>
      <trkpt lat="43.21864" lon="0.88615">
        <ele>431</ele>
        <time>2012-08-12T08:22:50.000Z</time>
      </trkpt>
      <trkpt lat="43.21862" lon="0.88622">
        <ele>431</ele>
        <time>2012-08-12T08:22:52.000Z</time>
      </trkpt>
      <trkpt lat="43.21858" lon="0.8863">
        <ele>432</ele>
        <time>2012-08-12T08:22:54.000Z</time>
      </trkpt>
      <trkpt lat="43.21855" lon="0.88637">
        <ele>434</ele>
        <time>2012-08-12T08:22:57.000Z</time>
      </trkpt>
      <trkpt lat="43.21852" lon="0.88644">
        <ele>434</ele>
        <time>2012-08-12T08:23:00.000Z</time>
      </trkpt>
      <trkpt lat="43.21848" lon="0.8865">
        <ele>434</ele>
        <time>2012-08-12T08:23:03.000Z</time>
      </trkpt>
      <trkpt lat="43.21846" lon="0.88656">
        <ele>435</ele>
        <time>2012-08-12T08:23:05.000Z</time>
      </trkpt>
      <trkpt lat="43.21842" lon="0.8866">
        <ele>434</ele>
        <time>2012-08-12T08:23:07.000Z</time>
      </trkpt>
      <trkpt lat="43.21838" lon="0.88664">
        <ele>434</ele>
        <time>2012-08-12T08:23:09.000Z</time>
      </trkpt>
      <trkpt lat="43.21834" lon="0.88667">
        <ele>435</ele>
        <time>2012-08-12T08:23:11.000Z</time>
      </trkpt>
      <trkpt lat="43.21829" lon="0.8867">
        <ele>436</ele>
        <time>2012-08-12T08:23:13.000Z</time>
      </trkpt>
      <trkpt lat="43.21825" lon="0.88672">
        <ele>436</ele>
        <time>2012-08-12T08:23:15.000Z</time>
      </trkpt>
      <trkpt lat="43.2182" lon="0.88674">
        <ele>437</ele>
        <time>2012-08-12T08:23:17.000Z</time>
      </trkpt>
      <trkpt lat="43.21814" lon="0.88676">
        <ele>438</ele>
        <time>2012-08-12T08:23:19.000Z</time>
      </trkpt>
      <trkpt lat="43.2181" lon="0.88679">
        <ele>439</ele>
        <time>2012-08-12T08:23:21.000Z</time>
      </trkpt>
      <trkpt lat="43.21804" lon="0.88682">
        <ele>439</ele>
        <time>2012-08-12T08:23:23.000Z</time>
      </trkpt>
      <trkpt lat="43.21797" lon="0.88683">
        <ele>439</ele>
        <time>2012-08-12T08:23:26.000Z</time>
      </trkpt>
      <trkpt lat="43.21792" lon="0.88684">
        <ele>440</ele>
        <time>2012-08-12T08:23:29.000Z</time>
      </trkpt>
      <trkpt lat="43.21789" lon="0.8869">
        <ele>440</ele>
        <time>2012-08-12T08:23:32.000Z</time>
      </trkpt>
      <trkpt lat="43.21789" lon="0.88698">
        <ele>443</ele>
        <time>2012-08-12T08:23:36.000Z</time>
      </trkpt>
      <trkpt lat="43.21794" lon="0.88698">
        <ele>443</ele>
        <time>2012-08-12T08:23:41.000Z</time>
      </trkpt>
      <trkpt lat="43.21791" lon="0.88693">
        <ele>442</ele>
        <time>2012-08-12T08:23:44.000Z</time>
      </trkpt>
      <trkpt lat="43.21788" lon="0.88698">
        <ele>441</ele>
        <time>2012-08-12T08:23:48.000Z</time>
      </trkpt>
      <trkpt lat="43.21788" lon="0.88706">
        <ele>441</ele>
        <time>2012-08-12T08:23:50.000Z</time>
      </trkpt>
      <trkpt lat="43.21789" lon="0.88714">
        <ele>442</ele>
        <time>2012-08-12T08:23:52.000Z</time>
      </trkpt>
      <trkpt lat="43.21791" lon="0.88726">
        <ele>442</ele>
        <time>2012-08-12T08:23:54.000Z</time>
      </trkpt>
      <trkpt lat="43.21789" lon="0.88736">
        <ele>442</ele>
        <time>2012-08-12T08:23:56.000Z</time>
      </trkpt>
      <trkpt lat="43.21788" lon="0.88742">
        <ele>443</ele>
        <time>2012-08-12T08:23:57.000Z</time>
      </trkpt>
      <trkpt lat="43.21784" lon="0.88753">
        <ele>443</ele>
        <time>2012-08-12T08:23:59.000Z</time>
      </trkpt>
      <trkpt lat="43.21781" lon="0.88763">
        <ele>443</ele>
        <time>2012-08-12T08:24:01.000Z</time>
      </trkpt>
      <trkpt lat="43.21778" lon="0.88769">
        <ele>443</ele>
        <time>2012-08-12T08:24:02.000Z</time>
      </trkpt>
      <trkpt lat="43.21774" lon="0.8878">
        <ele>442</ele>
        <time>2012-08-12T08:24:04.000Z</time>
      </trkpt>
      <trkpt lat="43.21772" lon="0.88786">
        <ele>442</ele>
        <time>2012-08-12T08:24:05.000Z</time>
      </trkpt>
      <trkpt lat="43.21769" lon="0.88791">
        <ele>442</ele>
        <time>2012-08-12T08:24:06.000Z</time>
      </trkpt>
      <trkpt lat="43.21766" lon="0.88797">
        <ele>441</ele>
        <time>2012-08-12T08:24:07.000Z</time>
      </trkpt>
      <trkpt lat="43.21763" lon="0.88802">
        <ele>441</ele>
        <time>2012-08-12T08:24:08.000Z</time>
      </trkpt>
      <trkpt lat="43.2176" lon="0.88807">
        <ele>441</ele>
        <time>2012-08-12T08:24:09.000Z</time>
      </trkpt>
      <trkpt lat="43.21756" lon="0.88813">
        <ele>441</ele>
        <time>2012-08-12T08:24:10.000Z</time>
      </trkpt>
      <trkpt lat="43.21753" lon="0.8882">
        <ele>441</ele>
        <time>2012-08-12T08:24:11.000Z</time>
      </trkpt>
      <trkpt lat="43.21749" lon="0.88826">
        <ele>440</ele>
        <time>2012-08-12T08:24:12.000Z</time>
      </trkpt>
      <trkpt lat="43.21745" lon="0.88833">
        <ele>440</ele>
        <time>2012-08-12T08:24:13.000Z</time>
      </trkpt>
      <trkpt lat="43.21741" lon="0.88839">
        <ele>440</ele>
        <time>2012-08-12T08:24:14.000Z</time>
      </trkpt>
      <trkpt lat="43.21738" lon="0.88845">
        <ele>440</ele>
        <time>2012-08-12T08:24:15.000Z</time>
      </trkpt>
      <trkpt lat="43.21733" lon="0.88852">
        <ele>440</ele>
        <time>2012-08-12T08:24:16.000Z</time>
      </trkpt>
      <trkpt lat="43.21729" lon="0.88859">
        <ele>440</ele>
        <time>2012-08-12T08:24:17.000Z</time>
      </trkpt>
      <trkpt lat="43.21725" lon="0.88865">
        <ele>440</ele>
        <time>2012-08-12T08:24:18.000Z</time>
      </trkpt>
      <trkpt lat="43.21722" lon="0.88871">
        <ele>441</ele>
        <time>2012-08-12T08:24:19.000Z</time>
      </trkpt>
      <trkpt lat="43.21717" lon="0.88877">
        <ele>441</ele>
        <time>2012-08-12T08:24:20.000Z</time>
      </trkpt>
      <trkpt lat="43.21714" lon="0.88882">
        <ele>441</ele>
        <time>2012-08-12T08:24:21.000Z</time>
      </trkpt>
      <trkpt lat="43.2171" lon="0.88888">
        <ele>441</ele>
        <time>2012-08-12T08:24:22.000Z</time>
      </trkpt>
      <trkpt lat="43.21706" lon="0.88894">
        <ele>441</ele>
        <time>2012-08-12T08:24:23.000Z</time>
      </trkpt>
      <trkpt lat="43.21701" lon="0.889">
        <ele>441</ele>
        <time>2012-08-12T08:24:24.000Z</time>
      </trkpt>
      <trkpt lat="43.21697" lon="0.88904">
        <ele>441</ele>
        <time>2012-08-12T08:24:25.000Z</time>
      </trkpt>
      <trkpt lat="43.21693" lon="0.8891">
        <ele>441</ele>
        <time>2012-08-12T08:24:26.000Z</time>
      </trkpt>
      <trkpt lat="43.21689" lon="0.88915">
        <ele>441</ele>
        <time>2012-08-12T08:24:27.000Z</time>
      </trkpt>
      <trkpt lat="43.21684" lon="0.88921">
        <ele>440</ele>
        <time>2012-08-12T08:24:28.000Z</time>
      </trkpt>
      <trkpt lat="43.2168" lon="0.88926">
        <ele>440</ele>
        <time>2012-08-12T08:24:29.000Z</time>
      </trkpt>
      <trkpt lat="43.21676" lon="0.88932">
        <ele>441</ele>
        <time>2012-08-12T08:24:30.000Z</time>
      </trkpt>
      <trkpt lat="43.21673" lon="0.88937">
        <ele>441</ele>
        <time>2012-08-12T08:24:31.000Z</time>
      </trkpt>
      <trkpt lat="43.21669" lon="0.88942">
        <ele>442</ele>
        <time>2012-08-12T08:24:32.000Z</time>
      </trkpt>
      <trkpt lat="43.21666" lon="0.88947">
        <ele>442</ele>
        <time>2012-08-12T08:24:33.000Z</time>
      </trkpt>
      <trkpt lat="43.21662" lon="0.88952">
        <ele>442</ele>
        <time>2012-08-12T08:24:34.000Z</time>
      </trkpt>
      <trkpt lat="43.21659" lon="0.88956">
        <ele>442</ele>
        <time>2012-08-12T08:24:35.000Z</time>
      </trkpt>
      <trkpt lat="43.21656" lon="0.88961">
        <ele>442</ele>
        <time>2012-08-12T08:24:36.000Z</time>
      </trkpt>
      <trkpt lat="43.21652" lon="0.88966">
        <ele>442</ele>
        <time>2012-08-12T08:24:37.000Z</time>
      </trkpt>
      <trkpt lat="43.21648" lon="0.8897">
        <ele>443</ele>
        <time>2012-08-12T08:24:38.000Z</time>
      </trkpt>
      <trkpt lat="43.21645" lon="0.88975">
        <ele>443</ele>
        <time>2012-08-12T08:24:39.000Z</time>
      </trkpt>
      <trkpt lat="43.21641" lon="0.8898">
        <ele>443</ele>
        <time>2012-08-12T08:24:40.000Z</time>
      </trkpt>
      <trkpt lat="43.21637" lon="0.88984">
        <ele>443</ele>
        <time>2012-08-12T08:24:41.000Z</time>
      </trkpt>
      <trkpt lat="43.21632" lon="0.8899">
        <ele>443</ele>
        <time>2012-08-12T08:24:42.000Z</time>
      </trkpt>
      <trkpt lat="43.21629" lon="0.88995">
        <ele>444</ele>
        <time>2012-08-12T08:24:43.000Z</time>
      </trkpt>
      <trkpt lat="43.21624" lon="0.89">
        <ele>444</ele>
        <time>2012-08-12T08:24:44.000Z</time>
      </trkpt>
      <trkpt lat="43.2162" lon="0.89006">
        <ele>444</ele>
        <time>2012-08-12T08:24:45.000Z</time>
      </trkpt>
      <trkpt lat="43.21614" lon="0.89013">
        <ele>445</ele>
        <time>2012-08-12T08:24:46.000Z</time>
      </trkpt>
      <trkpt lat="43.21609" lon="0.8902">
        <ele>445</ele>
        <time>2012-08-12T08:24:47.000Z</time>
      </trkpt>
      <trkpt lat="43.21604" lon="0.89027">
        <ele>444</ele>
        <time>2012-08-12T08:24:48.000Z</time>
      </trkpt>
      <trkpt lat="43.21599" lon="0.89034">
        <ele>444</ele>
        <time>2012-08-12T08:24:49.000Z</time>
      </trkpt>
      <trkpt lat="43.21593" lon="0.89041">
        <ele>445</ele>
        <time>2012-08-12T08:24:50.000Z</time>
      </trkpt>
      <trkpt lat="43.21588" lon="0.89048">
        <ele>445</ele>
        <time>2012-08-12T08:24:51.000Z</time>
      </trkpt>
      <trkpt lat="43.21583" lon="0.89055">
        <ele>446</ele>
        <time>2012-08-12T08:24:52.000Z</time>
      </trkpt>
      <trkpt lat="43.21578" lon="0.89061">
        <ele>446</ele>
        <time>2012-08-12T08:24:53.000Z</time>
      </trkpt>
      <trkpt lat="43.21574" lon="0.89066">
        <ele>445</ele>
        <time>2012-08-12T08:24:54.000Z</time>
      </trkpt>
      <trkpt lat="43.21569" lon="0.89072">
        <ele>445</ele>
        <time>2012-08-12T08:24:55.000Z</time>
      </trkpt>
      <trkpt lat="43.21564" lon="0.89079">
        <ele>445</ele>
        <time>2012-08-12T08:24:56.000Z</time>
      </trkpt>
      <trkpt lat="43.2156" lon="0.89084">
        <ele>446</ele>
        <time>2012-08-12T08:24:57.000Z</time>
      </trkpt>
      <trkpt lat="43.21555" lon="0.8909">
        <ele>445</ele>
        <time>2012-08-12T08:24:58.000Z</time>
      </trkpt>
      <trkpt lat="43.2155" lon="0.89096">
        <ele>445</ele>
        <time>2012-08-12T08:24:59.000Z</time>
      </trkpt>
      <trkpt lat="43.21546" lon="0.89102">
        <ele>445</ele>
        <time>2012-08-12T08:25:00.000Z</time>
      </trkpt>
      <trkpt lat="43.21541" lon="0.89108">
        <ele>445</ele>
        <time>2012-08-12T08:25:01.000Z</time>
      </trkpt>
      <trkpt lat="43.21537" lon="0.89114">
        <ele>446</ele>
        <time>2012-08-12T08:25:02.000Z</time>
      </trkpt>
      <trkpt lat="43.21533" lon="0.8912">
        <ele>446</ele>
        <time>2012-08-12T08:25:03.000Z</time>
      </trkpt>
      <trkpt lat="43.21528" lon="0.89126">
        <ele>446</ele>
        <time>2012-08-12T08:25:04.000Z</time>
      </trkpt>
      <trkpt lat="43.21523" lon="0.89133">
        <ele>446</ele>
        <time>2012-08-12T08:25:05.000Z</time>
      </trkpt>
      <trkpt lat="43.21518" lon="0.89139">
        <ele>447</ele>
        <time>2012-08-12T08:25:06.000Z</time>
      </trkpt>
      <trkpt lat="43.21514" lon="0.89144">
        <ele>447</ele>
        <time>2012-08-12T08:25:07.000Z</time>
      </trkpt>
      <trkpt lat="43.2151" lon="0.8915">
        <ele>447</ele>
        <time>2012-08-12T08:25:08.000Z</time>
      </trkpt>
      <trkpt lat="43.21505" lon="0.89156">
        <ele>448</ele>
        <time>2012-08-12T08:25:09.000Z</time>
      </trkpt>
      <trkpt lat="43.21502" lon="0.89161">
        <ele>448</ele>
        <time>2012-08-12T08:25:10.000Z</time>
      </trkpt>
      <trkpt lat="43.21497" lon="0.89166">
        <ele>448</ele>
        <time>2012-08-12T08:25:11.000Z</time>
      </trkpt>
      <trkpt lat="43.21493" lon="0.89171">
        <ele>448</ele>
        <time>2012-08-12T08:25:12.000Z</time>
      </trkpt>
      <trkpt lat="43.21489" lon="0.89176">
        <ele>448</ele>
        <time>2012-08-12T08:25:13.000Z</time>
      </trkpt>
      <trkpt lat="43.21485" lon="0.89181">
        <ele>448</ele>
        <time>2012-08-12T08:25:14.000Z</time>
      </trkpt>
      <trkpt lat="43.21481" lon="0.89186">
        <ele>449</ele>
        <time>2012-08-12T08:25:15.000Z</time>
      </trkpt>
      <trkpt lat="43.21478" lon="0.89191">
        <ele>449</ele>
        <time>2012-08-12T08:25:16.000Z</time>
      </trkpt>
      <trkpt lat="43.21474" lon="0.89196">
        <ele>450</ele>
        <time>2012-08-12T08:25:17.000Z</time>
      </trkpt>
      <trkpt lat="43.2147" lon="0.89201">
        <ele>449</ele>
        <time>2012-08-12T08:25:18.000Z</time>
      </trkpt>
      <trkpt lat="43.21464" lon="0.8921">
        <ele>450</ele>
        <time>2012-08-12T08:25:20.000Z</time>
      </trkpt>
      <trkpt lat="43.21458" lon="0.89218">
        <ele>450</ele>
        <time>2012-08-12T08:25:22.000Z</time>
      </trkpt>
      <trkpt lat="43.21454" lon="0.89222">
        <ele>450</ele>
        <time>2012-08-12T08:25:23.000Z</time>
      </trkpt>
      <trkpt lat="43.21447" lon="0.8923">
        <ele>450</ele>
        <time>2012-08-12T08:25:25.000Z</time>
      </trkpt>
      <trkpt lat="43.21442" lon="0.89239">
        <ele>451</ele>
        <time>2012-08-12T08:25:27.000Z</time>
      </trkpt>
      <trkpt lat="43.21436" lon="0.89246">
        <ele>452</ele>
        <time>2012-08-12T08:25:29.000Z</time>
      </trkpt>
      <trkpt lat="43.21431" lon="0.89253">
        <ele>452</ele>
        <time>2012-08-12T08:25:31.000Z</time>
      </trkpt>
      <trkpt lat="43.21425" lon="0.89259">
        <ele>452</ele>
        <time>2012-08-12T08:25:33.000Z</time>
      </trkpt>
      <trkpt lat="43.21421" lon="0.89264">
        <ele>453</ele>
        <time>2012-08-12T08:25:35.000Z</time>
      </trkpt>
      <trkpt lat="43.21417" lon="0.8927">
        <ele>453</ele>
        <time>2012-08-12T08:25:37.000Z</time>
      </trkpt>
      <trkpt lat="43.21413" lon="0.89276">
        <ele>454</ele>
        <time>2012-08-12T08:25:39.000Z</time>
      </trkpt>
      <trkpt lat="43.21409" lon="0.89281">
        <ele>453</ele>
        <time>2012-08-12T08:25:41.000Z</time>
      </trkpt>
      <trkpt lat="43.21404" lon="0.89286">
        <ele>453</ele>
        <time>2012-08-12T08:25:43.000Z</time>
      </trkpt>
      <trkpt lat="43.214" lon="0.89291">
        <ele>453</ele>
        <time>2012-08-12T08:25:45.000Z</time>
      </trkpt>
      <trkpt lat="43.21396" lon="0.89297">
        <ele>454</ele>
        <time>2012-08-12T08:25:47.000Z</time>
      </trkpt>
      <trkpt lat="43.21393" lon="0.89301">
        <ele>454</ele>
        <time>2012-08-12T08:25:49.000Z</time>
      </trkpt>
      <trkpt lat="43.21389" lon="0.89306">
        <ele>455</ele>
        <time>2012-08-12T08:25:51.000Z</time>
      </trkpt>
      <trkpt lat="43.21385" lon="0.89311">
        <ele>455</ele>
        <time>2012-08-12T08:25:53.000Z</time>
      </trkpt>
      <trkpt lat="43.21382" lon="0.89317">
        <ele>455</ele>
        <time>2012-08-12T08:25:55.000Z</time>
      </trkpt>
      <trkpt lat="43.21378" lon="0.89324">
        <ele>455</ele>
        <time>2012-08-12T08:25:57.000Z</time>
      </trkpt>
      <trkpt lat="43.21375" lon="0.8933">
        <ele>456</ele>
        <time>2012-08-12T08:25:59.000Z</time>
      </trkpt>
      <trkpt lat="43.21371" lon="0.89336">
        <ele>456</ele>
        <time>2012-08-12T08:26:01.000Z</time>
      </trkpt>
      <trkpt lat="43.21368" lon="0.89343">
        <ele>456</ele>
        <time>2012-08-12T08:26:03.000Z</time>
      </trkpt>
      <trkpt lat="43.21363" lon="0.89348">
        <ele>457</ele>
        <time>2012-08-12T08:26:06.000Z</time>
      </trkpt>
      <trkpt lat="43.21359" lon="0.89351">
        <ele>458</ele>
        <time>2012-08-12T08:26:09.000Z</time>
      </trkpt>
      <trkpt lat="43.21355" lon="0.89354">
        <ele>458</ele>
        <time>2012-08-12T08:26:11.000Z</time>
      </trkpt>
      <trkpt lat="43.21347" lon="0.89354">
        <ele>459</ele>
        <time>2012-08-12T08:26:13.000Z</time>
      </trkpt>
      <trkpt lat="43.21338" lon="0.89355">
        <ele>458</ele>
        <time>2012-08-12T08:26:15.000Z</time>
      </trkpt>
      <trkpt lat="43.21331" lon="0.8936">
        <ele>457</ele>
        <time>2012-08-12T08:26:17.000Z</time>
      </trkpt>
      <trkpt lat="43.21325" lon="0.89366">
        <ele>458</ele>
        <time>2012-08-12T08:26:19.000Z</time>
      </trkpt>
      <trkpt lat="43.21322" lon="0.89372">
        <ele>459</ele>
        <time>2012-08-12T08:26:21.000Z</time>
      </trkpt>
      <trkpt lat="43.21319" lon="0.89377">
        <ele>459</ele>
        <time>2012-08-12T08:26:23.000Z</time>
      </trkpt>
      <trkpt lat="43.21315" lon="0.89381">
        <ele>460</ele>
        <time>2012-08-12T08:26:25.000Z</time>
      </trkpt>
      <trkpt lat="43.2131" lon="0.89383">
        <ele>459</ele>
        <time>2012-08-12T08:26:27.000Z</time>
      </trkpt>
      <trkpt lat="43.21304" lon="0.89383">
        <ele>459</ele>
        <time>2012-08-12T08:26:29.000Z</time>
      </trkpt>
      <trkpt lat="43.21298" lon="0.89382">
        <ele>459</ele>
        <time>2012-08-12T08:26:31.000Z</time>
      </trkpt>
      <trkpt lat="43.21293" lon="0.89381">
        <ele>459</ele>
        <time>2012-08-12T08:26:33.000Z</time>
      </trkpt>
      <trkpt lat="43.21288" lon="0.89381">
        <ele>459</ele>
        <time>2012-08-12T08:26:35.000Z</time>
      </trkpt>
      <trkpt lat="43.21283" lon="0.89383">
        <ele>459</ele>
        <time>2012-08-12T08:26:37.000Z</time>
      </trkpt>
      <trkpt lat="43.21278" lon="0.89385">
        <ele>458</ele>
        <time>2012-08-12T08:26:39.000Z</time>
      </trkpt>
      <trkpt lat="43.21274" lon="0.8939">
        <ele>458</ele>
        <time>2012-08-12T08:26:41.000Z</time>
      </trkpt>
      <trkpt lat="43.21268" lon="0.89396">
        <ele>458</ele>
        <time>2012-08-12T08:26:43.000Z</time>
      </trkpt>
      <trkpt lat="43.21264" lon="0.89402">
        <ele>458</ele>
        <time>2012-08-12T08:26:45.000Z</time>
      </trkpt>
      <trkpt lat="43.21258" lon="0.8941">
        <ele>458</ele>
        <time>2012-08-12T08:26:47.000Z</time>
      </trkpt>
      <trkpt lat="43.21253" lon="0.89417">
        <ele>458</ele>
        <time>2012-08-12T08:26:49.000Z</time>
      </trkpt>
      <trkpt lat="43.21247" lon="0.89424">
        <ele>457</ele>
        <time>2012-08-12T08:26:51.000Z</time>
      </trkpt>
      <trkpt lat="43.21241" lon="0.89431">
        <ele>457</ele>
        <time>2012-08-12T08:26:53.000Z</time>
      </trkpt>
      <trkpt lat="43.21236" lon="0.89438">
        <ele>457</ele>
        <time>2012-08-12T08:26:55.000Z</time>
      </trkpt>
      <trkpt lat="43.21231" lon="0.89444">
        <ele>457</ele>
        <time>2012-08-12T08:26:57.000Z</time>
      </trkpt>
      <trkpt lat="43.21226" lon="0.8945">
        <ele>457</ele>
        <time>2012-08-12T08:26:59.000Z</time>
      </trkpt>
      <trkpt lat="43.21221" lon="0.89455">
        <ele>458</ele>
        <time>2012-08-12T08:27:01.000Z</time>
      </trkpt>
      <trkpt lat="43.21217" lon="0.8946">
        <ele>458</ele>
        <time>2012-08-12T08:27:03.000Z</time>
      </trkpt>
      <trkpt lat="43.21213" lon="0.89463">
        <ele>459</ele>
        <time>2012-08-12T08:27:07.000Z</time>
      </trkpt>
      <trkpt lat="43.21209" lon="0.89468">
        <ele>459</ele>
        <time>2012-08-12T08:27:12.000Z</time>
      </trkpt>
      <trkpt lat="43.21206" lon="0.89474">
        <ele>459</ele>
        <time>2012-08-12T08:27:16.000Z</time>
      </trkpt>
      <trkpt lat="43.21203" lon="0.89481">
        <ele>459</ele>
        <time>2012-08-12T08:27:20.000Z</time>
      </trkpt>
      <trkpt lat="43.212" lon="0.89486">
        <ele>459</ele>
        <time>2012-08-12T08:27:24.000Z</time>
      </trkpt>
      <trkpt lat="43.21198" lon="0.89492">
        <ele>459</ele>
        <time>2012-08-12T08:27:28.000Z</time>
      </trkpt>
      <trkpt lat="43.21194" lon="0.89498">
        <ele>460</ele>
        <time>2012-08-12T08:27:31.000Z</time>
      </trkpt>
      <trkpt lat="43.21191" lon="0.89504">
        <ele>460</ele>
        <time>2012-08-12T08:27:34.000Z</time>
      </trkpt>
      <trkpt lat="43.21188" lon="0.8951">
        <ele>461</ele>
        <time>2012-08-12T08:27:37.000Z</time>
      </trkpt>
      <trkpt lat="43.21185" lon="0.89515">
        <ele>461</ele>
        <time>2012-08-12T08:27:40.000Z</time>
      </trkpt>
      <trkpt lat="43.21182" lon="0.8952">
        <ele>462</ele>
        <time>2012-08-12T08:27:43.000Z</time>
      </trkpt>
      <trkpt lat="43.21179" lon="0.89526">
        <ele>462</ele>
        <time>2012-08-12T08:27:46.000Z</time>
      </trkpt>
      <trkpt lat="43.21176" lon="0.89532">
        <ele>462</ele>
        <time>2012-08-12T08:27:49.000Z</time>
      </trkpt>
      <trkpt lat="43.21172" lon="0.89537">
        <ele>463</ele>
        <time>2012-08-12T08:27:52.000Z</time>
      </trkpt>
      <trkpt lat="43.21169" lon="0.89543">
        <ele>463</ele>
        <time>2012-08-12T08:27:56.000Z</time>
      </trkpt>
      <trkpt lat="43.21167" lon="0.89549">
        <ele>464</ele>
        <time>2012-08-12T08:28:00.000Z</time>
      </trkpt>
      <trkpt lat="43.21164" lon="0.89555">
        <ele>464</ele>
        <time>2012-08-12T08:28:04.000Z</time>
      </trkpt>
      <trkpt lat="43.21161" lon="0.8956">
        <ele>464</ele>
        <time>2012-08-12T08:28:08.000Z</time>
      </trkpt>
      <trkpt lat="43.21157" lon="0.89564">
        <ele>465</ele>
        <time>2012-08-12T08:28:12.000Z</time>
      </trkpt>
      <trkpt lat="43.21162" lon="0.89568">
        <ele>462</ele>
        <time>2012-08-12T08:28:27.000Z</time>
      </trkpt>
      <trkpt lat="43.21165" lon="0.8956">
        <ele>463</ele>
        <time>2012-08-12T08:28:31.000Z</time>
      </trkpt>
      <trkpt lat="43.21166" lon="0.89554">
        <ele>462</ele>
        <time>2012-08-12T08:28:34.000Z</time>
      </trkpt>
      <trkpt lat="43.21168" lon="0.89546">
        <ele>463</ele>
        <time>2012-08-12T08:28:37.000Z</time>
      </trkpt>
      <trkpt lat="43.21171" lon="0.8954">
        <ele>462</ele>
        <time>2012-08-12T08:28:39.000Z</time>
      </trkpt>
      <trkpt lat="43.21173" lon="0.89533">
        <ele>462</ele>
        <time>2012-08-12T08:28:41.000Z</time>
      </trkpt>
      <trkpt lat="43.21176" lon="0.89526">
        <ele>462</ele>
        <time>2012-08-12T08:28:43.000Z</time>
      </trkpt>
      <trkpt lat="43.21179" lon="0.8952">
        <ele>461</ele>
        <time>2012-08-12T08:28:45.000Z</time>
      </trkpt>
      <trkpt lat="43.21182" lon="0.89514">
        <ele>461</ele>
        <time>2012-08-12T08:28:47.000Z</time>
      </trkpt>
      <trkpt lat="43.21186" lon="0.89508">
        <ele>460</ele>
        <time>2012-08-12T08:28:49.000Z</time>
      </trkpt>
      <trkpt lat="43.2119" lon="0.89504">
        <ele>460</ele>
        <time>2012-08-12T08:28:51.000Z</time>
      </trkpt>
      <trkpt lat="43.21194" lon="0.89499">
        <ele>459</ele>
        <time>2012-08-12T08:28:53.000Z</time>
      </trkpt>
      <trkpt lat="43.21198" lon="0.89494">
        <ele>459</ele>
        <time>2012-08-12T08:28:55.000Z</time>
      </trkpt>
      <trkpt lat="43.21202" lon="0.89487">
        <ele>459</ele>
        <time>2012-08-12T08:28:57.000Z</time>
      </trkpt>
      <trkpt lat="43.21206" lon="0.8948">
        <ele>459</ele>
        <time>2012-08-12T08:28:59.000Z</time>
      </trkpt>
      <trkpt lat="43.21209" lon="0.89475">
        <ele>459</ele>
        <time>2012-08-12T08:29:00.000Z</time>
      </trkpt>
      <trkpt lat="43.21215" lon="0.89466">
        <ele>459</ele>
        <time>2012-08-12T08:29:02.000Z</time>
      </trkpt>
      <trkpt lat="43.21218" lon="0.89461">
        <ele>458</ele>
        <time>2012-08-12T08:29:03.000Z</time>
      </trkpt>
      <trkpt lat="43.21222" lon="0.89456">
        <ele>458</ele>
        <time>2012-08-12T08:29:04.000Z</time>
      </trkpt>
      <trkpt lat="43.21226" lon="0.89452">
        <ele>458</ele>
        <time>2012-08-12T08:29:05.000Z</time>
      </trkpt>
      <trkpt lat="43.21231" lon="0.89447">
        <ele>458</ele>
        <time>2012-08-12T08:29:06.000Z</time>
      </trkpt>
      <trkpt lat="43.21234" lon="0.89442">
        <ele>458</ele>
        <time>2012-08-12T08:29:07.000Z</time>
      </trkpt>
      <trkpt lat="43.21239" lon="0.89437">
        <ele>458</ele>
        <time>2012-08-12T08:29:08.000Z</time>
      </trkpt>
      <trkpt lat="43.21242" lon="0.89432">
        <ele>458</ele>
        <time>2012-08-12T08:29:09.000Z</time>
      </trkpt>
      <trkpt lat="43.21246" lon="0.89428">
        <ele>458</ele>
        <time>2012-08-12T08:29:10.000Z</time>
      </trkpt>
      <trkpt lat="43.2125" lon="0.89423">
        <ele>458</ele>
        <time>2012-08-12T08:29:11.000Z</time>
      </trkpt>
      <trkpt lat="43.21253" lon="0.89419">
        <ele>458</ele>
        <time>2012-08-12T08:29:12.000Z</time>
      </trkpt>
      <trkpt lat="43.21256" lon="0.89415">
        <ele>458</ele>
        <time>2012-08-12T08:29:13.000Z</time>
      </trkpt>
      <trkpt lat="43.21259" lon="0.8941">
        <ele>458</ele>
        <time>2012-08-12T08:29:14.000Z</time>
      </trkpt>
      <trkpt lat="43.21265" lon="0.89403">
        <ele>458</ele>
        <time>2012-08-12T08:29:16.000Z</time>
      </trkpt>
      <trkpt lat="43.21271" lon="0.89396">
        <ele>458</ele>
        <time>2012-08-12T08:29:18.000Z</time>
      </trkpt>
      <trkpt lat="43.21277" lon="0.89389">
        <ele>458</ele>
        <time>2012-08-12T08:29:20.000Z</time>
      </trkpt>
      <trkpt lat="43.21283" lon="0.89384">
        <ele>458</ele>
        <time>2012-08-12T08:29:22.000Z</time>
      </trkpt>
      <trkpt lat="43.21291" lon="0.89381">
        <ele>458</ele>
        <time>2012-08-12T08:29:24.000Z</time>
      </trkpt>
      <trkpt lat="43.213" lon="0.89382">
        <ele>458</ele>
        <time>2012-08-12T08:29:26.000Z</time>
      </trkpt>
      <trkpt lat="43.21304" lon="0.89384">
        <ele>457</ele>
        <time>2012-08-12T08:29:27.000Z</time>
      </trkpt>
      <trkpt lat="43.21309" lon="0.89385">
        <ele>458</ele>
        <time>2012-08-12T08:29:28.000Z</time>
      </trkpt>
      <trkpt lat="43.21317" lon="0.89385">
        <ele>458</ele>
        <time>2012-08-12T08:29:30.000Z</time>
      </trkpt>
      <trkpt lat="43.21325" lon="0.89381">
        <ele>458</ele>
        <time>2012-08-12T08:29:32.000Z</time>
      </trkpt>
      <trkpt lat="43.2133" lon="0.89373">
        <ele>457</ele>
        <time>2012-08-12T08:29:34.000Z</time>
      </trkpt>
      <trkpt lat="43.21333" lon="0.89367">
        <ele>457</ele>
        <time>2012-08-12T08:29:35.000Z</time>
      </trkpt>
      <trkpt lat="43.21338" lon="0.89362">
        <ele>458</ele>
        <time>2012-08-12T08:29:36.000Z</time>
      </trkpt>
      <trkpt lat="43.21342" lon="0.89358">
        <ele>458</ele>
        <time>2012-08-12T08:29:37.000Z</time>
      </trkpt>
      <trkpt lat="43.2135" lon="0.89352">
        <ele>457</ele>
        <time>2012-08-12T08:29:39.000Z</time>
      </trkpt>
      <trkpt lat="43.21357" lon="0.89349">
        <ele>457</ele>
        <time>2012-08-12T08:29:41.000Z</time>
      </trkpt>
      <trkpt lat="43.21362" lon="0.89348">
        <ele>457</ele>
        <time>2012-08-12T08:29:43.000Z</time>
      </trkpt>
      <trkpt lat="43.2136" lon="0.89356">
        <ele>459</ele>
        <time>2012-08-12T08:29:47.000Z</time>
      </trkpt>
      <trkpt lat="43.21356" lon="0.89362">
        <ele>461</ele>
        <time>2012-08-12T08:29:48.000Z</time>
      </trkpt>
      <trkpt lat="43.21349" lon="0.89371">
        <ele>463</ele>
        <time>2012-08-12T08:29:50.000Z</time>
      </trkpt>
      <trkpt lat="43.21343" lon="0.89382">
        <ele>463</ele>
        <time>2012-08-12T08:29:52.000Z</time>
      </trkpt>
      <trkpt lat="43.2134" lon="0.89387">
        <ele>464</ele>
        <time>2012-08-12T08:29:53.000Z</time>
      </trkpt>
      <trkpt lat="43.21334" lon="0.89397">
        <ele>464</ele>
        <time>2012-08-12T08:29:55.000Z</time>
      </trkpt>
      <trkpt lat="43.21329" lon="0.89406">
        <ele>463</ele>
        <time>2012-08-12T08:29:57.000Z</time>
      </trkpt>
      <trkpt lat="43.21325" lon="0.89414">
        <ele>464</ele>
        <time>2012-08-12T08:29:59.000Z</time>
      </trkpt>
      <trkpt lat="43.2132" lon="0.89422">
        <ele>465</ele>
        <time>2012-08-12T08:30:01.000Z</time>
      </trkpt>
      <trkpt lat="43.21316" lon="0.8943">
        <ele>465</ele>
        <time>2012-08-12T08:30:03.000Z</time>
      </trkpt>
      <trkpt lat="43.21312" lon="0.89438">
        <ele>465</ele>
        <time>2012-08-12T08:30:05.000Z</time>
      </trkpt>
      <trkpt lat="43.21307" lon="0.89446">
        <ele>467</ele>
        <time>2012-08-12T08:30:07.000Z</time>
      </trkpt>
      <trkpt lat="43.21303" lon="0.89454">
        <ele>467</ele>
        <time>2012-08-12T08:30:09.000Z</time>
      </trkpt>
      <trkpt lat="43.21299" lon="0.89463">
        <ele>468</ele>
        <time>2012-08-12T08:30:11.000Z</time>
      </trkpt>
      <trkpt lat="43.21295" lon="0.89472">
        <ele>468</ele>
        <time>2012-08-12T08:30:13.000Z</time>
      </trkpt>
      <trkpt lat="43.2129" lon="0.89481">
        <ele>469</ele>
        <time>2012-08-12T08:30:15.000Z</time>
      </trkpt>
      <trkpt lat="43.21286" lon="0.8949">
        <ele>469</ele>
        <time>2012-08-12T08:30:17.000Z</time>
      </trkpt>
      <trkpt lat="43.21282" lon="0.89499">
        <ele>469</ele>
        <time>2012-08-12T08:30:19.000Z</time>
      </trkpt>
      <trkpt lat="43.21277" lon="0.89507">
        <ele>470</ele>
        <time>2012-08-12T08:30:21.000Z</time>
      </trkpt>
      <trkpt lat="43.21274" lon="0.89516">
        <ele>470</ele>
        <time>2012-08-12T08:30:23.000Z</time>
      </trkpt>
      <trkpt lat="43.21269" lon="0.89525">
        <ele>470</ele>
        <time>2012-08-12T08:30:25.000Z</time>
      </trkpt>
      <trkpt lat="43.21264" lon="0.89534">
        <ele>470</ele>
        <time>2012-08-12T08:30:27.000Z</time>
      </trkpt>
      <trkpt lat="43.21261" lon="0.89543">
        <ele>470</ele>
        <time>2012-08-12T08:30:29.000Z</time>
      </trkpt>
      <trkpt lat="43.21256" lon="0.89551">
        <ele>471</ele>
        <time>2012-08-12T08:30:31.000Z</time>
      </trkpt>
      <trkpt lat="43.21252" lon="0.8956">
        <ele>471</ele>
        <time>2012-08-12T08:30:33.000Z</time>
      </trkpt>
      <trkpt lat="43.21248" lon="0.89569">
        <ele>472</ele>
        <time>2012-08-12T08:30:35.000Z</time>
      </trkpt>
      <trkpt lat="43.21245" lon="0.89577">
        <ele>472</ele>
        <time>2012-08-12T08:30:37.000Z</time>
      </trkpt>
      <trkpt lat="43.2124" lon="0.89585">
        <ele>472</ele>
        <time>2012-08-12T08:30:39.000Z</time>
      </trkpt>
      <trkpt lat="43.21237" lon="0.89593">
        <ele>472</ele>
        <time>2012-08-12T08:30:41.000Z</time>
      </trkpt>
      <trkpt lat="43.21232" lon="0.89602">
        <ele>473</ele>
        <time>2012-08-12T08:30:43.000Z</time>
      </trkpt>
      <trkpt lat="43.21228" lon="0.89611">
        <ele>472</ele>
        <time>2012-08-12T08:30:45.000Z</time>
      </trkpt>
      <trkpt lat="43.21224" lon="0.89619">
        <ele>472</ele>
        <time>2012-08-12T08:30:47.000Z</time>
      </trkpt>
      <trkpt lat="43.2122" lon="0.89628">
        <ele>472</ele>
        <time>2012-08-12T08:30:49.000Z</time>
      </trkpt>
      <trkpt lat="43.21215" lon="0.89636">
        <ele>472</ele>
        <time>2012-08-12T08:30:51.000Z</time>
      </trkpt>
      <trkpt lat="43.2121" lon="0.89645">
        <ele>473</ele>
        <time>2012-08-12T08:30:53.000Z</time>
      </trkpt>
      <trkpt lat="43.21205" lon="0.89653">
        <ele>473</ele>
        <time>2012-08-12T08:30:55.000Z</time>
      </trkpt>
      <trkpt lat="43.21199" lon="0.89663">
        <ele>472</ele>
        <time>2012-08-12T08:30:57.000Z</time>
      </trkpt>
      <trkpt lat="43.21196" lon="0.89668">
        <ele>472</ele>
        <time>2012-08-12T08:30:58.000Z</time>
      </trkpt>
      <trkpt lat="43.21192" lon="0.89673">
        <ele>472</ele>
        <time>2012-08-12T08:30:59.000Z</time>
      </trkpt>
      <trkpt lat="43.21188" lon="0.89678">
        <ele>472</ele>
        <time>2012-08-12T08:31:00.000Z</time>
      </trkpt>
      <trkpt lat="43.21185" lon="0.89682">
        <ele>472</ele>
        <time>2012-08-12T08:31:01.000Z</time>
      </trkpt>
      <trkpt lat="43.21181" lon="0.89688">
        <ele>472</ele>
        <time>2012-08-12T08:31:02.000Z</time>
      </trkpt>
      <trkpt lat="43.21178" lon="0.89693">
        <ele>472</ele>
        <time>2012-08-12T08:31:03.000Z</time>
      </trkpt>
      <trkpt lat="43.21174" lon="0.89698">
        <ele>472</ele>
        <time>2012-08-12T08:31:04.000Z</time>
      </trkpt>
      <trkpt lat="43.21171" lon="0.89703">
        <ele>472</ele>
        <time>2012-08-12T08:31:05.000Z</time>
      </trkpt>
      <trkpt lat="43.21167" lon="0.89708">
        <ele>472</ele>
        <time>2012-08-12T08:31:06.000Z</time>
      </trkpt>
      <trkpt lat="43.21163" lon="0.89713">
        <ele>472</ele>
        <time>2012-08-12T08:31:07.000Z</time>
      </trkpt>
      <trkpt lat="43.21159" lon="0.89718">
        <ele>472</ele>
        <time>2012-08-12T08:31:08.000Z</time>
      </trkpt>
      <trkpt lat="43.21155" lon="0.89722">
        <ele>472</ele>
        <time>2012-08-12T08:31:09.000Z</time>
      </trkpt>
      <trkpt lat="43.21151" lon="0.89727">
        <ele>472</ele>
        <time>2012-08-12T08:31:10.000Z</time>
      </trkpt>
      <trkpt lat="43.21147" lon="0.89732">
        <ele>472</ele>
        <time>2012-08-12T08:31:11.000Z</time>
      </trkpt>
      <trkpt lat="43.21143" lon="0.89737">
        <ele>473</ele>
        <time>2012-08-12T08:31:12.000Z</time>
      </trkpt>
      <trkpt lat="43.2114" lon="0.89742">
        <ele>472</ele>
        <time>2012-08-12T08:31:13.000Z</time>
      </trkpt>
      <trkpt lat="43.21136" lon="0.89747">
        <ele>472</ele>
        <time>2012-08-12T08:31:14.000Z</time>
      </trkpt>
      <trkpt lat="43.21132" lon="0.89752">
        <ele>472</ele>
        <time>2012-08-12T08:31:15.000Z</time>
      </trkpt>
      <trkpt lat="43.21128" lon="0.89756">
        <ele>472</ele>
        <time>2012-08-12T08:31:16.000Z</time>
      </trkpt>
      <trkpt lat="43.21123" lon="0.89761">
        <ele>472</ele>
        <time>2012-08-12T08:31:17.000Z</time>
      </trkpt>
      <trkpt lat="43.2112" lon="0.89765">
        <ele>472</ele>
        <time>2012-08-12T08:31:18.000Z</time>
      </trkpt>
      <trkpt lat="43.21115" lon="0.8977">
        <ele>472</ele>
        <time>2012-08-12T08:31:19.000Z</time>
      </trkpt>
      <trkpt lat="43.21111" lon="0.89775">
        <ele>472</ele>
        <time>2012-08-12T08:31:20.000Z</time>
      </trkpt>
      <trkpt lat="43.21107" lon="0.89779">
        <ele>472</ele>
        <time>2012-08-12T08:31:21.000Z</time>
      </trkpt>
      <trkpt lat="43.21103" lon="0.89783">
        <ele>472</ele>
        <time>2012-08-12T08:31:22.000Z</time>
      </trkpt>
      <trkpt lat="43.21095" lon="0.8979">
        <ele>472</ele>
        <time>2012-08-12T08:31:24.000Z</time>
      </trkpt>
      <trkpt lat="43.21091" lon="0.89794">
        <ele>472</ele>
        <time>2012-08-12T08:31:25.000Z</time>
      </trkpt>
      <trkpt lat="43.21086" lon="0.89797">
        <ele>472</ele>
        <time>2012-08-12T08:31:26.000Z</time>
      </trkpt>
      <trkpt lat="43.21082" lon="0.898">
        <ele>472</ele>
        <time>2012-08-12T08:31:27.000Z</time>
      </trkpt>
      <trkpt lat="43.21078" lon="0.89804">
        <ele>472</ele>
        <time>2012-08-12T08:31:28.000Z</time>
      </trkpt>
      <trkpt lat="43.21073" lon="0.89806">
        <ele>472</ele>
        <time>2012-08-12T08:31:29.000Z</time>
      </trkpt>
      <trkpt lat="43.21064" lon="0.89808">
        <ele>472</ele>
        <time>2012-08-12T08:31:31.000Z</time>
      </trkpt>
      <trkpt lat="43.21055" lon="0.89807">
        <ele>472</ele>
        <time>2012-08-12T08:31:33.000Z</time>
      </trkpt>
      <trkpt lat="43.21046" lon="0.89804">
        <ele>472</ele>
        <time>2012-08-12T08:31:35.000Z</time>
      </trkpt>
      <trkpt lat="43.21041" lon="0.89805">
        <ele>472</ele>
        <time>2012-08-12T08:31:36.000Z</time>
      </trkpt>
      <trkpt lat="43.21036" lon="0.89806">
        <ele>472</ele>
        <time>2012-08-12T08:31:37.000Z</time>
      </trkpt>
      <trkpt lat="43.21027" lon="0.89808">
        <ele>472</ele>
        <time>2012-08-12T08:31:39.000Z</time>
      </trkpt>
      <trkpt lat="43.21024" lon="0.89816">
        <ele>473</ele>
        <time>2012-08-12T08:31:40.000Z</time>
      </trkpt>
      <trkpt lat="43.21021" lon="0.89821">
        <ele>473</ele>
        <time>2012-08-12T08:31:41.000Z</time>
      </trkpt>
      <trkpt lat="43.21017" lon="0.89824">
        <ele>473</ele>
        <time>2012-08-12T08:31:42.000Z</time>
      </trkpt>
      <trkpt lat="43.2101" lon="0.89828">
        <ele>474</ele>
        <time>2012-08-12T08:31:44.000Z</time>
      </trkpt>
      <trkpt lat="43.21002" lon="0.89832">
        <ele>474</ele>
        <time>2012-08-12T08:31:46.000Z</time>
      </trkpt>
      <trkpt lat="43.20995" lon="0.89837">
        <ele>474</ele>
        <time>2012-08-12T08:31:48.000Z</time>
      </trkpt>
      <trkpt lat="43.2099" lon="0.89842">
        <ele>475</ele>
        <time>2012-08-12T08:31:50.000Z</time>
      </trkpt>
      <trkpt lat="43.20984" lon="0.89847">
        <ele>474</ele>
        <time>2012-08-12T08:31:52.000Z</time>
      </trkpt>
      <trkpt lat="43.20978" lon="0.89852">
        <ele>474</ele>
        <time>2012-08-12T08:31:54.000Z</time>
      </trkpt>
      <trkpt lat="43.20972" lon="0.89857">
        <ele>474</ele>
        <time>2012-08-12T08:31:56.000Z</time>
      </trkpt>
      <trkpt lat="43.20964" lon="0.89859">
        <ele>474</ele>
        <time>2012-08-12T08:31:58.000Z</time>
      </trkpt>
      <trkpt lat="43.20957" lon="0.8986">
        <ele>475</ele>
        <time>2012-08-12T08:32:00.000Z</time>
      </trkpt>
      <trkpt lat="43.2095" lon="0.89862">
        <ele>475</ele>
        <time>2012-08-12T08:32:02.000Z</time>
      </trkpt>
      <trkpt lat="43.20943" lon="0.89866">
        <ele>475</ele>
        <time>2012-08-12T08:32:04.000Z</time>
      </trkpt>
      <trkpt lat="43.20937" lon="0.89871">
        <ele>474</ele>
        <time>2012-08-12T08:32:06.000Z</time>
      </trkpt>
      <trkpt lat="43.20932" lon="0.89875">
        <ele>474</ele>
        <time>2012-08-12T08:32:08.000Z</time>
      </trkpt>
      <trkpt lat="43.20928" lon="0.89878">
        <ele>474</ele>
        <time>2012-08-12T08:32:11.000Z</time>
      </trkpt>
      <trkpt lat="43.20922" lon="0.89874">
        <ele>473</ele>
        <time>2012-08-12T08:32:14.000Z</time>
      </trkpt>
      <trkpt lat="43.20916" lon="0.89868">
        <ele>472</ele>
        <time>2012-08-12T08:32:16.000Z</time>
      </trkpt>
      <trkpt lat="43.20908" lon="0.89862">
        <ele>471</ele>
        <time>2012-08-12T08:32:18.000Z</time>
      </trkpt>
      <trkpt lat="43.20902" lon="0.89858">
        <ele>470</ele>
        <time>2012-08-12T08:32:20.000Z</time>
      </trkpt>
      <trkpt lat="43.20896" lon="0.89854">
        <ele>470</ele>
        <time>2012-08-12T08:32:22.000Z</time>
      </trkpt>
      <trkpt lat="43.20894" lon="0.89848">
        <ele>469</ele>
        <time>2012-08-12T08:32:25.000Z</time>
      </trkpt>
      <trkpt lat="43.20894" lon="0.8984">
        <ele>469</ele>
        <time>2012-08-12T08:32:28.000Z</time>
      </trkpt>
      <trkpt lat="43.20895" lon="0.89834">
        <ele>470</ele>
        <time>2012-08-12T08:32:31.000Z</time>
      </trkpt>
      <trkpt lat="43.20899" lon="0.89828">
        <ele>470</ele>
        <time>2012-08-12T08:32:34.000Z</time>
      </trkpt>
      <trkpt lat="43.20903" lon="0.89824">
        <ele>470</ele>
        <time>2012-08-12T08:32:36.000Z</time>
      </trkpt>
      <trkpt lat="43.20908" lon="0.89821">
        <ele>470</ele>
        <time>2012-08-12T08:32:38.000Z</time>
      </trkpt>
      <trkpt lat="43.20912" lon="0.89815">
        <ele>470</ele>
        <time>2012-08-12T08:32:42.000Z</time>
      </trkpt>
      <trkpt lat="43.20913" lon="0.89809">
        <ele>471</ele>
        <time>2012-08-12T08:32:46.000Z</time>
      </trkpt>
      <trkpt lat="43.20916" lon="0.89802">
        <ele>472</ele>
        <time>2012-08-12T08:32:50.000Z</time>
      </trkpt>
      <trkpt lat="43.20922" lon="0.898">
        <ele>473</ele>
        <time>2012-08-12T08:32:53.000Z</time>
      </trkpt>
      <trkpt lat="43.20926" lon="0.89798">
        <ele>474</ele>
        <time>2012-08-12T08:32:55.000Z</time>
      </trkpt>
      <trkpt lat="43.20931" lon="0.89796">
        <ele>475</ele>
        <time>2012-08-12T08:32:58.000Z</time>
      </trkpt>
      <trkpt lat="43.20936" lon="0.89795">
        <ele>477</ele>
        <time>2012-08-12T08:33:01.000Z</time>
      </trkpt>
      <trkpt lat="43.20942" lon="0.89794">
        <ele>478</ele>
        <time>2012-08-12T08:33:05.000Z</time>
      </trkpt>
      <trkpt lat="43.20942" lon="0.89794">
        <ele>478</ele>
        <time>2012-08-12T08:33:05.000Z</time>
      </trkpt>
      <trkpt lat="43.20942" lon="0.89794">
        <ele>478</ele>
        <time>2012-08-12T08:33:07.000Z</time>
      </trkpt>
      <trkpt lat="43.20948" lon="0.89792">
        <ele>480</ele>
        <time>2012-08-12T08:33:14.000Z</time>
      </trkpt>
      <trkpt lat="43.20952" lon="0.8979">
        <ele>480</ele>
        <time>2012-08-12T08:33:19.000Z</time>
      </trkpt>
      <trkpt lat="43.20957" lon="0.89788">
        <ele>482</ele>
        <time>2012-08-12T08:33:24.000Z</time>
      </trkpt>
      <trkpt lat="43.20961" lon="0.89785">
        <ele>483</ele>
        <time>2012-08-12T08:33:28.000Z</time>
      </trkpt>
      <trkpt lat="43.20966" lon="0.89783">
        <ele>483</ele>
        <time>2012-08-12T08:33:44.000Z</time>
      </trkpt>
      <trkpt lat="43.2097" lon="0.89778">
        <ele>484</ele>
        <time>2012-08-12T08:33:48.000Z</time>
      </trkpt>
      <trkpt lat="43.20973" lon="0.89772">
        <ele>485</ele>
        <time>2012-08-12T08:33:51.000Z</time>
      </trkpt>
      <trkpt lat="43.20976" lon="0.89765">
        <ele>486</ele>
        <time>2012-08-12T08:33:54.000Z</time>
      </trkpt>
      <trkpt lat="43.20978" lon="0.89758">
        <ele>486</ele>
        <time>2012-08-12T08:33:58.000Z</time>
      </trkpt>
      <trkpt lat="43.20978" lon="0.8975">
        <ele>486</ele>
        <time>2012-08-12T08:34:08.000Z</time>
      </trkpt>
      <trkpt lat="43.20979" lon="0.89744">
        <ele>488</ele>
        <time>2012-08-12T08:34:15.000Z</time>
      </trkpt>
      <trkpt lat="43.20982" lon="0.89735">
        <ele>490</ele>
        <time>2012-08-12T08:34:25.000Z</time>
      </trkpt>
      <trkpt lat="43.20984" lon="0.89728">
        <ele>492</ele>
        <time>2012-08-12T08:34:29.000Z</time>
      </trkpt>
      <trkpt lat="43.20986" lon="0.89722">
        <ele>495</ele>
        <time>2012-08-12T08:34:33.000Z</time>
      </trkpt>
      <trkpt lat="43.20986" lon="0.89722">
        <ele>495</ele>
        <time>2012-08-12T08:34:33.000Z</time>
      </trkpt>
      <trkpt lat="43.20986" lon="0.89722">
        <ele>495</ele>
        <time>2012-08-12T08:34:37.000Z</time>
      </trkpt>
      <trkpt lat="43.20982" lon="0.89717">
        <ele>495</ele>
        <time>2012-08-12T08:34:53.000Z</time>
      </trkpt>
      <trkpt lat="43.20977" lon="0.89719">
        <ele>497</ele>
        <time>2012-08-12T08:34:56.000Z</time>
      </trkpt>
      <trkpt lat="43.20973" lon="0.89716">
        <ele>498</ele>
        <time>2012-08-12T08:34:59.000Z</time>
      </trkpt>
      <trkpt lat="43.20968" lon="0.89717">
        <ele>500</ele>
        <time>2012-08-12T08:35:08.000Z</time>
      </trkpt>
      <trkpt lat="43.20968" lon="0.89717">
        <ele>500</ele>
        <time>2012-08-12T08:35:08.000Z</time>
      </trkpt>
      <trkpt lat="43.20968" lon="0.89717">
        <ele>500</ele>
        <time>2012-08-12T08:35:17.000Z</time>
      </trkpt>
      <trkpt lat="43.2097" lon="0.89723">
        <ele>501</ele>
        <time>2012-08-12T08:35:33.000Z</time>
      </trkpt>
      <trkpt lat="43.20966" lon="0.89718">
        <ele>505</ele>
        <time>2012-08-12T08:35:40.000Z</time>
      </trkpt>
      <trkpt lat="43.20967" lon="0.8971">
        <ele>507</ele>
        <time>2012-08-12T08:35:46.000Z</time>
      </trkpt>
      <trkpt lat="43.20966" lon="0.89703">
        <ele>508</ele>
        <time>2012-08-12T08:35:49.000Z</time>
      </trkpt>
      <trkpt lat="43.20968" lon="0.89696">
        <ele>510</ele>
        <time>2012-08-12T08:35:54.000Z</time>
      </trkpt>
      <trkpt lat="43.20966" lon="0.8969">
        <ele>512</ele>
        <time>2012-08-12T08:36:01.000Z</time>
      </trkpt>
      <trkpt lat="43.20966" lon="0.8969">
        <ele>512</ele>
        <time>2012-08-12T08:36:01.000Z</time>
      </trkpt>
      <trkpt lat="43.20966" lon="0.8969">
        <ele>512</ele>
        <time>2012-08-12T08:36:03.000Z</time>
      </trkpt>
      <trkpt lat="43.20961" lon="0.89689">
        <ele>512</ele>
        <time>2012-08-12T08:36:13.000Z</time>
      </trkpt>
      <trkpt lat="43.20958" lon="0.89685">
        <ele>512</ele>
        <time>2012-08-12T08:36:14.000Z</time>
      </trkpt>
      <trkpt lat="43.20952" lon="0.89687">
        <ele>511</ele>
        <time>2012-08-12T08:36:19.000Z</time>
      </trkpt>
      <trkpt lat="43.20952" lon="0.89687">
        <ele>511</ele>
        <time>2012-08-12T08:36:19.000Z</time>
      </trkpt>
      <trkpt lat="43.20952" lon="0.89687">
        <ele>511</ele>
        <time>2012-08-12T08:36:20.000Z</time>
      </trkpt>
      <trkpt lat="43.20947" lon="0.89688">
        <ele>512</ele>
        <time>2012-08-12T08:36:27.000Z</time>
      </trkpt>
      <trkpt lat="43.20944" lon="0.89695">
        <ele>515</ele>
        <time>2012-08-12T08:36:45.000Z</time>
      </trkpt>
      <trkpt lat="43.20939" lon="0.89702">
        <ele>517</ele>
        <time>2012-08-12T08:36:49.000Z</time>
      </trkpt>
      <trkpt lat="43.20937" lon="0.89708">
        <ele>516</ele>
        <time>2012-08-12T08:36:52.000Z</time>
      </trkpt>
      <trkpt lat="43.2094" lon="0.89703">
        <ele>517</ele>
        <time>2012-08-12T08:37:09.000Z</time>
      </trkpt>
      <trkpt lat="43.20942" lon="0.89695">
        <ele>521</ele>
        <time>2012-08-12T08:37:15.000Z</time>
      </trkpt>
      <trkpt lat="43.20942" lon="0.89689">
        <ele>524</ele>
        <time>2012-08-12T08:37:22.000Z</time>
      </trkpt>
      <trkpt lat="43.20942" lon="0.89682">
        <ele>525</ele>
        <time>2012-08-12T08:37:28.000Z</time>
      </trkpt>
      <trkpt lat="43.20944" lon="0.89676">
        <ele>524</ele>
        <time>2012-08-12T08:37:34.000Z</time>
      </trkpt>
      <trkpt lat="43.20944" lon="0.8967">
        <ele>523</ele>
        <time>2012-08-12T08:37:38.000Z</time>
      </trkpt>
      <trkpt lat="43.20942" lon="0.89663">
        <ele>524</ele>
        <time>2012-08-12T08:37:49.000Z</time>
      </trkpt>
      <trkpt lat="43.20942" lon="0.89656">
        <ele>524</ele>
        <time>2012-08-12T08:37:52.000Z</time>
      </trkpt>
      <trkpt lat="43.2094" lon="0.89651">
        <ele>525</ele>
        <time>2012-08-12T08:37:55.000Z</time>
      </trkpt>
      <trkpt lat="43.20938" lon="0.89643">
        <ele>526</ele>
        <time>2012-08-12T08:37:58.000Z</time>
      </trkpt>
      <trkpt lat="43.20939" lon="0.89634">
        <ele>528</ele>
        <time>2012-08-12T08:38:01.000Z</time>
      </trkpt>
      <trkpt lat="43.20939" lon="0.89628">
        <ele>528</ele>
        <time>2012-08-12T08:38:04.000Z</time>
      </trkpt>
      <trkpt lat="43.20939" lon="0.89621">
        <ele>528</ele>
        <time>2012-08-12T08:38:07.000Z</time>
      </trkpt>
      <trkpt lat="43.20937" lon="0.89613">
        <ele>528</ele>
        <time>2012-08-12T08:38:10.000Z</time>
      </trkpt>
      <trkpt lat="43.20936" lon="0.89605">
        <ele>528</ele>
        <time>2012-08-12T08:38:14.000Z</time>
      </trkpt>
      <trkpt lat="43.20934" lon="0.89599">
        <ele>530</ele>
        <time>2012-08-12T08:39:20.000Z</time>
      </trkpt>
      <trkpt lat="43.20933" lon="0.89593">
        <ele>531</ele>
        <time>2012-08-12T08:39:24.000Z</time>
      </trkpt>
      <trkpt lat="43.20934" lon="0.89585">
        <ele>531</ele>
        <time>2012-08-12T08:39:27.000Z</time>
      </trkpt>
      <trkpt lat="43.20936" lon="0.89577">
        <ele>531</ele>
        <time>2012-08-12T08:39:30.000Z</time>
      </trkpt>
      <trkpt lat="43.20939" lon="0.89571">
        <ele>532</ele>
        <time>2012-08-12T08:39:32.000Z</time>
      </trkpt>
      <trkpt lat="43.20944" lon="0.89563">
        <ele>532</ele>
        <time>2012-08-12T08:39:35.000Z</time>
      </trkpt>
      <trkpt lat="43.20949" lon="0.89558">
        <ele>531</ele>
        <time>2012-08-12T08:39:39.000Z</time>
      </trkpt>
      <trkpt lat="43.20954" lon="0.89556">
        <ele>533</ele>
        <time>2012-08-12T08:39:42.000Z</time>
      </trkpt>
      <trkpt lat="43.20959" lon="0.89552">
        <ele>531</ele>
        <time>2012-08-12T08:39:45.000Z</time>
      </trkpt>
      <trkpt lat="43.20964" lon="0.89548">
        <ele>531</ele>
        <time>2012-08-12T08:39:48.000Z</time>
      </trkpt>
      <trkpt lat="43.20969" lon="0.89544">
        <ele>532</ele>
        <time>2012-08-12T08:39:51.000Z</time>
      </trkpt>
      <trkpt lat="43.20973" lon="0.8954">
        <ele>533</ele>
        <time>2012-08-12T08:39:54.000Z</time>
      </trkpt>
      <trkpt lat="43.20977" lon="0.89534">
        <ele>533</ele>
        <time>2012-08-12T08:39:57.000Z</time>
      </trkpt>
      <trkpt lat="43.20981" lon="0.89528">
        <ele>534</ele>
        <time>2012-08-12T08:40:00.000Z</time>
      </trkpt>
      <trkpt lat="43.20984" lon="0.89522">
        <ele>534</ele>
        <time>2012-08-12T08:40:03.000Z</time>
      </trkpt>
      <trkpt lat="43.20988" lon="0.89517">
        <ele>535</ele>
        <time>2012-08-12T08:40:06.000Z</time>
      </trkpt>
      <trkpt lat="43.20992" lon="0.89513">
        <ele>536</ele>
        <time>2012-08-12T08:40:09.000Z</time>
      </trkpt>
      <trkpt lat="43.20996" lon="0.89507">
        <ele>536</ele>
        <time>2012-08-12T08:40:12.000Z</time>
      </trkpt>
      <trkpt lat="43.21001" lon="0.89503">
        <ele>536</ele>
        <time>2012-08-12T08:40:15.000Z</time>
      </trkpt>
      <trkpt lat="43.21004" lon="0.89498">
        <ele>536</ele>
        <time>2012-08-12T08:40:18.000Z</time>
      </trkpt>
      <trkpt lat="43.21009" lon="0.89493">
        <ele>536</ele>
        <time>2012-08-12T08:40:21.000Z</time>
      </trkpt>
      <trkpt lat="43.21012" lon="0.89486">
        <ele>536</ele>
        <time>2012-08-12T08:40:24.000Z</time>
      </trkpt>
      <trkpt lat="43.21015" lon="0.89478">
        <ele>536</ele>
        <time>2012-08-12T08:40:27.000Z</time>
      </trkpt>
      <trkpt lat="43.21017" lon="0.89472">
        <ele>536</ele>
        <time>2012-08-12T08:40:29.000Z</time>
      </trkpt>
      <trkpt lat="43.21019" lon="0.89466">
        <ele>536</ele>
        <time>2012-08-12T08:40:31.000Z</time>
      </trkpt>
      <trkpt lat="43.21022" lon="0.8946">
        <ele>536</ele>
        <time>2012-08-12T08:40:33.000Z</time>
      </trkpt>
      <trkpt lat="43.21024" lon="0.89453">
        <ele>536</ele>
        <time>2012-08-12T08:40:35.000Z</time>
      </trkpt>
      <trkpt lat="43.21026" lon="0.89446">
        <ele>536</ele>
        <time>2012-08-12T08:40:37.000Z</time>
      </trkpt>
      <trkpt lat="43.2103" lon="0.89439">
        <ele>536</ele>
        <time>2012-08-12T08:40:39.000Z</time>
      </trkpt>
      <trkpt lat="43.21033" lon="0.89431">
        <ele>535</ele>
        <time>2012-08-12T08:40:41.000Z</time>
      </trkpt>
      <trkpt lat="43.21037" lon="0.89424">
        <ele>536</ele>
        <time>2012-08-12T08:40:43.000Z</time>
      </trkpt>
      <trkpt lat="43.21041" lon="0.89416">
        <ele>535</ele>
        <time>2012-08-12T08:40:45.000Z</time>
      </trkpt>
      <trkpt lat="43.21045" lon="0.89408">
        <ele>535</ele>
        <time>2012-08-12T08:40:47.000Z</time>
      </trkpt>
      <trkpt lat="43.21047" lon="0.89399">
        <ele>535</ele>
        <time>2012-08-12T08:40:49.000Z</time>
      </trkpt>
      <trkpt lat="43.2105" lon="0.8939">
        <ele>534</ele>
        <time>2012-08-12T08:40:51.000Z</time>
      </trkpt>
      <trkpt lat="43.21052" lon="0.89381">
        <ele>534</ele>
        <time>2012-08-12T08:40:53.000Z</time>
      </trkpt>
      <trkpt lat="43.21055" lon="0.89373">
        <ele>533</ele>
        <time>2012-08-12T08:40:55.000Z</time>
      </trkpt>
      <trkpt lat="43.21058" lon="0.89366">
        <ele>533</ele>
        <time>2012-08-12T08:40:57.000Z</time>
      </trkpt>
      <trkpt lat="43.21062" lon="0.89361">
        <ele>533</ele>
        <time>2012-08-12T08:40:59.000Z</time>
      </trkpt>
      <trkpt lat="43.21066" lon="0.89352">
        <ele>532</ele>
        <time>2012-08-12T08:41:01.000Z</time>
      </trkpt>
      <trkpt lat="43.21069" lon="0.89344">
        <ele>531</ele>
        <time>2012-08-12T08:41:03.000Z</time>
      </trkpt>
      <trkpt lat="43.21072" lon="0.89336">
        <ele>531</ele>
        <time>2012-08-12T08:41:05.000Z</time>
      </trkpt>
      <trkpt lat="43.21076" lon="0.89326">
        <ele>532</ele>
        <time>2012-08-12T08:41:07.000Z</time>
      </trkpt>
      <trkpt lat="43.21083" lon="0.89313">
        <ele>530</ele>
        <time>2012-08-12T08:41:09.000Z</time>
      </trkpt>
      <trkpt lat="43.21085" lon="0.89308">
        <ele>530</ele>
        <time>2012-08-12T08:41:10.000Z</time>
      </trkpt>
      <trkpt lat="43.21089" lon="0.89297">
        <ele>529</ele>
        <time>2012-08-12T08:41:12.000Z</time>
      </trkpt>
      <trkpt lat="43.21092" lon="0.8929">
        <ele>529</ele>
        <time>2012-08-12T08:41:13.000Z</time>
      </trkpt>
      <trkpt lat="43.21093" lon="0.89284">
        <ele>529</ele>
        <time>2012-08-12T08:41:14.000Z</time>
      </trkpt>
      <trkpt lat="43.21097" lon="0.89274">
        <ele>529</ele>
        <time>2012-08-12T08:41:16.000Z</time>
      </trkpt>
      <trkpt lat="43.211" lon="0.89263">
        <ele>528</ele>
        <time>2012-08-12T08:41:19.000Z</time>
      </trkpt>
      <trkpt lat="43.21102" lon="0.89256">
        <ele>528</ele>
        <time>2012-08-12T08:41:21.000Z</time>
      </trkpt>
      <trkpt lat="43.21108" lon="0.89244">
        <ele>526</ele>
        <time>2012-08-12T08:41:23.000Z</time>
      </trkpt>
      <trkpt lat="43.21111" lon="0.89238">
        <ele>526</ele>
        <time>2012-08-12T08:41:24.000Z</time>
      </trkpt>
      <trkpt lat="43.21115" lon="0.89229">
        <ele>524</ele>
        <time>2012-08-12T08:41:26.000Z</time>
      </trkpt>
      <trkpt lat="43.21121" lon="0.89223">
        <ele>523</ele>
        <time>2012-08-12T08:41:28.000Z</time>
      </trkpt>
      <trkpt lat="43.21127" lon="0.89216">
        <ele>522</ele>
        <time>2012-08-12T08:41:30.000Z</time>
      </trkpt>
      <trkpt lat="43.21131" lon="0.89208">
        <ele>521</ele>
        <time>2012-08-12T08:41:32.000Z</time>
      </trkpt>
      <trkpt lat="43.21134" lon="0.89201">
        <ele>521</ele>
        <time>2012-08-12T08:41:34.000Z</time>
      </trkpt>
      <trkpt lat="43.21134" lon="0.89194">
        <ele>519</ele>
        <time>2012-08-12T08:41:38.000Z</time>
      </trkpt>
      <trkpt lat="43.21138" lon="0.89192">
        <ele>516</ele>
        <time>2012-08-12T08:41:50.000Z</time>
      </trkpt>
      <trkpt lat="43.21142" lon="0.89184">
        <ele>515</ele>
        <time>2012-08-12T08:41:54.000Z</time>
      </trkpt>
      <trkpt lat="43.21145" lon="0.89179">
        <ele>514</ele>
        <time>2012-08-12T08:41:56.000Z</time>
      </trkpt>
      <trkpt lat="43.21148" lon="0.8917">
        <ele>513</ele>
        <time>2012-08-12T08:41:59.000Z</time>
      </trkpt>
      <trkpt lat="43.21152" lon="0.89166">
        <ele>510</ele>
        <time>2012-08-12T08:42:01.000Z</time>
      </trkpt>
      <trkpt lat="43.21157" lon="0.8916">
        <ele>508</ele>
        <time>2012-08-12T08:42:03.000Z</time>
      </trkpt>
      <trkpt lat="43.21161" lon="0.89155">
        <ele>506</ele>
        <time>2012-08-12T08:42:05.000Z</time>
      </trkpt>
      <trkpt lat="43.21165" lon="0.8915">
        <ele>505</ele>
        <time>2012-08-12T08:42:07.000Z</time>
      </trkpt>
      <trkpt lat="43.21168" lon="0.8914">
        <ele>505</ele>
        <time>2012-08-12T08:42:09.000Z</time>
      </trkpt>
      <trkpt lat="43.21172" lon="0.8913">
        <ele>505</ele>
        <time>2012-08-12T08:42:11.000Z</time>
      </trkpt>
      <trkpt lat="43.21173" lon="0.89123">
        <ele>505</ele>
        <time>2012-08-12T08:42:12.000Z</time>
      </trkpt>
      <trkpt lat="43.21176" lon="0.89114">
        <ele>504</ele>
        <time>2012-08-12T08:42:13.000Z</time>
      </trkpt>
      <trkpt lat="43.21178" lon="0.89107">
        <ele>504</ele>
        <time>2012-08-12T08:42:14.000Z</time>
      </trkpt>
      <trkpt lat="43.2118" lon="0.89101">
        <ele>504</ele>
        <time>2012-08-12T08:42:15.000Z</time>
      </trkpt>
      <trkpt lat="43.21183" lon="0.89094">
        <ele>503</ele>
        <time>2012-08-12T08:42:16.000Z</time>
      </trkpt>
      <trkpt lat="43.21187" lon="0.89088">
        <ele>503</ele>
        <time>2012-08-12T08:42:17.000Z</time>
      </trkpt>
      <trkpt lat="43.2119" lon="0.8908">
        <ele>502</ele>
        <time>2012-08-12T08:42:18.000Z</time>
      </trkpt>
      <trkpt lat="43.21194" lon="0.89073">
        <ele>502</ele>
        <time>2012-08-12T08:42:19.000Z</time>
      </trkpt>
      <trkpt lat="43.21196" lon="0.89068">
        <ele>502</ele>
        <time>2012-08-12T08:42:20.000Z</time>
      </trkpt>
      <trkpt lat="43.212" lon="0.89062">
        <ele>502</ele>
        <time>2012-08-12T08:42:21.000Z</time>
      </trkpt>
      <trkpt lat="43.21203" lon="0.89056">
        <ele>502</ele>
        <time>2012-08-12T08:42:22.000Z</time>
      </trkpt>
      <trkpt lat="43.21206" lon="0.8905">
        <ele>502</ele>
        <time>2012-08-12T08:42:23.000Z</time>
      </trkpt>
      <trkpt lat="43.21208" lon="0.89043">
        <ele>502</ele>
        <time>2012-08-12T08:42:24.000Z</time>
      </trkpt>
      <trkpt lat="43.21211" lon="0.89038">
        <ele>502</ele>
        <time>2012-08-12T08:42:25.000Z</time>
      </trkpt>
      <trkpt lat="43.21216" lon="0.89031">
        <ele>501</ele>
        <time>2012-08-12T08:42:27.000Z</time>
      </trkpt>
      <trkpt lat="43.21218" lon="0.89025">
        <ele>501</ele>
        <time>2012-08-12T08:42:29.000Z</time>
      </trkpt>
      <trkpt lat="43.21216" lon="0.89017">
        <ele>500</ele>
        <time>2012-08-12T08:42:31.000Z</time>
      </trkpt>
      <trkpt lat="43.2121" lon="0.89015">
        <ele>497</ele>
        <time>2012-08-12T08:42:34.000Z</time>
      </trkpt>
      <trkpt lat="43.21203" lon="0.89011">
        <ele>495</ele>
        <time>2012-08-12T08:42:37.000Z</time>
      </trkpt>
      <trkpt lat="43.21196" lon="0.8901">
        <ele>493</ele>
        <time>2012-08-12T08:42:39.000Z</time>
      </trkpt>
      <trkpt lat="43.21189" lon="0.89011">
        <ele>492</ele>
        <time>2012-08-12T08:42:41.000Z</time>
      </trkpt>
      <trkpt lat="43.2118" lon="0.89013">
        <ele>491</ele>
        <time>2012-08-12T08:42:43.000Z</time>
      </trkpt>
      <trkpt lat="43.21172" lon="0.89016">
        <ele>491</ele>
        <time>2012-08-12T08:42:45.000Z</time>
      </trkpt>
      <trkpt lat="43.21167" lon="0.89019">
        <ele>491</ele>
        <time>2012-08-12T08:42:46.000Z</time>
      </trkpt>
      <trkpt lat="43.21163" lon="0.89022">
        <ele>491</ele>
        <time>2012-08-12T08:42:47.000Z</time>
      </trkpt>
      <trkpt lat="43.21158" lon="0.89025">
        <ele>491</ele>
        <time>2012-08-12T08:42:48.000Z</time>
      </trkpt>
      <trkpt lat="43.21154" lon="0.89028">
        <ele>491</ele>
        <time>2012-08-12T08:42:49.000Z</time>
      </trkpt>
      <trkpt lat="43.21149" lon="0.89031">
        <ele>491</ele>
        <time>2012-08-12T08:42:50.000Z</time>
      </trkpt>
      <trkpt lat="43.21144" lon="0.89034">
        <ele>490</ele>
        <time>2012-08-12T08:42:51.000Z</time>
      </trkpt>
      <trkpt lat="43.2114" lon="0.89038">
        <ele>490</ele>
        <time>2012-08-12T08:42:52.000Z</time>
      </trkpt>
      <trkpt lat="43.21135" lon="0.89041">
        <ele>489</ele>
        <time>2012-08-12T08:42:53.000Z</time>
      </trkpt>
      <trkpt lat="43.2113" lon="0.89044">
        <ele>489</ele>
        <time>2012-08-12T08:42:54.000Z</time>
      </trkpt>
      <trkpt lat="43.21126" lon="0.89047">
        <ele>489</ele>
        <time>2012-08-12T08:42:55.000Z</time>
      </trkpt>
      <trkpt lat="43.21122" lon="0.8905">
        <ele>489</ele>
        <time>2012-08-12T08:42:56.000Z</time>
      </trkpt>
      <trkpt lat="43.21118" lon="0.89054">
        <ele>489</ele>
        <time>2012-08-12T08:42:57.000Z</time>
      </trkpt>
      <trkpt lat="43.21113" lon="0.89057">
        <ele>489</ele>
        <time>2012-08-12T08:42:58.000Z</time>
      </trkpt>
      <trkpt lat="43.21105" lon="0.89064">
        <ele>489</ele>
        <time>2012-08-12T08:43:00.000Z</time>
      </trkpt>
      <trkpt lat="43.21098" lon="0.89071">
        <ele>489</ele>
        <time>2012-08-12T08:43:02.000Z</time>
      </trkpt>
      <trkpt lat="43.21094" lon="0.89076">
        <ele>489</ele>
        <time>2012-08-12T08:43:03.000Z</time>
      </trkpt>
      <trkpt lat="43.21091" lon="0.89081">
        <ele>489</ele>
        <time>2012-08-12T08:43:04.000Z</time>
      </trkpt>
      <trkpt lat="43.21084" lon="0.8909">
        <ele>490</ele>
        <time>2012-08-12T08:43:06.000Z</time>
      </trkpt>
      <trkpt lat="43.21081" lon="0.89094">
        <ele>490</ele>
        <time>2012-08-12T08:43:07.000Z</time>
      </trkpt>
      <trkpt lat="43.21075" lon="0.89101">
        <ele>490</ele>
        <time>2012-08-12T08:43:09.000Z</time>
      </trkpt>
      <trkpt lat="43.2107" lon="0.89107">
        <ele>490</ele>
        <time>2012-08-12T08:43:11.000Z</time>
      </trkpt>
      <trkpt lat="43.21064" lon="0.89112">
        <ele>489</ele>
        <time>2012-08-12T08:43:13.000Z</time>
      </trkpt>
      <trkpt lat="43.21059" lon="0.89115">
        <ele>490</ele>
        <time>2012-08-12T08:43:15.000Z</time>
      </trkpt>
      <trkpt lat="43.21053" lon="0.89123">
        <ele>490</ele>
        <time>2012-08-12T08:43:17.000Z</time>
      </trkpt>
      <trkpt lat="43.21047" lon="0.89132">
        <ele>489</ele>
        <time>2012-08-12T08:43:19.000Z</time>
      </trkpt>
      <trkpt lat="43.21041" lon="0.8914">
        <ele>490</ele>
        <time>2012-08-12T08:43:21.000Z</time>
      </trkpt>
      <trkpt lat="43.21036" lon="0.89148">
        <ele>489</ele>
        <time>2012-08-12T08:43:23.000Z</time>
      </trkpt>
      <trkpt lat="43.2103" lon="0.89154">
        <ele>489</ele>
        <time>2012-08-12T08:43:25.000Z</time>
      </trkpt>
      <trkpt lat="43.21024" lon="0.89159">
        <ele>489</ele>
        <time>2012-08-12T08:43:27.000Z</time>
      </trkpt>
      <trkpt lat="43.21019" lon="0.89163">
        <ele>489</ele>
        <time>2012-08-12T08:43:29.000Z</time>
      </trkpt>
      <trkpt lat="43.21014" lon="0.89165">
        <ele>490</ele>
        <time>2012-08-12T08:43:32.000Z</time>
      </trkpt>
      <trkpt lat="43.21018" lon="0.89167">
        <ele>490</ele>
        <time>2012-08-12T08:43:39.000Z</time>
      </trkpt>
      <trkpt lat="43.21023" lon="0.89162">
        <ele>490</ele>
        <time>2012-08-12T08:43:42.000Z</time>
      </trkpt>
      <trkpt lat="43.2102" lon="0.89168">
        <ele>491</ele>
        <time>2012-08-12T08:43:49.000Z</time>
      </trkpt>
      <trkpt lat="43.21018" lon="0.89174">
        <ele>491</ele>
        <time>2012-08-12T08:43:51.000Z</time>
      </trkpt>
      <trkpt lat="43.21014" lon="0.8918">
        <ele>491</ele>
        <time>2012-08-12T08:43:53.000Z</time>
      </trkpt>
      <trkpt lat="43.21011" lon="0.89187">
        <ele>492</ele>
        <time>2012-08-12T08:43:55.000Z</time>
      </trkpt>
      <trkpt lat="43.21008" lon="0.89195">
        <ele>492</ele>
        <time>2012-08-12T08:43:57.000Z</time>
      </trkpt>
      <trkpt lat="43.21004" lon="0.89201">
        <ele>493</ele>
        <time>2012-08-12T08:43:59.000Z</time>
      </trkpt>
      <trkpt lat="43.21001" lon="0.89206">
        <ele>493</ele>
        <time>2012-08-12T08:44:01.000Z</time>
      </trkpt>
      <trkpt lat="43.20996" lon="0.89212">
        <ele>493</ele>
        <time>2012-08-12T08:44:03.000Z</time>
      </trkpt>
      <trkpt lat="43.20993" lon="0.89218">
        <ele>494</ele>
        <time>2012-08-12T08:44:05.000Z</time>
      </trkpt>
      <trkpt lat="43.20988" lon="0.89224">
        <ele>495</ele>
        <time>2012-08-12T08:44:07.000Z</time>
      </trkpt>
      <trkpt lat="43.20983" lon="0.8923">
        <ele>494</ele>
        <time>2012-08-12T08:44:09.000Z</time>
      </trkpt>
      <trkpt lat="43.20978" lon="0.89235">
        <ele>494</ele>
        <time>2012-08-12T08:44:11.000Z</time>
      </trkpt>
      <trkpt lat="43.2097" lon="0.8924">
        <ele>493</ele>
        <time>2012-08-12T08:44:13.000Z</time>
      </trkpt>
      <trkpt lat="43.20966" lon="0.89244">
        <ele>492</ele>
        <time>2012-08-12T08:44:14.000Z</time>
      </trkpt>
      <trkpt lat="43.20961" lon="0.89247">
        <ele>492</ele>
        <time>2012-08-12T08:44:15.000Z</time>
      </trkpt>
      <trkpt lat="43.20955" lon="0.8925">
        <ele>492</ele>
        <time>2012-08-12T08:44:16.000Z</time>
      </trkpt>
      <trkpt lat="43.20949" lon="0.89254">
        <ele>492</ele>
        <time>2012-08-12T08:44:17.000Z</time>
      </trkpt>
      <trkpt lat="43.20941" lon="0.8926">
        <ele>491</ele>
        <time>2012-08-12T08:44:18.000Z</time>
      </trkpt>
      <trkpt lat="43.20934" lon="0.89264">
        <ele>490</ele>
        <time>2012-08-12T08:44:19.000Z</time>
      </trkpt>
      <trkpt lat="43.20927" lon="0.89269">
        <ele>489</ele>
        <time>2012-08-12T08:44:20.000Z</time>
      </trkpt>
      <trkpt lat="43.20922" lon="0.89274">
        <ele>489</ele>
        <time>2012-08-12T08:44:21.000Z</time>
      </trkpt>
      <trkpt lat="43.20916" lon="0.89278">
        <ele>488</ele>
        <time>2012-08-12T08:44:22.000Z</time>
      </trkpt>
      <trkpt lat="43.20912" lon="0.89284">
        <ele>488</ele>
        <time>2012-08-12T08:44:23.000Z</time>
      </trkpt>
      <trkpt lat="43.20907" lon="0.89291">
        <ele>488</ele>
        <time>2012-08-12T08:44:24.000Z</time>
      </trkpt>
      <trkpt lat="43.20903" lon="0.89297">
        <ele>488</ele>
        <time>2012-08-12T08:44:25.000Z</time>
      </trkpt>
      <trkpt lat="43.20899" lon="0.89302">
        <ele>487</ele>
        <time>2012-08-12T08:44:26.000Z</time>
      </trkpt>
      <trkpt lat="43.20894" lon="0.89308">
        <ele>487</ele>
        <time>2012-08-12T08:44:27.000Z</time>
      </trkpt>
      <trkpt lat="43.2089" lon="0.89314">
        <ele>487</ele>
        <time>2012-08-12T08:44:28.000Z</time>
      </trkpt>
      <trkpt lat="43.20886" lon="0.89318">
        <ele>487</ele>
        <time>2012-08-12T08:44:29.000Z</time>
      </trkpt>
      <trkpt lat="43.20883" lon="0.89323">
        <ele>487</ele>
        <time>2012-08-12T08:44:30.000Z</time>
      </trkpt>
      <trkpt lat="43.20879" lon="0.89329">
        <ele>487</ele>
        <time>2012-08-12T08:44:31.000Z</time>
      </trkpt>
      <trkpt lat="43.20874" lon="0.89336">
        <ele>486</ele>
        <time>2012-08-12T08:44:32.000Z</time>
      </trkpt>
      <trkpt lat="43.2087" lon="0.89341">
        <ele>485</ele>
        <time>2012-08-12T08:44:33.000Z</time>
      </trkpt>
      <trkpt lat="43.20865" lon="0.89348">
        <ele>485</ele>
        <time>2012-08-12T08:44:34.000Z</time>
      </trkpt>
      <trkpt lat="43.20861" lon="0.89352">
        <ele>485</ele>
        <time>2012-08-12T08:44:35.000Z</time>
      </trkpt>
      <trkpt lat="43.20857" lon="0.89357">
        <ele>485</ele>
        <time>2012-08-12T08:44:36.000Z</time>
      </trkpt>
      <trkpt lat="43.20852" lon="0.89362">
        <ele>484</ele>
        <time>2012-08-12T08:44:37.000Z</time>
      </trkpt>
      <trkpt lat="43.20847" lon="0.8937">
        <ele>484</ele>
        <time>2012-08-12T08:44:39.000Z</time>
      </trkpt>
      <trkpt lat="43.20846" lon="0.89375">
        <ele>485</ele>
        <time>2012-08-12T08:44:55.000Z</time>
      </trkpt>
      <trkpt lat="43.20846" lon="0.89382">
        <ele>486</ele>
        <time>2012-08-12T08:45:18.000Z</time>
      </trkpt>
      <trkpt lat="43.20846" lon="0.89389">
        <ele>487</ele>
        <time>2012-08-12T08:45:22.000Z</time>
      </trkpt>
      <trkpt lat="43.20846" lon="0.89396">
        <ele>489</ele>
        <time>2012-08-12T08:45:26.000Z</time>
      </trkpt>
      <trkpt lat="43.20848" lon="0.89401">
        <ele>489</ele>
        <time>2012-08-12T08:45:29.000Z</time>
      </trkpt>
      <trkpt lat="43.20849" lon="0.89408">
        <ele>488</ele>
        <time>2012-08-12T08:45:33.000Z</time>
      </trkpt>
      <trkpt lat="43.20848" lon="0.89416">
        <ele>489</ele>
        <time>2012-08-12T08:45:37.000Z</time>
      </trkpt>
      <trkpt lat="43.20848" lon="0.89424">
        <ele>490</ele>
        <time>2012-08-12T08:45:41.000Z</time>
      </trkpt>
      <trkpt lat="43.20849" lon="0.8943">
        <ele>491</ele>
        <time>2012-08-12T08:45:44.000Z</time>
      </trkpt>
      <trkpt lat="43.20849" lon="0.89437">
        <ele>492</ele>
        <time>2012-08-12T08:45:46.000Z</time>
      </trkpt>
      <trkpt lat="43.20848" lon="0.89445">
        <ele>493</ele>
        <time>2012-08-12T08:45:49.000Z</time>
      </trkpt>
      <trkpt lat="43.2085" lon="0.8945">
        <ele>494</ele>
        <time>2012-08-12T08:45:52.000Z</time>
      </trkpt>
      <trkpt lat="43.20852" lon="0.89456">
        <ele>495</ele>
        <time>2012-08-12T08:45:55.000Z</time>
      </trkpt>
      <trkpt lat="43.20855" lon="0.89462">
        <ele>496</ele>
        <time>2012-08-12T08:45:59.000Z</time>
      </trkpt>
      <trkpt lat="43.20859" lon="0.89467">
        <ele>497</ele>
        <time>2012-08-12T08:46:03.000Z</time>
      </trkpt>
      <trkpt lat="43.20863" lon="0.8947">
        <ele>498</ele>
        <time>2012-08-12T08:46:07.000Z</time>
      </trkpt>
      <trkpt lat="43.20866" lon="0.89475">
        <ele>499</ele>
        <time>2012-08-12T08:46:16.000Z</time>
      </trkpt>
      <trkpt lat="43.2087" lon="0.8948">
        <ele>501</ele>
        <time>2012-08-12T08:46:22.000Z</time>
      </trkpt>
      <trkpt lat="43.20873" lon="0.89484">
        <ele>503</ele>
        <time>2012-08-12T08:46:29.000Z</time>
      </trkpt>
      <trkpt lat="43.20877" lon="0.8949">
        <ele>504</ele>
        <time>2012-08-12T08:46:35.000Z</time>
      </trkpt>
      <trkpt lat="43.20878" lon="0.89496">
        <ele>505</ele>
        <time>2012-08-12T08:46:42.000Z</time>
      </trkpt>
      <trkpt lat="43.20878" lon="0.89502">
        <ele>507</ele>
        <time>2012-08-12T08:46:56.000Z</time>
      </trkpt>
      <trkpt lat="43.20878" lon="0.89511">
        <ele>508</ele>
        <time>2012-08-12T08:47:01.000Z</time>
      </trkpt>
      <trkpt lat="43.20878" lon="0.89518">
        <ele>510</ele>
        <time>2012-08-12T08:47:05.000Z</time>
      </trkpt>
      <trkpt lat="43.20879" lon="0.89525">
        <ele>511</ele>
        <time>2012-08-12T08:47:09.000Z</time>
      </trkpt>
      <trkpt lat="43.20882" lon="0.89532">
        <ele>511</ele>
        <time>2012-08-12T08:47:12.000Z</time>
      </trkpt>
      <trkpt lat="43.20886" lon="0.89537">
        <ele>511</ele>
        <time>2012-08-12T08:47:16.000Z</time>
      </trkpt>
      <trkpt lat="43.20887" lon="0.89544">
        <ele>513</ele>
        <time>2012-08-12T08:47:20.000Z</time>
      </trkpt>
      <trkpt lat="43.20889" lon="0.8955">
        <ele>514</ele>
        <time>2012-08-12T08:47:24.000Z</time>
      </trkpt>
      <trkpt lat="43.2089" lon="0.89556">
        <ele>515</ele>
        <time>2012-08-12T08:47:28.000Z</time>
      </trkpt>
      <trkpt lat="43.20894" lon="0.89562">
        <ele>514</ele>
        <time>2012-08-12T08:47:32.000Z</time>
      </trkpt>
      <trkpt lat="43.20898" lon="0.89565">
        <ele>514</ele>
        <time>2012-08-12T08:47:36.000Z</time>
      </trkpt>
      <trkpt lat="43.20902" lon="0.89569">
        <ele>515</ele>
        <time>2012-08-12T08:47:39.000Z</time>
      </trkpt>
      <trkpt lat="43.20907" lon="0.89573">
        <ele>515</ele>
        <time>2012-08-12T08:47:43.000Z</time>
      </trkpt>
      <trkpt lat="43.20912" lon="0.89576">
        <ele>517</ele>
        <time>2012-08-12T08:47:47.000Z</time>
      </trkpt>
      <trkpt lat="43.20917" lon="0.89576">
        <ele>518</ele>
        <time>2012-08-12T08:47:51.000Z</time>
      </trkpt>
      <trkpt lat="43.20921" lon="0.89578">
        <ele>519</ele>
        <time>2012-08-12T08:47:55.000Z</time>
      </trkpt>
      <trkpt lat="43.20926" lon="0.89577">
        <ele>523</ele>
        <time>2012-08-12T08:48:01.000Z</time>
      </trkpt>
      <trkpt lat="43.20926" lon="0.89577">
        <ele>523</ele>
        <time>2012-08-12T08:48:01.000Z</time>
      </trkpt>
      <trkpt lat="43.20926" lon="0.89577">
        <ele>522</ele>
        <time>2012-08-12T08:48:09.000Z</time>
      </trkpt>
      <trkpt lat="43.20929" lon="0.89582">
        <ele>523</ele>
        <time>2012-08-12T08:48:17.000Z</time>
      </trkpt>
      <trkpt lat="43.20928" lon="0.89588">
        <ele>527</ele>
        <time>2012-08-12T08:48:34.000Z</time>
      </trkpt>
      <trkpt lat="43.20928" lon="0.89596">
        <ele>527</ele>
        <time>2012-08-12T08:48:37.000Z</time>
      </trkpt>
      <trkpt lat="43.2093" lon="0.89602">
        <ele>528</ele>
        <time>2012-08-12T08:48:40.000Z</time>
      </trkpt>
      <trkpt lat="43.20931" lon="0.8961">
        <ele>528</ele>
        <time>2012-08-12T08:48:43.000Z</time>
      </trkpt>
      <trkpt lat="43.20931" lon="0.89619">
        <ele>529</ele>
        <time>2012-08-12T08:48:45.000Z</time>
      </trkpt>
      <trkpt lat="43.20932" lon="0.89626">
        <ele>529</ele>
        <time>2012-08-12T08:48:47.000Z</time>
      </trkpt>
      <trkpt lat="43.20937" lon="0.89633">
        <ele>528</ele>
        <time>2012-08-12T08:48:49.000Z</time>
      </trkpt>
      <trkpt lat="43.20939" lon="0.89639">
        <ele>529</ele>
        <time>2012-08-12T08:48:51.000Z</time>
      </trkpt>
      <trkpt lat="43.2094" lon="0.89647">
        <ele>529</ele>
        <time>2012-08-12T08:48:54.000Z</time>
      </trkpt>
      <trkpt lat="43.2094" lon="0.89658">
        <ele>528</ele>
        <time>2012-08-12T08:48:57.000Z</time>
      </trkpt>
      <trkpt lat="43.20939" lon="0.89666">
        <ele>527</ele>
        <time>2012-08-12T08:49:01.000Z</time>
      </trkpt>
      <trkpt lat="43.20939" lon="0.89675">
        <ele>529</ele>
        <time>2012-08-12T08:49:11.000Z</time>
      </trkpt>
      <trkpt lat="43.20938" lon="0.89683">
        <ele>529</ele>
        <time>2012-08-12T08:49:13.000Z</time>
      </trkpt>
      <trkpt lat="43.20936" lon="0.8969">
        <ele>528</ele>
        <time>2012-08-12T08:49:16.000Z</time>
      </trkpt>
      <trkpt lat="43.20933" lon="0.89696">
        <ele>527</ele>
        <time>2012-08-12T08:49:18.000Z</time>
      </trkpt>
      <trkpt lat="43.20932" lon="0.89703">
        <ele>526</ele>
        <time>2012-08-12T08:49:21.000Z</time>
      </trkpt>
      <trkpt lat="43.20933" lon="0.89709">
        <ele>519</ele>
        <time>2012-08-12T08:49:35.000Z</time>
      </trkpt>
      <trkpt lat="43.20938" lon="0.89708">
        <ele>518</ele>
        <time>2012-08-12T08:49:40.000Z</time>
      </trkpt>
      <trkpt lat="43.20941" lon="0.89702">
        <ele>518</ele>
        <time>2012-08-12T08:49:44.000Z</time>
      </trkpt>
      <trkpt lat="43.20945" lon="0.89696">
        <ele>517</ele>
        <time>2012-08-12T08:49:47.000Z</time>
      </trkpt>
      <trkpt lat="43.20949" lon="0.89691">
        <ele>516</ele>
        <time>2012-08-12T08:49:50.000Z</time>
      </trkpt>
      <trkpt lat="43.20952" lon="0.89687">
        <ele>518</ele>
        <time>2012-08-12T08:50:07.000Z</time>
      </trkpt>
      <trkpt lat="43.20956" lon="0.89683">
        <ele>518</ele>
        <time>2012-08-12T08:50:13.000Z</time>
      </trkpt>
      <trkpt lat="43.2096" lon="0.89686">
        <ele>518</ele>
        <time>2012-08-12T08:50:19.000Z</time>
      </trkpt>
      <trkpt lat="43.20958" lon="0.89692">
        <ele>518</ele>
        <time>2012-08-12T08:50:23.000Z</time>
      </trkpt>
      <trkpt lat="43.20955" lon="0.897">
        <ele>518</ele>
        <time>2012-08-12T08:50:25.000Z</time>
      </trkpt>
      <trkpt lat="43.20955" lon="0.89707">
        <ele>517</ele>
        <time>2012-08-12T08:50:28.000Z</time>
      </trkpt>
      <trkpt lat="43.20959" lon="0.89711">
        <ele>516</ele>
        <time>2012-08-12T08:50:37.000Z</time>
      </trkpt>
      <trkpt lat="43.20963" lon="0.89717">
        <ele>512</ele>
        <time>2012-08-12T08:50:51.000Z</time>
      </trkpt>
      <trkpt lat="43.20969" lon="0.89722">
        <ele>510</ele>
        <time>2012-08-12T08:50:53.000Z</time>
      </trkpt>
      <trkpt lat="43.20973" lon="0.89723">
        <ele>510</ele>
        <time>2012-08-12T08:50:59.000Z</time>
      </trkpt>
      <trkpt lat="43.20978" lon="0.89722">
        <ele>509</ele>
        <time>2012-08-12T08:51:13.000Z</time>
      </trkpt>
      <trkpt lat="43.20982" lon="0.89719">
        <ele>508</ele>
        <time>2012-08-12T08:51:20.000Z</time>
      </trkpt>
      <trkpt lat="43.20988" lon="0.89714">
        <ele>507</ele>
        <time>2012-08-12T08:51:22.000Z</time>
      </trkpt>
      <trkpt lat="43.20988" lon="0.89714">
        <ele>507</ele>
        <time>2012-08-12T08:51:22.000Z</time>
      </trkpt>
      <trkpt lat="43.20988" lon="0.89714">
        <ele>506</ele>
        <time>2012-08-12T08:51:24.000Z</time>
      </trkpt>
      <trkpt lat="43.20992" lon="0.89709">
        <ele>505</ele>
        <time>2012-08-12T08:51:26.000Z</time>
      </trkpt>
      <trkpt lat="43.20999" lon="0.89702">
        <ele>504</ele>
        <time>2012-08-12T08:51:29.000Z</time>
      </trkpt>
      <trkpt lat="43.21003" lon="0.89698">
        <ele>503</ele>
        <time>2012-08-12T08:51:30.000Z</time>
      </trkpt>
      <trkpt lat="43.21008" lon="0.89696">
        <ele>502</ele>
        <time>2012-08-12T08:51:32.000Z</time>
      </trkpt>
      <trkpt lat="43.21015" lon="0.89689">
        <ele>502</ele>
        <time>2012-08-12T08:51:35.000Z</time>
      </trkpt>
      <trkpt lat="43.2102" lon="0.89685">
        <ele>502</ele>
        <time>2012-08-12T08:51:36.000Z</time>
      </trkpt>
      <trkpt lat="43.21025" lon="0.89683">
        <ele>502</ele>
        <time>2012-08-12T08:51:37.000Z</time>
      </trkpt>
      <trkpt lat="43.21032" lon="0.89683">
        <ele>501</ele>
        <time>2012-08-12T08:51:39.000Z</time>
      </trkpt>
      <trkpt lat="43.21036" lon="0.89679">
        <ele>501</ele>
        <time>2012-08-12T08:51:40.000Z</time>
      </trkpt>
      <trkpt lat="43.21042" lon="0.89674">
        <ele>501</ele>
        <time>2012-08-12T08:51:43.000Z</time>
      </trkpt>
      <trkpt lat="43.21046" lon="0.89666">
        <ele>501</ele>
        <time>2012-08-12T08:51:45.000Z</time>
      </trkpt>
      <trkpt lat="43.21047" lon="0.8966">
        <ele>500</ele>
        <time>2012-08-12T08:51:48.000Z</time>
      </trkpt>
      <trkpt lat="43.2105" lon="0.89652">
        <ele>500</ele>
        <time>2012-08-12T08:51:50.000Z</time>
      </trkpt>
      <trkpt lat="43.21054" lon="0.89645">
        <ele>499</ele>
        <time>2012-08-12T08:51:52.000Z</time>
      </trkpt>
      <trkpt lat="43.21059" lon="0.8964">
        <ele>498</ele>
        <time>2012-08-12T08:51:55.000Z</time>
      </trkpt>
      <trkpt lat="43.21063" lon="0.89634">
        <ele>498</ele>
        <time>2012-08-12T08:51:57.000Z</time>
      </trkpt>
      <trkpt lat="43.21066" lon="0.89628">
        <ele>498</ele>
        <time>2012-08-12T08:51:59.000Z</time>
      </trkpt>
      <trkpt lat="43.21069" lon="0.89622">
        <ele>497</ele>
        <time>2012-08-12T08:52:01.000Z</time>
      </trkpt>
      <trkpt lat="43.21073" lon="0.89617">
        <ele>497</ele>
        <time>2012-08-12T08:52:03.000Z</time>
      </trkpt>
      <trkpt lat="43.21079" lon="0.89613">
        <ele>496</ele>
        <time>2012-08-12T08:52:05.000Z</time>
      </trkpt>
      <trkpt lat="43.21085" lon="0.89607">
        <ele>496</ele>
        <time>2012-08-12T08:52:07.000Z</time>
      </trkpt>
      <trkpt lat="43.21089" lon="0.89602">
        <ele>495</ele>
        <time>2012-08-12T08:52:09.000Z</time>
      </trkpt>
      <trkpt lat="43.21095" lon="0.89594">
        <ele>494</ele>
        <time>2012-08-12T08:52:11.000Z</time>
      </trkpt>
      <trkpt lat="43.21098" lon="0.8959">
        <ele>494</ele>
        <time>2012-08-12T08:52:12.000Z</time>
      </trkpt>
      <trkpt lat="43.21102" lon="0.89586">
        <ele>494</ele>
        <time>2012-08-12T08:52:13.000Z</time>
      </trkpt>
      <trkpt lat="43.21108" lon="0.89577">
        <ele>494</ele>
        <time>2012-08-12T08:52:15.000Z</time>
      </trkpt>
      <trkpt lat="43.21111" lon="0.89568">
        <ele>494</ele>
        <time>2012-08-12T08:52:17.000Z</time>
      </trkpt>
      <trkpt lat="43.21115" lon="0.89564">
        <ele>494</ele>
        <time>2012-08-12T08:52:18.000Z</time>
      </trkpt>
      <trkpt lat="43.21118" lon="0.89557">
        <ele>493</ele>
        <time>2012-08-12T08:52:20.000Z</time>
      </trkpt>
      <trkpt lat="43.21121" lon="0.89549">
        <ele>494</ele>
        <time>2012-08-12T08:52:21.000Z</time>
      </trkpt>
      <trkpt lat="43.21125" lon="0.89541">
        <ele>494</ele>
        <time>2012-08-12T08:52:23.000Z</time>
      </trkpt>
      <trkpt lat="43.21128" lon="0.89534">
        <ele>493</ele>
        <time>2012-08-12T08:52:24.000Z</time>
      </trkpt>
      <trkpt lat="43.2113" lon="0.89526">
        <ele>493</ele>
        <time>2012-08-12T08:52:25.000Z</time>
      </trkpt>
      <trkpt lat="43.21133" lon="0.89518">
        <ele>493</ele>
        <time>2012-08-12T08:52:26.000Z</time>
      </trkpt>
      <trkpt lat="43.21136" lon="0.89508">
        <ele>493</ele>
        <time>2012-08-12T08:52:27.000Z</time>
      </trkpt>
      <trkpt lat="43.21139" lon="0.89498">
        <ele>493</ele>
        <time>2012-08-12T08:52:28.000Z</time>
      </trkpt>
      <trkpt lat="43.21143" lon="0.89488">
        <ele>493</ele>
        <time>2012-08-12T08:52:29.000Z</time>
      </trkpt>
      <trkpt lat="43.21147" lon="0.89482">
        <ele>493</ele>
        <time>2012-08-12T08:52:30.000Z</time>
      </trkpt>
      <trkpt lat="43.21151" lon="0.89472">
        <ele>492</ele>
        <time>2012-08-12T08:52:31.000Z</time>
      </trkpt>
      <trkpt lat="43.21155" lon="0.89465">
        <ele>493</ele>
        <time>2012-08-12T08:52:32.000Z</time>
      </trkpt>
      <trkpt lat="43.21157" lon="0.89459">
        <ele>493</ele>
        <time>2012-08-12T08:52:33.000Z</time>
      </trkpt>
      <trkpt lat="43.21158" lon="0.89453">
        <ele>493</ele>
        <time>2012-08-12T08:52:34.000Z</time>
      </trkpt>
      <trkpt lat="43.2116" lon="0.89446">
        <ele>493</ele>
        <time>2012-08-12T08:52:35.000Z</time>
      </trkpt>
      <trkpt lat="43.21162" lon="0.89439">
        <ele>493</ele>
        <time>2012-08-12T08:52:36.000Z</time>
      </trkpt>
      <trkpt lat="43.21164" lon="0.89431">
        <ele>492</ele>
        <time>2012-08-12T08:52:37.000Z</time>
      </trkpt>
      <trkpt lat="43.21165" lon="0.8942">
        <ele>492</ele>
        <time>2012-08-12T08:52:39.000Z</time>
      </trkpt>
      <trkpt lat="43.21167" lon="0.89409">
        <ele>491</ele>
        <time>2012-08-12T08:52:41.000Z</time>
      </trkpt>
      <trkpt lat="43.21172" lon="0.894">
        <ele>492</ele>
        <time>2012-08-12T08:52:42.000Z</time>
      </trkpt>
      <trkpt lat="43.21174" lon="0.89393">
        <ele>492</ele>
        <time>2012-08-12T08:52:43.000Z</time>
      </trkpt>
      <trkpt lat="43.21176" lon="0.89385">
        <ele>493</ele>
        <time>2012-08-12T08:52:44.000Z</time>
      </trkpt>
      <trkpt lat="43.21177" lon="0.89378">
        <ele>493</ele>
        <time>2012-08-12T08:52:45.000Z</time>
      </trkpt>
      <trkpt lat="43.2118" lon="0.89371">
        <ele>493</ele>
        <time>2012-08-12T08:52:46.000Z</time>
      </trkpt>
      <trkpt lat="43.21182" lon="0.8936">
        <ele>493</ele>
        <time>2012-08-12T08:52:47.000Z</time>
      </trkpt>
      <trkpt lat="43.21185" lon="0.89353">
        <ele>493</ele>
        <time>2012-08-12T08:52:48.000Z</time>
      </trkpt>
      <trkpt lat="43.21187" lon="0.89345">
        <ele>493</ele>
        <time>2012-08-12T08:52:49.000Z</time>
      </trkpt>
      <trkpt lat="43.2119" lon="0.89337">
        <ele>493</ele>
        <time>2012-08-12T08:52:50.000Z</time>
      </trkpt>
      <trkpt lat="43.21194" lon="0.89331">
        <ele>493</ele>
        <time>2012-08-12T08:52:51.000Z</time>
      </trkpt>
      <trkpt lat="43.21196" lon="0.89321">
        <ele>493</ele>
        <time>2012-08-12T08:52:52.000Z</time>
      </trkpt>
      <trkpt lat="43.21198" lon="0.89312">
        <ele>492</ele>
        <time>2012-08-12T08:52:53.000Z</time>
      </trkpt>
      <trkpt lat="43.21201" lon="0.89304">
        <ele>492</ele>
        <time>2012-08-12T08:52:54.000Z</time>
      </trkpt>
      <trkpt lat="43.21205" lon="0.89293">
        <ele>491</ele>
        <time>2012-08-12T08:52:55.000Z</time>
      </trkpt>
      <trkpt lat="43.21208" lon="0.89283">
        <ele>491</ele>
        <time>2012-08-12T08:52:56.000Z</time>
      </trkpt>
      <trkpt lat="43.21213" lon="0.89274">
        <ele>491</ele>
        <time>2012-08-12T08:52:57.000Z</time>
      </trkpt>
      <trkpt lat="43.21216" lon="0.89262">
        <ele>491</ele>
        <time>2012-08-12T08:52:58.000Z</time>
      </trkpt>
      <trkpt lat="43.21218" lon="0.89253">
        <ele>491</ele>
        <time>2012-08-12T08:52:59.000Z</time>
      </trkpt>
      <trkpt lat="43.21224" lon="0.89233">
        <ele>490</ele>
        <time>2012-08-12T08:53:01.000Z</time>
      </trkpt>
      <trkpt lat="43.21228" lon="0.89223">
        <ele>489</ele>
        <time>2012-08-12T08:53:02.000Z</time>
      </trkpt>
      <trkpt lat="43.2123" lon="0.89211">
        <ele>489</ele>
        <time>2012-08-12T08:53:03.000Z</time>
      </trkpt>
      <trkpt lat="43.21232" lon="0.89201">
        <ele>489</ele>
        <time>2012-08-12T08:53:04.000Z</time>
      </trkpt>
      <trkpt lat="43.21234" lon="0.8919">
        <ele>488</ele>
        <time>2012-08-12T08:53:05.000Z</time>
      </trkpt>
      <trkpt lat="43.21238" lon="0.89178">
        <ele>487</ele>
        <time>2012-08-12T08:53:06.000Z</time>
      </trkpt>
      <trkpt lat="43.21244" lon="0.89162">
        <ele>485</ele>
        <time>2012-08-12T08:53:07.000Z</time>
      </trkpt>
      <trkpt lat="43.21248" lon="0.8915">
        <ele>484</ele>
        <time>2012-08-12T08:53:08.000Z</time>
      </trkpt>
      <trkpt lat="43.21251" lon="0.89142">
        <ele>484</ele>
        <time>2012-08-12T08:53:09.000Z</time>
      </trkpt>
      <trkpt lat="43.21252" lon="0.89132">
        <ele>484</ele>
        <time>2012-08-12T08:53:10.000Z</time>
      </trkpt>
      <trkpt lat="43.21258" lon="0.89122">
        <ele>482</ele>
        <time>2012-08-12T08:53:11.000Z</time>
      </trkpt>
      <trkpt lat="43.21261" lon="0.89111">
        <ele>481</ele>
        <time>2012-08-12T08:53:12.000Z</time>
      </trkpt>
      <trkpt lat="43.21264" lon="0.89103">
        <ele>480</ele>
        <time>2012-08-12T08:53:13.000Z</time>
      </trkpt>
      <trkpt lat="43.21268" lon="0.89096">
        <ele>480</ele>
        <time>2012-08-12T08:53:14.000Z</time>
      </trkpt>
      <trkpt lat="43.2127" lon="0.8909">
        <ele>479</ele>
        <time>2012-08-12T08:53:15.000Z</time>
      </trkpt>
      <trkpt lat="43.21273" lon="0.89082">
        <ele>477</ele>
        <time>2012-08-12T08:53:17.000Z</time>
      </trkpt>
      <trkpt lat="43.21273" lon="0.89074">
        <ele>476</ele>
        <time>2012-08-12T08:53:20.000Z</time>
      </trkpt>
      <trkpt lat="43.21275" lon="0.89066">
        <ele>476</ele>
        <time>2012-08-12T08:53:23.000Z</time>
      </trkpt>
      <trkpt lat="43.21277" lon="0.89059">
        <ele>476</ele>
        <time>2012-08-12T08:53:25.000Z</time>
      </trkpt>
      <trkpt lat="43.2128" lon="0.89051">
        <ele>477</ele>
        <time>2012-08-12T08:53:27.000Z</time>
      </trkpt>
      <trkpt lat="43.21278" lon="0.89045">
        <ele>476</ele>
        <time>2012-08-12T08:53:30.000Z</time>
      </trkpt>
      <trkpt lat="43.2128" lon="0.89039">
        <ele>474</ele>
        <time>2012-08-12T08:53:35.000Z</time>
      </trkpt>
      <trkpt lat="43.21281" lon="0.89032">
        <ele>475</ele>
        <time>2012-08-12T08:53:38.000Z</time>
      </trkpt>
      <trkpt lat="43.21283" lon="0.89024">
        <ele>475</ele>
        <time>2012-08-12T08:53:42.000Z</time>
      </trkpt>
      <trkpt lat="43.21282" lon="0.89017">
        <ele>473</ele>
        <time>2012-08-12T08:53:45.000Z</time>
      </trkpt>
      <trkpt lat="43.21283" lon="0.89009">
        <ele>471</ele>
        <time>2012-08-12T08:53:48.000Z</time>
      </trkpt>
      <trkpt lat="43.2128" lon="0.89004">
        <ele>470</ele>
        <time>2012-08-12T08:53:52.000Z</time>
      </trkpt>
      <trkpt lat="43.21281" lon="0.88997">
        <ele>471</ele>
        <time>2012-08-12T08:54:03.000Z</time>
      </trkpt>
      <trkpt lat="43.21282" lon="0.88991">
        <ele>472</ele>
        <time>2012-08-12T08:54:09.000Z</time>
      </trkpt>
      <trkpt lat="43.21282" lon="0.88984">
        <ele>473</ele>
        <time>2012-08-12T08:54:15.000Z</time>
      </trkpt>
      <trkpt lat="43.21283" lon="0.88974">
        <ele>473</ele>
        <time>2012-08-12T08:54:19.000Z</time>
      </trkpt>
      <trkpt lat="43.21286" lon="0.88968">
        <ele>473</ele>
        <time>2012-08-12T08:54:24.000Z</time>
      </trkpt>
      <trkpt lat="43.21287" lon="0.88961">
        <ele>473</ele>
        <time>2012-08-12T08:54:27.000Z</time>
      </trkpt>
      <trkpt lat="43.21291" lon="0.88956">
        <ele>474</ele>
        <time>2012-08-12T08:54:30.000Z</time>
      </trkpt>
      <trkpt lat="43.21294" lon="0.88951">
        <ele>475</ele>
        <time>2012-08-12T08:54:34.000Z</time>
      </trkpt>
      <trkpt lat="43.21295" lon="0.88943">
        <ele>475</ele>
        <time>2012-08-12T08:54:38.000Z</time>
      </trkpt>
      <trkpt lat="43.21297" lon="0.88936">
        <ele>475</ele>
        <time>2012-08-12T08:54:41.000Z</time>
      </trkpt>
      <trkpt lat="43.21297" lon="0.88936">
        <ele>475</ele>
        <time>2012-08-12T08:54:41.000Z</time>
      </trkpt>
      <trkpt lat="43.21297" lon="0.88936">
        <ele>475</ele>
        <time>2012-08-12T08:54:42.000Z</time>
      </trkpt>
      <trkpt lat="43.21302" lon="0.8893">
        <ele>476</ele>
        <time>2012-08-12T08:54:47.000Z</time>
      </trkpt>
      <trkpt lat="43.21303" lon="0.88923">
        <ele>474</ele>
        <time>2012-08-12T08:54:56.000Z</time>
      </trkpt>
      <trkpt lat="43.21305" lon="0.88917">
        <ele>473</ele>
        <time>2012-08-12T08:54:59.000Z</time>
      </trkpt>
      <trkpt lat="43.21307" lon="0.88911">
        <ele>474</ele>
        <time>2012-08-12T08:55:12.000Z</time>
      </trkpt>
      <trkpt lat="43.21313" lon="0.88907">
        <ele>476</ele>
        <time>2012-08-12T08:55:16.000Z</time>
      </trkpt>
      <trkpt lat="43.21317" lon="0.88901">
        <ele>479</ele>
        <time>2012-08-12T08:55:18.000Z</time>
      </trkpt>
      <trkpt lat="43.2132" lon="0.88895">
        <ele>480</ele>
        <time>2012-08-12T08:55:21.000Z</time>
      </trkpt>
      <trkpt lat="43.21323" lon="0.88889">
        <ele>481</ele>
        <time>2012-08-12T08:55:25.000Z</time>
      </trkpt>
      <trkpt lat="43.21326" lon="0.88882">
        <ele>481</ele>
        <time>2012-08-12T08:55:29.000Z</time>
      </trkpt>
      <trkpt lat="43.21327" lon="0.88876">
        <ele>481</ele>
        <time>2012-08-12T08:55:32.000Z</time>
      </trkpt>
      <trkpt lat="43.21329" lon="0.88868">
        <ele>481</ele>
        <time>2012-08-12T08:55:35.000Z</time>
      </trkpt>
      <trkpt lat="43.21329" lon="0.88858">
        <ele>479</ele>
        <time>2012-08-12T08:55:37.000Z</time>
      </trkpt>
      <trkpt lat="43.21328" lon="0.88851">
        <ele>479</ele>
        <time>2012-08-12T08:55:38.000Z</time>
      </trkpt>
      <trkpt lat="43.21326" lon="0.88842">
        <ele>479</ele>
        <time>2012-08-12T08:55:40.000Z</time>
      </trkpt>
      <trkpt lat="43.21323" lon="0.88832">
        <ele>477</ele>
        <time>2012-08-12T08:55:42.000Z</time>
      </trkpt>
      <trkpt lat="43.2132" lon="0.88822">
        <ele>477</ele>
        <time>2012-08-12T08:55:44.000Z</time>
      </trkpt>
      <trkpt lat="43.21317" lon="0.88813">
        <ele>476</ele>
        <time>2012-08-12T08:55:46.000Z</time>
      </trkpt>
      <trkpt lat="43.21313" lon="0.88804">
        <ele>475</ele>
        <time>2012-08-12T08:55:48.000Z</time>
      </trkpt>
      <trkpt lat="43.2131" lon="0.88794">
        <ele>474</ele>
        <time>2012-08-12T08:55:50.000Z</time>
      </trkpt>
      <trkpt lat="43.21307" lon="0.88784">
        <ele>472</ele>
        <time>2012-08-12T08:55:52.000Z</time>
      </trkpt>
      <trkpt lat="43.21307" lon="0.88775">
        <ele>472</ele>
        <time>2012-08-12T08:55:54.000Z</time>
      </trkpt>
      <trkpt lat="43.21311" lon="0.88767">
        <ele>472</ele>
        <time>2012-08-12T08:55:56.000Z</time>
      </trkpt>
      <trkpt lat="43.2132" lon="0.88761">
        <ele>473</ele>
        <time>2012-08-12T08:55:58.000Z</time>
      </trkpt>
      <trkpt lat="43.21326" lon="0.88758">
        <ele>473</ele>
        <time>2012-08-12T08:55:59.000Z</time>
      </trkpt>
      <trkpt lat="43.21331" lon="0.88755">
        <ele>473</ele>
        <time>2012-08-12T08:56:00.000Z</time>
      </trkpt>
      <trkpt lat="43.21336" lon="0.88753">
        <ele>473</ele>
        <time>2012-08-12T08:56:01.000Z</time>
      </trkpt>
      <trkpt lat="43.21342" lon="0.88748">
        <ele>472</ele>
        <time>2012-08-12T08:56:02.000Z</time>
      </trkpt>
      <trkpt lat="43.21348" lon="0.88744">
        <ele>472</ele>
        <time>2012-08-12T08:56:03.000Z</time>
      </trkpt>
      <trkpt lat="43.21354" lon="0.8874">
        <ele>472</ele>
        <time>2012-08-12T08:56:04.000Z</time>
      </trkpt>
      <trkpt lat="43.21359" lon="0.88736">
        <ele>472</ele>
        <time>2012-08-12T08:56:05.000Z</time>
      </trkpt>
      <trkpt lat="43.21364" lon="0.88731">
        <ele>472</ele>
        <time>2012-08-12T08:56:06.000Z</time>
      </trkpt>
      <trkpt lat="43.21369" lon="0.88726">
        <ele>471</ele>
        <time>2012-08-12T08:56:07.000Z</time>
      </trkpt>
      <trkpt lat="43.21373" lon="0.8872">
        <ele>471</ele>
        <time>2012-08-12T08:56:08.000Z</time>
      </trkpt>
      <trkpt lat="43.21378" lon="0.88716">
        <ele>471</ele>
        <time>2012-08-12T08:56:09.000Z</time>
      </trkpt>
      <trkpt lat="43.21382" lon="0.88713">
        <ele>470</ele>
        <time>2012-08-12T08:56:10.000Z</time>
      </trkpt>
      <trkpt lat="43.21386" lon="0.88709">
        <ele>470</ele>
        <time>2012-08-12T08:56:11.000Z</time>
      </trkpt>
      <trkpt lat="43.21392" lon="0.88704">
        <ele>470</ele>
        <time>2012-08-12T08:56:13.000Z</time>
      </trkpt>
      <trkpt lat="43.21398" lon="0.88697">
        <ele>470</ele>
        <time>2012-08-12T08:56:15.000Z</time>
      </trkpt>
      <trkpt lat="43.21402" lon="0.88693">
        <ele>469</ele>
        <time>2012-08-12T08:56:16.000Z</time>
      </trkpt>
      <trkpt lat="43.21407" lon="0.88688">
        <ele>469</ele>
        <time>2012-08-12T08:56:17.000Z</time>
      </trkpt>
      <trkpt lat="43.21413" lon="0.88682">
        <ele>469</ele>
        <time>2012-08-12T08:56:19.000Z</time>
      </trkpt>
      <trkpt lat="43.21417" lon="0.88678">
        <ele>470</ele>
        <time>2012-08-12T08:56:21.000Z</time>
      </trkpt>
      <trkpt lat="43.21421" lon="0.88674">
        <ele>469</ele>
        <time>2012-08-12T08:56:23.000Z</time>
      </trkpt>
      <trkpt lat="43.21426" lon="0.8867">
        <ele>469</ele>
        <time>2012-08-12T08:56:26.000Z</time>
      </trkpt>
      <trkpt lat="43.21431" lon="0.88664">
        <ele>470</ele>
        <time>2012-08-12T08:56:34.000Z</time>
      </trkpt>
      <trkpt lat="43.21434" lon="0.88656">
        <ele>469</ele>
        <time>2012-08-12T08:58:43.000Z</time>
      </trkpt>
      <trkpt lat="43.21436" lon="0.8865">
        <ele>469</ele>
        <time>2012-08-12T08:58:45.000Z</time>
      </trkpt>
      <trkpt lat="43.2144" lon="0.88644">
        <ele>469</ele>
        <time>2012-08-12T08:58:46.000Z</time>
      </trkpt>
      <trkpt lat="43.21445" lon="0.88638">
        <ele>470</ele>
        <time>2012-08-12T08:58:47.000Z</time>
      </trkpt>
      <trkpt lat="43.21448" lon="0.88634">
        <ele>469</ele>
        <time>2012-08-12T08:58:48.000Z</time>
      </trkpt>
      <trkpt lat="43.21457" lon="0.88622">
        <ele>465</ele>
        <time>2012-08-12T08:58:50.000Z</time>
      </trkpt>
      <trkpt lat="43.21462" lon="0.8861">
        <ele>462</ele>
        <time>2012-08-12T08:58:52.000Z</time>
      </trkpt>
      <trkpt lat="43.21466" lon="0.88604">
        <ele>460</ele>
        <time>2012-08-12T08:58:53.000Z</time>
      </trkpt>
      <trkpt lat="43.2147" lon="0.88598">
        <ele>459</ele>
        <time>2012-08-12T08:58:54.000Z</time>
      </trkpt>
      <trkpt lat="43.21474" lon="0.88591">
        <ele>459</ele>
        <time>2012-08-12T08:58:55.000Z</time>
      </trkpt>
      <trkpt lat="43.21478" lon="0.88586">
        <ele>459</ele>
        <time>2012-08-12T08:58:56.000Z</time>
      </trkpt>
      <trkpt lat="43.2148" lon="0.8858">
        <ele>458</ele>
        <time>2012-08-12T08:58:57.000Z</time>
      </trkpt>
      <trkpt lat="43.21482" lon="0.88574">
        <ele>457</ele>
        <time>2012-08-12T08:58:58.000Z</time>
      </trkpt>
      <trkpt lat="43.21486" lon="0.88558">
        <ele>456</ele>
        <time>2012-08-12T08:59:01.000Z</time>
      </trkpt>
      <trkpt lat="43.21489" lon="0.88549">
        <ele>456</ele>
        <time>2012-08-12T08:59:03.000Z</time>
      </trkpt>
      <trkpt lat="43.21492" lon="0.88543">
        <ele>455</ele>
        <time>2012-08-12T08:59:04.000Z</time>
      </trkpt>
      <trkpt lat="43.21497" lon="0.88535">
        <ele>453</ele>
        <time>2012-08-12T08:59:05.000Z</time>
      </trkpt>
      <trkpt lat="43.21499" lon="0.88529">
        <ele>452</ele>
        <time>2012-08-12T08:59:06.000Z</time>
      </trkpt>
      <trkpt lat="43.21502" lon="0.88522">
        <ele>451</ele>
        <time>2012-08-12T08:59:07.000Z</time>
      </trkpt>
      <trkpt lat="43.21505" lon="0.88517">
        <ele>451</ele>
        <time>2012-08-12T08:59:08.000Z</time>
      </trkpt>
      <trkpt lat="43.2151" lon="0.88506">
        <ele>449</ele>
        <time>2012-08-12T08:59:10.000Z</time>
      </trkpt>
      <trkpt lat="43.21513" lon="0.88501">
        <ele>447</ele>
        <time>2012-08-12T08:59:11.000Z</time>
      </trkpt>
      <trkpt lat="43.21517" lon="0.88496">
        <ele>447</ele>
        <time>2012-08-12T08:59:12.000Z</time>
      </trkpt>
      <trkpt lat="43.21522" lon="0.88489">
        <ele>446</ele>
        <time>2012-08-12T08:59:14.000Z</time>
      </trkpt>
      <trkpt lat="43.21527" lon="0.88481">
        <ele>444</ele>
        <time>2012-08-12T08:59:16.000Z</time>
      </trkpt>
      <trkpt lat="43.21532" lon="0.88477">
        <ele>442</ele>
        <time>2012-08-12T08:59:18.000Z</time>
      </trkpt>
      <trkpt lat="43.21538" lon="0.88469">
        <ele>441</ele>
        <time>2012-08-12T08:59:20.000Z</time>
      </trkpt>
      <trkpt lat="43.21541" lon="0.88464">
        <ele>440</ele>
        <time>2012-08-12T08:59:22.000Z</time>
      </trkpt>
      <trkpt lat="43.21544" lon="0.88455">
        <ele>437</ele>
        <time>2012-08-12T08:59:26.000Z</time>
      </trkpt>
      <trkpt lat="43.21548" lon="0.88447">
        <ele>437</ele>
        <time>2012-08-12T08:59:28.000Z</time>
      </trkpt>
      <trkpt lat="43.21551" lon="0.88442">
        <ele>437</ele>
        <time>2012-08-12T08:59:30.000Z</time>
      </trkpt>
      <trkpt lat="43.21554" lon="0.88436">
        <ele>437</ele>
        <time>2012-08-12T08:59:32.000Z</time>
      </trkpt>
      <trkpt lat="43.21557" lon="0.8843">
        <ele>437</ele>
        <time>2012-08-12T08:59:34.000Z</time>
      </trkpt>
      <trkpt lat="43.21561" lon="0.88425">
        <ele>437</ele>
        <time>2012-08-12T08:59:36.000Z</time>
      </trkpt>
      <trkpt lat="43.21564" lon="0.8842">
        <ele>437</ele>
        <time>2012-08-12T08:59:38.000Z</time>
      </trkpt>
      <trkpt lat="43.21568" lon="0.88414">
        <ele>437</ele>
        <time>2012-08-12T08:59:40.000Z</time>
      </trkpt>
      <trkpt lat="43.21569" lon="0.88407">
        <ele>437</ele>
        <time>2012-08-12T08:59:41.000Z</time>
      </trkpt>
      <trkpt lat="43.21571" lon="0.884">
        <ele>437</ele>
        <time>2012-08-12T08:59:43.000Z</time>
      </trkpt>
      <trkpt lat="43.21575" lon="0.88395">
        <ele>437</ele>
        <time>2012-08-12T08:59:45.000Z</time>
      </trkpt>
      <trkpt lat="43.21579" lon="0.88388">
        <ele>437</ele>
        <time>2012-08-12T08:59:48.000Z</time>
      </trkpt>
      <trkpt lat="43.21583" lon="0.88379">
        <ele>437</ele>
        <time>2012-08-12T08:59:50.000Z</time>
      </trkpt>
      <trkpt lat="43.21586" lon="0.88374">
        <ele>437</ele>
        <time>2012-08-12T08:59:52.000Z</time>
      </trkpt>
      <trkpt lat="43.2159" lon="0.88369">
        <ele>438</ele>
        <time>2012-08-12T08:59:54.000Z</time>
      </trkpt>
      <trkpt lat="43.21593" lon="0.8836">
        <ele>438</ele>
        <time>2012-08-12T08:59:56.000Z</time>
      </trkpt>
      <trkpt lat="43.216" lon="0.88348">
        <ele>438</ele>
        <time>2012-08-12T09:00:01.000Z</time>
      </trkpt>
      <trkpt lat="43.21604" lon="0.88341">
        <ele>439</ele>
        <time>2012-08-12T09:00:03.000Z</time>
      </trkpt>
      <trkpt lat="43.21608" lon="0.88338">
        <ele>437</ele>
        <time>2012-08-12T09:00:05.000Z</time>
      </trkpt>
      <trkpt lat="43.21614" lon="0.88337">
        <ele>436</ele>
        <time>2012-08-12T09:00:21.000Z</time>
      </trkpt>
      <trkpt lat="43.2162" lon="0.88332">
        <ele>437</ele>
        <time>2012-08-12T09:00:24.000Z</time>
      </trkpt>
      <trkpt lat="43.21624" lon="0.88326">
        <ele>436</ele>
        <time>2012-08-12T09:00:25.000Z</time>
      </trkpt>
      <trkpt lat="43.21629" lon="0.8832">
        <ele>438</ele>
        <time>2012-08-12T09:00:27.000Z</time>
      </trkpt>
      <trkpt lat="43.21634" lon="0.88314">
        <ele>438</ele>
        <time>2012-08-12T09:00:29.000Z</time>
      </trkpt>
      <trkpt lat="43.21638" lon="0.88308">
        <ele>438</ele>
        <time>2012-08-12T09:00:31.000Z</time>
      </trkpt>
      <trkpt lat="43.21642" lon="0.88304">
        <ele>438</ele>
        <time>2012-08-12T09:00:33.000Z</time>
      </trkpt>
      <trkpt lat="43.21646" lon="0.883">
        <ele>439</ele>
        <time>2012-08-12T09:00:35.000Z</time>
      </trkpt>
      <trkpt lat="43.21652" lon="0.88294">
        <ele>439</ele>
        <time>2012-08-12T09:00:38.000Z</time>
      </trkpt>
      <trkpt lat="43.21658" lon="0.88288">
        <ele>440</ele>
        <time>2012-08-12T09:00:40.000Z</time>
      </trkpt>
      <trkpt lat="43.21663" lon="0.88284">
        <ele>440</ele>
        <time>2012-08-12T09:00:42.000Z</time>
      </trkpt>
      <trkpt lat="43.21668" lon="0.88282">
        <ele>441</ele>
        <time>2012-08-12T09:00:45.000Z</time>
      </trkpt>
      <trkpt lat="43.21673" lon="0.88278">
        <ele>441</ele>
        <time>2012-08-12T09:00:47.000Z</time>
      </trkpt>
      <trkpt lat="43.21678" lon="0.88274">
        <ele>441</ele>
        <time>2012-08-12T09:00:49.000Z</time>
      </trkpt>
      <trkpt lat="43.21684" lon="0.88264">
        <ele>442</ele>
        <time>2012-08-12T09:00:51.000Z</time>
      </trkpt>
      <trkpt lat="43.21688" lon="0.88255">
        <ele>442</ele>
        <time>2012-08-12T09:00:53.000Z</time>
      </trkpt>
      <trkpt lat="43.21694" lon="0.88241">
        <ele>442</ele>
        <time>2012-08-12T09:00:55.000Z</time>
      </trkpt>
      <trkpt lat="43.21696" lon="0.88236">
        <ele>442</ele>
        <time>2012-08-12T09:00:56.000Z</time>
      </trkpt>
      <trkpt lat="43.217" lon="0.88231">
        <ele>442</ele>
        <time>2012-08-12T09:00:57.000Z</time>
      </trkpt>
      <trkpt lat="43.21704" lon="0.88223">
        <ele>442</ele>
        <time>2012-08-12T09:00:58.000Z</time>
      </trkpt>
      <trkpt lat="43.2171" lon="0.88208">
        <ele>442</ele>
        <time>2012-08-12T09:01:01.000Z</time>
      </trkpt>
      <trkpt lat="43.21716" lon="0.882">
        <ele>443</ele>
        <time>2012-08-12T09:01:04.000Z</time>
      </trkpt>
      <trkpt lat="43.2172" lon="0.88192">
        <ele>443</ele>
        <time>2012-08-12T09:01:06.000Z</time>
      </trkpt>
      <trkpt lat="43.21723" lon="0.88186">
        <ele>444</ele>
        <time>2012-08-12T09:01:07.000Z</time>
      </trkpt>
      <trkpt lat="43.21724" lon="0.88179">
        <ele>444</ele>
        <time>2012-08-12T09:01:08.000Z</time>
      </trkpt>
      <trkpt lat="43.21728" lon="0.88171">
        <ele>445</ele>
        <time>2012-08-12T09:01:10.000Z</time>
      </trkpt>
      <trkpt lat="43.21731" lon="0.88162">
        <ele>446</ele>
        <time>2012-08-12T09:01:13.000Z</time>
      </trkpt>
      <trkpt lat="43.21736" lon="0.88155">
        <ele>450</ele>
        <time>2012-08-12T09:01:15.000Z</time>
      </trkpt>
      <trkpt lat="43.21742" lon="0.88149">
        <ele>451</ele>
        <time>2012-08-12T09:01:17.000Z</time>
      </trkpt>
      <trkpt lat="43.21748" lon="0.88145">
        <ele>451</ele>
        <time>2012-08-12T09:01:19.000Z</time>
      </trkpt>
      <trkpt lat="43.21752" lon="0.8814">
        <ele>451</ele>
        <time>2012-08-12T09:01:21.000Z</time>
      </trkpt>
      <trkpt lat="43.21757" lon="0.88138">
        <ele>451</ele>
        <time>2012-08-12T09:01:23.000Z</time>
      </trkpt>
      <trkpt lat="43.21761" lon="0.88136">
        <ele>451</ele>
        <time>2012-08-12T09:01:25.000Z</time>
      </trkpt>
      <trkpt lat="43.21767" lon="0.88134">
        <ele>451</ele>
        <time>2012-08-12T09:01:27.000Z</time>
      </trkpt>
      <trkpt lat="43.21772" lon="0.88131">
        <ele>450</ele>
        <time>2012-08-12T09:01:29.000Z</time>
      </trkpt>
      <trkpt lat="43.21776" lon="0.88129">
        <ele>450</ele>
        <time>2012-08-12T09:01:30.000Z</time>
      </trkpt>
      <trkpt lat="43.21782" lon="0.88126">
        <ele>451</ele>
        <time>2012-08-12T09:01:32.000Z</time>
      </trkpt>
      <trkpt lat="43.21786" lon="0.88122">
        <ele>451</ele>
        <time>2012-08-12T09:01:34.000Z</time>
      </trkpt>
      <trkpt lat="43.21792" lon="0.88116">
        <ele>451</ele>
        <time>2012-08-12T09:01:37.000Z</time>
      </trkpt>
      <trkpt lat="43.21796" lon="0.88112">
        <ele>451</ele>
        <time>2012-08-12T09:01:39.000Z</time>
      </trkpt>
      <trkpt lat="43.21801" lon="0.88108">
        <ele>451</ele>
        <time>2012-08-12T09:01:42.000Z</time>
      </trkpt>
      <trkpt lat="43.21805" lon="0.88101">
        <ele>451</ele>
        <time>2012-08-12T09:01:44.000Z</time>
      </trkpt>
      <trkpt lat="43.21809" lon="0.88096">
        <ele>451</ele>
        <time>2012-08-12T09:01:46.000Z</time>
      </trkpt>
      <trkpt lat="43.21812" lon="0.88091">
        <ele>451</ele>
        <time>2012-08-12T09:01:47.000Z</time>
      </trkpt>
      <trkpt lat="43.21819" lon="0.88087">
        <ele>451</ele>
        <time>2012-08-12T09:01:49.000Z</time>
      </trkpt>
      <trkpt lat="43.21822" lon="0.88083">
        <ele>451</ele>
        <time>2012-08-12T09:01:50.000Z</time>
      </trkpt>
      <trkpt lat="43.21826" lon="0.88078">
        <ele>450</ele>
        <time>2012-08-12T09:01:51.000Z</time>
      </trkpt>
      <trkpt lat="43.21831" lon="0.8807">
        <ele>451</ele>
        <time>2012-08-12T09:01:53.000Z</time>
      </trkpt>
      <trkpt lat="43.21836" lon="0.88064">
        <ele>451</ele>
        <time>2012-08-12T09:01:55.000Z</time>
      </trkpt>
      <trkpt lat="43.21842" lon="0.88059">
        <ele>451</ele>
        <time>2012-08-12T09:01:57.000Z</time>
      </trkpt>
      <trkpt lat="43.21845" lon="0.88054">
        <ele>451</ele>
        <time>2012-08-12T09:01:59.000Z</time>
      </trkpt>
      <trkpt lat="43.21849" lon="0.88048">
        <ele>452</ele>
        <time>2012-08-12T09:02:01.000Z</time>
      </trkpt>
      <trkpt lat="43.21853" lon="0.88045">
        <ele>454</ele>
        <time>2012-08-12T09:02:04.000Z</time>
      </trkpt>
      <trkpt lat="43.21858" lon="0.88041">
        <ele>455</ele>
        <time>2012-08-12T09:02:06.000Z</time>
      </trkpt>
      <trkpt lat="43.21862" lon="0.88035">
        <ele>456</ele>
        <time>2012-08-12T09:02:08.000Z</time>
      </trkpt>
      <trkpt lat="43.21867" lon="0.88029">
        <ele>457</ele>
        <time>2012-08-12T09:02:11.000Z</time>
      </trkpt>
      <trkpt lat="43.21871" lon="0.88025">
        <ele>458</ele>
        <time>2012-08-12T09:02:14.000Z</time>
      </trkpt>
      <trkpt lat="43.21872" lon="0.88017">
        <ele>458</ele>
        <time>2012-08-12T09:02:16.000Z</time>
      </trkpt>
      <trkpt lat="43.21874" lon="0.8801">
        <ele>457</ele>
        <time>2012-08-12T09:02:18.000Z</time>
      </trkpt>
      <trkpt lat="43.21878" lon="0.88004">
        <ele>456</ele>
        <time>2012-08-12T09:02:20.000Z</time>
      </trkpt>
      <trkpt lat="43.21883" lon="0.87997">
        <ele>456</ele>
        <time>2012-08-12T09:02:22.000Z</time>
      </trkpt>
      <trkpt lat="43.21888" lon="0.8799">
        <ele>455</ele>
        <time>2012-08-12T09:02:24.000Z</time>
      </trkpt>
      <trkpt lat="43.21894" lon="0.87985">
        <ele>456</ele>
        <time>2012-08-12T09:02:27.000Z</time>
      </trkpt>
      <trkpt lat="43.21898" lon="0.8798">
        <ele>457</ele>
        <time>2012-08-12T09:02:30.000Z</time>
      </trkpt>
      <trkpt lat="43.21901" lon="0.8797">
        <ele>457</ele>
        <time>2012-08-12T09:02:33.000Z</time>
      </trkpt>
      <trkpt lat="43.21902" lon="0.87964">
        <ele>456</ele>
        <time>2012-08-12T09:02:35.000Z</time>
      </trkpt>
      <trkpt lat="43.21903" lon="0.87955">
        <ele>455</ele>
        <time>2012-08-12T09:02:37.000Z</time>
      </trkpt>
      <trkpt lat="43.21904" lon="0.87946">
        <ele>455</ele>
        <time>2012-08-12T09:02:39.000Z</time>
      </trkpt>
      <trkpt lat="43.21907" lon="0.87941">
        <ele>458</ele>
        <time>2012-08-12T09:02:44.000Z</time>
      </trkpt>
      <trkpt lat="43.21907" lon="0.87941">
        <ele>458</ele>
        <time>2012-08-12T09:02:44.000Z</time>
      </trkpt>
      <trkpt lat="43.21907" lon="0.87941">
        <ele>458</ele>
        <time>2012-08-12T09:03:06.000Z</time>
      </trkpt>
      <trkpt lat="43.21911" lon="0.87939">
        <ele>455</ele>
        <time>2012-08-12T09:03:52.000Z</time>
      </trkpt>
      <trkpt lat="43.21911" lon="0.87939">
        <ele>455</ele>
        <time>2012-08-12T09:03:52.000Z</time>
      </trkpt>
    </trkseg>
  </trk>
</gpx>